<?xml version="1.0" encoding="UTF-8" standalone="no" ?>
<gpx xmlns="http://www.topografix.com/GPX/1/1" xmlns:xsi="http://www.w3.org/2001/XMLSchema-instance" xsi:schemaLocation="http://www.topografix.com/GPX/1/1 http://www.topografix.com/GPX/1/1/gpx.xsd" version="1.1" creator="VisuGPX - https://www.visugpx.com">
  <metadata>
    <name>005SG73-8041905</name>
    <desc><![CDATA[
01]]></desc>
  </metadata>
  <trk>
    <name><![CDATA[005SG73-8041905]]></name>
    <trkseg>
      <trkpt lat="46.69915" lon="-1.93383">
        <ele>4</ele>
        <time>2018-01-06T21:15:08Z</time>
      </trkpt>
      <trkpt lat="46.69922" lon="-1.93383">
        <ele>4</ele>
        <time>2018-01-06T21:16:08Z</time>
      </trkpt>
      <trkpt lat="46.69925" lon="-1.93383">
        <ele>4</ele>
        <time>2018-01-06T21:17:08Z</time>
      </trkpt>
      <trkpt lat="46.69935" lon="-1.93382">
        <ele>4</ele>
        <time>2018-01-06T21:18:08Z</time>
      </trkpt>
      <trkpt lat="46.69944" lon="-1.93381">
        <ele>4</ele>
        <time>2018-01-06T21:19:08Z</time>
      </trkpt>
      <trkpt lat="46.69949" lon="-1.93379">
        <ele>4</ele>
        <time>2018-01-06T21:20:08Z</time>
      </trkpt>
      <trkpt lat="46.69953" lon="-1.93377">
        <ele>4</ele>
        <time>2018-01-06T21:21:08Z</time>
      </trkpt>
      <trkpt lat="46.69958" lon="-1.93375">
        <ele>4</ele>
        <time>2018-01-06T21:22:08Z</time>
      </trkpt>
      <trkpt lat="46.69963" lon="-1.93373">
        <ele>4</ele>
        <time>2018-01-06T21:23:08Z</time>
      </trkpt>
      <trkpt lat="46.69969" lon="-1.9337">
        <ele>4</ele>
        <time>2018-01-06T21:24:08Z</time>
      </trkpt>
      <trkpt lat="46.69973" lon="-1.93367">
        <ele>4</ele>
        <time>2018-01-06T21:25:08Z</time>
      </trkpt>
      <trkpt lat="46.69976" lon="-1.93367">
        <ele>4</ele>
        <time>2018-01-06T21:26:08Z</time>
      </trkpt>
      <trkpt lat="46.69978" lon="-1.93366">
        <ele>3</ele>
        <time>2018-01-06T21:27:08Z</time>
      </trkpt>
      <trkpt lat="46.69979" lon="-1.93366">
        <ele>3</ele>
        <time>2018-01-06T21:28:08Z</time>
      </trkpt>
      <trkpt lat="46.69982" lon="-1.93367">
        <ele>3</ele>
        <time>2018-01-06T21:29:08Z</time>
      </trkpt>
      <trkpt lat="46.69987" lon="-1.93369">
        <ele>3</ele>
        <time>2018-01-06T21:30:08Z</time>
      </trkpt>
      <trkpt lat="46.70002" lon="-1.93375">
        <ele>3</ele>
        <time>2018-01-06T21:31:08Z</time>
      </trkpt>
      <trkpt lat="46.70015" lon="-1.9338">
        <ele>3</ele>
        <time>2018-01-06T21:32:08Z</time>
      </trkpt>
      <trkpt lat="46.7002" lon="-1.93382">
        <ele>3</ele>
        <time>2018-01-06T21:33:08Z</time>
      </trkpt>
      <trkpt lat="46.70023" lon="-1.93384">
        <ele>3</ele>
        <time>2018-01-06T21:34:08Z</time>
      </trkpt>
      <trkpt lat="46.70025" lon="-1.93386">
        <ele>3</ele>
        <time>2018-01-06T21:35:08Z</time>
      </trkpt>
      <trkpt lat="46.70028" lon="-1.93388">
        <ele>3</ele>
        <time>2018-01-06T21:36:08Z</time>
      </trkpt>
      <trkpt lat="46.7003" lon="-1.93391">
        <ele>3</ele>
        <time>2018-01-06T21:37:08Z</time>
      </trkpt>
      <trkpt lat="46.70033" lon="-1.93394">
        <ele>2</ele>
        <time>2018-01-06T21:38:08Z</time>
      </trkpt>
      <trkpt lat="46.70036" lon="-1.93397">
        <ele>2</ele>
        <time>2018-01-06T21:39:08Z</time>
      </trkpt>
      <trkpt lat="46.70038" lon="-1.93398">
        <ele>2</ele>
        <time>2018-01-06T21:40:08Z</time>
      </trkpt>
      <trkpt lat="46.70041" lon="-1.934">
        <ele>2</ele>
        <time>2018-01-06T21:41:08Z</time>
      </trkpt>
      <trkpt lat="46.70043" lon="-1.93401">
        <ele>2</ele>
        <time>2018-01-06T21:42:08Z</time>
      </trkpt>
      <trkpt lat="46.70046" lon="-1.93402">
        <ele>2</ele>
        <time>2018-01-06T21:43:08Z</time>
      </trkpt>
      <trkpt lat="46.70052" lon="-1.93405">
        <ele>2</ele>
        <time>2018-01-06T21:44:08Z</time>
      </trkpt>
      <trkpt lat="46.70052" lon="-1.93404">
        <ele>2</ele>
        <time>2018-01-06T21:45:08Z</time>
      </trkpt>
      <trkpt lat="46.70052" lon="-1.93403">
        <ele>2</ele>
        <time>2018-01-06T21:46:08Z</time>
      </trkpt>
      <trkpt lat="46.70052" lon="-1.93402">
        <ele>2</ele>
        <time>2018-01-06T21:47:08Z</time>
      </trkpt>
      <trkpt lat="46.70052" lon="-1.93401">
        <ele>2</ele>
        <time>2018-01-06T21:48:08Z</time>
      </trkpt>
      <trkpt lat="46.70053" lon="-1.93401">
        <ele>2</ele>
        <time>2018-01-06T21:49:08Z</time>
      </trkpt>
      <trkpt lat="46.70053" lon="-1.934">
        <ele>2</ele>
        <time>2018-01-06T21:50:08Z</time>
      </trkpt>
      <trkpt lat="46.70053" lon="-1.93399">
        <ele>2</ele>
        <time>2018-01-06T21:51:08Z</time>
      </trkpt>
      <trkpt lat="46.70054" lon="-1.93399">
        <ele>2</ele>
        <time>2018-01-06T21:52:08Z</time>
      </trkpt>
      <trkpt lat="46.70054" lon="-1.93398">
        <ele>2</ele>
        <time>2018-01-06T21:53:08Z</time>
      </trkpt>
      <trkpt lat="46.70055" lon="-1.93398">
        <ele>2</ele>
        <time>2018-01-06T21:54:08Z</time>
      </trkpt>
      <trkpt lat="46.70056" lon="-1.93398">
        <ele>2</ele>
        <time>2018-01-06T21:55:08Z</time>
      </trkpt>
      <trkpt lat="46.70056" lon="-1.93397">
        <ele>2</ele>
        <time>2018-01-06T21:56:08Z</time>
      </trkpt>
      <trkpt lat="46.70057" lon="-1.93397">
        <ele>2</ele>
        <time>2018-01-06T21:57:08Z</time>
      </trkpt>
      <trkpt lat="46.70058" lon="-1.93397">
        <ele>2</ele>
        <time>2018-01-06T21:58:08Z</time>
      </trkpt>
      <trkpt lat="46.70059" lon="-1.93398">
        <ele>2</ele>
        <time>2018-01-06T21:59:08Z</time>
      </trkpt>
      <trkpt lat="46.7006" lon="-1.93398">
        <ele>2</ele>
        <time>2018-01-06T22:00:08Z</time>
      </trkpt>
      <trkpt lat="46.7006" lon="-1.93399">
        <ele>2</ele>
        <time>2018-01-06T22:01:08Z</time>
      </trkpt>
      <trkpt lat="46.70061" lon="-1.93399">
        <ele>2</ele>
        <time>2018-01-06T22:02:08Z</time>
      </trkpt>
      <trkpt lat="46.70061" lon="-1.934">
        <ele>2</ele>
        <time>2018-01-06T22:03:08Z</time>
      </trkpt>
      <trkpt lat="46.70061" lon="-1.93401">
        <ele>2</ele>
        <time>2018-01-06T22:04:08Z</time>
      </trkpt>
      <trkpt lat="46.70062" lon="-1.93401">
        <ele>2</ele>
        <time>2018-01-06T22:05:08Z</time>
      </trkpt>
      <trkpt lat="46.70062" lon="-1.93402">
        <ele>2</ele>
        <time>2018-01-06T22:06:08Z</time>
      </trkpt>
      <trkpt lat="46.70062" lon="-1.93403">
        <ele>2</ele>
        <time>2018-01-06T22:07:08Z</time>
      </trkpt>
      <trkpt lat="46.70062" lon="-1.93404">
        <ele>2</ele>
        <time>2018-01-06T22:08:08Z</time>
      </trkpt>
      <trkpt lat="46.70062" lon="-1.93405">
        <ele>2</ele>
        <time>2018-01-06T22:09:08Z</time>
      </trkpt>
      <trkpt lat="46.70083" lon="-1.93405">
        <ele>2</ele>
        <time>2018-01-06T22:10:08Z</time>
      </trkpt>
      <trkpt lat="46.70093" lon="-1.934">
        <ele>2</ele>
        <time>2018-01-06T22:11:08Z</time>
      </trkpt>
      <trkpt lat="46.70098" lon="-1.93397">
        <ele>2</ele>
        <time>2018-01-06T22:12:08Z</time>
      </trkpt>
      <trkpt lat="46.70102" lon="-1.93395">
        <ele>2</ele>
        <time>2018-01-06T22:13:08Z</time>
      </trkpt>
      <trkpt lat="46.70107" lon="-1.93391">
        <ele>2</ele>
        <time>2018-01-06T22:14:08Z</time>
      </trkpt>
      <trkpt lat="46.70111" lon="-1.93388">
        <ele>2</ele>
        <time>2018-01-06T22:15:08Z</time>
      </trkpt>
      <trkpt lat="46.70114" lon="-1.93384">
        <ele>2</ele>
        <time>2018-01-06T22:16:08Z</time>
      </trkpt>
      <trkpt lat="46.70114" lon="-1.93384">
        <ele>2</ele>
        <time>2018-01-06T22:17:08Z</time>
      </trkpt>
      <trkpt lat="46.70115" lon="-1.93383">
        <ele>2</ele>
        <time>2018-01-06T22:18:08Z</time>
      </trkpt>
      <trkpt lat="46.70115" lon="-1.93382">
        <ele>2</ele>
        <time>2018-01-06T22:19:08Z</time>
      </trkpt>
      <trkpt lat="46.70115" lon="-1.93381">
        <ele>2</ele>
        <time>2018-01-06T22:20:08Z</time>
      </trkpt>
      <trkpt lat="46.70116" lon="-1.9338">
        <ele>2</ele>
        <time>2018-01-06T22:21:08Z</time>
      </trkpt>
      <trkpt lat="46.70116" lon="-1.93378">
        <ele>2</ele>
        <time>2018-01-06T22:22:08Z</time>
      </trkpt>
      <trkpt lat="46.70116" lon="-1.93377">
        <ele>2</ele>
        <time>2018-01-06T22:23:08Z</time>
      </trkpt>
      <trkpt lat="46.70117" lon="-1.93376">
        <ele>2</ele>
        <time>2018-01-06T22:24:08Z</time>
      </trkpt>
      <trkpt lat="46.70117" lon="-1.93375">
        <ele>2</ele>
        <time>2018-01-06T22:25:08Z</time>
      </trkpt>
      <trkpt lat="46.70118" lon="-1.93374">
        <ele>1</ele>
        <time>2018-01-06T22:26:08Z</time>
      </trkpt>
      <trkpt lat="46.70119" lon="-1.93373">
        <ele>1</ele>
        <time>2018-01-06T22:27:08Z</time>
      </trkpt>
      <trkpt lat="46.70119" lon="-1.93372">
        <ele>1</ele>
        <time>2018-01-06T22:28:08Z</time>
      </trkpt>
      <trkpt lat="46.7012" lon="-1.93372">
        <ele>1</ele>
        <time>2018-01-06T22:29:08Z</time>
      </trkpt>
      <trkpt lat="46.70121" lon="-1.93371">
        <ele>1</ele>
        <time>2018-01-06T22:30:08Z</time>
      </trkpt>
      <trkpt lat="46.70122" lon="-1.9337">
        <ele>1</ele>
        <time>2018-01-06T22:31:08Z</time>
      </trkpt>
      <trkpt lat="46.70123" lon="-1.93369">
        <ele>1</ele>
        <time>2018-01-06T22:32:08Z</time>
      </trkpt>
      <trkpt lat="46.70124" lon="-1.93369">
        <ele>1</ele>
        <time>2018-01-06T22:33:08Z</time>
      </trkpt>
      <trkpt lat="46.70125" lon="-1.93368">
        <ele>2</ele>
        <time>2018-01-06T22:34:08Z</time>
      </trkpt>
      <trkpt lat="46.70126" lon="-1.93368">
        <ele>2</ele>
        <time>2018-01-06T22:35:08Z</time>
      </trkpt>
      <trkpt lat="46.70127" lon="-1.93368">
        <ele>2</ele>
        <time>2018-01-06T22:36:08Z</time>
      </trkpt>
      <trkpt lat="46.70128" lon="-1.93368">
        <ele>2</ele>
        <time>2018-01-06T22:37:08Z</time>
      </trkpt>
      <trkpt lat="46.70129" lon="-1.93368">
        <ele>2</ele>
        <time>2018-01-06T22:38:08Z</time>
      </trkpt>
      <trkpt lat="46.7013" lon="-1.93368">
        <ele>2</ele>
        <time>2018-01-06T22:39:08Z</time>
      </trkpt>
      <trkpt lat="46.70131" lon="-1.93369">
        <ele>2</ele>
        <time>2018-01-06T22:40:08Z</time>
      </trkpt>
      <trkpt lat="46.70132" lon="-1.93369">
        <ele>2</ele>
        <time>2018-01-06T22:41:08Z</time>
      </trkpt>
      <trkpt lat="46.70132" lon="-1.9337">
        <ele>2</ele>
        <time>2018-01-06T22:42:08Z</time>
      </trkpt>
      <trkpt lat="46.70133" lon="-1.9337">
        <ele>2</ele>
        <time>2018-01-06T22:43:08Z</time>
      </trkpt>
      <trkpt lat="46.70134" lon="-1.93371">
        <ele>2</ele>
        <time>2018-01-06T22:44:08Z</time>
      </trkpt>
      <trkpt lat="46.70135" lon="-1.93372">
        <ele>2</ele>
        <time>2018-01-06T22:45:08Z</time>
      </trkpt>
      <trkpt lat="46.70136" lon="-1.93373">
        <ele>2</ele>
        <time>2018-01-06T22:46:08Z</time>
      </trkpt>
      <trkpt lat="46.70136" lon="-1.93374">
        <ele>2</ele>
        <time>2018-01-06T22:47:08Z</time>
      </trkpt>
      <trkpt lat="46.70137" lon="-1.93374">
        <ele>2</ele>
        <time>2018-01-06T22:48:08Z</time>
      </trkpt>
      <trkpt lat="46.70137" lon="-1.93375">
        <ele>1</ele>
        <time>2018-01-06T22:49:08Z</time>
      </trkpt>
      <trkpt lat="46.70138" lon="-1.93376">
        <ele>1</ele>
        <time>2018-01-06T22:50:08Z</time>
      </trkpt>
      <trkpt lat="46.70138" lon="-1.93377">
        <ele>1</ele>
        <time>2018-01-06T22:51:08Z</time>
      </trkpt>
      <trkpt lat="46.70138" lon="-1.93378">
        <ele>1</ele>
        <time>2018-01-06T22:52:08Z</time>
      </trkpt>
      <trkpt lat="46.70165" lon="-1.93375">
        <ele>1</ele>
        <time>2018-01-06T22:53:08Z</time>
      </trkpt>
      <trkpt lat="46.7017" lon="-1.93374">
        <ele>1</ele>
        <time>2018-01-06T22:54:08Z</time>
      </trkpt>
      <trkpt lat="46.70173" lon="-1.93372">
        <ele>1</ele>
        <time>2018-01-06T22:55:08Z</time>
      </trkpt>
      <trkpt lat="46.70181" lon="-1.93366">
        <ele>2</ele>
        <time>2018-01-06T22:56:08Z</time>
      </trkpt>
      <trkpt lat="46.70194" lon="-1.93356">
        <ele>1</ele>
        <time>2018-01-06T22:57:08Z</time>
      </trkpt>
      <trkpt lat="46.70205" lon="-1.93347">
        <ele>1</ele>
        <time>2018-01-06T22:58:08Z</time>
      </trkpt>
      <trkpt lat="46.70211" lon="-1.9334">
        <ele>1</ele>
        <time>2018-01-06T22:59:08Z</time>
      </trkpt>
      <trkpt lat="46.70216" lon="-1.93332">
        <ele>1</ele>
        <time>2018-01-06T23:00:08Z</time>
      </trkpt>
      <trkpt lat="46.70224" lon="-1.9332">
        <ele>1</ele>
        <time>2018-01-06T23:01:08Z</time>
      </trkpt>
      <trkpt lat="46.70239" lon="-1.93295">
        <ele>2</ele>
        <time>2018-01-06T23:02:08Z</time>
      </trkpt>
      <trkpt lat="46.70251" lon="-1.9328">
        <ele>2</ele>
        <time>2018-01-06T23:03:08Z</time>
      </trkpt>
      <trkpt lat="46.70263" lon="-1.93271">
        <ele>2</ele>
        <time>2018-01-06T23:04:08Z</time>
      </trkpt>
      <trkpt lat="46.70276" lon="-1.93263">
        <ele>2</ele>
        <time>2018-01-06T23:05:08Z</time>
      </trkpt>
      <trkpt lat="46.7028" lon="-1.9326">
        <ele>2</ele>
        <time>2018-01-06T23:06:08Z</time>
      </trkpt>
      <trkpt lat="46.70288" lon="-1.93253">
        <ele>2</ele>
        <time>2018-01-06T23:07:08Z</time>
      </trkpt>
      <trkpt lat="46.70295" lon="-1.93245">
        <ele>2</ele>
        <time>2018-01-06T23:08:08Z</time>
      </trkpt>
      <trkpt lat="46.70304" lon="-1.9323">
        <ele>2</ele>
        <time>2018-01-06T23:09:08Z</time>
      </trkpt>
      <trkpt lat="46.70304" lon="-1.9323">
        <ele>2</ele>
        <time>2018-01-06T23:10:08Z</time>
      </trkpt>
      <trkpt lat="46.70328" lon="-1.93232">
        <ele>2</ele>
        <time>2018-01-06T23:11:08Z</time>
      </trkpt>
      <trkpt lat="46.70362" lon="-1.9324">
        <ele>2</ele>
        <time>2018-01-06T23:12:08Z</time>
      </trkpt>
      <trkpt lat="46.70398" lon="-1.93249">
        <ele>3</ele>
        <time>2018-01-06T23:13:08Z</time>
      </trkpt>
      <trkpt lat="46.70419" lon="-1.93258">
        <ele>3</ele>
        <time>2018-01-06T23:14:08Z</time>
      </trkpt>
      <trkpt lat="46.70429" lon="-1.93262">
        <ele>3</ele>
        <time>2018-01-06T23:15:08Z</time>
      </trkpt>
      <trkpt lat="46.70439" lon="-1.93265">
        <ele>3</ele>
        <time>2018-01-06T23:16:08Z</time>
      </trkpt>
      <trkpt lat="46.70449" lon="-1.93267">
        <ele>3</ele>
        <time>2018-01-06T23:17:08Z</time>
      </trkpt>
      <trkpt lat="46.70458" lon="-1.93268">
        <ele>3</ele>
        <time>2018-01-06T23:18:08Z</time>
      </trkpt>
      <trkpt lat="46.70465" lon="-1.93267">
        <ele>3</ele>
        <time>2018-01-06T23:19:08Z</time>
      </trkpt>
      <trkpt lat="46.70472" lon="-1.93265">
        <ele>3</ele>
        <time>2018-01-06T23:20:08Z</time>
      </trkpt>
      <trkpt lat="46.7048" lon="-1.9326">
        <ele>4</ele>
        <time>2018-01-06T23:21:08Z</time>
      </trkpt>
      <trkpt lat="46.70489" lon="-1.93253">
        <ele>4</ele>
        <time>2018-01-06T23:22:08Z</time>
      </trkpt>
      <trkpt lat="46.70503" lon="-1.93244">
        <ele>4</ele>
        <time>2018-01-06T23:23:08Z</time>
      </trkpt>
      <trkpt lat="46.7052" lon="-1.93232">
        <ele>5</ele>
        <time>2018-01-06T23:24:08Z</time>
      </trkpt>
      <trkpt lat="46.70533" lon="-1.93223">
        <ele>5</ele>
        <time>2018-01-06T23:25:08Z</time>
      </trkpt>
      <trkpt lat="46.70548" lon="-1.93216">
        <ele>5</ele>
        <time>2018-01-06T23:26:08Z</time>
      </trkpt>
      <trkpt lat="46.70566" lon="-1.93211">
        <ele>6</ele>
        <time>2018-01-06T23:27:08Z</time>
      </trkpt>
      <trkpt lat="46.70588" lon="-1.93206">
        <ele>6</ele>
        <time>2018-01-06T23:28:08Z</time>
      </trkpt>
      <trkpt lat="46.7061" lon="-1.93202">
        <ele>7</ele>
        <time>2018-01-06T23:29:08Z</time>
      </trkpt>
      <trkpt lat="46.7063" lon="-1.93198">
        <ele>7</ele>
        <time>2018-01-06T23:30:08Z</time>
      </trkpt>
      <trkpt lat="46.70648" lon="-1.93197">
        <ele>8</ele>
        <time>2018-01-06T23:31:08Z</time>
      </trkpt>
      <trkpt lat="46.70659" lon="-1.93197">
        <ele>8</ele>
        <time>2018-01-06T23:32:08Z</time>
      </trkpt>
      <trkpt lat="46.70671" lon="-1.932">
        <ele>8</ele>
        <time>2018-01-06T23:33:08Z</time>
      </trkpt>
      <trkpt lat="46.70691" lon="-1.93205">
        <ele>8</ele>
        <time>2018-01-06T23:34:08Z</time>
      </trkpt>
      <trkpt lat="46.7071" lon="-1.93211">
        <ele>8</ele>
        <time>2018-01-06T23:35:08Z</time>
      </trkpt>
      <trkpt lat="46.70712" lon="-1.93212">
        <ele>8</ele>
        <time>2018-01-06T23:36:08Z</time>
      </trkpt>
      <trkpt lat="46.70729" lon="-1.93213">
        <ele>8</ele>
        <time>2018-01-06T23:37:08Z</time>
      </trkpt>
      <trkpt lat="46.70745" lon="-1.93212">
        <ele>8</ele>
        <time>2018-01-06T23:38:08Z</time>
      </trkpt>
      <trkpt lat="46.70752" lon="-1.9321">
        <ele>8</ele>
        <time>2018-01-06T23:39:08Z</time>
      </trkpt>
      <trkpt lat="46.70758" lon="-1.93207">
        <ele>8</ele>
        <time>2018-01-06T23:40:08Z</time>
      </trkpt>
      <trkpt lat="46.70766" lon="-1.93202">
        <ele>8</ele>
        <time>2018-01-06T23:41:08Z</time>
      </trkpt>
      <trkpt lat="46.70772" lon="-1.93197">
        <ele>8</ele>
        <time>2018-01-06T23:42:08Z</time>
      </trkpt>
      <trkpt lat="46.70785" lon="-1.93186">
        <ele>9</ele>
        <time>2018-01-06T23:43:08Z</time>
      </trkpt>
      <trkpt lat="46.70795" lon="-1.93179">
        <ele>9</ele>
        <time>2018-01-06T23:44:08Z</time>
      </trkpt>
      <trkpt lat="46.70804" lon="-1.93173">
        <ele>9</ele>
        <time>2018-01-06T23:45:08Z</time>
      </trkpt>
      <trkpt lat="46.70813" lon="-1.9317">
        <ele>9</ele>
        <time>2018-01-06T23:46:08Z</time>
      </trkpt>
      <trkpt lat="46.70821" lon="-1.93168">
        <ele>9</ele>
        <time>2018-01-06T23:47:08Z</time>
      </trkpt>
      <trkpt lat="46.70829" lon="-1.93167">
        <ele>9</ele>
        <time>2018-01-06T23:48:08Z</time>
      </trkpt>
      <trkpt lat="46.70835" lon="-1.93168">
        <ele>9</ele>
        <time>2018-01-06T23:49:08Z</time>
      </trkpt>
      <trkpt lat="46.70844" lon="-1.93169">
        <ele>9</ele>
        <time>2018-01-06T23:50:08Z</time>
      </trkpt>
      <trkpt lat="46.70877" lon="-1.93174">
        <ele>8</ele>
        <time>2018-01-06T23:51:08Z</time>
      </trkpt>
      <trkpt lat="46.70916" lon="-1.93179">
        <ele>7</ele>
        <time>2018-01-06T23:52:08Z</time>
      </trkpt>
      <trkpt lat="46.70936" lon="-1.93181">
        <ele>7</ele>
        <time>2018-01-06T23:53:08Z</time>
      </trkpt>
      <trkpt lat="46.70956" lon="-1.93184">
        <ele>7</ele>
        <time>2018-01-06T23:54:08Z</time>
      </trkpt>
      <trkpt lat="46.70974" lon="-1.93184">
        <ele>7</ele>
        <time>2018-01-06T23:55:08Z</time>
      </trkpt>
      <trkpt lat="46.71007" lon="-1.9318">
        <ele>7</ele>
        <time>2018-01-06T23:56:08Z</time>
      </trkpt>
      <trkpt lat="46.71025" lon="-1.93175">
        <ele>7</ele>
        <time>2018-01-06T23:57:08Z</time>
      </trkpt>
      <trkpt lat="46.71038" lon="-1.93168">
        <ele>7</ele>
        <time>2018-01-06T23:58:08Z</time>
      </trkpt>
      <trkpt lat="46.71048" lon="-1.93158">
        <ele>7</ele>
        <time>2018-01-06T23:59:08Z</time>
      </trkpt>
      <trkpt lat="46.71062" lon="-1.93143">
        <ele>7</ele>
        <time>2018-01-07T00:00:08Z</time>
      </trkpt>
      <trkpt lat="46.7109" lon="-1.93111">
        <ele>7</ele>
        <time>2018-01-07T00:01:08Z</time>
      </trkpt>
      <trkpt lat="46.71123" lon="-1.93073">
        <ele>7</ele>
        <time>2018-01-07T00:02:08Z</time>
      </trkpt>
      <trkpt lat="46.71124" lon="-1.93072">
        <ele>7</ele>
        <time>2018-01-07T00:03:08Z</time>
      </trkpt>
      <trkpt lat="46.71141" lon="-1.93051">
        <ele>7</ele>
        <time>2018-01-07T00:04:08Z</time>
      </trkpt>
      <trkpt lat="46.7115" lon="-1.93042">
        <ele>7</ele>
        <time>2018-01-07T00:05:08Z</time>
      </trkpt>
      <trkpt lat="46.71159" lon="-1.93035">
        <ele>8</ele>
        <time>2018-01-07T00:06:08Z</time>
      </trkpt>
      <trkpt lat="46.71167" lon="-1.93032">
        <ele>8</ele>
        <time>2018-01-07T00:07:08Z</time>
      </trkpt>
      <trkpt lat="46.71178" lon="-1.9303">
        <ele>7</ele>
        <time>2018-01-07T00:08:08Z</time>
      </trkpt>
      <trkpt lat="46.71195" lon="-1.93028">
        <ele>7</ele>
        <time>2018-01-07T00:09:08Z</time>
      </trkpt>
      <trkpt lat="46.71215" lon="-1.93028">
        <ele>6</ele>
        <time>2018-01-07T00:10:08Z</time>
      </trkpt>
      <trkpt lat="46.71225" lon="-1.93026">
        <ele>6</ele>
        <time>2018-01-07T00:11:08Z</time>
      </trkpt>
      <trkpt lat="46.71236" lon="-1.93024">
        <ele>5</ele>
        <time>2018-01-07T00:12:08Z</time>
      </trkpt>
      <trkpt lat="46.71243" lon="-1.93018">
        <ele>5</ele>
        <time>2018-01-07T00:13:08Z</time>
      </trkpt>
      <trkpt lat="46.71246" lon="-1.93012">
        <ele>5</ele>
        <time>2018-01-07T00:14:08Z</time>
      </trkpt>
      <trkpt lat="46.71249" lon="-1.93002">
        <ele>5</ele>
        <time>2018-01-07T00:15:08Z</time>
      </trkpt>
      <trkpt lat="46.71252" lon="-1.92988">
        <ele>5</ele>
        <time>2018-01-07T00:16:08Z</time>
      </trkpt>
      <trkpt lat="46.71256" lon="-1.92969">
        <ele>5</ele>
        <time>2018-01-07T00:17:08Z</time>
      </trkpt>
      <trkpt lat="46.71259" lon="-1.92949">
        <ele>5</ele>
        <time>2018-01-07T00:18:08Z</time>
      </trkpt>
      <trkpt lat="46.71259" lon="-1.92949">
        <ele>5</ele>
        <time>2018-01-07T00:19:08Z</time>
      </trkpt>
      <trkpt lat="46.71261" lon="-1.92937">
        <ele>4</ele>
        <time>2018-01-07T00:20:08Z</time>
      </trkpt>
      <trkpt lat="46.71265" lon="-1.92901">
        <ele>3</ele>
        <time>2018-01-07T00:21:08Z</time>
      </trkpt>
      <trkpt lat="46.71269" lon="-1.9287">
        <ele>3</ele>
        <time>2018-01-07T00:22:08Z</time>
      </trkpt>
      <trkpt lat="46.71269" lon="-1.92869">
        <ele>3</ele>
        <time>2018-01-07T00:23:08Z</time>
      </trkpt>
      <trkpt lat="46.71274" lon="-1.92841">
        <ele>3</ele>
        <time>2018-01-07T00:24:08Z</time>
      </trkpt>
      <trkpt lat="46.71281" lon="-1.92808">
        <ele>4</ele>
        <time>2018-01-07T00:25:08Z</time>
      </trkpt>
      <trkpt lat="46.71289" lon="-1.92771">
        <ele>4</ele>
        <time>2018-01-07T00:26:08Z</time>
      </trkpt>
      <trkpt lat="46.71299" lon="-1.92726">
        <ele>5</ele>
        <time>2018-01-07T00:27:08Z</time>
      </trkpt>
      <trkpt lat="46.71299" lon="-1.92723">
        <ele>5</ele>
        <time>2018-01-07T00:28:08Z</time>
      </trkpt>
      <trkpt lat="46.71306" lon="-1.927">
        <ele>6</ele>
        <time>2018-01-07T00:29:08Z</time>
      </trkpt>
      <trkpt lat="46.71306" lon="-1.92696">
        <ele>6</ele>
        <time>2018-01-07T00:30:08Z</time>
      </trkpt>
      <trkpt lat="46.71307" lon="-1.92691">
        <ele>6</ele>
        <time>2018-01-07T00:31:08Z</time>
      </trkpt>
      <trkpt lat="46.71308" lon="-1.92684">
        <ele>6</ele>
        <time>2018-01-07T00:32:08Z</time>
      </trkpt>
      <trkpt lat="46.71308" lon="-1.92681">
        <ele>7</ele>
        <time>2018-01-07T00:33:08Z</time>
      </trkpt>
      <trkpt lat="46.71307" lon="-1.92661">
        <ele>7</ele>
        <time>2018-01-07T00:34:08Z</time>
      </trkpt>
      <trkpt lat="46.71305" lon="-1.92644">
        <ele>8</ele>
        <time>2018-01-07T00:35:08Z</time>
      </trkpt>
      <trkpt lat="46.71305" lon="-1.9264">
        <ele>8</ele>
        <time>2018-01-07T00:36:08Z</time>
      </trkpt>
      <trkpt lat="46.71305" lon="-1.92636">
        <ele>8</ele>
        <time>2018-01-07T00:37:08Z</time>
      </trkpt>
      <trkpt lat="46.71305" lon="-1.92629">
        <ele>8</ele>
        <time>2018-01-07T00:38:08Z</time>
      </trkpt>
      <trkpt lat="46.71306" lon="-1.92623">
        <ele>8</ele>
        <time>2018-01-07T00:39:08Z</time>
      </trkpt>
      <trkpt lat="46.71307" lon="-1.92618">
        <ele>8</ele>
        <time>2018-01-07T00:40:08Z</time>
      </trkpt>
      <trkpt lat="46.71311" lon="-1.92597">
        <ele>8</ele>
        <time>2018-01-07T00:41:08Z</time>
      </trkpt>
      <trkpt lat="46.71325" lon="-1.92544">
        <ele>8</ele>
        <time>2018-01-07T00:42:08Z</time>
      </trkpt>
      <trkpt lat="46.7133" lon="-1.92521">
        <ele>8</ele>
        <time>2018-01-07T00:43:08Z</time>
      </trkpt>
      <trkpt lat="46.71331" lon="-1.92518">
        <ele>8</ele>
        <time>2018-01-07T00:44:08Z</time>
      </trkpt>
      <trkpt lat="46.71332" lon="-1.92515">
        <ele>8</ele>
        <time>2018-01-07T00:45:08Z</time>
      </trkpt>
      <trkpt lat="46.71333" lon="-1.92509">
        <ele>8</ele>
        <time>2018-01-07T00:46:08Z</time>
      </trkpt>
      <trkpt lat="46.71333" lon="-1.92502">
        <ele>8</ele>
        <time>2018-01-07T00:47:08Z</time>
      </trkpt>
      <trkpt lat="46.71332" lon="-1.92476">
        <ele>8</ele>
        <time>2018-01-07T00:48:08Z</time>
      </trkpt>
      <trkpt lat="46.7133" lon="-1.92445">
        <ele>9</ele>
        <time>2018-01-07T00:49:08Z</time>
      </trkpt>
      <trkpt lat="46.71327" lon="-1.92413">
        <ele>9</ele>
        <time>2018-01-07T00:50:08Z</time>
      </trkpt>
      <trkpt lat="46.71326" lon="-1.92402">
        <ele>9</ele>
        <time>2018-01-07T00:51:08Z</time>
      </trkpt>
      <trkpt lat="46.71323" lon="-1.92389">
        <ele>9</ele>
        <time>2018-01-07T00:52:08Z</time>
      </trkpt>
      <trkpt lat="46.71322" lon="-1.92385">
        <ele>9</ele>
        <time>2018-01-07T00:53:08Z</time>
      </trkpt>
      <trkpt lat="46.71321" lon="-1.9238">
        <ele>9</ele>
        <time>2018-01-07T00:54:08Z</time>
      </trkpt>
      <trkpt lat="46.71318" lon="-1.9237">
        <ele>9</ele>
        <time>2018-01-07T00:55:08Z</time>
      </trkpt>
      <trkpt lat="46.71315" lon="-1.92363">
        <ele>9</ele>
        <time>2018-01-07T00:56:08Z</time>
      </trkpt>
      <trkpt lat="46.71311" lon="-1.92355">
        <ele>9</ele>
        <time>2018-01-07T00:57:08Z</time>
      </trkpt>
      <trkpt lat="46.71306" lon="-1.92347">
        <ele>9</ele>
        <time>2018-01-07T00:58:08Z</time>
      </trkpt>
      <trkpt lat="46.71306" lon="-1.92347">
        <ele>9</ele>
        <time>2018-01-07T00:59:08Z</time>
      </trkpt>
      <trkpt lat="46.71322" lon="-1.92344">
        <ele>8</ele>
        <time>2018-01-07T01:00:08Z</time>
      </trkpt>
      <trkpt lat="46.71334" lon="-1.9234">
        <ele>8</ele>
        <time>2018-01-07T01:01:08Z</time>
      </trkpt>
      <trkpt lat="46.71352" lon="-1.92336">
        <ele>7</ele>
        <time>2018-01-07T01:02:08Z</time>
      </trkpt>
      <trkpt lat="46.71383" lon="-1.92327">
        <ele>6</ele>
        <time>2018-01-07T01:03:08Z</time>
      </trkpt>
      <trkpt lat="46.71414" lon="-1.92316">
        <ele>5</ele>
        <time>2018-01-07T01:04:08Z</time>
      </trkpt>
      <trkpt lat="46.71418" lon="-1.92313">
        <ele>5</ele>
        <time>2018-01-07T01:05:08Z</time>
      </trkpt>
      <trkpt lat="46.71421" lon="-1.92311">
        <ele>5</ele>
        <time>2018-01-07T01:06:08Z</time>
      </trkpt>
      <trkpt lat="46.71423" lon="-1.92308">
        <ele>5</ele>
        <time>2018-01-07T01:07:08Z</time>
      </trkpt>
      <trkpt lat="46.71426" lon="-1.92303">
        <ele>5</ele>
        <time>2018-01-07T01:08:08Z</time>
      </trkpt>
      <trkpt lat="46.71429" lon="-1.92297">
        <ele>5</ele>
        <time>2018-01-07T01:09:08Z</time>
      </trkpt>
      <trkpt lat="46.71432" lon="-1.92285">
        <ele>5</ele>
        <time>2018-01-07T01:10:08Z</time>
      </trkpt>
      <trkpt lat="46.71432" lon="-1.92282">
        <ele>5</ele>
        <time>2018-01-07T01:11:08Z</time>
      </trkpt>
      <trkpt lat="46.7144" lon="-1.92252">
        <ele>6</ele>
        <time>2018-01-07T01:12:08Z</time>
      </trkpt>
      <trkpt lat="46.71448" lon="-1.92225">
        <ele>6</ele>
        <time>2018-01-07T01:13:08Z</time>
      </trkpt>
      <trkpt lat="46.71456" lon="-1.92198">
        <ele>6</ele>
        <time>2018-01-07T01:14:08Z</time>
      </trkpt>
      <trkpt lat="46.71459" lon="-1.92185">
        <ele>6</ele>
        <time>2018-01-07T01:15:08Z</time>
      </trkpt>
      <trkpt lat="46.7146" lon="-1.92183">
        <ele>6</ele>
        <time>2018-01-07T01:16:08Z</time>
      </trkpt>
      <trkpt lat="46.71466" lon="-1.92164">
        <ele>6</ele>
        <time>2018-01-07T01:17:08Z</time>
      </trkpt>
      <trkpt lat="46.71469" lon="-1.9215">
        <ele>6</ele>
        <time>2018-01-07T01:18:08Z</time>
      </trkpt>
      <trkpt lat="46.71474" lon="-1.92129">
        <ele>6</ele>
        <time>2018-01-07T01:19:08Z</time>
      </trkpt>
      <trkpt lat="46.7148" lon="-1.92105">
        <ele>6</ele>
        <time>2018-01-07T01:20:08Z</time>
      </trkpt>
      <trkpt lat="46.71484" lon="-1.92081">
        <ele>5</ele>
        <time>2018-01-07T01:21:08Z</time>
      </trkpt>
      <trkpt lat="46.71491" lon="-1.9204">
        <ele>6</ele>
        <time>2018-01-07T01:22:08Z</time>
      </trkpt>
      <trkpt lat="46.71492" lon="-1.92037">
        <ele>6</ele>
        <time>2018-01-07T01:23:08Z</time>
      </trkpt>
      <trkpt lat="46.715" lon="-1.91985">
        <ele>7</ele>
        <time>2018-01-07T01:24:08Z</time>
      </trkpt>
      <trkpt lat="46.71504" lon="-1.91966">
        <ele>7</ele>
        <time>2018-01-07T01:25:08Z</time>
      </trkpt>
      <trkpt lat="46.71508" lon="-1.9194">
        <ele>7</ele>
        <time>2018-01-07T01:26:08Z</time>
      </trkpt>
      <trkpt lat="46.71511" lon="-1.91921">
        <ele>7</ele>
        <time>2018-01-07T01:27:08Z</time>
      </trkpt>
      <trkpt lat="46.71515" lon="-1.91902">
        <ele>7</ele>
        <time>2018-01-07T01:28:08Z</time>
      </trkpt>
      <trkpt lat="46.71518" lon="-1.91883">
        <ele>8</ele>
        <time>2018-01-07T01:29:08Z</time>
      </trkpt>
      <trkpt lat="46.71523" lon="-1.91865">
        <ele>8</ele>
        <time>2018-01-07T01:30:08Z</time>
      </trkpt>
      <trkpt lat="46.71528" lon="-1.91847">
        <ele>8</ele>
        <time>2018-01-07T01:31:08Z</time>
      </trkpt>
      <trkpt lat="46.71534" lon="-1.91828">
        <ele>8</ele>
        <time>2018-01-07T01:32:08Z</time>
      </trkpt>
      <trkpt lat="46.71548" lon="-1.91786">
        <ele>7</ele>
        <time>2018-01-07T01:33:08Z</time>
      </trkpt>
      <trkpt lat="46.71559" lon="-1.91759">
        <ele>7</ele>
        <time>2018-01-07T01:34:08Z</time>
      </trkpt>
      <trkpt lat="46.71565" lon="-1.91742">
        <ele>7</ele>
        <time>2018-01-07T01:35:08Z</time>
      </trkpt>
      <trkpt lat="46.71573" lon="-1.91722">
        <ele>7</ele>
        <time>2018-01-07T01:36:08Z</time>
      </trkpt>
      <trkpt lat="46.71589" lon="-1.91683">
        <ele>7</ele>
        <time>2018-01-07T01:37:08Z</time>
      </trkpt>
      <trkpt lat="46.71614" lon="-1.91622">
        <ele>5</ele>
        <time>2018-01-07T01:38:08Z</time>
      </trkpt>
      <trkpt lat="46.71624" lon="-1.91596">
        <ele>5</ele>
        <time>2018-01-07T01:39:08Z</time>
      </trkpt>
      <trkpt lat="46.71632" lon="-1.9158">
        <ele>4</ele>
        <time>2018-01-07T01:40:08Z</time>
      </trkpt>
      <trkpt lat="46.71641" lon="-1.9157">
        <ele>4</ele>
        <time>2018-01-07T01:41:08Z</time>
      </trkpt>
      <trkpt lat="46.71648" lon="-1.91565">
        <ele>4</ele>
        <time>2018-01-07T01:42:08Z</time>
      </trkpt>
      <trkpt lat="46.71664" lon="-1.91556">
        <ele>3</ele>
        <time>2018-01-07T01:43:08Z</time>
      </trkpt>
      <trkpt lat="46.71674" lon="-1.91552">
        <ele>3</ele>
        <time>2018-01-07T01:44:08Z</time>
      </trkpt>
      <trkpt lat="46.71699" lon="-1.9154">
        <ele>2</ele>
        <time>2018-01-07T01:45:08Z</time>
      </trkpt>
      <trkpt lat="46.71723" lon="-1.91529">
        <ele>2</ele>
        <time>2018-01-07T01:46:08Z</time>
      </trkpt>
      <trkpt lat="46.7174" lon="-1.91519">
        <ele>2</ele>
        <time>2018-01-07T01:47:08Z</time>
      </trkpt>
      <trkpt lat="46.7175" lon="-1.91512">
        <ele>2</ele>
        <time>2018-01-07T01:48:08Z</time>
      </trkpt>
      <trkpt lat="46.7176" lon="-1.91502">
        <ele>2</ele>
        <time>2018-01-07T01:49:08Z</time>
      </trkpt>
      <trkpt lat="46.71765" lon="-1.91492">
        <ele>2</ele>
        <time>2018-01-07T01:50:08Z</time>
      </trkpt>
      <trkpt lat="46.71768" lon="-1.91484">
        <ele>2</ele>
        <time>2018-01-07T01:51:08Z</time>
      </trkpt>
      <trkpt lat="46.7177" lon="-1.91473">
        <ele>2</ele>
        <time>2018-01-07T01:52:08Z</time>
      </trkpt>
      <trkpt lat="46.71777" lon="-1.91414">
        <ele>1</ele>
        <time>2018-01-07T01:53:08Z</time>
      </trkpt>
      <trkpt lat="46.7178" lon="-1.91384">
        <ele>1</ele>
        <time>2018-01-07T01:54:08Z</time>
      </trkpt>
      <trkpt lat="46.71785" lon="-1.91362">
        <ele>1</ele>
        <time>2018-01-07T01:55:08Z</time>
      </trkpt>
      <trkpt lat="46.71792" lon="-1.91336">
        <ele>1</ele>
        <time>2018-01-07T01:56:08Z</time>
      </trkpt>
      <trkpt lat="46.71809" lon="-1.91278">
        <ele>2</ele>
        <time>2018-01-07T01:57:08Z</time>
      </trkpt>
      <trkpt lat="46.71822" lon="-1.91229">
        <ele>3</ele>
        <time>2018-01-07T01:58:08Z</time>
      </trkpt>
      <trkpt lat="46.71834" lon="-1.91176">
        <ele>3</ele>
        <time>2018-01-07T01:59:08Z</time>
      </trkpt>
      <trkpt lat="46.71839" lon="-1.91152">
        <ele>3</ele>
        <time>2018-01-07T02:00:08Z</time>
      </trkpt>
      <trkpt lat="46.71847" lon="-1.91107">
        <ele>2</ele>
        <time>2018-01-07T02:01:08Z</time>
      </trkpt>
      <trkpt lat="46.71851" lon="-1.91083">
        <ele>2</ele>
        <time>2018-01-07T02:02:08Z</time>
      </trkpt>
      <trkpt lat="46.71852" lon="-1.91064">
        <ele>2</ele>
        <time>2018-01-07T02:03:08Z</time>
      </trkpt>
      <trkpt lat="46.71852" lon="-1.91047">
        <ele>2</ele>
        <time>2018-01-07T02:04:08Z</time>
      </trkpt>
      <trkpt lat="46.71851" lon="-1.9102">
        <ele>3</ele>
        <time>2018-01-07T02:05:08Z</time>
      </trkpt>
      <trkpt lat="46.71846" lon="-1.90978">
        <ele>3</ele>
        <time>2018-01-07T02:06:08Z</time>
      </trkpt>
      <trkpt lat="46.71837" lon="-1.90885">
        <ele>5</ele>
        <time>2018-01-07T02:07:08Z</time>
      </trkpt>
      <trkpt lat="46.71832" lon="-1.90833">
        <ele>6</ele>
        <time>2018-01-07T02:08:08Z</time>
      </trkpt>
      <trkpt lat="46.71827" lon="-1.90802">
        <ele>6</ele>
        <time>2018-01-07T02:09:08Z</time>
      </trkpt>
      <trkpt lat="46.71821" lon="-1.90766">
        <ele>6</ele>
        <time>2018-01-07T02:10:08Z</time>
      </trkpt>
      <trkpt lat="46.7182" lon="-1.90764">
        <ele>6</ele>
        <time>2018-01-07T02:11:08Z</time>
      </trkpt>
      <trkpt lat="46.71811" lon="-1.90722">
        <ele>6</ele>
        <time>2018-01-07T02:12:08Z</time>
      </trkpt>
      <trkpt lat="46.71801" lon="-1.90668">
        <ele>5</ele>
        <time>2018-01-07T02:13:08Z</time>
      </trkpt>
      <trkpt lat="46.71797" lon="-1.90646">
        <ele>5</ele>
        <time>2018-01-07T02:14:08Z</time>
      </trkpt>
      <trkpt lat="46.71795" lon="-1.90616">
        <ele>6</ele>
        <time>2018-01-07T02:15:08Z</time>
      </trkpt>
      <trkpt lat="46.71795" lon="-1.90597">
        <ele>7</ele>
        <time>2018-01-07T02:16:08Z</time>
      </trkpt>
      <trkpt lat="46.71795" lon="-1.90578">
        <ele>7</ele>
        <time>2018-01-07T02:17:08Z</time>
      </trkpt>
      <trkpt lat="46.71798" lon="-1.90553">
        <ele>7</ele>
        <time>2018-01-07T02:18:08Z</time>
      </trkpt>
      <trkpt lat="46.71806" lon="-1.90529">
        <ele>7</ele>
        <time>2018-01-07T02:19:08Z</time>
      </trkpt>
      <trkpt lat="46.71818" lon="-1.90502">
        <ele>6</ele>
        <time>2018-01-07T02:20:08Z</time>
      </trkpt>
      <trkpt lat="46.71819" lon="-1.90499">
        <ele>6</ele>
        <time>2018-01-07T02:21:08Z</time>
      </trkpt>
      <trkpt lat="46.7183" lon="-1.90473">
        <ele>5</ele>
        <time>2018-01-07T02:22:08Z</time>
      </trkpt>
      <trkpt lat="46.71842" lon="-1.90449">
        <ele>5</ele>
        <time>2018-01-07T02:23:08Z</time>
      </trkpt>
      <trkpt lat="46.71845" lon="-1.90439">
        <ele>4</ele>
        <time>2018-01-07T02:24:08Z</time>
      </trkpt>
      <trkpt lat="46.71846" lon="-1.90435">
        <ele>4</ele>
        <time>2018-01-07T02:25:08Z</time>
      </trkpt>
      <trkpt lat="46.71847" lon="-1.90431">
        <ele>4</ele>
        <time>2018-01-07T02:26:08Z</time>
      </trkpt>
      <trkpt lat="46.71848" lon="-1.90421">
        <ele>4</ele>
        <time>2018-01-07T02:27:08Z</time>
      </trkpt>
      <trkpt lat="46.71851" lon="-1.90389">
        <ele>5</ele>
        <time>2018-01-07T02:28:08Z</time>
      </trkpt>
      <trkpt lat="46.71852" lon="-1.90384">
        <ele>5</ele>
        <time>2018-01-07T02:29:08Z</time>
      </trkpt>
      <trkpt lat="46.71852" lon="-1.9038">
        <ele>5</ele>
        <time>2018-01-07T02:30:08Z</time>
      </trkpt>
      <trkpt lat="46.71851" lon="-1.90377">
        <ele>5</ele>
        <time>2018-01-07T02:31:08Z</time>
      </trkpt>
      <trkpt lat="46.71851" lon="-1.90375">
        <ele>5</ele>
        <time>2018-01-07T02:32:08Z</time>
      </trkpt>
      <trkpt lat="46.7185" lon="-1.90372">
        <ele>5</ele>
        <time>2018-01-07T02:33:08Z</time>
      </trkpt>
      <trkpt lat="46.7185" lon="-1.9037">
        <ele>5</ele>
        <time>2018-01-07T02:34:08Z</time>
      </trkpt>
      <trkpt lat="46.71848" lon="-1.90366">
        <ele>5</ele>
        <time>2018-01-07T02:35:08Z</time>
      </trkpt>
      <trkpt lat="46.71844" lon="-1.90358">
        <ele>6</ele>
        <time>2018-01-07T02:36:08Z</time>
      </trkpt>
      <trkpt lat="46.71839" lon="-1.90349">
        <ele>6</ele>
        <time>2018-01-07T02:37:08Z</time>
      </trkpt>
      <trkpt lat="46.71839" lon="-1.90349">
        <ele>6</ele>
        <time>2018-01-07T02:38:08Z</time>
      </trkpt>
      <trkpt lat="46.71865" lon="-1.90316">
        <ele>6</ele>
        <time>2018-01-07T02:39:08Z</time>
      </trkpt>
      <trkpt lat="46.71869" lon="-1.90308">
        <ele>6</ele>
        <time>2018-01-07T02:40:08Z</time>
      </trkpt>
      <trkpt lat="46.71872" lon="-1.90301">
        <ele>6</ele>
        <time>2018-01-07T02:41:08Z</time>
      </trkpt>
      <trkpt lat="46.71876" lon="-1.90283">
        <ele>7</ele>
        <time>2018-01-07T02:42:08Z</time>
      </trkpt>
      <trkpt lat="46.71879" lon="-1.90274">
        <ele>7</ele>
        <time>2018-01-07T02:43:08Z</time>
      </trkpt>
      <trkpt lat="46.71883" lon="-1.90267">
        <ele>7</ele>
        <time>2018-01-07T02:44:08Z</time>
      </trkpt>
      <trkpt lat="46.71886" lon="-1.90263">
        <ele>7</ele>
        <time>2018-01-07T02:45:08Z</time>
      </trkpt>
      <trkpt lat="46.7189" lon="-1.9026">
        <ele>7</ele>
        <time>2018-01-07T02:46:08Z</time>
      </trkpt>
      <trkpt lat="46.71896" lon="-1.90256">
        <ele>7</ele>
        <time>2018-01-07T02:47:08Z</time>
      </trkpt>
      <trkpt lat="46.719" lon="-1.90254">
        <ele>7</ele>
        <time>2018-01-07T02:48:08Z</time>
      </trkpt>
      <trkpt lat="46.71914" lon="-1.90248">
        <ele>6</ele>
        <time>2018-01-07T02:49:08Z</time>
      </trkpt>
      <trkpt lat="46.71927" lon="-1.9024">
        <ele>6</ele>
        <time>2018-01-07T02:50:08Z</time>
      </trkpt>
      <trkpt lat="46.71934" lon="-1.90235">
        <ele>6</ele>
        <time>2018-01-07T02:51:08Z</time>
      </trkpt>
      <trkpt lat="46.71941" lon="-1.90227">
        <ele>6</ele>
        <time>2018-01-07T02:52:08Z</time>
      </trkpt>
      <trkpt lat="46.71946" lon="-1.90218">
        <ele>6</ele>
        <time>2018-01-07T02:53:08Z</time>
      </trkpt>
      <trkpt lat="46.71949" lon="-1.90211">
        <ele>6</ele>
        <time>2018-01-07T02:54:08Z</time>
      </trkpt>
      <trkpt lat="46.71953" lon="-1.90203">
        <ele>6</ele>
        <time>2018-01-07T02:55:08Z</time>
      </trkpt>
      <trkpt lat="46.71953" lon="-1.90201">
        <ele>6</ele>
        <time>2018-01-07T02:56:08Z</time>
      </trkpt>
      <trkpt lat="46.71956" lon="-1.90191">
        <ele>6</ele>
        <time>2018-01-07T02:57:08Z</time>
      </trkpt>
      <trkpt lat="46.71958" lon="-1.90176">
        <ele>6</ele>
        <time>2018-01-07T02:58:08Z</time>
      </trkpt>
      <trkpt lat="46.71959" lon="-1.90153">
        <ele>6</ele>
        <time>2018-01-07T02:59:08Z</time>
      </trkpt>
      <trkpt lat="46.71962" lon="-1.90125">
        <ele>6</ele>
        <time>2018-01-07T03:00:08Z</time>
      </trkpt>
      <trkpt lat="46.71965" lon="-1.90106">
        <ele>6</ele>
        <time>2018-01-07T03:01:08Z</time>
      </trkpt>
      <trkpt lat="46.71968" lon="-1.9008">
        <ele>6</ele>
        <time>2018-01-07T03:02:08Z</time>
      </trkpt>
      <trkpt lat="46.71973" lon="-1.90062">
        <ele>6</ele>
        <time>2018-01-07T03:03:08Z</time>
      </trkpt>
      <trkpt lat="46.71979" lon="-1.9005">
        <ele>6</ele>
        <time>2018-01-07T03:04:08Z</time>
      </trkpt>
      <trkpt lat="46.7199" lon="-1.90031">
        <ele>6</ele>
        <time>2018-01-07T03:05:08Z</time>
      </trkpt>
      <trkpt lat="46.72002" lon="-1.90007">
        <ele>6</ele>
        <time>2018-01-07T03:06:08Z</time>
      </trkpt>
      <trkpt lat="46.72013" lon="-1.89987">
        <ele>6</ele>
        <time>2018-01-07T03:07:08Z</time>
      </trkpt>
      <trkpt lat="46.7202" lon="-1.89975">
        <ele>7</ele>
        <time>2018-01-07T03:08:08Z</time>
      </trkpt>
      <trkpt lat="46.72029" lon="-1.8996">
        <ele>7</ele>
        <time>2018-01-07T03:09:08Z</time>
      </trkpt>
      <trkpt lat="46.72037" lon="-1.89948">
        <ele>7</ele>
        <time>2018-01-07T03:10:08Z</time>
      </trkpt>
      <trkpt lat="46.72042" lon="-1.89942">
        <ele>7</ele>
        <time>2018-01-07T03:11:08Z</time>
      </trkpt>
      <trkpt lat="46.72056" lon="-1.8993">
        <ele>7</ele>
        <time>2018-01-07T03:12:08Z</time>
      </trkpt>
      <trkpt lat="46.72084" lon="-1.89908">
        <ele>7</ele>
        <time>2018-01-07T03:13:08Z</time>
      </trkpt>
      <trkpt lat="46.72119" lon="-1.89878">
        <ele>8</ele>
        <time>2018-01-07T03:14:08Z</time>
      </trkpt>
      <trkpt lat="46.72143" lon="-1.89859">
        <ele>9</ele>
        <time>2018-01-07T03:15:08Z</time>
      </trkpt>
      <trkpt lat="46.72178" lon="-1.8983">
        <ele>9</ele>
        <time>2018-01-07T03:16:08Z</time>
      </trkpt>
      <trkpt lat="46.72203" lon="-1.89809">
        <ele>8</ele>
        <time>2018-01-07T03:17:08Z</time>
      </trkpt>
      <trkpt lat="46.72225" lon="-1.89792">
        <ele>7</ele>
        <time>2018-01-07T03:18:08Z</time>
      </trkpt>
      <trkpt lat="46.72253" lon="-1.8977">
        <ele>7</ele>
        <time>2018-01-07T03:19:08Z</time>
      </trkpt>
      <trkpt lat="46.72372" lon="-1.89674">
        <ele>4</ele>
        <time>2018-01-07T03:20:08Z</time>
      </trkpt>
      <trkpt lat="46.72402" lon="-1.89652">
        <ele>3</ele>
        <time>2018-01-07T03:21:08Z</time>
      </trkpt>
      <trkpt lat="46.72424" lon="-1.89628">
        <ele>3</ele>
        <time>2018-01-07T03:22:08Z</time>
      </trkpt>
      <trkpt lat="46.72427" lon="-1.89625">
        <ele>3</ele>
        <time>2018-01-07T03:23:08Z</time>
      </trkpt>
      <trkpt lat="46.72442" lon="-1.89608">
        <ele>3</ele>
        <time>2018-01-07T03:24:08Z</time>
      </trkpt>
      <trkpt lat="46.72455" lon="-1.89591">
        <ele>3</ele>
        <time>2018-01-07T03:25:08Z</time>
      </trkpt>
      <trkpt lat="46.7247" lon="-1.89559">
        <ele>4</ele>
        <time>2018-01-07T03:26:08Z</time>
      </trkpt>
      <trkpt lat="46.72476" lon="-1.89546">
        <ele>4</ele>
        <time>2018-01-07T03:27:08Z</time>
      </trkpt>
      <trkpt lat="46.72476" lon="-1.89545">
        <ele>4</ele>
        <time>2018-01-07T03:28:08Z</time>
      </trkpt>
      <trkpt lat="46.72475" lon="-1.89545">
        <ele>4</ele>
        <time>2018-01-07T03:29:08Z</time>
      </trkpt>
      <trkpt lat="46.72475" lon="-1.89544">
        <ele>4</ele>
        <time>2018-01-07T03:30:08Z</time>
      </trkpt>
      <trkpt lat="46.72475" lon="-1.89543">
        <ele>4</ele>
        <time>2018-01-07T03:31:08Z</time>
      </trkpt>
      <trkpt lat="46.72475" lon="-1.89542">
        <ele>4</ele>
        <time>2018-01-07T03:32:08Z</time>
      </trkpt>
      <trkpt lat="46.72475" lon="-1.89541">
        <ele>4</ele>
        <time>2018-01-07T03:33:08Z</time>
      </trkpt>
      <trkpt lat="46.72476" lon="-1.8954">
        <ele>4</ele>
        <time>2018-01-07T03:34:08Z</time>
      </trkpt>
      <trkpt lat="46.72476" lon="-1.89539">
        <ele>4</ele>
        <time>2018-01-07T03:35:08Z</time>
      </trkpt>
      <trkpt lat="46.72476" lon="-1.89538">
        <ele>4</ele>
        <time>2018-01-07T03:36:08Z</time>
      </trkpt>
      <trkpt lat="46.72476" lon="-1.89537">
        <ele>4</ele>
        <time>2018-01-07T03:37:08Z</time>
      </trkpt>
      <trkpt lat="46.72477" lon="-1.89537">
        <ele>4</ele>
        <time>2018-01-07T03:38:08Z</time>
      </trkpt>
      <trkpt lat="46.72477" lon="-1.89536">
        <ele>4</ele>
        <time>2018-01-07T03:39:08Z</time>
      </trkpt>
      <trkpt lat="46.72478" lon="-1.89536">
        <ele>4</ele>
        <time>2018-01-07T03:40:08Z</time>
      </trkpt>
      <trkpt lat="46.72478" lon="-1.89535">
        <ele>4</ele>
        <time>2018-01-07T03:41:08Z</time>
      </trkpt>
      <trkpt lat="46.72479" lon="-1.89534">
        <ele>4</ele>
        <time>2018-01-07T03:42:08Z</time>
      </trkpt>
      <trkpt lat="46.7248" lon="-1.89534">
        <ele>4</ele>
        <time>2018-01-07T03:43:08Z</time>
      </trkpt>
      <trkpt lat="46.7248" lon="-1.89533">
        <ele>4</ele>
        <time>2018-01-07T03:44:08Z</time>
      </trkpt>
      <trkpt lat="46.72481" lon="-1.89533">
        <ele>4</ele>
        <time>2018-01-07T03:45:08Z</time>
      </trkpt>
      <trkpt lat="46.72482" lon="-1.89533">
        <ele>4</ele>
        <time>2018-01-07T03:46:08Z</time>
      </trkpt>
      <trkpt lat="46.72483" lon="-1.89533">
        <ele>4</ele>
        <time>2018-01-07T03:47:08Z</time>
      </trkpt>
      <trkpt lat="46.72483" lon="-1.89534">
        <ele>4</ele>
        <time>2018-01-07T03:48:08Z</time>
      </trkpt>
      <trkpt lat="46.72484" lon="-1.89534">
        <ele>4</ele>
        <time>2018-01-07T03:49:08Z</time>
      </trkpt>
      <trkpt lat="46.72485" lon="-1.89534">
        <ele>4</ele>
        <time>2018-01-07T03:50:08Z</time>
      </trkpt>
      <trkpt lat="46.72495" lon="-1.89523">
        <ele>4</ele>
        <time>2018-01-07T03:51:08Z</time>
      </trkpt>
      <trkpt lat="46.72505" lon="-1.89518">
        <ele>4</ele>
        <time>2018-01-07T03:52:08Z</time>
      </trkpt>
      <trkpt lat="46.72523" lon="-1.89491">
        <ele>4</ele>
        <time>2018-01-07T03:53:08Z</time>
      </trkpt>
      <trkpt lat="46.72526" lon="-1.89486">
        <ele>4</ele>
        <time>2018-01-07T03:54:08Z</time>
      </trkpt>
      <trkpt lat="46.72545" lon="-1.89447">
        <ele>4</ele>
        <time>2018-01-07T03:55:08Z</time>
      </trkpt>
      <trkpt lat="46.72554" lon="-1.89428">
        <ele>4</ele>
        <time>2018-01-07T03:56:08Z</time>
      </trkpt>
      <trkpt lat="46.72555" lon="-1.89417">
        <ele>4</ele>
        <time>2018-01-07T03:57:08Z</time>
      </trkpt>
      <trkpt lat="46.72569" lon="-1.89371">
        <ele>5</ele>
        <time>2018-01-07T03:58:08Z</time>
      </trkpt>
      <trkpt lat="46.72573" lon="-1.89367">
        <ele>5</ele>
        <time>2018-01-07T03:59:08Z</time>
      </trkpt>
      <trkpt lat="46.72578" lon="-1.89344">
        <ele>5</ele>
        <time>2018-01-07T04:00:08Z</time>
      </trkpt>
      <trkpt lat="46.72586" lon="-1.89297">
        <ele>5</ele>
        <time>2018-01-07T04:01:08Z</time>
      </trkpt>
      <trkpt lat="46.72595" lon="-1.89253">
        <ele>5</ele>
        <time>2018-01-07T04:02:08Z</time>
      </trkpt>
      <trkpt lat="46.72603" lon="-1.89203">
        <ele>6</ele>
        <time>2018-01-07T04:03:08Z</time>
      </trkpt>
      <trkpt lat="46.72611" lon="-1.89151">
        <ele>6</ele>
        <time>2018-01-07T04:04:08Z</time>
      </trkpt>
      <trkpt lat="46.72615" lon="-1.89119">
        <ele>6</ele>
        <time>2018-01-07T04:05:08Z</time>
      </trkpt>
      <trkpt lat="46.72624" lon="-1.89045">
        <ele>6</ele>
        <time>2018-01-07T04:06:08Z</time>
      </trkpt>
      <trkpt lat="46.72634" lon="-1.88962">
        <ele>6</ele>
        <time>2018-01-07T04:07:08Z</time>
      </trkpt>
      <trkpt lat="46.72641" lon="-1.88904">
        <ele>6</ele>
        <time>2018-01-07T04:08:08Z</time>
      </trkpt>
      <trkpt lat="46.7265" lon="-1.88821">
        <ele>6</ele>
        <time>2018-01-07T04:09:08Z</time>
      </trkpt>
      <trkpt lat="46.72657" lon="-1.88762">
        <ele>6</ele>
        <time>2018-01-07T04:10:08Z</time>
      </trkpt>
      <trkpt lat="46.72667" lon="-1.88649">
        <ele>6</ele>
        <time>2018-01-07T04:11:08Z</time>
      </trkpt>
      <trkpt lat="46.72669" lon="-1.88627">
        <ele>5</ele>
        <time>2018-01-07T04:12:08Z</time>
      </trkpt>
      <trkpt lat="46.72673" lon="-1.88584">
        <ele>5</ele>
        <time>2018-01-07T04:13:08Z</time>
      </trkpt>
      <trkpt lat="46.72678" lon="-1.88523">
        <ele>4</ele>
        <time>2018-01-07T04:14:08Z</time>
      </trkpt>
      <trkpt lat="46.72682" lon="-1.88474">
        <ele>4</ele>
        <time>2018-01-07T04:15:08Z</time>
      </trkpt>
      <trkpt lat="46.72686" lon="-1.88428">
        <ele>5</ele>
        <time>2018-01-07T04:16:08Z</time>
      </trkpt>
      <trkpt lat="46.72687" lon="-1.88419">
        <ele>5</ele>
        <time>2018-01-07T04:17:08Z</time>
      </trkpt>
      <trkpt lat="46.72688" lon="-1.88414">
        <ele>5</ele>
        <time>2018-01-07T04:18:08Z</time>
      </trkpt>
      <trkpt lat="46.72689" lon="-1.88405">
        <ele>5</ele>
        <time>2018-01-07T04:19:08Z</time>
      </trkpt>
      <trkpt lat="46.72694" lon="-1.88384">
        <ele>5</ele>
        <time>2018-01-07T04:20:08Z</time>
      </trkpt>
      <trkpt lat="46.72701" lon="-1.88354">
        <ele>5</ele>
        <time>2018-01-07T04:21:08Z</time>
      </trkpt>
      <trkpt lat="46.72708" lon="-1.88329">
        <ele>5</ele>
        <time>2018-01-07T04:22:08Z</time>
      </trkpt>
      <trkpt lat="46.72718" lon="-1.88298">
        <ele>6</ele>
        <time>2018-01-07T04:23:08Z</time>
      </trkpt>
      <trkpt lat="46.72729" lon="-1.88265">
        <ele>7</ele>
        <time>2018-01-07T04:24:08Z</time>
      </trkpt>
      <trkpt lat="46.72743" lon="-1.88234">
        <ele>8</ele>
        <time>2018-01-07T04:25:08Z</time>
      </trkpt>
      <trkpt lat="46.72753" lon="-1.88214">
        <ele>8</ele>
        <time>2018-01-07T04:26:08Z</time>
      </trkpt>
      <trkpt lat="46.72758" lon="-1.88205">
        <ele>8</ele>
        <time>2018-01-07T04:27:08Z</time>
      </trkpt>
      <trkpt lat="46.72774" lon="-1.88175">
        <ele>9</ele>
        <time>2018-01-07T04:28:08Z</time>
      </trkpt>
      <trkpt lat="46.7278" lon="-1.88165">
        <ele>9</ele>
        <time>2018-01-07T04:29:08Z</time>
      </trkpt>
      <trkpt lat="46.72797" lon="-1.88139">
        <ele>10</ele>
        <time>2018-01-07T04:30:08Z</time>
      </trkpt>
      <trkpt lat="46.72822" lon="-1.88105">
        <ele>12</ele>
        <time>2018-01-07T04:31:08Z</time>
      </trkpt>
      <trkpt lat="46.72845" lon="-1.88074">
        <ele>12</ele>
        <time>2018-01-07T04:32:08Z</time>
      </trkpt>
      <trkpt lat="46.72857" lon="-1.88056">
        <ele>12</ele>
        <time>2018-01-07T04:33:08Z</time>
      </trkpt>
      <trkpt lat="46.72877" lon="-1.88029">
        <ele>12</ele>
        <time>2018-01-07T04:34:08Z</time>
      </trkpt>
      <trkpt lat="46.72901" lon="-1.87996">
        <ele>12</ele>
        <time>2018-01-07T04:35:08Z</time>
      </trkpt>
      <trkpt lat="46.72903" lon="-1.87993">
        <ele>12</ele>
        <time>2018-01-07T04:36:08Z</time>
      </trkpt>
      <trkpt lat="46.72915" lon="-1.87978">
        <ele>12</ele>
        <time>2018-01-07T04:37:08Z</time>
      </trkpt>
      <trkpt lat="46.72931" lon="-1.87954">
        <ele>12</ele>
        <time>2018-01-07T04:38:08Z</time>
      </trkpt>
      <trkpt lat="46.72942" lon="-1.87939">
        <ele>12</ele>
        <time>2018-01-07T04:39:08Z</time>
      </trkpt>
      <trkpt lat="46.72957" lon="-1.87915">
        <ele>12</ele>
        <time>2018-01-07T04:40:08Z</time>
      </trkpt>
      <trkpt lat="46.72971" lon="-1.8789">
        <ele>11</ele>
        <time>2018-01-07T04:41:08Z</time>
      </trkpt>
      <trkpt lat="46.72982" lon="-1.87863">
        <ele>11</ele>
        <time>2018-01-07T04:42:08Z</time>
      </trkpt>
      <trkpt lat="46.7299" lon="-1.87843">
        <ele>11</ele>
        <time>2018-01-07T04:43:08Z</time>
      </trkpt>
      <trkpt lat="46.73" lon="-1.87814">
        <ele>11</ele>
        <time>2018-01-07T04:44:08Z</time>
      </trkpt>
      <trkpt lat="46.73003" lon="-1.87797">
        <ele>11</ele>
        <time>2018-01-07T04:45:08Z</time>
      </trkpt>
      <trkpt lat="46.73005" lon="-1.87792">
        <ele>11</ele>
        <time>2018-01-07T04:46:08Z</time>
      </trkpt>
      <trkpt lat="46.7301" lon="-1.87775">
        <ele>11</ele>
        <time>2018-01-07T04:47:08Z</time>
      </trkpt>
      <trkpt lat="46.73032" lon="-1.87707">
        <ele>11</ele>
        <time>2018-01-07T04:48:08Z</time>
      </trkpt>
      <trkpt lat="46.73037" lon="-1.8769">
        <ele>11</ele>
        <time>2018-01-07T04:49:08Z</time>
      </trkpt>
      <trkpt lat="46.7305" lon="-1.87651">
        <ele>11</ele>
        <time>2018-01-07T04:50:08Z</time>
      </trkpt>
      <trkpt lat="46.73054" lon="-1.87646">
        <ele>11</ele>
        <time>2018-01-07T04:51:08Z</time>
      </trkpt>
      <trkpt lat="46.73065" lon="-1.87612">
        <ele>11</ele>
        <time>2018-01-07T04:52:08Z</time>
      </trkpt>
      <trkpt lat="46.73069" lon="-1.87597">
        <ele>11</ele>
        <time>2018-01-07T04:53:08Z</time>
      </trkpt>
      <trkpt lat="46.73071" lon="-1.87591">
        <ele>11</ele>
        <time>2018-01-07T04:54:08Z</time>
      </trkpt>
      <trkpt lat="46.73084" lon="-1.87547">
        <ele>11</ele>
        <time>2018-01-07T04:55:08Z</time>
      </trkpt>
      <trkpt lat="46.73092" lon="-1.87524">
        <ele>11</ele>
        <time>2018-01-07T04:56:08Z</time>
      </trkpt>
      <trkpt lat="46.73132" lon="-1.87393">
        <ele>12</ele>
        <time>2018-01-07T04:57:08Z</time>
      </trkpt>
      <trkpt lat="46.73159" lon="-1.87307">
        <ele>12</ele>
        <time>2018-01-07T04:58:08Z</time>
      </trkpt>
      <trkpt lat="46.73176" lon="-1.87254">
        <ele>12</ele>
        <time>2018-01-07T04:59:08Z</time>
      </trkpt>
      <trkpt lat="46.73179" lon="-1.87237">
        <ele>12</ele>
        <time>2018-01-07T05:00:08Z</time>
      </trkpt>
      <trkpt lat="46.7318" lon="-1.8723">
        <ele>12</ele>
        <time>2018-01-07T05:01:08Z</time>
      </trkpt>
      <trkpt lat="46.73181" lon="-1.87222">
        <ele>12</ele>
        <time>2018-01-07T05:02:08Z</time>
      </trkpt>
      <trkpt lat="46.73183" lon="-1.87214">
        <ele>12</ele>
        <time>2018-01-07T05:03:08Z</time>
      </trkpt>
      <trkpt lat="46.73183" lon="-1.87205">
        <ele>12</ele>
        <time>2018-01-07T05:04:08Z</time>
      </trkpt>
      <trkpt lat="46.73184" lon="-1.87191">
        <ele>12</ele>
        <time>2018-01-07T05:05:08Z</time>
      </trkpt>
      <trkpt lat="46.73184" lon="-1.87191">
        <ele>12</ele>
        <time>2018-01-07T05:06:08Z</time>
      </trkpt>
      <trkpt lat="46.73183" lon="-1.8719">
        <ele>12</ele>
        <time>2018-01-07T05:07:08Z</time>
      </trkpt>
      <trkpt lat="46.73182" lon="-1.87188">
        <ele>12</ele>
        <time>2018-01-07T05:08:08Z</time>
      </trkpt>
      <trkpt lat="46.73181" lon="-1.87186">
        <ele>12</ele>
        <time>2018-01-07T05:09:08Z</time>
      </trkpt>
      <trkpt lat="46.7318" lon="-1.87184">
        <ele>12</ele>
        <time>2018-01-07T05:10:08Z</time>
      </trkpt>
      <trkpt lat="46.7318" lon="-1.87182">
        <ele>12</ele>
        <time>2018-01-07T05:11:08Z</time>
      </trkpt>
      <trkpt lat="46.73179" lon="-1.8718">
        <ele>12</ele>
        <time>2018-01-07T05:12:08Z</time>
      </trkpt>
      <trkpt lat="46.73179" lon="-1.87178">
        <ele>12</ele>
        <time>2018-01-07T05:13:08Z</time>
      </trkpt>
      <trkpt lat="46.73178" lon="-1.87175">
        <ele>13</ele>
        <time>2018-01-07T05:14:08Z</time>
      </trkpt>
      <trkpt lat="46.73178" lon="-1.87172">
        <ele>13</ele>
        <time>2018-01-07T05:15:08Z</time>
      </trkpt>
      <trkpt lat="46.73178" lon="-1.87169">
        <ele>13</ele>
        <time>2018-01-07T05:16:08Z</time>
      </trkpt>
      <trkpt lat="46.73179" lon="-1.87166">
        <ele>13</ele>
        <time>2018-01-07T05:17:08Z</time>
      </trkpt>
      <trkpt lat="46.73179" lon="-1.87163">
        <ele>12</ele>
        <time>2018-01-07T05:18:08Z</time>
      </trkpt>
      <trkpt lat="46.7318" lon="-1.8716">
        <ele>12</ele>
        <time>2018-01-07T05:19:08Z</time>
      </trkpt>
      <trkpt lat="46.7318" lon="-1.87158">
        <ele>12</ele>
        <time>2018-01-07T05:20:08Z</time>
      </trkpt>
      <trkpt lat="46.73181" lon="-1.87155">
        <ele>12</ele>
        <time>2018-01-07T05:21:08Z</time>
      </trkpt>
      <trkpt lat="46.73182" lon="-1.87152">
        <ele>12</ele>
        <time>2018-01-07T05:22:08Z</time>
      </trkpt>
      <trkpt lat="46.73184" lon="-1.8715">
        <ele>12</ele>
        <time>2018-01-07T05:23:08Z</time>
      </trkpt>
      <trkpt lat="46.73186" lon="-1.87148">
        <ele>12</ele>
        <time>2018-01-07T05:24:08Z</time>
      </trkpt>
      <trkpt lat="46.73187" lon="-1.87148">
        <ele>12</ele>
        <time>2018-01-07T05:25:08Z</time>
      </trkpt>
      <trkpt lat="46.73188" lon="-1.87147">
        <ele>12</ele>
        <time>2018-01-07T05:26:08Z</time>
      </trkpt>
      <trkpt lat="46.73189" lon="-1.87146">
        <ele>12</ele>
        <time>2018-01-07T05:27:08Z</time>
      </trkpt>
      <trkpt lat="46.7319" lon="-1.87145">
        <ele>12</ele>
        <time>2018-01-07T05:28:08Z</time>
      </trkpt>
      <trkpt lat="46.73191" lon="-1.87145">
        <ele>12</ele>
        <time>2018-01-07T05:29:08Z</time>
      </trkpt>
      <trkpt lat="46.73192" lon="-1.87144">
        <ele>12</ele>
        <time>2018-01-07T05:30:08Z</time>
      </trkpt>
      <trkpt lat="46.73194" lon="-1.87144">
        <ele>12</ele>
        <time>2018-01-07T05:31:08Z</time>
      </trkpt>
      <trkpt lat="46.73195" lon="-1.87144">
        <ele>12</ele>
        <time>2018-01-07T05:32:08Z</time>
      </trkpt>
      <trkpt lat="46.73199" lon="-1.87141">
        <ele>11</ele>
        <time>2018-01-07T05:33:08Z</time>
      </trkpt>
      <trkpt lat="46.73203" lon="-1.87137">
        <ele>11</ele>
        <time>2018-01-07T05:34:08Z</time>
      </trkpt>
      <trkpt lat="46.73205" lon="-1.87132">
        <ele>11</ele>
        <time>2018-01-07T05:35:08Z</time>
      </trkpt>
      <trkpt lat="46.73208" lon="-1.87126">
        <ele>11</ele>
        <time>2018-01-07T05:36:08Z</time>
      </trkpt>
      <trkpt lat="46.73209" lon="-1.8712">
        <ele>11</ele>
        <time>2018-01-07T05:37:08Z</time>
      </trkpt>
      <trkpt lat="46.73211" lon="-1.87109">
        <ele>11</ele>
        <time>2018-01-07T05:38:08Z</time>
      </trkpt>
      <trkpt lat="46.7321" lon="-1.871">
        <ele>11</ele>
        <time>2018-01-07T05:39:08Z</time>
      </trkpt>
      <trkpt lat="46.73208" lon="-1.87069">
        <ele>10</ele>
        <time>2018-01-07T05:40:08Z</time>
      </trkpt>
      <trkpt lat="46.73206" lon="-1.87034">
        <ele>10</ele>
        <time>2018-01-07T05:41:08Z</time>
      </trkpt>
      <trkpt lat="46.73204" lon="-1.87006">
        <ele>10</ele>
        <time>2018-01-07T05:42:08Z</time>
      </trkpt>
      <trkpt lat="46.73203" lon="-1.86984">
        <ele>9</ele>
        <time>2018-01-07T05:43:08Z</time>
      </trkpt>
      <trkpt lat="46.73202" lon="-1.86972">
        <ele>9</ele>
        <time>2018-01-07T05:44:08Z</time>
      </trkpt>
      <trkpt lat="46.73198" lon="-1.86945">
        <ele>8</ele>
        <time>2018-01-07T05:45:08Z</time>
      </trkpt>
      <trkpt lat="46.73191" lon="-1.86902">
        <ele>8</ele>
        <time>2018-01-07T05:46:08Z</time>
      </trkpt>
      <trkpt lat="46.7318" lon="-1.86831">
        <ele>7</ele>
        <time>2018-01-07T05:47:08Z</time>
      </trkpt>
      <trkpt lat="46.73167" lon="-1.86748">
        <ele>6</ele>
        <time>2018-01-07T05:48:08Z</time>
      </trkpt>
      <trkpt lat="46.73162" lon="-1.86716">
        <ele>7</ele>
        <time>2018-01-07T05:49:08Z</time>
      </trkpt>
      <trkpt lat="46.73154" lon="-1.86672">
        <ele>8</ele>
        <time>2018-01-07T05:50:08Z</time>
      </trkpt>
      <trkpt lat="46.73145" lon="-1.86608">
        <ele>10</ele>
        <time>2018-01-07T05:51:08Z</time>
      </trkpt>
      <trkpt lat="46.73139" lon="-1.86573">
        <ele>11</ele>
        <time>2018-01-07T05:52:08Z</time>
      </trkpt>
      <trkpt lat="46.73136" lon="-1.86555">
        <ele>11</ele>
        <time>2018-01-07T05:53:08Z</time>
      </trkpt>
      <trkpt lat="46.73135" lon="-1.86543">
        <ele>11</ele>
        <time>2018-01-07T05:54:08Z</time>
      </trkpt>
      <trkpt lat="46.73133" lon="-1.86528">
        <ele>11</ele>
        <time>2018-01-07T05:55:08Z</time>
      </trkpt>
      <trkpt lat="46.73133" lon="-1.8651">
        <ele>10</ele>
        <time>2018-01-07T05:56:08Z</time>
      </trkpt>
      <trkpt lat="46.73133" lon="-1.86486">
        <ele>10</ele>
        <time>2018-01-07T05:57:08Z</time>
      </trkpt>
      <trkpt lat="46.73133" lon="-1.86467">
        <ele>10</ele>
        <time>2018-01-07T05:58:08Z</time>
      </trkpt>
      <trkpt lat="46.73134" lon="-1.86386">
        <ele>9</ele>
        <time>2018-01-07T05:59:08Z</time>
      </trkpt>
      <trkpt lat="46.73136" lon="-1.86309">
        <ele>10</ele>
        <time>2018-01-07T06:00:08Z</time>
      </trkpt>
      <trkpt lat="46.73137" lon="-1.86284">
        <ele>10</ele>
        <time>2018-01-07T06:01:08Z</time>
      </trkpt>
      <trkpt lat="46.7314" lon="-1.86155">
        <ele>11</ele>
        <time>2018-01-07T06:02:08Z</time>
      </trkpt>
      <trkpt lat="46.73141" lon="-1.86123">
        <ele>11</ele>
        <time>2018-01-07T06:03:08Z</time>
      </trkpt>
      <trkpt lat="46.73142" lon="-1.86101">
        <ele>11</ele>
        <time>2018-01-07T06:04:08Z</time>
      </trkpt>
      <trkpt lat="46.73142" lon="-1.86074">
        <ele>11</ele>
        <time>2018-01-07T06:05:08Z</time>
      </trkpt>
      <trkpt lat="46.73142" lon="-1.86052">
        <ele>11</ele>
        <time>2018-01-07T06:06:08Z</time>
      </trkpt>
      <trkpt lat="46.73141" lon="-1.8603">
        <ele>11</ele>
        <time>2018-01-07T06:07:08Z</time>
      </trkpt>
      <trkpt lat="46.73139" lon="-1.86009">
        <ele>11</ele>
        <time>2018-01-07T06:08:08Z</time>
      </trkpt>
      <trkpt lat="46.73136" lon="-1.85988">
        <ele>11</ele>
        <time>2018-01-07T06:09:08Z</time>
      </trkpt>
      <trkpt lat="46.73131" lon="-1.85958">
        <ele>10</ele>
        <time>2018-01-07T06:10:08Z</time>
      </trkpt>
      <trkpt lat="46.73119" lon="-1.85908">
        <ele>10</ele>
        <time>2018-01-07T06:11:08Z</time>
      </trkpt>
      <trkpt lat="46.73101" lon="-1.85837">
        <ele>10</ele>
        <time>2018-01-07T06:12:08Z</time>
      </trkpt>
      <trkpt lat="46.7309" lon="-1.85791">
        <ele>11</ele>
        <time>2018-01-07T06:13:08Z</time>
      </trkpt>
      <trkpt lat="46.73087" lon="-1.85769">
        <ele>12</ele>
        <time>2018-01-07T06:14:08Z</time>
      </trkpt>
      <trkpt lat="46.73084" lon="-1.85756">
        <ele>12</ele>
        <time>2018-01-07T06:15:08Z</time>
      </trkpt>
      <trkpt lat="46.73081" lon="-1.85738">
        <ele>12</ele>
        <time>2018-01-07T06:16:08Z</time>
      </trkpt>
      <trkpt lat="46.73079" lon="-1.85723">
        <ele>12</ele>
        <time>2018-01-07T06:17:08Z</time>
      </trkpt>
      <trkpt lat="46.73075" lon="-1.85694">
        <ele>12</ele>
        <time>2018-01-07T06:18:08Z</time>
      </trkpt>
      <trkpt lat="46.73071" lon="-1.85665">
        <ele>11</ele>
        <time>2018-01-07T06:19:08Z</time>
      </trkpt>
      <trkpt lat="46.73067" lon="-1.85628">
        <ele>12</ele>
        <time>2018-01-07T06:20:08Z</time>
      </trkpt>
      <trkpt lat="46.73061" lon="-1.85588">
        <ele>12</ele>
        <time>2018-01-07T06:21:08Z</time>
      </trkpt>
      <trkpt lat="46.7306" lon="-1.85579">
        <ele>12</ele>
        <time>2018-01-07T06:22:08Z</time>
      </trkpt>
      <trkpt lat="46.73056" lon="-1.85546">
        <ele>12</ele>
        <time>2018-01-07T06:23:08Z</time>
      </trkpt>
      <trkpt lat="46.73055" lon="-1.85538">
        <ele>12</ele>
        <time>2018-01-07T06:24:08Z</time>
      </trkpt>
      <trkpt lat="46.73053" lon="-1.85515">
        <ele>12</ele>
        <time>2018-01-07T06:25:08Z</time>
      </trkpt>
      <trkpt lat="46.73051" lon="-1.85501">
        <ele>12</ele>
        <time>2018-01-07T06:26:08Z</time>
      </trkpt>
      <trkpt lat="46.73051" lon="-1.85486">
        <ele>12</ele>
        <time>2018-01-07T06:27:08Z</time>
      </trkpt>
      <trkpt lat="46.7305" lon="-1.85471">
        <ele>12</ele>
        <time>2018-01-07T06:28:08Z</time>
      </trkpt>
      <trkpt lat="46.73051" lon="-1.85456">
        <ele>12</ele>
        <time>2018-01-07T06:29:08Z</time>
      </trkpt>
      <trkpt lat="46.73051" lon="-1.85439">
        <ele>11</ele>
        <time>2018-01-07T06:30:08Z</time>
      </trkpt>
      <trkpt lat="46.73053" lon="-1.85427">
        <ele>11</ele>
        <time>2018-01-07T06:31:08Z</time>
      </trkpt>
      <trkpt lat="46.73054" lon="-1.85413">
        <ele>11</ele>
        <time>2018-01-07T06:32:08Z</time>
      </trkpt>
      <trkpt lat="46.73056" lon="-1.85399">
        <ele>11</ele>
        <time>2018-01-07T06:33:08Z</time>
      </trkpt>
      <trkpt lat="46.73059" lon="-1.85384">
        <ele>11</ele>
        <time>2018-01-07T06:34:08Z</time>
      </trkpt>
      <trkpt lat="46.73066" lon="-1.85362">
        <ele>11</ele>
        <time>2018-01-07T06:35:08Z</time>
      </trkpt>
      <trkpt lat="46.73076" lon="-1.85329">
        <ele>11</ele>
        <time>2018-01-07T06:36:08Z</time>
      </trkpt>
      <trkpt lat="46.73094" lon="-1.8528">
        <ele>13</ele>
        <time>2018-01-07T06:37:08Z</time>
      </trkpt>
      <trkpt lat="46.73106" lon="-1.85246">
        <ele>14</ele>
        <time>2018-01-07T06:38:08Z</time>
      </trkpt>
      <trkpt lat="46.73125" lon="-1.85192">
        <ele>17</ele>
        <time>2018-01-07T06:39:08Z</time>
      </trkpt>
      <trkpt lat="46.73153" lon="-1.85112">
        <ele>18</ele>
        <time>2018-01-07T06:40:08Z</time>
      </trkpt>
      <trkpt lat="46.73165" lon="-1.85077">
        <ele>18</ele>
        <time>2018-01-07T06:41:08Z</time>
      </trkpt>
      <trkpt lat="46.73182" lon="-1.85028">
        <ele>19</ele>
        <time>2018-01-07T06:42:08Z</time>
      </trkpt>
      <trkpt lat="46.73206" lon="-1.8496">
        <ele>19</ele>
        <time>2018-01-07T06:43:08Z</time>
      </trkpt>
      <trkpt lat="46.73232" lon="-1.84885">
        <ele>20</ele>
        <time>2018-01-07T06:44:08Z</time>
      </trkpt>
      <trkpt lat="46.73257" lon="-1.84813">
        <ele>20</ele>
        <time>2018-01-07T06:45:08Z</time>
      </trkpt>
      <trkpt lat="46.73281" lon="-1.84742">
        <ele>19</ele>
        <time>2018-01-07T06:46:08Z</time>
      </trkpt>
      <trkpt lat="46.7329" lon="-1.84716">
        <ele>19</ele>
        <time>2018-01-07T06:47:08Z</time>
      </trkpt>
      <trkpt lat="46.73296" lon="-1.84697">
        <ele>20</ele>
        <time>2018-01-07T06:48:08Z</time>
      </trkpt>
      <trkpt lat="46.73301" lon="-1.84673">
        <ele>20</ele>
        <time>2018-01-07T06:49:08Z</time>
      </trkpt>
      <trkpt lat="46.73306" lon="-1.84653">
        <ele>20</ele>
        <time>2018-01-07T06:50:08Z</time>
      </trkpt>
      <trkpt lat="46.73311" lon="-1.84629">
        <ele>21</ele>
        <time>2018-01-07T06:51:08Z</time>
      </trkpt>
      <trkpt lat="46.73324" lon="-1.84555">
        <ele>21</ele>
        <time>2018-01-07T06:52:08Z</time>
      </trkpt>
      <trkpt lat="46.73337" lon="-1.84483">
        <ele>20</ele>
        <time>2018-01-07T06:53:08Z</time>
      </trkpt>
      <trkpt lat="46.73346" lon="-1.84431">
        <ele>19</ele>
        <time>2018-01-07T06:54:08Z</time>
      </trkpt>
      <trkpt lat="46.73351" lon="-1.84399">
        <ele>19</ele>
        <time>2018-01-07T06:55:08Z</time>
      </trkpt>
      <trkpt lat="46.73356" lon="-1.84369">
        <ele>20</ele>
        <time>2018-01-07T06:56:08Z</time>
      </trkpt>
      <trkpt lat="46.73358" lon="-1.84353">
        <ele>20</ele>
        <time>2018-01-07T06:57:08Z</time>
      </trkpt>
      <trkpt lat="46.7336" lon="-1.84337">
        <ele>20</ele>
        <time>2018-01-07T06:58:08Z</time>
      </trkpt>
      <trkpt lat="46.73362" lon="-1.84325">
        <ele>20</ele>
        <time>2018-01-07T06:59:08Z</time>
      </trkpt>
      <trkpt lat="46.73362" lon="-1.8431">
        <ele>20</ele>
        <time>2018-01-07T07:00:08Z</time>
      </trkpt>
      <trkpt lat="46.73363" lon="-1.84294">
        <ele>20</ele>
        <time>2018-01-07T07:01:08Z</time>
      </trkpt>
      <trkpt lat="46.73363" lon="-1.8428">
        <ele>21</ele>
        <time>2018-01-07T07:02:08Z</time>
      </trkpt>
      <trkpt lat="46.73363" lon="-1.84257">
        <ele>21</ele>
        <time>2018-01-07T07:03:08Z</time>
      </trkpt>
      <trkpt lat="46.73363" lon="-1.84237">
        <ele>21</ele>
        <time>2018-01-07T07:04:08Z</time>
      </trkpt>
      <trkpt lat="46.73363" lon="-1.84201">
        <ele>21</ele>
        <time>2018-01-07T07:05:08Z</time>
      </trkpt>
      <trkpt lat="46.73362" lon="-1.84127">
        <ele>21</ele>
        <time>2018-01-07T07:06:08Z</time>
      </trkpt>
      <trkpt lat="46.73361" lon="-1.84068">
        <ele>21</ele>
        <time>2018-01-07T07:07:08Z</time>
      </trkpt>
      <trkpt lat="46.7336" lon="-1.83992">
        <ele>20</ele>
        <time>2018-01-07T07:08:08Z</time>
      </trkpt>
      <trkpt lat="46.73359" lon="-1.83933">
        <ele>20</ele>
        <time>2018-01-07T07:09:08Z</time>
      </trkpt>
      <trkpt lat="46.73359" lon="-1.8389">
        <ele>20</ele>
        <time>2018-01-07T07:10:08Z</time>
      </trkpt>
      <trkpt lat="46.7336" lon="-1.83867">
        <ele>20</ele>
        <time>2018-01-07T07:11:08Z</time>
      </trkpt>
      <trkpt lat="46.73361" lon="-1.83842">
        <ele>20</ele>
        <time>2018-01-07T07:12:08Z</time>
      </trkpt>
      <trkpt lat="46.73364" lon="-1.83811">
        <ele>20</ele>
        <time>2018-01-07T07:13:08Z</time>
      </trkpt>
      <trkpt lat="46.73368" lon="-1.83778">
        <ele>20</ele>
        <time>2018-01-07T07:14:08Z</time>
      </trkpt>
      <trkpt lat="46.73374" lon="-1.83726">
        <ele>20</ele>
        <time>2018-01-07T07:15:08Z</time>
      </trkpt>
      <trkpt lat="46.73375" lon="-1.8372">
        <ele>20</ele>
        <time>2018-01-07T07:16:08Z</time>
      </trkpt>
      <trkpt lat="46.73382" lon="-1.83667">
        <ele>21</ele>
        <time>2018-01-07T07:17:08Z</time>
      </trkpt>
      <trkpt lat="46.73387" lon="-1.83626">
        <ele>21</ele>
        <time>2018-01-07T07:18:08Z</time>
      </trkpt>
      <trkpt lat="46.73388" lon="-1.83618">
        <ele>21</ele>
        <time>2018-01-07T07:19:08Z</time>
      </trkpt>
      <trkpt lat="46.73391" lon="-1.83596">
        <ele>21</ele>
        <time>2018-01-07T07:20:08Z</time>
      </trkpt>
      <trkpt lat="46.73391" lon="-1.83594">
        <ele>21</ele>
        <time>2018-01-07T07:21:08Z</time>
      </trkpt>
      <trkpt lat="46.73395" lon="-1.83571">
        <ele>21</ele>
        <time>2018-01-07T07:22:08Z</time>
      </trkpt>
      <trkpt lat="46.73398" lon="-1.83555">
        <ele>21</ele>
        <time>2018-01-07T07:23:08Z</time>
      </trkpt>
      <trkpt lat="46.73404" lon="-1.83535">
        <ele>22</ele>
        <time>2018-01-07T07:24:08Z</time>
      </trkpt>
      <trkpt lat="46.73408" lon="-1.83521">
        <ele>22</ele>
        <time>2018-01-07T07:25:08Z</time>
      </trkpt>
      <trkpt lat="46.73413" lon="-1.83508">
        <ele>22</ele>
        <time>2018-01-07T07:26:08Z</time>
      </trkpt>
      <trkpt lat="46.73419" lon="-1.83496">
        <ele>22</ele>
        <time>2018-01-07T07:27:08Z</time>
      </trkpt>
      <trkpt lat="46.73422" lon="-1.83491">
        <ele>22</ele>
        <time>2018-01-07T07:28:08Z</time>
      </trkpt>
      <trkpt lat="46.73428" lon="-1.83479">
        <ele>22</ele>
        <time>2018-01-07T07:29:08Z</time>
      </trkpt>
      <trkpt lat="46.73438" lon="-1.83464">
        <ele>22</ele>
        <time>2018-01-07T07:30:08Z</time>
      </trkpt>
      <trkpt lat="46.73451" lon="-1.83447">
        <ele>22</ele>
        <time>2018-01-07T07:31:08Z</time>
      </trkpt>
      <trkpt lat="46.73478" lon="-1.83413">
        <ele>22</ele>
        <time>2018-01-07T07:32:08Z</time>
      </trkpt>
      <trkpt lat="46.73522" lon="-1.83358">
        <ele>21</ele>
        <time>2018-01-07T07:33:08Z</time>
      </trkpt>
      <trkpt lat="46.73532" lon="-1.83342">
        <ele>21</ele>
        <time>2018-01-07T07:34:08Z</time>
      </trkpt>
      <trkpt lat="46.7354" lon="-1.83328">
        <ele>21</ele>
        <time>2018-01-07T07:35:08Z</time>
      </trkpt>
      <trkpt lat="46.73548" lon="-1.83311">
        <ele>21</ele>
        <time>2018-01-07T07:36:08Z</time>
      </trkpt>
      <trkpt lat="46.73554" lon="-1.83296">
        <ele>21</ele>
        <time>2018-01-07T07:37:08Z</time>
      </trkpt>
      <trkpt lat="46.73559" lon="-1.83282">
        <ele>21</ele>
        <time>2018-01-07T07:38:08Z</time>
      </trkpt>
      <trkpt lat="46.7356" lon="-1.83276">
        <ele>21</ele>
        <time>2018-01-07T07:39:08Z</time>
      </trkpt>
      <trkpt lat="46.73563" lon="-1.83266">
        <ele>21</ele>
        <time>2018-01-07T07:40:08Z</time>
      </trkpt>
      <trkpt lat="46.73568" lon="-1.83245">
        <ele>21</ele>
        <time>2018-01-07T07:41:08Z</time>
      </trkpt>
      <trkpt lat="46.73578" lon="-1.83204">
        <ele>20</ele>
        <time>2018-01-07T07:42:08Z</time>
      </trkpt>
      <trkpt lat="46.73579" lon="-1.83201">
        <ele>20</ele>
        <time>2018-01-07T07:43:08Z</time>
      </trkpt>
      <trkpt lat="46.73586" lon="-1.83173">
        <ele>20</ele>
        <time>2018-01-07T07:44:08Z</time>
      </trkpt>
      <trkpt lat="46.73591" lon="-1.83152">
        <ele>20</ele>
        <time>2018-01-07T07:45:08Z</time>
      </trkpt>
      <trkpt lat="46.73594" lon="-1.83142">
        <ele>20</ele>
        <time>2018-01-07T07:46:08Z</time>
      </trkpt>
      <trkpt lat="46.73597" lon="-1.8313">
        <ele>20</ele>
        <time>2018-01-07T07:47:08Z</time>
      </trkpt>
      <trkpt lat="46.73603" lon="-1.83115">
        <ele>20</ele>
        <time>2018-01-07T07:48:08Z</time>
      </trkpt>
      <trkpt lat="46.73608" lon="-1.83101">
        <ele>20</ele>
        <time>2018-01-07T07:49:08Z</time>
      </trkpt>
      <trkpt lat="46.7361" lon="-1.83097">
        <ele>20</ele>
        <time>2018-01-07T07:50:08Z</time>
      </trkpt>
      <trkpt lat="46.73615" lon="-1.83087">
        <ele>20</ele>
        <time>2018-01-07T07:51:08Z</time>
      </trkpt>
      <trkpt lat="46.73622" lon="-1.83077">
        <ele>21</ele>
        <time>2018-01-07T07:52:08Z</time>
      </trkpt>
      <trkpt lat="46.73629" lon="-1.83067">
        <ele>21</ele>
        <time>2018-01-07T07:53:08Z</time>
      </trkpt>
      <trkpt lat="46.73632" lon="-1.83063">
        <ele>21</ele>
        <time>2018-01-07T07:54:08Z</time>
      </trkpt>
      <trkpt lat="46.73637" lon="-1.83058">
        <ele>21</ele>
        <time>2018-01-07T07:55:08Z</time>
      </trkpt>
      <trkpt lat="46.73647" lon="-1.83048">
        <ele>21</ele>
        <time>2018-01-07T07:56:08Z</time>
      </trkpt>
      <trkpt lat="46.73658" lon="-1.8304">
        <ele>21</ele>
        <time>2018-01-07T07:57:08Z</time>
      </trkpt>
      <trkpt lat="46.73676" lon="-1.83028">
        <ele>21</ele>
        <time>2018-01-07T07:58:08Z</time>
      </trkpt>
      <trkpt lat="46.73715" lon="-1.83">
        <ele>20</ele>
        <time>2018-01-07T07:59:08Z</time>
      </trkpt>
      <trkpt lat="46.73751" lon="-1.82972">
        <ele>19</ele>
        <time>2018-01-07T08:00:08Z</time>
      </trkpt>
      <trkpt lat="46.73776" lon="-1.82951">
        <ele>18</ele>
        <time>2018-01-07T08:01:08Z</time>
      </trkpt>
      <trkpt lat="46.73788" lon="-1.82939">
        <ele>18</ele>
        <time>2018-01-07T08:02:08Z</time>
      </trkpt>
      <trkpt lat="46.73799" lon="-1.82926">
        <ele>17</ele>
        <time>2018-01-07T08:03:08Z</time>
      </trkpt>
      <trkpt lat="46.73807" lon="-1.82914">
        <ele>17</ele>
        <time>2018-01-07T08:04:08Z</time>
      </trkpt>
      <trkpt lat="46.73814" lon="-1.82901">
        <ele>17</ele>
        <time>2018-01-07T08:05:08Z</time>
      </trkpt>
      <trkpt lat="46.73818" lon="-1.82893">
        <ele>17</ele>
        <time>2018-01-07T08:06:08Z</time>
      </trkpt>
      <trkpt lat="46.73822" lon="-1.82882">
        <ele>17</ele>
        <time>2018-01-07T08:07:08Z</time>
      </trkpt>
      <trkpt lat="46.73826" lon="-1.82869">
        <ele>17</ele>
        <time>2018-01-07T08:08:08Z</time>
      </trkpt>
      <trkpt lat="46.7383" lon="-1.82855">
        <ele>16</ele>
        <time>2018-01-07T08:09:08Z</time>
      </trkpt>
      <trkpt lat="46.73835" lon="-1.82839">
        <ele>16</ele>
        <time>2018-01-07T08:10:08Z</time>
      </trkpt>
      <trkpt lat="46.73839" lon="-1.82823">
        <ele>16</ele>
        <time>2018-01-07T08:11:08Z</time>
      </trkpt>
      <trkpt lat="46.73847" lon="-1.82788">
        <ele>14</ele>
        <time>2018-01-07T08:12:08Z</time>
      </trkpt>
      <trkpt lat="46.73848" lon="-1.82786">
        <ele>14</ele>
        <time>2018-01-07T08:13:08Z</time>
      </trkpt>
      <trkpt lat="46.7386" lon="-1.82741">
        <ele>12</ele>
        <time>2018-01-07T08:14:08Z</time>
      </trkpt>
      <trkpt lat="46.73878" lon="-1.82674">
        <ele>11</ele>
        <time>2018-01-07T08:15:08Z</time>
      </trkpt>
      <trkpt lat="46.73889" lon="-1.82629">
        <ele>10</ele>
        <time>2018-01-07T08:16:08Z</time>
      </trkpt>
      <trkpt lat="46.73897" lon="-1.82601">
        <ele>9</ele>
        <time>2018-01-07T08:17:08Z</time>
      </trkpt>
      <trkpt lat="46.73903" lon="-1.82577">
        <ele>9</ele>
        <time>2018-01-07T08:18:08Z</time>
      </trkpt>
      <trkpt lat="46.73911" lon="-1.82546">
        <ele>10</ele>
        <time>2018-01-07T08:19:08Z</time>
      </trkpt>
      <trkpt lat="46.73926" lon="-1.82489">
        <ele>11</ele>
        <time>2018-01-07T08:20:08Z</time>
      </trkpt>
      <trkpt lat="46.73936" lon="-1.82451">
        <ele>12</ele>
        <time>2018-01-07T08:21:08Z</time>
      </trkpt>
      <trkpt lat="46.73945" lon="-1.82415">
        <ele>13</ele>
        <time>2018-01-07T08:22:08Z</time>
      </trkpt>
      <trkpt lat="46.73951" lon="-1.82393">
        <ele>13</ele>
        <time>2018-01-07T08:23:08Z</time>
      </trkpt>
      <trkpt lat="46.73955" lon="-1.82374">
        <ele>13</ele>
        <time>2018-01-07T08:24:08Z</time>
      </trkpt>
      <trkpt lat="46.73953" lon="-1.82361">
        <ele>14</ele>
        <time>2018-01-07T08:25:08Z</time>
      </trkpt>
      <trkpt lat="46.73952" lon="-1.82357">
        <ele>14</ele>
        <time>2018-01-07T08:26:08Z</time>
      </trkpt>
      <trkpt lat="46.73948" lon="-1.8234">
        <ele>14</ele>
        <time>2018-01-07T08:27:08Z</time>
      </trkpt>
      <trkpt lat="46.73948" lon="-1.8234">
        <ele>14</ele>
        <time>2018-01-07T08:28:08Z</time>
      </trkpt>
      <trkpt lat="46.73947" lon="-1.82339">
        <ele>14</ele>
        <time>2018-01-07T08:29:08Z</time>
      </trkpt>
      <trkpt lat="46.73946" lon="-1.82337">
        <ele>14</ele>
        <time>2018-01-07T08:30:08Z</time>
      </trkpt>
      <trkpt lat="46.73946" lon="-1.82336">
        <ele>14</ele>
        <time>2018-01-07T08:31:08Z</time>
      </trkpt>
      <trkpt lat="46.73945" lon="-1.82332">
        <ele>14</ele>
        <time>2018-01-07T08:32:08Z</time>
      </trkpt>
      <trkpt lat="46.73945" lon="-1.82329">
        <ele>14</ele>
        <time>2018-01-07T08:33:08Z</time>
      </trkpt>
      <trkpt lat="46.73945" lon="-1.82325">
        <ele>14</ele>
        <time>2018-01-07T08:34:08Z</time>
      </trkpt>
      <trkpt lat="46.73946" lon="-1.82322">
        <ele>14</ele>
        <time>2018-01-07T08:35:08Z</time>
      </trkpt>
      <trkpt lat="46.73946" lon="-1.8232">
        <ele>14</ele>
        <time>2018-01-07T08:36:08Z</time>
      </trkpt>
      <trkpt lat="46.73947" lon="-1.82319">
        <ele>14</ele>
        <time>2018-01-07T08:37:08Z</time>
      </trkpt>
      <trkpt lat="46.73949" lon="-1.82318">
        <ele>14</ele>
        <time>2018-01-07T08:38:08Z</time>
      </trkpt>
      <trkpt lat="46.73949" lon="-1.82317">
        <ele>14</ele>
        <time>2018-01-07T08:39:08Z</time>
      </trkpt>
      <trkpt lat="46.73952" lon="-1.82316">
        <ele>14</ele>
        <time>2018-01-07T08:40:08Z</time>
      </trkpt>
      <trkpt lat="46.73954" lon="-1.82315">
        <ele>14</ele>
        <time>2018-01-07T08:41:08Z</time>
      </trkpt>
      <trkpt lat="46.73955" lon="-1.82315">
        <ele>14</ele>
        <time>2018-01-07T08:42:08Z</time>
      </trkpt>
      <trkpt lat="46.73957" lon="-1.82316">
        <ele>14</ele>
        <time>2018-01-07T08:43:08Z</time>
      </trkpt>
      <trkpt lat="46.73959" lon="-1.82317">
        <ele>14</ele>
        <time>2018-01-07T08:44:08Z</time>
      </trkpt>
      <trkpt lat="46.73965" lon="-1.82311">
        <ele>15</ele>
        <time>2018-01-07T08:45:08Z</time>
      </trkpt>
      <trkpt lat="46.73969" lon="-1.82308">
        <ele>15</ele>
        <time>2018-01-07T08:46:08Z</time>
      </trkpt>
      <trkpt lat="46.73971" lon="-1.82307">
        <ele>15</ele>
        <time>2018-01-07T08:47:08Z</time>
      </trkpt>
      <trkpt lat="46.73972" lon="-1.82302">
        <ele>15</ele>
        <time>2018-01-07T08:48:08Z</time>
      </trkpt>
      <trkpt lat="46.73974" lon="-1.82298">
        <ele>15</ele>
        <time>2018-01-07T08:49:08Z</time>
      </trkpt>
      <trkpt lat="46.73978" lon="-1.82285">
        <ele>15</ele>
        <time>2018-01-07T08:50:08Z</time>
      </trkpt>
      <trkpt lat="46.73982" lon="-1.82273">
        <ele>15</ele>
        <time>2018-01-07T08:51:08Z</time>
      </trkpt>
      <trkpt lat="46.73986" lon="-1.82257">
        <ele>16</ele>
        <time>2018-01-07T08:52:08Z</time>
      </trkpt>
      <trkpt lat="46.73997" lon="-1.82214">
        <ele>16</ele>
        <time>2018-01-07T08:53:08Z</time>
      </trkpt>
      <trkpt lat="46.74007" lon="-1.82171">
        <ele>17</ele>
        <time>2018-01-07T08:54:08Z</time>
      </trkpt>
      <trkpt lat="46.74009" lon="-1.82164">
        <ele>17</ele>
        <time>2018-01-07T08:55:08Z</time>
      </trkpt>
      <trkpt lat="46.74012" lon="-1.8216">
        <ele>17</ele>
        <time>2018-01-07T08:56:08Z</time>
      </trkpt>
      <trkpt lat="46.74019" lon="-1.82154">
        <ele>17</ele>
        <time>2018-01-07T08:57:08Z</time>
      </trkpt>
      <trkpt lat="46.74029" lon="-1.82148">
        <ele>17</ele>
        <time>2018-01-07T08:58:08Z</time>
      </trkpt>
      <trkpt lat="46.74033" lon="-1.82145">
        <ele>17</ele>
        <time>2018-01-07T08:59:08Z</time>
      </trkpt>
      <trkpt lat="46.74033" lon="-1.82145">
        <ele>17</ele>
        <time>2018-01-07T09:00:08Z</time>
      </trkpt>
      <trkpt lat="46.74037" lon="-1.82152">
        <ele>17</ele>
        <time>2018-01-07T09:01:08Z</time>
      </trkpt>
      <trkpt lat="46.74042" lon="-1.8216">
        <ele>17</ele>
        <time>2018-01-07T09:02:08Z</time>
      </trkpt>
      <trkpt lat="46.74051" lon="-1.82171">
        <ele>17</ele>
        <time>2018-01-07T09:03:08Z</time>
      </trkpt>
      <trkpt lat="46.74059" lon="-1.8218">
        <ele>17</ele>
        <time>2018-01-07T09:04:08Z</time>
      </trkpt>
      <trkpt lat="46.74064" lon="-1.82189">
        <ele>17</ele>
        <time>2018-01-07T09:05:08Z</time>
      </trkpt>
      <trkpt lat="46.74066" lon="-1.82192">
        <ele>17</ele>
        <time>2018-01-07T09:06:08Z</time>
      </trkpt>
      <trkpt lat="46.74073" lon="-1.82207">
        <ele>17</ele>
        <time>2018-01-07T09:07:08Z</time>
      </trkpt>
      <trkpt lat="46.74082" lon="-1.82226">
        <ele>18</ele>
        <time>2018-01-07T09:08:08Z</time>
      </trkpt>
      <trkpt lat="46.74088" lon="-1.82238">
        <ele>18</ele>
        <time>2018-01-07T09:09:08Z</time>
      </trkpt>
      <trkpt lat="46.74093" lon="-1.82246">
        <ele>18</ele>
        <time>2018-01-07T09:10:08Z</time>
      </trkpt>
      <trkpt lat="46.74099" lon="-1.82254">
        <ele>18</ele>
        <time>2018-01-07T09:11:08Z</time>
      </trkpt>
      <trkpt lat="46.74105" lon="-1.8226">
        <ele>17</ele>
        <time>2018-01-07T09:12:08Z</time>
      </trkpt>
      <trkpt lat="46.74113" lon="-1.82267">
        <ele>17</ele>
        <time>2018-01-07T09:13:08Z</time>
      </trkpt>
      <trkpt lat="46.74124" lon="-1.82277">
        <ele>17</ele>
        <time>2018-01-07T09:14:08Z</time>
      </trkpt>
      <trkpt lat="46.74127" lon="-1.8228">
        <ele>17</ele>
        <time>2018-01-07T09:15:08Z</time>
      </trkpt>
      <trkpt lat="46.74127" lon="-1.8228">
        <ele>17</ele>
        <time>2018-01-07T09:16:08Z</time>
      </trkpt>
      <trkpt lat="46.74135" lon="-1.82286">
        <ele>17</ele>
        <time>2018-01-07T09:17:08Z</time>
      </trkpt>
      <trkpt lat="46.74149" lon="-1.82299">
        <ele>16</ele>
        <time>2018-01-07T09:18:08Z</time>
      </trkpt>
      <trkpt lat="46.74153" lon="-1.82302">
        <ele>16</ele>
        <time>2018-01-07T09:19:08Z</time>
      </trkpt>
      <trkpt lat="46.74167" lon="-1.82316">
        <ele>16</ele>
        <time>2018-01-07T09:20:08Z</time>
      </trkpt>
      <trkpt lat="46.74184" lon="-1.82333">
        <ele>15</ele>
        <time>2018-01-07T09:21:08Z</time>
      </trkpt>
      <trkpt lat="46.74221" lon="-1.82375">
        <ele>13</ele>
        <time>2018-01-07T09:22:08Z</time>
      </trkpt>
      <trkpt lat="46.74246" lon="-1.82404">
        <ele>11</ele>
        <time>2018-01-07T09:23:08Z</time>
      </trkpt>
      <trkpt lat="46.74275" lon="-1.82435">
        <ele>10</ele>
        <time>2018-01-07T09:24:08Z</time>
      </trkpt>
      <trkpt lat="46.74327" lon="-1.82493">
        <ele>7</ele>
        <time>2018-01-07T09:25:08Z</time>
      </trkpt>
      <trkpt lat="46.74363" lon="-1.82534">
        <ele>6</ele>
        <time>2018-01-07T09:26:08Z</time>
      </trkpt>
      <trkpt lat="46.74387" lon="-1.8256">
        <ele>5</ele>
        <time>2018-01-07T09:27:08Z</time>
      </trkpt>
      <trkpt lat="46.74402" lon="-1.82576">
        <ele>4</ele>
        <time>2018-01-07T09:28:08Z</time>
      </trkpt>
      <trkpt lat="46.74418" lon="-1.82594">
        <ele>4</ele>
        <time>2018-01-07T09:29:08Z</time>
      </trkpt>
      <trkpt lat="46.74439" lon="-1.82617">
        <ele>3</ele>
        <time>2018-01-07T09:30:08Z</time>
      </trkpt>
      <trkpt lat="46.74465" lon="-1.82647">
        <ele>3</ele>
        <time>2018-01-07T09:31:08Z</time>
      </trkpt>
      <trkpt lat="46.74471" lon="-1.82653">
        <ele>3</ele>
        <time>2018-01-07T09:32:08Z</time>
      </trkpt>
      <trkpt lat="46.74478" lon="-1.82662">
        <ele>3</ele>
        <time>2018-01-07T09:33:08Z</time>
      </trkpt>
      <trkpt lat="46.74485" lon="-1.8267">
        <ele>3</ele>
        <time>2018-01-07T09:34:08Z</time>
      </trkpt>
      <trkpt lat="46.74508" lon="-1.82697">
        <ele>3</ele>
        <time>2018-01-07T09:35:08Z</time>
      </trkpt>
      <trkpt lat="46.74562" lon="-1.82755">
        <ele>3</ele>
        <time>2018-01-07T09:36:08Z</time>
      </trkpt>
      <trkpt lat="46.7459" lon="-1.82786">
        <ele>4</ele>
        <time>2018-01-07T09:37:08Z</time>
      </trkpt>
      <trkpt lat="46.74605" lon="-1.82803">
        <ele>4</ele>
        <time>2018-01-07T09:38:08Z</time>
      </trkpt>
      <trkpt lat="46.74649" lon="-1.82852">
        <ele>6</ele>
        <time>2018-01-07T09:39:08Z</time>
      </trkpt>
      <trkpt lat="46.74688" lon="-1.82896">
        <ele>7</ele>
        <time>2018-01-07T09:40:08Z</time>
      </trkpt>
      <trkpt lat="46.74693" lon="-1.82901">
        <ele>7</ele>
        <time>2018-01-07T09:41:08Z</time>
      </trkpt>
      <trkpt lat="46.747" lon="-1.8291">
        <ele>7</ele>
        <time>2018-01-07T09:42:08Z</time>
      </trkpt>
      <trkpt lat="46.747" lon="-1.8291">
        <ele>7</ele>
        <time>2018-01-07T09:43:08Z</time>
      </trkpt>
      <trkpt lat="46.74705" lon="-1.82916">
        <ele>7</ele>
        <time>2018-01-07T09:44:08Z</time>
      </trkpt>
      <trkpt lat="46.74751" lon="-1.82973">
        <ele>7</ele>
        <time>2018-01-07T09:45:08Z</time>
      </trkpt>
      <trkpt lat="46.74802" lon="-1.83039">
        <ele>6</ele>
        <time>2018-01-07T09:46:08Z</time>
      </trkpt>
      <trkpt lat="46.74849" lon="-1.83098">
        <ele>6</ele>
        <time>2018-01-07T09:47:08Z</time>
      </trkpt>
      <trkpt lat="46.74866" lon="-1.83117">
        <ele>5</ele>
        <time>2018-01-07T09:48:08Z</time>
      </trkpt>
      <trkpt lat="46.74866" lon="-1.83117">
        <ele>5</ele>
        <time>2018-01-07T09:49:08Z</time>
      </trkpt>
      <trkpt lat="46.74873" lon="-1.83121">
        <ele>5</ele>
        <time>2018-01-07T09:50:08Z</time>
      </trkpt>
      <trkpt lat="46.74882" lon="-1.83124">
        <ele>5</ele>
        <time>2018-01-07T09:51:08Z</time>
      </trkpt>
      <trkpt lat="46.74893" lon="-1.83125">
        <ele>5</ele>
        <time>2018-01-07T09:52:08Z</time>
      </trkpt>
      <trkpt lat="46.74908" lon="-1.83123">
        <ele>5</ele>
        <time>2018-01-07T09:53:08Z</time>
      </trkpt>
      <trkpt lat="46.74926" lon="-1.83122">
        <ele>5</ele>
        <time>2018-01-07T09:54:08Z</time>
      </trkpt>
      <trkpt lat="46.74944" lon="-1.8312">
        <ele>5</ele>
        <time>2018-01-07T09:55:08Z</time>
      </trkpt>
      <trkpt lat="46.74954" lon="-1.83119">
        <ele>6</ele>
        <time>2018-01-07T09:56:08Z</time>
      </trkpt>
      <trkpt lat="46.74954" lon="-1.83119">
        <ele>6</ele>
        <time>2018-01-07T09:57:08Z</time>
      </trkpt>
      <trkpt lat="46.74968" lon="-1.83119">
        <ele>6</ele>
        <time>2018-01-07T09:58:08Z</time>
      </trkpt>
      <trkpt lat="46.7498" lon="-1.83119">
        <ele>7</ele>
        <time>2018-01-07T09:59:08Z</time>
      </trkpt>
      <trkpt lat="46.74993" lon="-1.83122">
        <ele>7</ele>
        <time>2018-01-07T10:00:08Z</time>
      </trkpt>
      <trkpt lat="46.75005" lon="-1.83127">
        <ele>8</ele>
        <time>2018-01-07T10:01:08Z</time>
      </trkpt>
      <trkpt lat="46.75015" lon="-1.83133">
        <ele>8</ele>
        <time>2018-01-07T10:02:08Z</time>
      </trkpt>
      <trkpt lat="46.75041" lon="-1.83145">
        <ele>8</ele>
        <time>2018-01-07T10:03:08Z</time>
      </trkpt>
      <trkpt lat="46.7508" lon="-1.83162">
        <ele>8</ele>
        <time>2018-01-07T10:04:08Z</time>
      </trkpt>
      <trkpt lat="46.75104" lon="-1.83172">
        <ele>8</ele>
        <time>2018-01-07T10:05:08Z</time>
      </trkpt>
      <trkpt lat="46.75117" lon="-1.83176">
        <ele>9</ele>
        <time>2018-01-07T10:06:08Z</time>
      </trkpt>
      <trkpt lat="46.75129" lon="-1.83177">
        <ele>9</ele>
        <time>2018-01-07T10:07:08Z</time>
      </trkpt>
      <trkpt lat="46.75138" lon="-1.83177">
        <ele>9</ele>
        <time>2018-01-07T10:08:08Z</time>
      </trkpt>
      <trkpt lat="46.75149" lon="-1.83175">
        <ele>9</ele>
        <time>2018-01-07T10:09:08Z</time>
      </trkpt>
      <trkpt lat="46.75161" lon="-1.83172">
        <ele>10</ele>
        <time>2018-01-07T10:10:08Z</time>
      </trkpt>
      <trkpt lat="46.75171" lon="-1.83166">
        <ele>10</ele>
        <time>2018-01-07T10:11:08Z</time>
      </trkpt>
      <trkpt lat="46.7518" lon="-1.8316">
        <ele>10</ele>
        <time>2018-01-07T10:12:08Z</time>
      </trkpt>
      <trkpt lat="46.75195" lon="-1.83148">
        <ele>11</ele>
        <time>2018-01-07T10:13:08Z</time>
      </trkpt>
      <trkpt lat="46.75213" lon="-1.83135">
        <ele>11</ele>
        <time>2018-01-07T10:14:08Z</time>
      </trkpt>
      <trkpt lat="46.75224" lon="-1.83127">
        <ele>12</ele>
        <time>2018-01-07T10:15:08Z</time>
      </trkpt>
      <trkpt lat="46.7523" lon="-1.83123">
        <ele>12</ele>
        <time>2018-01-07T10:16:08Z</time>
      </trkpt>
      <trkpt lat="46.75238" lon="-1.83118">
        <ele>12</ele>
        <time>2018-01-07T10:17:08Z</time>
      </trkpt>
      <trkpt lat="46.75246" lon="-1.83115">
        <ele>13</ele>
        <time>2018-01-07T10:18:08Z</time>
      </trkpt>
      <trkpt lat="46.75252" lon="-1.83114">
        <ele>13</ele>
        <time>2018-01-07T10:19:08Z</time>
      </trkpt>
      <trkpt lat="46.75258" lon="-1.83114">
        <ele>13</ele>
        <time>2018-01-07T10:20:08Z</time>
      </trkpt>
      <trkpt lat="46.75268" lon="-1.83115">
        <ele>12</ele>
        <time>2018-01-07T10:21:08Z</time>
      </trkpt>
      <trkpt lat="46.75278" lon="-1.83119">
        <ele>12</ele>
        <time>2018-01-07T10:22:08Z</time>
      </trkpt>
      <trkpt lat="46.75279" lon="-1.8312">
        <ele>12</ele>
        <time>2018-01-07T10:23:08Z</time>
      </trkpt>
      <trkpt lat="46.75283" lon="-1.83121">
        <ele>12</ele>
        <time>2018-01-07T10:24:08Z</time>
      </trkpt>
      <trkpt lat="46.75289" lon="-1.83124">
        <ele>12</ele>
        <time>2018-01-07T10:25:08Z</time>
      </trkpt>
      <trkpt lat="46.75301" lon="-1.8313">
        <ele>12</ele>
        <time>2018-01-07T10:26:08Z</time>
      </trkpt>
      <trkpt lat="46.75314" lon="-1.83138">
        <ele>12</ele>
        <time>2018-01-07T10:27:08Z</time>
      </trkpt>
      <trkpt lat="46.75329" lon="-1.83147">
        <ele>11</ele>
        <time>2018-01-07T10:28:08Z</time>
      </trkpt>
      <trkpt lat="46.75347" lon="-1.83163">
        <ele>11</ele>
        <time>2018-01-07T10:29:08Z</time>
      </trkpt>
      <trkpt lat="46.75374" lon="-1.83185">
        <ele>11</ele>
        <time>2018-01-07T10:30:08Z</time>
      </trkpt>
      <trkpt lat="46.75385" lon="-1.83194">
        <ele>11</ele>
        <time>2018-01-07T10:31:08Z</time>
      </trkpt>
      <trkpt lat="46.75396" lon="-1.83201">
        <ele>11</ele>
        <time>2018-01-07T10:32:08Z</time>
      </trkpt>
      <trkpt lat="46.75405" lon="-1.83207">
        <ele>11</ele>
        <time>2018-01-07T10:33:08Z</time>
      </trkpt>
      <trkpt lat="46.75415" lon="-1.83213">
        <ele>11</ele>
        <time>2018-01-07T10:34:08Z</time>
      </trkpt>
      <trkpt lat="46.75425" lon="-1.83219">
        <ele>11</ele>
        <time>2018-01-07T10:35:08Z</time>
      </trkpt>
      <trkpt lat="46.75434" lon="-1.83223">
        <ele>11</ele>
        <time>2018-01-07T10:36:08Z</time>
      </trkpt>
      <trkpt lat="46.75443" lon="-1.83227">
        <ele>11</ele>
        <time>2018-01-07T10:37:08Z</time>
      </trkpt>
      <trkpt lat="46.75456" lon="-1.83231">
        <ele>11</ele>
        <time>2018-01-07T10:38:08Z</time>
      </trkpt>
      <trkpt lat="46.75481" lon="-1.8324">
        <ele>11</ele>
        <time>2018-01-07T10:39:08Z</time>
      </trkpt>
      <trkpt lat="46.7551" lon="-1.83251">
        <ele>11</ele>
        <time>2018-01-07T10:40:08Z</time>
      </trkpt>
      <trkpt lat="46.75525" lon="-1.83257">
        <ele>12</ele>
        <time>2018-01-07T10:41:08Z</time>
      </trkpt>
      <trkpt lat="46.75534" lon="-1.83261">
        <ele>12</ele>
        <time>2018-01-07T10:42:08Z</time>
      </trkpt>
      <trkpt lat="46.75542" lon="-1.83266">
        <ele>12</ele>
        <time>2018-01-07T10:43:08Z</time>
      </trkpt>
      <trkpt lat="46.75551" lon="-1.83273">
        <ele>12</ele>
        <time>2018-01-07T10:44:08Z</time>
      </trkpt>
      <trkpt lat="46.75551" lon="-1.83273">
        <ele>12</ele>
        <time>2018-01-07T10:45:08Z</time>
      </trkpt>
      <trkpt lat="46.75554" lon="-1.83276">
        <ele>12</ele>
        <time>2018-01-07T10:46:08Z</time>
      </trkpt>
      <trkpt lat="46.75575" lon="-1.83294">
        <ele>13</ele>
        <time>2018-01-07T10:47:08Z</time>
      </trkpt>
      <trkpt lat="46.75605" lon="-1.83321">
        <ele>14</ele>
        <time>2018-01-07T10:48:08Z</time>
      </trkpt>
      <trkpt lat="46.75622" lon="-1.83334">
        <ele>14</ele>
        <time>2018-01-07T10:49:08Z</time>
      </trkpt>
      <trkpt lat="46.75629" lon="-1.83338">
        <ele>14</ele>
        <time>2018-01-07T10:50:08Z</time>
      </trkpt>
      <trkpt lat="46.75636" lon="-1.83342">
        <ele>14</ele>
        <time>2018-01-07T10:51:08Z</time>
      </trkpt>
      <trkpt lat="46.75653" lon="-1.83349">
        <ele>14</ele>
        <time>2018-01-07T10:52:08Z</time>
      </trkpt>
      <trkpt lat="46.7567" lon="-1.83357">
        <ele>14</ele>
        <time>2018-01-07T10:53:08Z</time>
      </trkpt>
      <trkpt lat="46.75675" lon="-1.83359">
        <ele>14</ele>
        <time>2018-01-07T10:54:08Z</time>
      </trkpt>
      <trkpt lat="46.75682" lon="-1.83363">
        <ele>14</ele>
        <time>2018-01-07T10:55:08Z</time>
      </trkpt>
      <trkpt lat="46.75691" lon="-1.8337">
        <ele>14</ele>
        <time>2018-01-07T10:56:08Z</time>
      </trkpt>
      <trkpt lat="46.75706" lon="-1.8338">
        <ele>14</ele>
        <time>2018-01-07T10:57:08Z</time>
      </trkpt>
      <trkpt lat="46.75718" lon="-1.83388">
        <ele>14</ele>
        <time>2018-01-07T10:58:08Z</time>
      </trkpt>
      <trkpt lat="46.75719" lon="-1.83389">
        <ele>14</ele>
        <time>2018-01-07T10:59:08Z</time>
      </trkpt>
      <trkpt lat="46.75727" lon="-1.83394">
        <ele>14</ele>
        <time>2018-01-07T11:00:08Z</time>
      </trkpt>
      <trkpt lat="46.75736" lon="-1.83399">
        <ele>14</ele>
        <time>2018-01-07T11:01:08Z</time>
      </trkpt>
      <trkpt lat="46.7576" lon="-1.83412">
        <ele>14</ele>
        <time>2018-01-07T11:02:08Z</time>
      </trkpt>
      <trkpt lat="46.75773" lon="-1.83419">
        <ele>14</ele>
        <time>2018-01-07T11:03:08Z</time>
      </trkpt>
      <trkpt lat="46.75777" lon="-1.83422">
        <ele>14</ele>
        <time>2018-01-07T11:04:08Z</time>
      </trkpt>
      <trkpt lat="46.75785" lon="-1.83427">
        <ele>14</ele>
        <time>2018-01-07T11:05:08Z</time>
      </trkpt>
      <trkpt lat="46.75794" lon="-1.83434">
        <ele>14</ele>
        <time>2018-01-07T11:06:08Z</time>
      </trkpt>
      <trkpt lat="46.75801" lon="-1.8344">
        <ele>14</ele>
        <time>2018-01-07T11:07:08Z</time>
      </trkpt>
      <trkpt lat="46.75817" lon="-1.83456">
        <ele>14</ele>
        <time>2018-01-07T11:08:08Z</time>
      </trkpt>
      <trkpt lat="46.75838" lon="-1.83479">
        <ele>15</ele>
        <time>2018-01-07T11:09:08Z</time>
      </trkpt>
      <trkpt lat="46.75858" lon="-1.835">
        <ele>15</ele>
        <time>2018-01-07T11:10:08Z</time>
      </trkpt>
      <trkpt lat="46.75859" lon="-1.83501">
        <ele>15</ele>
        <time>2018-01-07T11:11:08Z</time>
      </trkpt>
      <trkpt lat="46.75873" lon="-1.83515">
        <ele>16</ele>
        <time>2018-01-07T11:12:08Z</time>
      </trkpt>
      <trkpt lat="46.75888" lon="-1.83531">
        <ele>16</ele>
        <time>2018-01-07T11:13:08Z</time>
      </trkpt>
      <trkpt lat="46.75899" lon="-1.8354">
        <ele>16</ele>
        <time>2018-01-07T11:14:08Z</time>
      </trkpt>
      <trkpt lat="46.75912" lon="-1.83547">
        <ele>16</ele>
        <time>2018-01-07T11:15:08Z</time>
      </trkpt>
      <trkpt lat="46.75927" lon="-1.83557">
        <ele>17</ele>
        <time>2018-01-07T11:16:08Z</time>
      </trkpt>
      <trkpt lat="46.75953" lon="-1.83574">
        <ele>17</ele>
        <time>2018-01-07T11:17:08Z</time>
      </trkpt>
      <trkpt lat="46.75965" lon="-1.8358">
        <ele>16</ele>
        <time>2018-01-07T11:18:08Z</time>
      </trkpt>
      <trkpt lat="46.75975" lon="-1.83585">
        <ele>16</ele>
        <time>2018-01-07T11:19:08Z</time>
      </trkpt>
      <trkpt lat="46.75977" lon="-1.83586">
        <ele>16</ele>
        <time>2018-01-07T11:20:08Z</time>
      </trkpt>
      <trkpt lat="46.75986" lon="-1.83589">
        <ele>16</ele>
        <time>2018-01-07T11:21:08Z</time>
      </trkpt>
      <trkpt lat="46.75994" lon="-1.83591">
        <ele>16</ele>
        <time>2018-01-07T11:22:08Z</time>
      </trkpt>
      <trkpt lat="46.76008" lon="-1.83593">
        <ele>16</ele>
        <time>2018-01-07T11:23:08Z</time>
      </trkpt>
      <trkpt lat="46.76033" lon="-1.83597">
        <ele>17</ele>
        <time>2018-01-07T11:24:08Z</time>
      </trkpt>
      <trkpt lat="46.76041" lon="-1.83598">
        <ele>17</ele>
        <time>2018-01-07T11:25:08Z</time>
      </trkpt>
      <trkpt lat="46.76055" lon="-1.83602">
        <ele>18</ele>
        <time>2018-01-07T11:26:08Z</time>
      </trkpt>
      <trkpt lat="46.76067" lon="-1.83605">
        <ele>18</ele>
        <time>2018-01-07T11:27:08Z</time>
      </trkpt>
      <trkpt lat="46.76088" lon="-1.83613">
        <ele>18</ele>
        <time>2018-01-07T11:28:08Z</time>
      </trkpt>
      <trkpt lat="46.76093" lon="-1.83615">
        <ele>18</ele>
        <time>2018-01-07T11:29:08Z</time>
      </trkpt>
      <trkpt lat="46.76103" lon="-1.83619">
        <ele>18</ele>
        <time>2018-01-07T11:30:08Z</time>
      </trkpt>
      <trkpt lat="46.76116" lon="-1.83624">
        <ele>18</ele>
        <time>2018-01-07T11:31:08Z</time>
      </trkpt>
      <trkpt lat="46.76134" lon="-1.83631">
        <ele>19</ele>
        <time>2018-01-07T11:32:08Z</time>
      </trkpt>
      <trkpt lat="46.76142" lon="-1.83632">
        <ele>19</ele>
        <time>2018-01-07T11:33:08Z</time>
      </trkpt>
      <trkpt lat="46.76142" lon="-1.83632">
        <ele>19</ele>
        <time>2018-01-07T11:34:08Z</time>
      </trkpt>
      <trkpt lat="46.76146" lon="-1.83632">
        <ele>19</ele>
        <time>2018-01-07T11:35:08Z</time>
      </trkpt>
      <trkpt lat="46.76153" lon="-1.83631">
        <ele>19</ele>
        <time>2018-01-07T11:36:08Z</time>
      </trkpt>
      <trkpt lat="46.76161" lon="-1.83629">
        <ele>19</ele>
        <time>2018-01-07T11:37:08Z</time>
      </trkpt>
      <trkpt lat="46.7617" lon="-1.83625">
        <ele>18</ele>
        <time>2018-01-07T11:38:08Z</time>
      </trkpt>
      <trkpt lat="46.76183" lon="-1.83619">
        <ele>18</ele>
        <time>2018-01-07T11:39:08Z</time>
      </trkpt>
      <trkpt lat="46.76196" lon="-1.83613">
        <ele>18</ele>
        <time>2018-01-07T11:40:08Z</time>
      </trkpt>
      <trkpt lat="46.762" lon="-1.83611">
        <ele>18</ele>
        <time>2018-01-07T11:41:08Z</time>
      </trkpt>
      <trkpt lat="46.76203" lon="-1.8361">
        <ele>18</ele>
        <time>2018-01-07T11:42:08Z</time>
      </trkpt>
      <trkpt lat="46.76213" lon="-1.83609">
        <ele>18</ele>
        <time>2018-01-07T11:43:08Z</time>
      </trkpt>
      <trkpt lat="46.76225" lon="-1.83608">
        <ele>18</ele>
        <time>2018-01-07T11:44:08Z</time>
      </trkpt>
      <trkpt lat="46.76236" lon="-1.83607">
        <ele>18</ele>
        <time>2018-01-07T11:45:08Z</time>
      </trkpt>
      <trkpt lat="46.76236" lon="-1.83607">
        <ele>18</ele>
        <time>2018-01-07T11:46:08Z</time>
      </trkpt>
      <trkpt lat="46.76241" lon="-1.83628">
        <ele>18</ele>
        <time>2018-01-07T11:47:08Z</time>
      </trkpt>
      <trkpt lat="46.76242" lon="-1.83635">
        <ele>18</ele>
        <time>2018-01-07T11:48:08Z</time>
      </trkpt>
      <trkpt lat="46.76244" lon="-1.83645">
        <ele>18</ele>
        <time>2018-01-07T11:49:08Z</time>
      </trkpt>
      <trkpt lat="46.76245" lon="-1.83656">
        <ele>19</ele>
        <time>2018-01-07T11:50:08Z</time>
      </trkpt>
      <trkpt lat="46.76247" lon="-1.83667">
        <ele>19</ele>
        <time>2018-01-07T11:51:08Z</time>
      </trkpt>
      <trkpt lat="46.76247" lon="-1.83667">
        <ele>19</ele>
        <time>2018-01-07T11:52:08Z</time>
      </trkpt>
      <trkpt lat="46.76251" lon="-1.83668">
        <ele>19</ele>
        <time>2018-01-07T11:53:08Z</time>
      </trkpt>
      <trkpt lat="46.7626" lon="-1.83671">
        <ele>19</ele>
        <time>2018-01-07T11:54:08Z</time>
      </trkpt>
      <trkpt lat="46.76263" lon="-1.83671">
        <ele>19</ele>
        <time>2018-01-07T11:55:08Z</time>
      </trkpt>
      <trkpt lat="46.7627" lon="-1.83671">
        <ele>19</ele>
        <time>2018-01-07T11:56:08Z</time>
      </trkpt>
      <trkpt lat="46.76279" lon="-1.8367">
        <ele>19</ele>
        <time>2018-01-07T11:57:08Z</time>
      </trkpt>
      <trkpt lat="46.76292" lon="-1.83667">
        <ele>19</ele>
        <time>2018-01-07T11:58:08Z</time>
      </trkpt>
      <trkpt lat="46.76305" lon="-1.83662">
        <ele>19</ele>
        <time>2018-01-07T11:59:08Z</time>
      </trkpt>
      <trkpt lat="46.76316" lon="-1.83658">
        <ele>19</ele>
        <time>2018-01-07T12:00:08Z</time>
      </trkpt>
      <trkpt lat="46.76327" lon="-1.83652">
        <ele>19</ele>
        <time>2018-01-07T12:01:08Z</time>
      </trkpt>
      <trkpt lat="46.76338" lon="-1.83644">
        <ele>19</ele>
        <time>2018-01-07T12:02:08Z</time>
      </trkpt>
      <trkpt lat="46.76348" lon="-1.83636">
        <ele>19</ele>
        <time>2018-01-07T12:03:08Z</time>
      </trkpt>
      <trkpt lat="46.76356" lon="-1.8363">
        <ele>18</ele>
        <time>2018-01-07T12:04:08Z</time>
      </trkpt>
      <trkpt lat="46.76366" lon="-1.83622">
        <ele>18</ele>
        <time>2018-01-07T12:05:08Z</time>
      </trkpt>
      <trkpt lat="46.7638" lon="-1.83613">
        <ele>18</ele>
        <time>2018-01-07T12:06:08Z</time>
      </trkpt>
      <trkpt lat="46.76395" lon="-1.83603">
        <ele>18</ele>
        <time>2018-01-07T12:07:08Z</time>
      </trkpt>
      <trkpt lat="46.7642" lon="-1.83588">
        <ele>18</ele>
        <time>2018-01-07T12:08:08Z</time>
      </trkpt>
      <trkpt lat="46.76438" lon="-1.83577">
        <ele>18</ele>
        <time>2018-01-07T12:09:08Z</time>
      </trkpt>
      <trkpt lat="46.7645" lon="-1.8357">
        <ele>17</ele>
        <time>2018-01-07T12:10:08Z</time>
      </trkpt>
      <trkpt lat="46.76458" lon="-1.83565">
        <ele>17</ele>
        <time>2018-01-07T12:11:08Z</time>
      </trkpt>
      <trkpt lat="46.76475" lon="-1.83556">
        <ele>17</ele>
        <time>2018-01-07T12:12:08Z</time>
      </trkpt>
      <trkpt lat="46.76482" lon="-1.83552">
        <ele>16</ele>
        <time>2018-01-07T12:13:08Z</time>
      </trkpt>
      <trkpt lat="46.76521" lon="-1.8353">
        <ele>16</ele>
        <time>2018-01-07T12:14:08Z</time>
      </trkpt>
      <trkpt lat="46.76564" lon="-1.83504">
        <ele>17</ele>
        <time>2018-01-07T12:15:08Z</time>
      </trkpt>
      <trkpt lat="46.76595" lon="-1.83484">
        <ele>17</ele>
        <time>2018-01-07T12:16:08Z</time>
      </trkpt>
      <trkpt lat="46.76611" lon="-1.83473">
        <ele>18</ele>
        <time>2018-01-07T12:17:08Z</time>
      </trkpt>
      <trkpt lat="46.76625" lon="-1.83462">
        <ele>18</ele>
        <time>2018-01-07T12:18:08Z</time>
      </trkpt>
      <trkpt lat="46.76636" lon="-1.83452">
        <ele>18</ele>
        <time>2018-01-07T12:19:08Z</time>
      </trkpt>
      <trkpt lat="46.76644" lon="-1.83445">
        <ele>19</ele>
        <time>2018-01-07T12:20:08Z</time>
      </trkpt>
      <trkpt lat="46.76653" lon="-1.83436">
        <ele>19</ele>
        <time>2018-01-07T12:21:08Z</time>
      </trkpt>
      <trkpt lat="46.76662" lon="-1.83427">
        <ele>19</ele>
        <time>2018-01-07T12:22:08Z</time>
      </trkpt>
      <trkpt lat="46.7667" lon="-1.83418">
        <ele>19</ele>
        <time>2018-01-07T12:23:08Z</time>
      </trkpt>
      <trkpt lat="46.76677" lon="-1.8341">
        <ele>19</ele>
        <time>2018-01-07T12:24:08Z</time>
      </trkpt>
      <trkpt lat="46.76689" lon="-1.83393">
        <ele>19</ele>
        <time>2018-01-07T12:25:08Z</time>
      </trkpt>
      <trkpt lat="46.76697" lon="-1.83383">
        <ele>19</ele>
        <time>2018-01-07T12:26:08Z</time>
      </trkpt>
      <trkpt lat="46.76704" lon="-1.83374">
        <ele>19</ele>
        <time>2018-01-07T12:27:08Z</time>
      </trkpt>
      <trkpt lat="46.76707" lon="-1.83368">
        <ele>19</ele>
        <time>2018-01-07T12:28:08Z</time>
      </trkpt>
      <trkpt lat="46.76715" lon="-1.83354">
        <ele>19</ele>
        <time>2018-01-07T12:29:08Z</time>
      </trkpt>
      <trkpt lat="46.76723" lon="-1.83342">
        <ele>19</ele>
        <time>2018-01-07T12:30:08Z</time>
      </trkpt>
      <trkpt lat="46.76738" lon="-1.83315">
        <ele>19</ele>
        <time>2018-01-07T12:31:08Z</time>
      </trkpt>
      <trkpt lat="46.76753" lon="-1.83287">
        <ele>19</ele>
        <time>2018-01-07T12:32:08Z</time>
      </trkpt>
      <trkpt lat="46.76761" lon="-1.83269">
        <ele>19</ele>
        <time>2018-01-07T12:33:08Z</time>
      </trkpt>
      <trkpt lat="46.76766" lon="-1.8326">
        <ele>19</ele>
        <time>2018-01-07T12:34:08Z</time>
      </trkpt>
      <trkpt lat="46.76777" lon="-1.83239">
        <ele>19</ele>
        <time>2018-01-07T12:35:08Z</time>
      </trkpt>
      <trkpt lat="46.76784" lon="-1.83221">
        <ele>19</ele>
        <time>2018-01-07T12:36:08Z</time>
      </trkpt>
      <trkpt lat="46.76787" lon="-1.83216">
        <ele>19</ele>
        <time>2018-01-07T12:37:08Z</time>
      </trkpt>
      <trkpt lat="46.76792" lon="-1.83201">
        <ele>19</ele>
        <time>2018-01-07T12:38:08Z</time>
      </trkpt>
      <trkpt lat="46.76797" lon="-1.83181">
        <ele>19</ele>
        <time>2018-01-07T12:39:08Z</time>
      </trkpt>
      <trkpt lat="46.76802" lon="-1.83166">
        <ele>19</ele>
        <time>2018-01-07T12:40:08Z</time>
      </trkpt>
      <trkpt lat="46.76813" lon="-1.83135">
        <ele>18</ele>
        <time>2018-01-07T12:41:08Z</time>
      </trkpt>
      <trkpt lat="46.76818" lon="-1.83118">
        <ele>18</ele>
        <time>2018-01-07T12:42:08Z</time>
      </trkpt>
      <trkpt lat="46.76824" lon="-1.83101">
        <ele>17</ele>
        <time>2018-01-07T12:43:08Z</time>
      </trkpt>
      <trkpt lat="46.76831" lon="-1.83082">
        <ele>17</ele>
        <time>2018-01-07T12:44:08Z</time>
      </trkpt>
      <trkpt lat="46.76838" lon="-1.83065">
        <ele>17</ele>
        <time>2018-01-07T12:45:08Z</time>
      </trkpt>
      <trkpt lat="46.76846" lon="-1.83047">
        <ele>18</ele>
        <time>2018-01-07T12:46:08Z</time>
      </trkpt>
      <trkpt lat="46.76857" lon="-1.83027">
        <ele>18</ele>
        <time>2018-01-07T12:47:08Z</time>
      </trkpt>
      <trkpt lat="46.76867" lon="-1.83007">
        <ele>19</ele>
        <time>2018-01-07T12:48:08Z</time>
      </trkpt>
      <trkpt lat="46.7688" lon="-1.82984">
        <ele>20</ele>
        <time>2018-01-07T12:49:08Z</time>
      </trkpt>
      <trkpt lat="46.7688" lon="-1.82984">
        <ele>20</ele>
        <time>2018-01-07T12:50:08Z</time>
      </trkpt>
      <trkpt lat="46.76856" lon="-1.82965">
        <ele>19</ele>
        <time>2018-01-07T12:51:08Z</time>
      </trkpt>
      <trkpt lat="46.76831" lon="-1.82946">
        <ele>18</ele>
        <time>2018-01-07T12:52:08Z</time>
      </trkpt>
      <trkpt lat="46.76824" lon="-1.8294">
        <ele>18</ele>
        <time>2018-01-07T12:53:08Z</time>
      </trkpt>
      <trkpt lat="46.76821" lon="-1.82937">
        <ele>18</ele>
        <time>2018-01-07T12:54:08Z</time>
      </trkpt>
      <trkpt lat="46.76814" lon="-1.82932">
        <ele>18</ele>
        <time>2018-01-07T12:55:08Z</time>
      </trkpt>
      <trkpt lat="46.76807" lon="-1.82924">
        <ele>18</ele>
        <time>2018-01-07T12:56:08Z</time>
      </trkpt>
      <trkpt lat="46.76799" lon="-1.82915">
        <ele>18</ele>
        <time>2018-01-07T12:57:08Z</time>
      </trkpt>
      <trkpt lat="46.76791" lon="-1.82906">
        <ele>18</ele>
        <time>2018-01-07T12:58:08Z</time>
      </trkpt>
      <trkpt lat="46.76784" lon="-1.82898">
        <ele>18</ele>
        <time>2018-01-07T12:59:08Z</time>
      </trkpt>
      <trkpt lat="46.76776" lon="-1.82887">
        <ele>18</ele>
        <time>2018-01-07T13:00:08Z</time>
      </trkpt>
      <trkpt lat="46.76769" lon="-1.82877">
        <ele>19</ele>
        <time>2018-01-07T13:01:08Z</time>
      </trkpt>
      <trkpt lat="46.76763" lon="-1.82868">
        <ele>19</ele>
        <time>2018-01-07T13:02:08Z</time>
      </trkpt>
      <trkpt lat="46.76758" lon="-1.82858">
        <ele>19</ele>
        <time>2018-01-07T13:03:08Z</time>
      </trkpt>
      <trkpt lat="46.76751" lon="-1.82845">
        <ele>19</ele>
        <time>2018-01-07T13:04:08Z</time>
      </trkpt>
      <trkpt lat="46.76741" lon="-1.82822">
        <ele>19</ele>
        <time>2018-01-07T13:05:08Z</time>
      </trkpt>
      <trkpt lat="46.76727" lon="-1.8279">
        <ele>18</ele>
        <time>2018-01-07T13:06:08Z</time>
      </trkpt>
      <trkpt lat="46.76714" lon="-1.8276">
        <ele>18</ele>
        <time>2018-01-07T13:07:08Z</time>
      </trkpt>
      <trkpt lat="46.76704" lon="-1.82738">
        <ele>17</ele>
        <time>2018-01-07T13:08:08Z</time>
      </trkpt>
      <trkpt lat="46.76699" lon="-1.82724">
        <ele>17</ele>
        <time>2018-01-07T13:09:08Z</time>
      </trkpt>
      <trkpt lat="46.76694" lon="-1.82713">
        <ele>17</ele>
        <time>2018-01-07T13:10:08Z</time>
      </trkpt>
      <trkpt lat="46.76692" lon="-1.82703">
        <ele>17</ele>
        <time>2018-01-07T13:11:08Z</time>
      </trkpt>
      <trkpt lat="46.76688" lon="-1.82689">
        <ele>17</ele>
        <time>2018-01-07T13:12:08Z</time>
      </trkpt>
      <trkpt lat="46.76683" lon="-1.82666">
        <ele>17</ele>
        <time>2018-01-07T13:13:08Z</time>
      </trkpt>
      <trkpt lat="46.76679" lon="-1.82648">
        <ele>17</ele>
        <time>2018-01-07T13:14:08Z</time>
      </trkpt>
      <trkpt lat="46.76673" lon="-1.82609">
        <ele>17</ele>
        <time>2018-01-07T13:15:08Z</time>
      </trkpt>
      <trkpt lat="46.76669" lon="-1.82585">
        <ele>17</ele>
        <time>2018-01-07T13:16:08Z</time>
      </trkpt>
      <trkpt lat="46.76666" lon="-1.82566">
        <ele>17</ele>
        <time>2018-01-07T13:17:08Z</time>
      </trkpt>
      <trkpt lat="46.76661" lon="-1.82545">
        <ele>17</ele>
        <time>2018-01-07T13:18:08Z</time>
      </trkpt>
      <trkpt lat="46.76656" lon="-1.8253">
        <ele>17</ele>
        <time>2018-01-07T13:19:08Z</time>
      </trkpt>
      <trkpt lat="46.76652" lon="-1.82516">
        <ele>17</ele>
        <time>2018-01-07T13:20:08Z</time>
      </trkpt>
      <trkpt lat="46.76645" lon="-1.82502">
        <ele>16</ele>
        <time>2018-01-07T13:21:08Z</time>
      </trkpt>
      <trkpt lat="46.76638" lon="-1.82487">
        <ele>17</ele>
        <time>2018-01-07T13:22:08Z</time>
      </trkpt>
      <trkpt lat="46.76621" lon="-1.82458">
        <ele>17</ele>
        <time>2018-01-07T13:23:08Z</time>
      </trkpt>
      <trkpt lat="46.76596" lon="-1.82418">
        <ele>17</ele>
        <time>2018-01-07T13:24:08Z</time>
      </trkpt>
      <trkpt lat="46.76579" lon="-1.82388">
        <ele>17</ele>
        <time>2018-01-07T13:25:08Z</time>
      </trkpt>
      <trkpt lat="46.7657" lon="-1.82369">
        <ele>17</ele>
        <time>2018-01-07T13:26:08Z</time>
      </trkpt>
      <trkpt lat="46.76565" lon="-1.82358">
        <ele>17</ele>
        <time>2018-01-07T13:27:08Z</time>
      </trkpt>
      <trkpt lat="46.76561" lon="-1.8235">
        <ele>17</ele>
        <time>2018-01-07T13:28:08Z</time>
      </trkpt>
      <trkpt lat="46.76561" lon="-1.82349">
        <ele>17</ele>
        <time>2018-01-07T13:29:08Z</time>
      </trkpt>
      <trkpt lat="46.76558" lon="-1.82338">
        <ele>17</ele>
        <time>2018-01-07T13:30:08Z</time>
      </trkpt>
      <trkpt lat="46.76556" lon="-1.82325">
        <ele>17</ele>
        <time>2018-01-07T13:31:08Z</time>
      </trkpt>
      <trkpt lat="46.76555" lon="-1.82311">
        <ele>17</ele>
        <time>2018-01-07T13:32:08Z</time>
      </trkpt>
      <trkpt lat="46.76553" lon="-1.82282">
        <ele>17</ele>
        <time>2018-01-07T13:33:08Z</time>
      </trkpt>
      <trkpt lat="46.76551" lon="-1.82255">
        <ele>17</ele>
        <time>2018-01-07T13:34:08Z</time>
      </trkpt>
      <trkpt lat="46.76546" lon="-1.82166">
        <ele>18</ele>
        <time>2018-01-07T13:35:08Z</time>
      </trkpt>
      <trkpt lat="46.76544" lon="-1.82133">
        <ele>18</ele>
        <time>2018-01-07T13:36:08Z</time>
      </trkpt>
      <trkpt lat="46.76541" lon="-1.82087">
        <ele>18</ele>
        <time>2018-01-07T13:37:08Z</time>
      </trkpt>
      <trkpt lat="46.76541" lon="-1.82067">
        <ele>18</ele>
        <time>2018-01-07T13:38:08Z</time>
      </trkpt>
      <trkpt lat="46.76543" lon="-1.82051">
        <ele>18</ele>
        <time>2018-01-07T13:39:08Z</time>
      </trkpt>
      <trkpt lat="46.76545" lon="-1.82037">
        <ele>17</ele>
        <time>2018-01-07T13:40:08Z</time>
      </trkpt>
      <trkpt lat="46.76549" lon="-1.82023">
        <ele>17</ele>
        <time>2018-01-07T13:41:08Z</time>
      </trkpt>
      <trkpt lat="46.76553" lon="-1.8201">
        <ele>17</ele>
        <time>2018-01-07T13:42:08Z</time>
      </trkpt>
      <trkpt lat="46.76557" lon="-1.81999">
        <ele>17</ele>
        <time>2018-01-07T13:43:08Z</time>
      </trkpt>
      <trkpt lat="46.76563" lon="-1.81987">
        <ele>17</ele>
        <time>2018-01-07T13:44:08Z</time>
      </trkpt>
      <trkpt lat="46.76572" lon="-1.81972">
        <ele>18</ele>
        <time>2018-01-07T13:45:08Z</time>
      </trkpt>
      <trkpt lat="46.76596" lon="-1.81943">
        <ele>19</ele>
        <time>2018-01-07T13:46:08Z</time>
      </trkpt>
      <trkpt lat="46.76638" lon="-1.8189">
        <ele>22</ele>
        <time>2018-01-07T13:47:08Z</time>
      </trkpt>
      <trkpt lat="46.76685" lon="-1.8183">
        <ele>25</ele>
        <time>2018-01-07T13:48:08Z</time>
      </trkpt>
      <trkpt lat="46.7673" lon="-1.81773">
        <ele>28</ele>
        <time>2018-01-07T13:49:08Z</time>
      </trkpt>
      <trkpt lat="46.76768" lon="-1.81726">
        <ele>30</ele>
        <time>2018-01-07T13:50:08Z</time>
      </trkpt>
      <trkpt lat="46.76805" lon="-1.81679">
        <ele>33</ele>
        <time>2018-01-07T13:51:08Z</time>
      </trkpt>
      <trkpt lat="46.76826" lon="-1.81652">
        <ele>34</ele>
        <time>2018-01-07T13:52:08Z</time>
      </trkpt>
      <trkpt lat="46.76837" lon="-1.81636">
        <ele>34</ele>
        <time>2018-01-07T13:53:08Z</time>
      </trkpt>
      <trkpt lat="46.76846" lon="-1.81617">
        <ele>35</ele>
        <time>2018-01-07T13:54:08Z</time>
      </trkpt>
      <trkpt lat="46.76854" lon="-1.816">
        <ele>35</ele>
        <time>2018-01-07T13:55:08Z</time>
      </trkpt>
      <trkpt lat="46.76864" lon="-1.81578">
        <ele>36</ele>
        <time>2018-01-07T13:56:08Z</time>
      </trkpt>
      <trkpt lat="46.76873" lon="-1.81549">
        <ele>37</ele>
        <time>2018-01-07T13:57:08Z</time>
      </trkpt>
      <trkpt lat="46.76881" lon="-1.81521">
        <ele>38</ele>
        <time>2018-01-07T13:58:08Z</time>
      </trkpt>
      <trkpt lat="46.76887" lon="-1.81484">
        <ele>38</ele>
        <time>2018-01-07T13:59:08Z</time>
      </trkpt>
      <trkpt lat="46.76894" lon="-1.81436">
        <ele>38</ele>
        <time>2018-01-07T14:00:08Z</time>
      </trkpt>
      <trkpt lat="46.76899" lon="-1.81398">
        <ele>39</ele>
        <time>2018-01-07T14:01:08Z</time>
      </trkpt>
      <trkpt lat="46.76908" lon="-1.8134">
        <ele>40</ele>
        <time>2018-01-07T14:02:08Z</time>
      </trkpt>
      <trkpt lat="46.76917" lon="-1.81283">
        <ele>41</ele>
        <time>2018-01-07T14:03:08Z</time>
      </trkpt>
      <trkpt lat="46.76924" lon="-1.81233">
        <ele>42</ele>
        <time>2018-01-07T14:04:08Z</time>
      </trkpt>
      <trkpt lat="46.76928" lon="-1.81204">
        <ele>43</ele>
        <time>2018-01-07T14:05:08Z</time>
      </trkpt>
      <trkpt lat="46.76932" lon="-1.81175">
        <ele>43</ele>
        <time>2018-01-07T14:06:08Z</time>
      </trkpt>
      <trkpt lat="46.76933" lon="-1.81162">
        <ele>43</ele>
        <time>2018-01-07T14:07:08Z</time>
      </trkpt>
      <trkpt lat="46.76936" lon="-1.81139">
        <ele>43</ele>
        <time>2018-01-07T14:08:08Z</time>
      </trkpt>
      <trkpt lat="46.76938" lon="-1.81121">
        <ele>43</ele>
        <time>2018-01-07T14:09:08Z</time>
      </trkpt>
      <trkpt lat="46.76939" lon="-1.81095">
        <ele>42</ele>
        <time>2018-01-07T14:10:08Z</time>
      </trkpt>
      <trkpt lat="46.76941" lon="-1.81066">
        <ele>42</ele>
        <time>2018-01-07T14:11:08Z</time>
      </trkpt>
      <trkpt lat="46.76944" lon="-1.81016">
        <ele>42</ele>
        <time>2018-01-07T14:12:08Z</time>
      </trkpt>
      <trkpt lat="46.76947" lon="-1.80957">
        <ele>41</ele>
        <time>2018-01-07T14:13:08Z</time>
      </trkpt>
      <trkpt lat="46.76949" lon="-1.80917">
        <ele>41</ele>
        <time>2018-01-07T14:14:08Z</time>
      </trkpt>
      <trkpt lat="46.7695" lon="-1.80898">
        <ele>41</ele>
        <time>2018-01-07T14:15:08Z</time>
      </trkpt>
      <trkpt lat="46.76952" lon="-1.80868">
        <ele>41</ele>
        <time>2018-01-07T14:16:08Z</time>
      </trkpt>
      <trkpt lat="46.76952" lon="-1.80838">
        <ele>42</ele>
        <time>2018-01-07T14:17:08Z</time>
      </trkpt>
      <trkpt lat="46.76952" lon="-1.80816">
        <ele>42</ele>
        <time>2018-01-07T14:18:08Z</time>
      </trkpt>
      <trkpt lat="46.76952" lon="-1.80797">
        <ele>42</ele>
        <time>2018-01-07T14:19:08Z</time>
      </trkpt>
      <trkpt lat="46.76951" lon="-1.8078">
        <ele>42</ele>
        <time>2018-01-07T14:20:08Z</time>
      </trkpt>
      <trkpt lat="46.7695" lon="-1.80771">
        <ele>42</ele>
        <time>2018-01-07T14:21:08Z</time>
      </trkpt>
      <trkpt lat="46.76948" lon="-1.80753">
        <ele>42</ele>
        <time>2018-01-07T14:22:08Z</time>
      </trkpt>
      <trkpt lat="46.76944" lon="-1.80723">
        <ele>42</ele>
        <time>2018-01-07T14:23:08Z</time>
      </trkpt>
      <trkpt lat="46.76939" lon="-1.80697">
        <ele>41</ele>
        <time>2018-01-07T14:24:08Z</time>
      </trkpt>
      <trkpt lat="46.76928" lon="-1.80639">
        <ele>41</ele>
        <time>2018-01-07T14:25:08Z</time>
      </trkpt>
      <trkpt lat="46.76925" lon="-1.80619">
        <ele>40</ele>
        <time>2018-01-07T14:26:08Z</time>
      </trkpt>
      <trkpt lat="46.7692" lon="-1.80593">
        <ele>40</ele>
        <time>2018-01-07T14:27:08Z</time>
      </trkpt>
      <trkpt lat="46.76915" lon="-1.80568">
        <ele>40</ele>
        <time>2018-01-07T14:28:08Z</time>
      </trkpt>
      <trkpt lat="46.76912" lon="-1.80556">
        <ele>41</ele>
        <time>2018-01-07T14:29:08Z</time>
      </trkpt>
      <trkpt lat="46.76908" lon="-1.8054">
        <ele>41</ele>
        <time>2018-01-07T14:30:08Z</time>
      </trkpt>
      <trkpt lat="46.76903" lon="-1.80527">
        <ele>42</ele>
        <time>2018-01-07T14:31:08Z</time>
      </trkpt>
      <trkpt lat="46.76899" lon="-1.80517">
        <ele>42</ele>
        <time>2018-01-07T14:32:08Z</time>
      </trkpt>
      <trkpt lat="46.76895" lon="-1.80508">
        <ele>42</ele>
        <time>2018-01-07T14:33:08Z</time>
      </trkpt>
      <trkpt lat="46.76876" lon="-1.80476">
        <ele>43</ele>
        <time>2018-01-07T14:34:08Z</time>
      </trkpt>
      <trkpt lat="46.76846" lon="-1.80429">
        <ele>44</ele>
        <time>2018-01-07T14:35:08Z</time>
      </trkpt>
      <trkpt lat="46.76836" lon="-1.80414">
        <ele>45</ele>
        <time>2018-01-07T14:36:08Z</time>
      </trkpt>
      <trkpt lat="46.76809" lon="-1.80371">
        <ele>44</ele>
        <time>2018-01-07T14:37:08Z</time>
      </trkpt>
      <trkpt lat="46.76791" lon="-1.8034">
        <ele>44</ele>
        <time>2018-01-07T14:38:08Z</time>
      </trkpt>
      <trkpt lat="46.7678" lon="-1.80318">
        <ele>44</ele>
        <time>2018-01-07T14:39:08Z</time>
      </trkpt>
      <trkpt lat="46.76775" lon="-1.80307">
        <ele>44</ele>
        <time>2018-01-07T14:40:08Z</time>
      </trkpt>
      <trkpt lat="46.76769" lon="-1.80289">
        <ele>45</ele>
        <time>2018-01-07T14:41:08Z</time>
      </trkpt>
      <trkpt lat="46.76765" lon="-1.80274">
        <ele>45</ele>
        <time>2018-01-07T14:42:08Z</time>
      </trkpt>
      <trkpt lat="46.76763" lon="-1.80264">
        <ele>45</ele>
        <time>2018-01-07T14:43:08Z</time>
      </trkpt>
      <trkpt lat="46.76762" lon="-1.80251">
        <ele>46</ele>
        <time>2018-01-07T14:44:08Z</time>
      </trkpt>
      <trkpt lat="46.7676" lon="-1.80236">
        <ele>46</ele>
        <time>2018-01-07T14:45:08Z</time>
      </trkpt>
      <trkpt lat="46.7676" lon="-1.80199">
        <ele>46</ele>
        <time>2018-01-07T14:46:08Z</time>
      </trkpt>
      <trkpt lat="46.76762" lon="-1.80113">
        <ele>46</ele>
        <time>2018-01-07T14:47:08Z</time>
      </trkpt>
      <trkpt lat="46.76762" lon="-1.80082">
        <ele>46</ele>
        <time>2018-01-07T14:48:08Z</time>
      </trkpt>
      <trkpt lat="46.76763" lon="-1.80004">
        <ele>45</ele>
        <time>2018-01-07T14:49:08Z</time>
      </trkpt>
      <trkpt lat="46.76763" lon="-1.79983">
        <ele>45</ele>
        <time>2018-01-07T14:50:08Z</time>
      </trkpt>
      <trkpt lat="46.76764" lon="-1.79968">
        <ele>45</ele>
        <time>2018-01-07T14:51:08Z</time>
      </trkpt>
      <trkpt lat="46.76765" lon="-1.79951">
        <ele>45</ele>
        <time>2018-01-07T14:52:08Z</time>
      </trkpt>
      <trkpt lat="46.76766" lon="-1.79937">
        <ele>44</ele>
        <time>2018-01-07T14:53:08Z</time>
      </trkpt>
      <trkpt lat="46.76767" lon="-1.7992">
        <ele>44</ele>
        <time>2018-01-07T14:54:08Z</time>
      </trkpt>
      <trkpt lat="46.76772" lon="-1.79876">
        <ele>45</ele>
        <time>2018-01-07T14:55:08Z</time>
      </trkpt>
      <trkpt lat="46.76782" lon="-1.79789">
        <ele>46</ele>
        <time>2018-01-07T14:56:08Z</time>
      </trkpt>
      <trkpt lat="46.76784" lon="-1.79768">
        <ele>46</ele>
        <time>2018-01-07T14:57:08Z</time>
      </trkpt>
      <trkpt lat="46.7679" lon="-1.79712">
        <ele>47</ele>
        <time>2018-01-07T14:58:08Z</time>
      </trkpt>
      <trkpt lat="46.76796" lon="-1.79658">
        <ele>47</ele>
        <time>2018-01-07T14:59:08Z</time>
      </trkpt>
      <trkpt lat="46.76801" lon="-1.79619">
        <ele>48</ele>
        <time>2018-01-07T15:00:08Z</time>
      </trkpt>
      <trkpt lat="46.76803" lon="-1.79599">
        <ele>48</ele>
        <time>2018-01-07T15:01:08Z</time>
      </trkpt>
      <trkpt lat="46.76806" lon="-1.79583">
        <ele>48</ele>
        <time>2018-01-07T15:02:08Z</time>
      </trkpt>
      <trkpt lat="46.76809" lon="-1.79569">
        <ele>48</ele>
        <time>2018-01-07T15:03:08Z</time>
      </trkpt>
      <trkpt lat="46.76813" lon="-1.79556">
        <ele>48</ele>
        <time>2018-01-07T15:04:08Z</time>
      </trkpt>
      <trkpt lat="46.76818" lon="-1.79542">
        <ele>49</ele>
        <time>2018-01-07T15:05:08Z</time>
      </trkpt>
      <trkpt lat="46.76823" lon="-1.79529">
        <ele>49</ele>
        <time>2018-01-07T15:06:08Z</time>
      </trkpt>
      <trkpt lat="46.76857" lon="-1.79454">
        <ele>49</ele>
        <time>2018-01-07T15:07:08Z</time>
      </trkpt>
      <trkpt lat="46.76868" lon="-1.79427">
        <ele>49</ele>
        <time>2018-01-07T15:08:08Z</time>
      </trkpt>
      <trkpt lat="46.7688" lon="-1.794">
        <ele>50</ele>
        <time>2018-01-07T15:09:08Z</time>
      </trkpt>
      <trkpt lat="46.76896" lon="-1.79363">
        <ele>50</ele>
        <time>2018-01-07T15:10:08Z</time>
      </trkpt>
      <trkpt lat="46.7692" lon="-1.79305">
        <ele>52</ele>
        <time>2018-01-07T15:11:08Z</time>
      </trkpt>
      <trkpt lat="46.76946" lon="-1.79245">
        <ele>53</ele>
        <time>2018-01-07T15:12:08Z</time>
      </trkpt>
      <trkpt lat="46.76962" lon="-1.79204">
        <ele>52</ele>
        <time>2018-01-07T15:13:08Z</time>
      </trkpt>
      <trkpt lat="46.76965" lon="-1.79196">
        <ele>52</ele>
        <time>2018-01-07T15:14:08Z</time>
      </trkpt>
      <trkpt lat="46.76968" lon="-1.79183">
        <ele>52</ele>
        <time>2018-01-07T15:15:08Z</time>
      </trkpt>
      <trkpt lat="46.76972" lon="-1.79166">
        <ele>52</ele>
        <time>2018-01-07T15:16:08Z</time>
      </trkpt>
      <trkpt lat="46.76978" lon="-1.79146">
        <ele>52</ele>
        <time>2018-01-07T15:17:08Z</time>
      </trkpt>
      <trkpt lat="46.76981" lon="-1.79129">
        <ele>52</ele>
        <time>2018-01-07T15:18:08Z</time>
      </trkpt>
      <trkpt lat="46.76986" lon="-1.79106">
        <ele>52</ele>
        <time>2018-01-07T15:19:08Z</time>
      </trkpt>
      <trkpt lat="46.7699" lon="-1.79087">
        <ele>52</ele>
        <time>2018-01-07T15:20:08Z</time>
      </trkpt>
      <trkpt lat="46.76996" lon="-1.79055">
        <ele>52</ele>
        <time>2018-01-07T15:21:08Z</time>
      </trkpt>
      <trkpt lat="46.77002" lon="-1.79024">
        <ele>53</ele>
        <time>2018-01-07T15:22:08Z</time>
      </trkpt>
      <trkpt lat="46.77009" lon="-1.78991">
        <ele>53</ele>
        <time>2018-01-07T15:23:08Z</time>
      </trkpt>
      <trkpt lat="46.77009" lon="-1.78988">
        <ele>53</ele>
        <time>2018-01-07T15:24:08Z</time>
      </trkpt>
      <trkpt lat="46.77019" lon="-1.78939">
        <ele>52</ele>
        <time>2018-01-07T15:25:08Z</time>
      </trkpt>
      <trkpt lat="46.77026" lon="-1.78906">
        <ele>52</ele>
        <time>2018-01-07T15:26:08Z</time>
      </trkpt>
      <trkpt lat="46.77033" lon="-1.78869">
        <ele>51</ele>
        <time>2018-01-07T15:27:08Z</time>
      </trkpt>
      <trkpt lat="46.77043" lon="-1.7882">
        <ele>51</ele>
        <time>2018-01-07T15:28:08Z</time>
      </trkpt>
      <trkpt lat="46.77059" lon="-1.78738">
        <ele>52</ele>
        <time>2018-01-07T15:29:08Z</time>
      </trkpt>
      <trkpt lat="46.7707" lon="-1.78684">
        <ele>52</ele>
        <time>2018-01-07T15:30:08Z</time>
      </trkpt>
      <trkpt lat="46.77081" lon="-1.78624">
        <ele>52</ele>
        <time>2018-01-07T15:31:08Z</time>
      </trkpt>
      <trkpt lat="46.77093" lon="-1.78567">
        <ele>52</ele>
        <time>2018-01-07T15:32:08Z</time>
      </trkpt>
      <trkpt lat="46.771" lon="-1.78527">
        <ele>53</ele>
        <time>2018-01-07T15:33:08Z</time>
      </trkpt>
      <trkpt lat="46.77106" lon="-1.785">
        <ele>53</ele>
        <time>2018-01-07T15:34:08Z</time>
      </trkpt>
      <trkpt lat="46.77109" lon="-1.78483">
        <ele>53</ele>
        <time>2018-01-07T15:35:08Z</time>
      </trkpt>
      <trkpt lat="46.77111" lon="-1.78462">
        <ele>53</ele>
        <time>2018-01-07T15:36:08Z</time>
      </trkpt>
      <trkpt lat="46.77114" lon="-1.78433">
        <ele>54</ele>
        <time>2018-01-07T15:37:08Z</time>
      </trkpt>
      <trkpt lat="46.77115" lon="-1.7842">
        <ele>54</ele>
        <time>2018-01-07T15:38:08Z</time>
      </trkpt>
      <trkpt lat="46.77117" lon="-1.78396">
        <ele>53</ele>
        <time>2018-01-07T15:39:08Z</time>
      </trkpt>
      <trkpt lat="46.77121" lon="-1.78352">
        <ele>52</ele>
        <time>2018-01-07T15:40:08Z</time>
      </trkpt>
      <trkpt lat="46.77127" lon="-1.78292">
        <ele>52</ele>
        <time>2018-01-07T15:41:08Z</time>
      </trkpt>
      <trkpt lat="46.77132" lon="-1.78246">
        <ele>51</ele>
        <time>2018-01-07T15:42:08Z</time>
      </trkpt>
      <trkpt lat="46.77136" lon="-1.78202">
        <ele>52</ele>
        <time>2018-01-07T15:43:08Z</time>
      </trkpt>
      <trkpt lat="46.77139" lon="-1.7818">
        <ele>52</ele>
        <time>2018-01-07T15:44:08Z</time>
      </trkpt>
      <trkpt lat="46.77145" lon="-1.78146">
        <ele>52</ele>
        <time>2018-01-07T15:45:08Z</time>
      </trkpt>
      <trkpt lat="46.77153" lon="-1.781">
        <ele>53</ele>
        <time>2018-01-07T15:46:08Z</time>
      </trkpt>
      <trkpt lat="46.77163" lon="-1.78044">
        <ele>52</ele>
        <time>2018-01-07T15:47:08Z</time>
      </trkpt>
      <trkpt lat="46.77175" lon="-1.77979">
        <ele>52</ele>
        <time>2018-01-07T15:48:08Z</time>
      </trkpt>
      <trkpt lat="46.77184" lon="-1.77931">
        <ele>52</ele>
        <time>2018-01-07T15:49:08Z</time>
      </trkpt>
      <trkpt lat="46.77189" lon="-1.779">
        <ele>52</ele>
        <time>2018-01-07T15:50:08Z</time>
      </trkpt>
      <trkpt lat="46.77195" lon="-1.77866">
        <ele>52</ele>
        <time>2018-01-07T15:51:08Z</time>
      </trkpt>
      <trkpt lat="46.772" lon="-1.77827">
        <ele>52</ele>
        <time>2018-01-07T15:52:08Z</time>
      </trkpt>
      <trkpt lat="46.77204" lon="-1.77804">
        <ele>52</ele>
        <time>2018-01-07T15:53:08Z</time>
      </trkpt>
      <trkpt lat="46.77207" lon="-1.77775">
        <ele>51</ele>
        <time>2018-01-07T15:54:08Z</time>
      </trkpt>
      <trkpt lat="46.77213" lon="-1.7772">
        <ele>51</ele>
        <time>2018-01-07T15:55:08Z</time>
      </trkpt>
      <trkpt lat="46.77213" lon="-1.77717">
        <ele>51</ele>
        <time>2018-01-07T15:56:08Z</time>
      </trkpt>
      <trkpt lat="46.77218" lon="-1.77677">
        <ele>50</ele>
        <time>2018-01-07T15:57:08Z</time>
      </trkpt>
      <trkpt lat="46.77219" lon="-1.77662">
        <ele>50</ele>
        <time>2018-01-07T15:58:08Z</time>
      </trkpt>
      <trkpt lat="46.77225" lon="-1.77615">
        <ele>51</ele>
        <time>2018-01-07T15:59:08Z</time>
      </trkpt>
      <trkpt lat="46.77229" lon="-1.7758">
        <ele>52</ele>
        <time>2018-01-07T16:00:08Z</time>
      </trkpt>
      <trkpt lat="46.77233" lon="-1.77556">
        <ele>52</ele>
        <time>2018-01-07T16:01:08Z</time>
      </trkpt>
      <trkpt lat="46.77237" lon="-1.77534">
        <ele>52</ele>
        <time>2018-01-07T16:02:08Z</time>
      </trkpt>
      <trkpt lat="46.7724" lon="-1.77522">
        <ele>51</ele>
        <time>2018-01-07T16:03:08Z</time>
      </trkpt>
      <trkpt lat="46.77243" lon="-1.77511">
        <ele>51</ele>
        <time>2018-01-07T16:04:08Z</time>
      </trkpt>
      <trkpt lat="46.77246" lon="-1.77501">
        <ele>51</ele>
        <time>2018-01-07T16:05:08Z</time>
      </trkpt>
      <trkpt lat="46.7725" lon="-1.77491">
        <ele>51</ele>
        <time>2018-01-07T16:06:08Z</time>
      </trkpt>
      <trkpt lat="46.77255" lon="-1.7748">
        <ele>51</ele>
        <time>2018-01-07T16:07:08Z</time>
      </trkpt>
      <trkpt lat="46.77259" lon="-1.77471">
        <ele>51</ele>
        <time>2018-01-07T16:08:08Z</time>
      </trkpt>
      <trkpt lat="46.77263" lon="-1.77462">
        <ele>51</ele>
        <time>2018-01-07T16:09:08Z</time>
      </trkpt>
      <trkpt lat="46.77282" lon="-1.77428">
        <ele>50</ele>
        <time>2018-01-07T16:10:08Z</time>
      </trkpt>
      <trkpt lat="46.77301" lon="-1.77393">
        <ele>50</ele>
        <time>2018-01-07T16:11:08Z</time>
      </trkpt>
      <trkpt lat="46.77331" lon="-1.77337">
        <ele>50</ele>
        <time>2018-01-07T16:12:08Z</time>
      </trkpt>
      <trkpt lat="46.7736" lon="-1.77283">
        <ele>51</ele>
        <time>2018-01-07T16:13:08Z</time>
      </trkpt>
      <trkpt lat="46.77389" lon="-1.77229">
        <ele>51</ele>
        <time>2018-01-07T16:14:08Z</time>
      </trkpt>
      <trkpt lat="46.77427" lon="-1.77158">
        <ele>51</ele>
        <time>2018-01-07T16:15:08Z</time>
      </trkpt>
      <trkpt lat="46.77469" lon="-1.77081">
        <ele>52</ele>
        <time>2018-01-07T16:16:08Z</time>
      </trkpt>
      <trkpt lat="46.77511" lon="-1.77001">
        <ele>53</ele>
        <time>2018-01-07T16:17:08Z</time>
      </trkpt>
      <trkpt lat="46.77554" lon="-1.76921">
        <ele>53</ele>
        <time>2018-01-07T16:18:08Z</time>
      </trkpt>
      <trkpt lat="46.77592" lon="-1.76851">
        <ele>53</ele>
        <time>2018-01-07T16:19:08Z</time>
      </trkpt>
      <trkpt lat="46.77597" lon="-1.76842">
        <ele>53</ele>
        <time>2018-01-07T16:20:08Z</time>
      </trkpt>
      <trkpt lat="46.77617" lon="-1.76807">
        <ele>53</ele>
        <time>2018-01-07T16:21:08Z</time>
      </trkpt>
      <trkpt lat="46.77642" lon="-1.7676">
        <ele>53</ele>
        <time>2018-01-07T16:22:08Z</time>
      </trkpt>
      <trkpt lat="46.77646" lon="-1.76753">
        <ele>53</ele>
        <time>2018-01-07T16:23:08Z</time>
      </trkpt>
      <trkpt lat="46.77646" lon="-1.76744">
        <ele>53</ele>
        <time>2018-01-07T16:24:08Z</time>
      </trkpt>
      <trkpt lat="46.77649" lon="-1.76732">
        <ele>53</ele>
        <time>2018-01-07T16:25:08Z</time>
      </trkpt>
      <trkpt lat="46.77653" lon="-1.76716">
        <ele>53</ele>
        <time>2018-01-07T16:26:08Z</time>
      </trkpt>
      <trkpt lat="46.77653" lon="-1.76716">
        <ele>53</ele>
        <time>2018-01-07T16:27:08Z</time>
      </trkpt>
      <trkpt lat="46.77626" lon="-1.7671">
        <ele>53</ele>
        <time>2018-01-07T16:28:08Z</time>
      </trkpt>
      <trkpt lat="46.77605" lon="-1.76705">
        <ele>52</ele>
        <time>2018-01-07T16:29:08Z</time>
      </trkpt>
      <trkpt lat="46.77563" lon="-1.76695">
        <ele>52</ele>
        <time>2018-01-07T16:30:08Z</time>
      </trkpt>
      <trkpt lat="46.77517" lon="-1.76685">
        <ele>54</ele>
        <time>2018-01-07T16:31:08Z</time>
      </trkpt>
      <trkpt lat="46.77516" lon="-1.76685">
        <ele>54</ele>
        <time>2018-01-07T16:32:08Z</time>
      </trkpt>
      <trkpt lat="46.77473" lon="-1.76674">
        <ele>54</ele>
        <time>2018-01-07T16:33:08Z</time>
      </trkpt>
      <trkpt lat="46.77448" lon="-1.76667">
        <ele>55</ele>
        <time>2018-01-07T16:34:08Z</time>
      </trkpt>
      <trkpt lat="46.77432" lon="-1.76663">
        <ele>55</ele>
        <time>2018-01-07T16:35:08Z</time>
      </trkpt>
      <trkpt lat="46.77411" lon="-1.76656">
        <ele>55</ele>
        <time>2018-01-07T16:36:08Z</time>
      </trkpt>
      <trkpt lat="46.774" lon="-1.76653">
        <ele>55</ele>
        <time>2018-01-07T16:37:08Z</time>
      </trkpt>
      <trkpt lat="46.7738" lon="-1.76645">
        <ele>55</ele>
        <time>2018-01-07T16:38:08Z</time>
      </trkpt>
      <trkpt lat="46.77342" lon="-1.76629">
        <ele>54</ele>
        <time>2018-01-07T16:39:08Z</time>
      </trkpt>
      <trkpt lat="46.7729" lon="-1.76605">
        <ele>55</ele>
        <time>2018-01-07T16:40:08Z</time>
      </trkpt>
      <trkpt lat="46.7723" lon="-1.76577">
        <ele>55</ele>
        <time>2018-01-07T16:41:08Z</time>
      </trkpt>
      <trkpt lat="46.77155" lon="-1.76543">
        <ele>57</ele>
        <time>2018-01-07T16:42:08Z</time>
      </trkpt>
      <trkpt lat="46.77073" lon="-1.76505">
        <ele>57</ele>
        <time>2018-01-07T16:43:08Z</time>
      </trkpt>
      <trkpt lat="46.77023" lon="-1.76482">
        <ele>55</ele>
        <time>2018-01-07T16:44:08Z</time>
      </trkpt>
      <trkpt lat="46.76985" lon="-1.76464">
        <ele>55</ele>
        <time>2018-01-07T16:45:08Z</time>
      </trkpt>
      <trkpt lat="46.76965" lon="-1.76455">
        <ele>55</ele>
        <time>2018-01-07T16:46:08Z</time>
      </trkpt>
      <trkpt lat="46.76946" lon="-1.76446">
        <ele>56</ele>
        <time>2018-01-07T16:47:08Z</time>
      </trkpt>
      <trkpt lat="46.76916" lon="-1.76432">
        <ele>56</ele>
        <time>2018-01-07T16:48:08Z</time>
      </trkpt>
      <trkpt lat="46.76898" lon="-1.76424">
        <ele>56</ele>
        <time>2018-01-07T16:49:08Z</time>
      </trkpt>
      <trkpt lat="46.76883" lon="-1.76416">
        <ele>56</ele>
        <time>2018-01-07T16:50:08Z</time>
      </trkpt>
      <trkpt lat="46.76863" lon="-1.76406">
        <ele>56</ele>
        <time>2018-01-07T16:51:08Z</time>
      </trkpt>
      <trkpt lat="46.76847" lon="-1.76396">
        <ele>56</ele>
        <time>2018-01-07T16:52:08Z</time>
      </trkpt>
      <trkpt lat="46.76834" lon="-1.76388">
        <ele>56</ele>
        <time>2018-01-07T16:53:08Z</time>
      </trkpt>
      <trkpt lat="46.76818" lon="-1.76377">
        <ele>56</ele>
        <time>2018-01-07T16:54:08Z</time>
      </trkpt>
      <trkpt lat="46.7681" lon="-1.76371">
        <ele>56</ele>
        <time>2018-01-07T16:55:08Z</time>
      </trkpt>
      <trkpt lat="46.768" lon="-1.76363">
        <ele>56</ele>
        <time>2018-01-07T16:56:08Z</time>
      </trkpt>
      <trkpt lat="46.76762" lon="-1.76331">
        <ele>57</ele>
        <time>2018-01-07T16:57:08Z</time>
      </trkpt>
      <trkpt lat="46.76751" lon="-1.76319">
        <ele>56</ele>
        <time>2018-01-07T16:58:08Z</time>
      </trkpt>
      <trkpt lat="46.76744" lon="-1.76311">
        <ele>56</ele>
        <time>2018-01-07T16:59:08Z</time>
      </trkpt>
      <trkpt lat="46.76735" lon="-1.76299">
        <ele>56</ele>
        <time>2018-01-07T17:00:08Z</time>
      </trkpt>
      <trkpt lat="46.76727" lon="-1.76287">
        <ele>55</ele>
        <time>2018-01-07T17:01:08Z</time>
      </trkpt>
      <trkpt lat="46.76721" lon="-1.76277">
        <ele>55</ele>
        <time>2018-01-07T17:02:08Z</time>
      </trkpt>
      <trkpt lat="46.76714" lon="-1.76264">
        <ele>55</ele>
        <time>2018-01-07T17:03:08Z</time>
      </trkpt>
      <trkpt lat="46.76705" lon="-1.76244">
        <ele>55</ele>
        <time>2018-01-07T17:04:08Z</time>
      </trkpt>
      <trkpt lat="46.76686" lon="-1.76202">
        <ele>55</ele>
        <time>2018-01-07T17:05:08Z</time>
      </trkpt>
      <trkpt lat="46.7667" lon="-1.76164">
        <ele>55</ele>
        <time>2018-01-07T17:06:08Z</time>
      </trkpt>
      <trkpt lat="46.76632" lon="-1.76078">
        <ele>53</ele>
        <time>2018-01-07T17:07:08Z</time>
      </trkpt>
      <trkpt lat="46.76599" lon="-1.76004">
        <ele>52</ele>
        <time>2018-01-07T17:08:08Z</time>
      </trkpt>
      <trkpt lat="46.76583" lon="-1.75965">
        <ele>52</ele>
        <time>2018-01-07T17:09:08Z</time>
      </trkpt>
      <trkpt lat="46.76534" lon="-1.75852">
        <ele>50</ele>
        <time>2018-01-07T17:10:08Z</time>
      </trkpt>
      <trkpt lat="46.76506" lon="-1.7579">
        <ele>51</ele>
        <time>2018-01-07T17:11:08Z</time>
      </trkpt>
      <trkpt lat="46.7648" lon="-1.75732">
        <ele>52</ele>
        <time>2018-01-07T17:12:08Z</time>
      </trkpt>
      <trkpt lat="46.76466" lon="-1.75703">
        <ele>51</ele>
        <time>2018-01-07T17:13:08Z</time>
      </trkpt>
      <trkpt lat="46.76461" lon="-1.75693">
        <ele>51</ele>
        <time>2018-01-07T17:14:08Z</time>
      </trkpt>
      <trkpt lat="46.76456" lon="-1.75683">
        <ele>51</ele>
        <time>2018-01-07T17:15:08Z</time>
      </trkpt>
      <trkpt lat="46.76451" lon="-1.75674">
        <ele>51</ele>
        <time>2018-01-07T17:16:08Z</time>
      </trkpt>
      <trkpt lat="46.76445" lon="-1.75666">
        <ele>51</ele>
        <time>2018-01-07T17:17:08Z</time>
      </trkpt>
      <trkpt lat="46.76439" lon="-1.75658">
        <ele>51</ele>
        <time>2018-01-07T17:18:08Z</time>
      </trkpt>
      <trkpt lat="46.76433" lon="-1.75652">
        <ele>51</ele>
        <time>2018-01-07T17:19:08Z</time>
      </trkpt>
      <trkpt lat="46.76426" lon="-1.75646">
        <ele>51</ele>
        <time>2018-01-07T17:20:08Z</time>
      </trkpt>
      <trkpt lat="46.76414" lon="-1.75636">
        <ele>50</ele>
        <time>2018-01-07T17:21:08Z</time>
      </trkpt>
      <trkpt lat="46.76392" lon="-1.75623">
        <ele>49</ele>
        <time>2018-01-07T17:22:08Z</time>
      </trkpt>
      <trkpt lat="46.76355" lon="-1.75601">
        <ele>48</ele>
        <time>2018-01-07T17:23:08Z</time>
      </trkpt>
      <trkpt lat="46.76334" lon="-1.75589">
        <ele>47</ele>
        <time>2018-01-07T17:24:08Z</time>
      </trkpt>
      <trkpt lat="46.76319" lon="-1.75581">
        <ele>47</ele>
        <time>2018-01-07T17:25:08Z</time>
      </trkpt>
      <trkpt lat="46.76303" lon="-1.75574">
        <ele>46</ele>
        <time>2018-01-07T17:26:08Z</time>
      </trkpt>
      <trkpt lat="46.7629" lon="-1.7557">
        <ele>45</ele>
        <time>2018-01-07T17:27:08Z</time>
      </trkpt>
      <trkpt lat="46.76274" lon="-1.75565">
        <ele>45</ele>
        <time>2018-01-07T17:28:08Z</time>
      </trkpt>
      <trkpt lat="46.76259" lon="-1.7556">
        <ele>44</ele>
        <time>2018-01-07T17:29:08Z</time>
      </trkpt>
      <trkpt lat="46.76246" lon="-1.75553">
        <ele>44</ele>
        <time>2018-01-07T17:30:08Z</time>
      </trkpt>
      <trkpt lat="46.76238" lon="-1.75547">
        <ele>43</ele>
        <time>2018-01-07T17:31:08Z</time>
      </trkpt>
      <trkpt lat="46.7623" lon="-1.75539">
        <ele>43</ele>
        <time>2018-01-07T17:32:08Z</time>
      </trkpt>
      <trkpt lat="46.76224" lon="-1.75531">
        <ele>42</ele>
        <time>2018-01-07T17:33:08Z</time>
      </trkpt>
      <trkpt lat="46.76219" lon="-1.75524">
        <ele>42</ele>
        <time>2018-01-07T17:34:08Z</time>
      </trkpt>
      <trkpt lat="46.76214" lon="-1.75516">
        <ele>42</ele>
        <time>2018-01-07T17:35:08Z</time>
      </trkpt>
      <trkpt lat="46.76206" lon="-1.75504">
        <ele>41</ele>
        <time>2018-01-07T17:36:08Z</time>
      </trkpt>
      <trkpt lat="46.76198" lon="-1.7549">
        <ele>40</ele>
        <time>2018-01-07T17:37:08Z</time>
      </trkpt>
      <trkpt lat="46.76193" lon="-1.75482">
        <ele>39</ele>
        <time>2018-01-07T17:38:08Z</time>
      </trkpt>
      <trkpt lat="46.76188" lon="-1.75474">
        <ele>38</ele>
        <time>2018-01-07T17:39:08Z</time>
      </trkpt>
      <trkpt lat="46.76179" lon="-1.75464">
        <ele>37</ele>
        <time>2018-01-07T17:40:08Z</time>
      </trkpt>
      <trkpt lat="46.76171" lon="-1.75456">
        <ele>37</ele>
        <time>2018-01-07T17:41:08Z</time>
      </trkpt>
      <trkpt lat="46.76163" lon="-1.7545">
        <ele>36</ele>
        <time>2018-01-07T17:42:08Z</time>
      </trkpt>
      <trkpt lat="46.76158" lon="-1.75446">
        <ele>36</ele>
        <time>2018-01-07T17:43:08Z</time>
      </trkpt>
      <trkpt lat="46.76151" lon="-1.75442">
        <ele>36</ele>
        <time>2018-01-07T17:44:08Z</time>
      </trkpt>
      <trkpt lat="46.76143" lon="-1.75437">
        <ele>35</ele>
        <time>2018-01-07T17:45:08Z</time>
      </trkpt>
      <trkpt lat="46.76135" lon="-1.75434">
        <ele>35</ele>
        <time>2018-01-07T17:46:08Z</time>
      </trkpt>
      <trkpt lat="46.76123" lon="-1.7543">
        <ele>35</ele>
        <time>2018-01-07T17:47:08Z</time>
      </trkpt>
      <trkpt lat="46.76091" lon="-1.7542">
        <ele>35</ele>
        <time>2018-01-07T17:48:08Z</time>
      </trkpt>
      <trkpt lat="46.76066" lon="-1.75412">
        <ele>34</ele>
        <time>2018-01-07T17:49:08Z</time>
      </trkpt>
      <trkpt lat="46.76041" lon="-1.75405">
        <ele>32</ele>
        <time>2018-01-07T17:50:08Z</time>
      </trkpt>
      <trkpt lat="46.76033" lon="-1.75404">
        <ele>31</ele>
        <time>2018-01-07T17:51:08Z</time>
      </trkpt>
      <trkpt lat="46.76025" lon="-1.75404">
        <ele>31</ele>
        <time>2018-01-07T17:52:08Z</time>
      </trkpt>
      <trkpt lat="46.76017" lon="-1.75405">
        <ele>30</ele>
        <time>2018-01-07T17:53:08Z</time>
      </trkpt>
      <trkpt lat="46.76009" lon="-1.75408">
        <ele>30</ele>
        <time>2018-01-07T17:54:08Z</time>
      </trkpt>
      <trkpt lat="46.76006" lon="-1.75409">
        <ele>30</ele>
        <time>2018-01-07T17:55:08Z</time>
      </trkpt>
      <trkpt lat="46.76002" lon="-1.75412">
        <ele>30</ele>
        <time>2018-01-07T17:56:08Z</time>
      </trkpt>
      <trkpt lat="46.75997" lon="-1.75416">
        <ele>30</ele>
        <time>2018-01-07T17:57:08Z</time>
      </trkpt>
      <trkpt lat="46.75992" lon="-1.75421">
        <ele>29</ele>
        <time>2018-01-07T17:58:08Z</time>
      </trkpt>
      <trkpt lat="46.75988" lon="-1.75427">
        <ele>29</ele>
        <time>2018-01-07T17:59:08Z</time>
      </trkpt>
      <trkpt lat="46.75984" lon="-1.75434">
        <ele>28</ele>
        <time>2018-01-07T18:00:08Z</time>
      </trkpt>
      <trkpt lat="46.75981" lon="-1.75442">
        <ele>28</ele>
        <time>2018-01-07T18:01:08Z</time>
      </trkpt>
      <trkpt lat="46.75978" lon="-1.7545">
        <ele>28</ele>
        <time>2018-01-07T18:02:08Z</time>
      </trkpt>
      <trkpt lat="46.75977" lon="-1.75458">
        <ele>28</ele>
        <time>2018-01-07T18:03:08Z</time>
      </trkpt>
      <trkpt lat="46.75976" lon="-1.75465">
        <ele>28</ele>
        <time>2018-01-07T18:04:08Z</time>
      </trkpt>
      <trkpt lat="46.75975" lon="-1.75474">
        <ele>28</ele>
        <time>2018-01-07T18:05:08Z</time>
      </trkpt>
      <trkpt lat="46.75975" lon="-1.7549">
        <ele>28</ele>
        <time>2018-01-07T18:06:08Z</time>
      </trkpt>
      <trkpt lat="46.75974" lon="-1.75505">
        <ele>28</ele>
        <time>2018-01-07T18:07:08Z</time>
      </trkpt>
      <trkpt lat="46.75974" lon="-1.75512">
        <ele>29</ele>
        <time>2018-01-07T18:08:08Z</time>
      </trkpt>
      <trkpt lat="46.75972" lon="-1.7552">
        <ele>29</ele>
        <time>2018-01-07T18:09:08Z</time>
      </trkpt>
      <trkpt lat="46.7597" lon="-1.75527">
        <ele>29</ele>
        <time>2018-01-07T18:10:08Z</time>
      </trkpt>
      <trkpt lat="46.75967" lon="-1.75534">
        <ele>29</ele>
        <time>2018-01-07T18:11:08Z</time>
      </trkpt>
      <trkpt lat="46.75964" lon="-1.7554">
        <ele>29</ele>
        <time>2018-01-07T18:12:08Z</time>
      </trkpt>
      <trkpt lat="46.75959" lon="-1.75545">
        <ele>28</ele>
        <time>2018-01-07T18:13:08Z</time>
      </trkpt>
      <trkpt lat="46.7595" lon="-1.75552">
        <ele>27</ele>
        <time>2018-01-07T18:14:08Z</time>
      </trkpt>
      <trkpt lat="46.75946" lon="-1.75555">
        <ele>27</ele>
        <time>2018-01-07T18:15:08Z</time>
      </trkpt>
      <trkpt lat="46.75941" lon="-1.75556">
        <ele>26</ele>
        <time>2018-01-07T18:16:08Z</time>
      </trkpt>
      <trkpt lat="46.75936" lon="-1.75558">
        <ele>25</ele>
        <time>2018-01-07T18:17:08Z</time>
      </trkpt>
      <trkpt lat="46.75929" lon="-1.75559">
        <ele>24</ele>
        <time>2018-01-07T18:18:08Z</time>
      </trkpt>
      <trkpt lat="46.75923" lon="-1.75559">
        <ele>23</ele>
        <time>2018-01-07T18:19:08Z</time>
      </trkpt>
      <trkpt lat="46.75916" lon="-1.75558">
        <ele>22</ele>
        <time>2018-01-07T18:20:08Z</time>
      </trkpt>
      <trkpt lat="46.75911" lon="-1.75557">
        <ele>22</ele>
        <time>2018-01-07T18:21:08Z</time>
      </trkpt>
      <trkpt lat="46.75906" lon="-1.75555">
        <ele>22</ele>
        <time>2018-01-07T18:22:08Z</time>
      </trkpt>
      <trkpt lat="46.75901" lon="-1.75551">
        <ele>22</ele>
        <time>2018-01-07T18:23:08Z</time>
      </trkpt>
      <trkpt lat="46.75897" lon="-1.75548">
        <ele>22</ele>
        <time>2018-01-07T18:24:08Z</time>
      </trkpt>
      <trkpt lat="46.75894" lon="-1.75543">
        <ele>22</ele>
        <time>2018-01-07T18:25:08Z</time>
      </trkpt>
      <trkpt lat="46.7589" lon="-1.75538">
        <ele>22</ele>
        <time>2018-01-07T18:26:08Z</time>
      </trkpt>
      <trkpt lat="46.75888" lon="-1.75531">
        <ele>22</ele>
        <time>2018-01-07T18:27:08Z</time>
      </trkpt>
      <trkpt lat="46.75886" lon="-1.75523">
        <ele>21</ele>
        <time>2018-01-07T18:28:08Z</time>
      </trkpt>
      <trkpt lat="46.75884" lon="-1.75507">
        <ele>21</ele>
        <time>2018-01-07T18:29:08Z</time>
      </trkpt>
      <trkpt lat="46.75883" lon="-1.75496">
        <ele>21</ele>
        <time>2018-01-07T18:30:08Z</time>
      </trkpt>
      <trkpt lat="46.75882" lon="-1.75487">
        <ele>21</ele>
        <time>2018-01-07T18:31:08Z</time>
      </trkpt>
      <trkpt lat="46.75881" lon="-1.75469">
        <ele>22</ele>
        <time>2018-01-07T18:32:08Z</time>
      </trkpt>
      <trkpt lat="46.75876" lon="-1.75389">
        <ele>23</ele>
        <time>2018-01-07T18:33:08Z</time>
      </trkpt>
      <trkpt lat="46.75875" lon="-1.75376">
        <ele>24</ele>
        <time>2018-01-07T18:34:08Z</time>
      </trkpt>
      <trkpt lat="46.75872" lon="-1.75359">
        <ele>24</ele>
        <time>2018-01-07T18:35:08Z</time>
      </trkpt>
      <trkpt lat="46.7587" lon="-1.75351">
        <ele>24</ele>
        <time>2018-01-07T18:36:08Z</time>
      </trkpt>
      <trkpt lat="46.75867" lon="-1.75344">
        <ele>24</ele>
        <time>2018-01-07T18:37:08Z</time>
      </trkpt>
      <trkpt lat="46.75864" lon="-1.7534">
        <ele>24</ele>
        <time>2018-01-07T18:38:08Z</time>
      </trkpt>
      <trkpt lat="46.7586" lon="-1.75335">
        <ele>25</ele>
        <time>2018-01-07T18:39:08Z</time>
      </trkpt>
      <trkpt lat="46.75855" lon="-1.75329">
        <ele>25</ele>
        <time>2018-01-07T18:40:08Z</time>
      </trkpt>
      <trkpt lat="46.75849" lon="-1.75326">
        <ele>26</ele>
        <time>2018-01-07T18:41:08Z</time>
      </trkpt>
      <trkpt lat="46.75842" lon="-1.75323">
        <ele>27</ele>
        <time>2018-01-07T18:42:08Z</time>
      </trkpt>
      <trkpt lat="46.75829" lon="-1.75318">
        <ele>28</ele>
        <time>2018-01-07T18:43:08Z</time>
      </trkpt>
      <trkpt lat="46.75812" lon="-1.75313">
        <ele>29</ele>
        <time>2018-01-07T18:44:08Z</time>
      </trkpt>
      <trkpt lat="46.75787" lon="-1.75307">
        <ele>31</ele>
        <time>2018-01-07T18:45:08Z</time>
      </trkpt>
      <trkpt lat="46.75766" lon="-1.75303">
        <ele>33</ele>
        <time>2018-01-07T18:46:08Z</time>
      </trkpt>
      <trkpt lat="46.75733" lon="-1.75293">
        <ele>35</ele>
        <time>2018-01-07T18:47:08Z</time>
      </trkpt>
      <trkpt lat="46.75724" lon="-1.75289">
        <ele>36</ele>
        <time>2018-01-07T18:48:08Z</time>
      </trkpt>
      <trkpt lat="46.75715" lon="-1.75284">
        <ele>37</ele>
        <time>2018-01-07T18:49:08Z</time>
      </trkpt>
      <trkpt lat="46.75707" lon="-1.75279">
        <ele>37</ele>
        <time>2018-01-07T18:50:08Z</time>
      </trkpt>
      <trkpt lat="46.757" lon="-1.75273">
        <ele>38</ele>
        <time>2018-01-07T18:51:08Z</time>
      </trkpt>
      <trkpt lat="46.75693" lon="-1.75267">
        <ele>39</ele>
        <time>2018-01-07T18:52:08Z</time>
      </trkpt>
      <trkpt lat="46.75686" lon="-1.7526">
        <ele>40</ele>
        <time>2018-01-07T18:53:08Z</time>
      </trkpt>
      <trkpt lat="46.75675" lon="-1.75248">
        <ele>41</ele>
        <time>2018-01-07T18:54:08Z</time>
      </trkpt>
      <trkpt lat="46.75658" lon="-1.75227">
        <ele>42</ele>
        <time>2018-01-07T18:55:08Z</time>
      </trkpt>
      <trkpt lat="46.75645" lon="-1.75206">
        <ele>43</ele>
        <time>2018-01-07T18:56:08Z</time>
      </trkpt>
      <trkpt lat="46.75631" lon="-1.75183">
        <ele>44</ele>
        <time>2018-01-07T18:57:08Z</time>
      </trkpt>
      <trkpt lat="46.75618" lon="-1.7516">
        <ele>44</ele>
        <time>2018-01-07T18:58:08Z</time>
      </trkpt>
      <trkpt lat="46.75601" lon="-1.75126">
        <ele>46</ele>
        <time>2018-01-07T18:59:08Z</time>
      </trkpt>
      <trkpt lat="46.75589" lon="-1.75098">
        <ele>47</ele>
        <time>2018-01-07T19:00:08Z</time>
      </trkpt>
      <trkpt lat="46.75567" lon="-1.7505">
        <ele>47</ele>
        <time>2018-01-07T19:01:08Z</time>
      </trkpt>
      <trkpt lat="46.75535" lon="-1.74979">
        <ele>48</ele>
        <time>2018-01-07T19:02:08Z</time>
      </trkpt>
      <trkpt lat="46.75519" lon="-1.74944">
        <ele>48</ele>
        <time>2018-01-07T19:03:08Z</time>
      </trkpt>
      <trkpt lat="46.75496" lon="-1.74893">
        <ele>48</ele>
        <time>2018-01-07T19:04:08Z</time>
      </trkpt>
      <trkpt lat="46.75485" lon="-1.7487">
        <ele>48</ele>
        <time>2018-01-07T19:05:08Z</time>
      </trkpt>
      <trkpt lat="46.75475" lon="-1.74847">
        <ele>48</ele>
        <time>2018-01-07T19:06:08Z</time>
      </trkpt>
      <trkpt lat="46.75455" lon="-1.74802">
        <ele>48</ele>
        <time>2018-01-07T19:07:08Z</time>
      </trkpt>
      <trkpt lat="46.75443" lon="-1.74769">
        <ele>48</ele>
        <time>2018-01-07T19:08:08Z</time>
      </trkpt>
      <trkpt lat="46.75436" lon="-1.74747">
        <ele>48</ele>
        <time>2018-01-07T19:09:08Z</time>
      </trkpt>
      <trkpt lat="46.75429" lon="-1.74721">
        <ele>48</ele>
        <time>2018-01-07T19:10:08Z</time>
      </trkpt>
      <trkpt lat="46.75426" lon="-1.74706">
        <ele>48</ele>
        <time>2018-01-07T19:11:08Z</time>
      </trkpt>
      <trkpt lat="46.75423" lon="-1.74693">
        <ele>47</ele>
        <time>2018-01-07T19:12:08Z</time>
      </trkpt>
      <trkpt lat="46.75419" lon="-1.74671">
        <ele>47</ele>
        <time>2018-01-07T19:13:08Z</time>
      </trkpt>
      <trkpt lat="46.75413" lon="-1.74627">
        <ele>47</ele>
        <time>2018-01-07T19:14:08Z</time>
      </trkpt>
      <trkpt lat="46.75409" lon="-1.74588">
        <ele>47</ele>
        <time>2018-01-07T19:15:08Z</time>
      </trkpt>
      <trkpt lat="46.75405" lon="-1.7454">
        <ele>47</ele>
        <time>2018-01-07T19:16:08Z</time>
      </trkpt>
      <trkpt lat="46.754" lon="-1.7448">
        <ele>48</ele>
        <time>2018-01-07T19:17:08Z</time>
      </trkpt>
      <trkpt lat="46.75398" lon="-1.7444">
        <ele>48</ele>
        <time>2018-01-07T19:18:08Z</time>
      </trkpt>
      <trkpt lat="46.75396" lon="-1.74398">
        <ele>49</ele>
        <time>2018-01-07T19:19:08Z</time>
      </trkpt>
      <trkpt lat="46.75397" lon="-1.74371">
        <ele>49</ele>
        <time>2018-01-07T19:20:08Z</time>
      </trkpt>
      <trkpt lat="46.75398" lon="-1.74335">
        <ele>49</ele>
        <time>2018-01-07T19:21:08Z</time>
      </trkpt>
      <trkpt lat="46.75402" lon="-1.7423">
        <ele>47</ele>
        <time>2018-01-07T19:22:08Z</time>
      </trkpt>
      <trkpt lat="46.75403" lon="-1.74216">
        <ele>47</ele>
        <time>2018-01-07T19:23:08Z</time>
      </trkpt>
      <trkpt lat="46.75405" lon="-1.74199">
        <ele>47</ele>
        <time>2018-01-07T19:24:08Z</time>
      </trkpt>
      <trkpt lat="46.75406" lon="-1.74183">
        <ele>47</ele>
        <time>2018-01-07T19:25:08Z</time>
      </trkpt>
      <trkpt lat="46.75409" lon="-1.74165">
        <ele>47</ele>
        <time>2018-01-07T19:26:08Z</time>
      </trkpt>
      <trkpt lat="46.75413" lon="-1.7414">
        <ele>47</ele>
        <time>2018-01-07T19:27:08Z</time>
      </trkpt>
      <trkpt lat="46.75416" lon="-1.74127">
        <ele>47</ele>
        <time>2018-01-07T19:28:08Z</time>
      </trkpt>
      <trkpt lat="46.75419" lon="-1.74114">
        <ele>47</ele>
        <time>2018-01-07T19:29:08Z</time>
      </trkpt>
      <trkpt lat="46.75426" lon="-1.74088">
        <ele>47</ele>
        <time>2018-01-07T19:30:08Z</time>
      </trkpt>
      <trkpt lat="46.75429" lon="-1.74078">
        <ele>48</ele>
        <time>2018-01-07T19:31:08Z</time>
      </trkpt>
      <trkpt lat="46.75439" lon="-1.74041">
        <ele>49</ele>
        <time>2018-01-07T19:32:08Z</time>
      </trkpt>
      <trkpt lat="46.75444" lon="-1.74021">
        <ele>49</ele>
        <time>2018-01-07T19:33:08Z</time>
      </trkpt>
      <trkpt lat="46.7545" lon="-1.73997">
        <ele>50</ele>
        <time>2018-01-07T19:34:08Z</time>
      </trkpt>
      <trkpt lat="46.75452" lon="-1.73986">
        <ele>50</ele>
        <time>2018-01-07T19:35:08Z</time>
      </trkpt>
      <trkpt lat="46.75453" lon="-1.73976">
        <ele>50</ele>
        <time>2018-01-07T19:36:08Z</time>
      </trkpt>
      <trkpt lat="46.75453" lon="-1.73966">
        <ele>51</ele>
        <time>2018-01-07T19:37:08Z</time>
      </trkpt>
      <trkpt lat="46.75452" lon="-1.73955">
        <ele>51</ele>
        <time>2018-01-07T19:38:08Z</time>
      </trkpt>
      <trkpt lat="46.75451" lon="-1.73946">
        <ele>51</ele>
        <time>2018-01-07T19:39:08Z</time>
      </trkpt>
      <trkpt lat="46.75449" lon="-1.73937">
        <ele>51</ele>
        <time>2018-01-07T19:40:08Z</time>
      </trkpt>
      <trkpt lat="46.75447" lon="-1.7393">
        <ele>51</ele>
        <time>2018-01-07T19:41:08Z</time>
      </trkpt>
      <trkpt lat="46.75444" lon="-1.73921">
        <ele>51</ele>
        <time>2018-01-07T19:42:08Z</time>
      </trkpt>
      <trkpt lat="46.75441" lon="-1.73914">
        <ele>51</ele>
        <time>2018-01-07T19:43:08Z</time>
      </trkpt>
      <trkpt lat="46.75437" lon="-1.73906">
        <ele>51</ele>
        <time>2018-01-07T19:44:08Z</time>
      </trkpt>
      <trkpt lat="46.75432" lon="-1.73897">
        <ele>51</ele>
        <time>2018-01-07T19:45:08Z</time>
      </trkpt>
      <trkpt lat="46.75427" lon="-1.7389">
        <ele>51</ele>
        <time>2018-01-07T19:46:08Z</time>
      </trkpt>
      <trkpt lat="46.75422" lon="-1.73885">
        <ele>51</ele>
        <time>2018-01-07T19:47:08Z</time>
      </trkpt>
      <trkpt lat="46.75417" lon="-1.73881">
        <ele>51</ele>
        <time>2018-01-07T19:48:08Z</time>
      </trkpt>
      <trkpt lat="46.75412" lon="-1.73876">
        <ele>51</ele>
        <time>2018-01-07T19:49:08Z</time>
      </trkpt>
      <trkpt lat="46.75412" lon="-1.73876">
        <ele>51</ele>
        <time>2018-01-07T19:50:08Z</time>
      </trkpt>
      <trkpt lat="46.75418" lon="-1.73868">
        <ele>52</ele>
        <time>2018-01-07T19:51:08Z</time>
      </trkpt>
      <trkpt lat="46.75426" lon="-1.73863">
        <ele>52</ele>
        <time>2018-01-07T19:52:08Z</time>
      </trkpt>
      <trkpt lat="46.75429" lon="-1.73861">
        <ele>52</ele>
        <time>2018-01-07T19:53:08Z</time>
      </trkpt>
      <trkpt lat="46.7544" lon="-1.73856">
        <ele>52</ele>
        <time>2018-01-07T19:54:08Z</time>
      </trkpt>
      <trkpt lat="46.75474" lon="-1.73845">
        <ele>53</ele>
        <time>2018-01-07T19:55:08Z</time>
      </trkpt>
      <trkpt lat="46.75474" lon="-1.73845">
        <ele>53</ele>
        <time>2018-01-07T19:56:08Z</time>
      </trkpt>
      <trkpt lat="46.7549" lon="-1.73838">
        <ele>54</ele>
        <time>2018-01-07T19:57:08Z</time>
      </trkpt>
      <trkpt lat="46.75496" lon="-1.73835">
        <ele>54</ele>
        <time>2018-01-07T19:58:08Z</time>
      </trkpt>
      <trkpt lat="46.75523" lon="-1.73822">
        <ele>54</ele>
        <time>2018-01-07T19:59:08Z</time>
      </trkpt>
      <trkpt lat="46.75544" lon="-1.73808">
        <ele>55</ele>
        <time>2018-01-07T20:00:08Z</time>
      </trkpt>
      <trkpt lat="46.75565" lon="-1.73794">
        <ele>55</ele>
        <time>2018-01-07T20:01:08Z</time>
      </trkpt>
      <trkpt lat="46.75585" lon="-1.73781">
        <ele>55</ele>
        <time>2018-01-07T20:02:08Z</time>
      </trkpt>
      <trkpt lat="46.75585" lon="-1.73781">
        <ele>55</ele>
        <time>2018-01-07T20:03:08Z</time>
      </trkpt>
      <trkpt lat="46.75582" lon="-1.73763">
        <ele>55</ele>
        <time>2018-01-07T20:04:08Z</time>
      </trkpt>
      <trkpt lat="46.75581" lon="-1.73738">
        <ele>55</ele>
        <time>2018-01-07T20:05:08Z</time>
      </trkpt>
      <trkpt lat="46.75579" lon="-1.73686">
        <ele>56</ele>
        <time>2018-01-07T20:06:08Z</time>
      </trkpt>
      <trkpt lat="46.75579" lon="-1.73686">
        <ele>56</ele>
        <time>2018-01-07T20:07:08Z</time>
      </trkpt>
      <trkpt lat="46.75579" lon="-1.73669">
        <ele>56</ele>
        <time>2018-01-07T20:08:08Z</time>
      </trkpt>
      <trkpt lat="46.75578" lon="-1.7366">
        <ele>56</ele>
        <time>2018-01-07T20:09:08Z</time>
      </trkpt>
      <trkpt lat="46.75577" lon="-1.73648">
        <ele>56</ele>
        <time>2018-01-07T20:10:08Z</time>
      </trkpt>
      <trkpt lat="46.75576" lon="-1.73638">
        <ele>56</ele>
        <time>2018-01-07T20:11:08Z</time>
      </trkpt>
      <trkpt lat="46.75573" lon="-1.7363">
        <ele>56</ele>
        <time>2018-01-07T20:12:08Z</time>
      </trkpt>
      <trkpt lat="46.75569" lon="-1.73619">
        <ele>57</ele>
        <time>2018-01-07T20:13:08Z</time>
      </trkpt>
      <trkpt lat="46.7556" lon="-1.73603">
        <ele>57</ele>
        <time>2018-01-07T20:14:08Z</time>
      </trkpt>
      <trkpt lat="46.75557" lon="-1.73597">
        <ele>57</ele>
        <time>2018-01-07T20:15:08Z</time>
      </trkpt>
      <trkpt lat="46.7555" lon="-1.73572">
        <ele>57</ele>
        <time>2018-01-07T20:16:08Z</time>
      </trkpt>
      <trkpt lat="46.75548" lon="-1.73562">
        <ele>57</ele>
        <time>2018-01-07T20:17:08Z</time>
      </trkpt>
      <trkpt lat="46.75546" lon="-1.73549">
        <ele>57</ele>
        <time>2018-01-07T20:18:08Z</time>
      </trkpt>
      <trkpt lat="46.75542" lon="-1.73505">
        <ele>57</ele>
        <time>2018-01-07T20:19:08Z</time>
      </trkpt>
      <trkpt lat="46.75541" lon="-1.7349">
        <ele>56</ele>
        <time>2018-01-07T20:20:08Z</time>
      </trkpt>
      <trkpt lat="46.7554" lon="-1.73481">
        <ele>56</ele>
        <time>2018-01-07T20:21:08Z</time>
      </trkpt>
      <trkpt lat="46.75537" lon="-1.73469">
        <ele>56</ele>
        <time>2018-01-07T20:22:08Z</time>
      </trkpt>
      <trkpt lat="46.75536" lon="-1.73464">
        <ele>56</ele>
        <time>2018-01-07T20:23:08Z</time>
      </trkpt>
      <trkpt lat="46.75534" lon="-1.73455">
        <ele>56</ele>
        <time>2018-01-07T20:24:08Z</time>
      </trkpt>
      <trkpt lat="46.75534" lon="-1.73455">
        <ele>56</ele>
        <time>2018-01-07T20:25:08Z</time>
      </trkpt>
      <trkpt lat="46.75538" lon="-1.73448">
        <ele>56</ele>
        <time>2018-01-07T20:26:08Z</time>
      </trkpt>
      <trkpt lat="46.75541" lon="-1.73445">
        <ele>56</ele>
        <time>2018-01-07T20:27:08Z</time>
      </trkpt>
      <trkpt lat="46.75544" lon="-1.73439">
        <ele>56</ele>
        <time>2018-01-07T20:28:08Z</time>
      </trkpt>
      <trkpt lat="46.75553" lon="-1.73423">
        <ele>56</ele>
        <time>2018-01-07T20:29:08Z</time>
      </trkpt>
      <trkpt lat="46.75555" lon="-1.73418">
        <ele>56</ele>
        <time>2018-01-07T20:30:08Z</time>
      </trkpt>
      <trkpt lat="46.75557" lon="-1.73412">
        <ele>56</ele>
        <time>2018-01-07T20:31:08Z</time>
      </trkpt>
      <trkpt lat="46.7556" lon="-1.73403">
        <ele>56</ele>
        <time>2018-01-07T20:32:08Z</time>
      </trkpt>
      <trkpt lat="46.75564" lon="-1.7339">
        <ele>56</ele>
        <time>2018-01-07T20:33:08Z</time>
      </trkpt>
      <trkpt lat="46.75566" lon="-1.73381">
        <ele>56</ele>
        <time>2018-01-07T20:34:08Z</time>
      </trkpt>
      <trkpt lat="46.75566" lon="-1.73381">
        <ele>56</ele>
        <time>2018-01-07T20:35:08Z</time>
      </trkpt>
      <trkpt lat="46.75567" lon="-1.73377">
        <ele>56</ele>
        <time>2018-01-07T20:36:08Z</time>
      </trkpt>
      <trkpt lat="46.75575" lon="-1.73341">
        <ele>57</ele>
        <time>2018-01-07T20:37:08Z</time>
      </trkpt>
      <trkpt lat="46.75589" lon="-1.73274">
        <ele>56</ele>
        <time>2018-01-07T20:38:08Z</time>
      </trkpt>
      <trkpt lat="46.75598" lon="-1.73226">
        <ele>55</ele>
        <time>2018-01-07T20:39:08Z</time>
      </trkpt>
      <trkpt lat="46.75608" lon="-1.73181">
        <ele>54</ele>
        <time>2018-01-07T20:40:08Z</time>
      </trkpt>
      <trkpt lat="46.75612" lon="-1.73156">
        <ele>54</ele>
        <time>2018-01-07T20:41:08Z</time>
      </trkpt>
      <trkpt lat="46.75617" lon="-1.73128">
        <ele>54</ele>
        <time>2018-01-07T20:42:08Z</time>
      </trkpt>
      <trkpt lat="46.75616" lon="-1.7312">
        <ele>54</ele>
        <time>2018-01-07T20:43:08Z</time>
      </trkpt>
      <trkpt lat="46.75618" lon="-1.73089">
        <ele>53</ele>
        <time>2018-01-07T20:44:08Z</time>
      </trkpt>
      <trkpt lat="46.75616" lon="-1.73087">
        <ele>53</ele>
        <time>2018-01-07T20:45:08Z</time>
      </trkpt>
      <trkpt lat="46.75615" lon="-1.73085">
        <ele>53</ele>
        <time>2018-01-07T20:46:08Z</time>
      </trkpt>
      <trkpt lat="46.75614" lon="-1.73083">
        <ele>53</ele>
        <time>2018-01-07T20:47:08Z</time>
      </trkpt>
      <trkpt lat="46.75614" lon="-1.73082">
        <ele>53</ele>
        <time>2018-01-07T20:48:08Z</time>
      </trkpt>
      <trkpt lat="46.75614" lon="-1.73081">
        <ele>53</ele>
        <time>2018-01-07T20:49:08Z</time>
      </trkpt>
      <trkpt lat="46.75613" lon="-1.73078">
        <ele>53</ele>
        <time>2018-01-07T20:50:08Z</time>
      </trkpt>
      <trkpt lat="46.75613" lon="-1.73075">
        <ele>53</ele>
        <time>2018-01-07T20:51:08Z</time>
      </trkpt>
      <trkpt lat="46.75614" lon="-1.73071">
        <ele>53</ele>
        <time>2018-01-07T20:52:08Z</time>
      </trkpt>
      <trkpt lat="46.75615" lon="-1.73066">
        <ele>53</ele>
        <time>2018-01-07T20:53:08Z</time>
      </trkpt>
      <trkpt lat="46.75619" lon="-1.73049">
        <ele>54</ele>
        <time>2018-01-07T20:54:08Z</time>
      </trkpt>
      <trkpt lat="46.75623" lon="-1.73038">
        <ele>54</ele>
        <time>2018-01-07T20:55:08Z</time>
      </trkpt>
      <trkpt lat="46.75623" lon="-1.72992">
        <ele>55</ele>
        <time>2018-01-07T20:56:08Z</time>
      </trkpt>
      <trkpt lat="46.75623" lon="-1.72916">
        <ele>55</ele>
        <time>2018-01-07T20:57:08Z</time>
      </trkpt>
      <trkpt lat="46.75623" lon="-1.72887">
        <ele>55</ele>
        <time>2018-01-07T20:58:08Z</time>
      </trkpt>
      <trkpt lat="46.75624" lon="-1.7287">
        <ele>56</ele>
        <time>2018-01-07T20:59:08Z</time>
      </trkpt>
      <trkpt lat="46.75624" lon="-1.72845">
        <ele>56</ele>
        <time>2018-01-07T21:00:08Z</time>
      </trkpt>
      <trkpt lat="46.75625" lon="-1.72834">
        <ele>56</ele>
        <time>2018-01-07T21:01:08Z</time>
      </trkpt>
      <trkpt lat="46.75626" lon="-1.7282">
        <ele>57</ele>
        <time>2018-01-07T21:02:08Z</time>
      </trkpt>
      <trkpt lat="46.75626" lon="-1.72809">
        <ele>57</ele>
        <time>2018-01-07T21:03:08Z</time>
      </trkpt>
      <trkpt lat="46.75627" lon="-1.72797">
        <ele>57</ele>
        <time>2018-01-07T21:04:08Z</time>
      </trkpt>
      <trkpt lat="46.75628" lon="-1.72787">
        <ele>57</ele>
        <time>2018-01-07T21:05:08Z</time>
      </trkpt>
      <trkpt lat="46.75633" lon="-1.72721">
        <ele>58</ele>
        <time>2018-01-07T21:06:08Z</time>
      </trkpt>
      <trkpt lat="46.75638" lon="-1.72663">
        <ele>57</ele>
        <time>2018-01-07T21:07:08Z</time>
      </trkpt>
      <trkpt lat="46.75643" lon="-1.72615">
        <ele>56</ele>
        <time>2018-01-07T21:08:08Z</time>
      </trkpt>
      <trkpt lat="46.7565" lon="-1.72542">
        <ele>56</ele>
        <time>2018-01-07T21:09:08Z</time>
      </trkpt>
      <trkpt lat="46.75656" lon="-1.72493">
        <ele>56</ele>
        <time>2018-01-07T21:10:08Z</time>
      </trkpt>
      <trkpt lat="46.75657" lon="-1.72476">
        <ele>56</ele>
        <time>2018-01-07T21:11:08Z</time>
      </trkpt>
      <trkpt lat="46.75662" lon="-1.72434">
        <ele>56</ele>
        <time>2018-01-07T21:12:08Z</time>
      </trkpt>
      <trkpt lat="46.75661" lon="-1.72416">
        <ele>56</ele>
        <time>2018-01-07T21:13:08Z</time>
      </trkpt>
      <trkpt lat="46.75662" lon="-1.72342">
        <ele>56</ele>
        <time>2018-01-07T21:14:08Z</time>
      </trkpt>
      <trkpt lat="46.7566" lon="-1.72271">
        <ele>56</ele>
        <time>2018-01-07T21:15:08Z</time>
      </trkpt>
      <trkpt lat="46.7566" lon="-1.72244">
        <ele>56</ele>
        <time>2018-01-07T21:16:08Z</time>
      </trkpt>
      <trkpt lat="46.75657" lon="-1.72178">
        <ele>58</ele>
        <time>2018-01-07T21:17:08Z</time>
      </trkpt>
      <trkpt lat="46.75657" lon="-1.72169">
        <ele>58</ele>
        <time>2018-01-07T21:18:08Z</time>
      </trkpt>
      <trkpt lat="46.75651" lon="-1.72101">
        <ele>57</ele>
        <time>2018-01-07T21:19:08Z</time>
      </trkpt>
      <trkpt lat="46.75645" lon="-1.7204">
        <ele>57</ele>
        <time>2018-01-07T21:20:08Z</time>
      </trkpt>
      <trkpt lat="46.75646" lon="-1.72036">
        <ele>57</ele>
        <time>2018-01-07T21:21:08Z</time>
      </trkpt>
      <trkpt lat="46.75633" lon="-1.71906">
        <ele>56</ele>
        <time>2018-01-07T21:22:08Z</time>
      </trkpt>
      <trkpt lat="46.75633" lon="-1.71883">
        <ele>56</ele>
        <time>2018-01-07T21:23:08Z</time>
      </trkpt>
      <trkpt lat="46.75632" lon="-1.71874">
        <ele>56</ele>
        <time>2018-01-07T21:24:08Z</time>
      </trkpt>
      <trkpt lat="46.75632" lon="-1.71858">
        <ele>56</ele>
        <time>2018-01-07T21:25:08Z</time>
      </trkpt>
      <trkpt lat="46.75631" lon="-1.71831">
        <ele>56</ele>
        <time>2018-01-07T21:26:08Z</time>
      </trkpt>
      <trkpt lat="46.75631" lon="-1.71802">
        <ele>56</ele>
        <time>2018-01-07T21:27:08Z</time>
      </trkpt>
      <trkpt lat="46.75631" lon="-1.71789">
        <ele>57</ele>
        <time>2018-01-07T21:28:08Z</time>
      </trkpt>
      <trkpt lat="46.75631" lon="-1.7178">
        <ele>57</ele>
        <time>2018-01-07T21:29:08Z</time>
      </trkpt>
      <trkpt lat="46.75631" lon="-1.71767">
        <ele>57</ele>
        <time>2018-01-07T21:30:08Z</time>
      </trkpt>
      <trkpt lat="46.75632" lon="-1.71751">
        <ele>57</ele>
        <time>2018-01-07T21:31:08Z</time>
      </trkpt>
      <trkpt lat="46.75632" lon="-1.71736">
        <ele>57</ele>
        <time>2018-01-07T21:32:08Z</time>
      </trkpt>
      <trkpt lat="46.75632" lon="-1.71721">
        <ele>57</ele>
        <time>2018-01-07T21:33:08Z</time>
      </trkpt>
      <trkpt lat="46.75633" lon="-1.71706">
        <ele>57</ele>
        <time>2018-01-07T21:34:08Z</time>
      </trkpt>
      <trkpt lat="46.75633" lon="-1.71695">
        <ele>57</ele>
        <time>2018-01-07T21:35:08Z</time>
      </trkpt>
      <trkpt lat="46.75634" lon="-1.7168">
        <ele>57</ele>
        <time>2018-01-07T21:36:08Z</time>
      </trkpt>
      <trkpt lat="46.75635" lon="-1.71651">
        <ele>57</ele>
        <time>2018-01-07T21:37:08Z</time>
      </trkpt>
      <trkpt lat="46.75637" lon="-1.71635">
        <ele>57</ele>
        <time>2018-01-07T21:38:08Z</time>
      </trkpt>
      <trkpt lat="46.75639" lon="-1.71584">
        <ele>57</ele>
        <time>2018-01-07T21:39:08Z</time>
      </trkpt>
      <trkpt lat="46.75645" lon="-1.71506">
        <ele>58</ele>
        <time>2018-01-07T21:40:08Z</time>
      </trkpt>
      <trkpt lat="46.75645" lon="-1.71503">
        <ele>58</ele>
        <time>2018-01-07T21:41:08Z</time>
      </trkpt>
      <trkpt lat="46.75649" lon="-1.71449">
        <ele>59</ele>
        <time>2018-01-07T21:42:08Z</time>
      </trkpt>
      <trkpt lat="46.75656" lon="-1.71346">
        <ele>60</ele>
        <time>2018-01-07T21:43:08Z</time>
      </trkpt>
      <trkpt lat="46.75658" lon="-1.71296">
        <ele>60</ele>
        <time>2018-01-07T21:44:08Z</time>
      </trkpt>
      <trkpt lat="46.75659" lon="-1.7126">
        <ele>60</ele>
        <time>2018-01-07T21:45:08Z</time>
      </trkpt>
      <trkpt lat="46.75659" lon="-1.71235">
        <ele>60</ele>
        <time>2018-01-07T21:46:08Z</time>
      </trkpt>
      <trkpt lat="46.7566" lon="-1.71217">
        <ele>60</ele>
        <time>2018-01-07T21:47:08Z</time>
      </trkpt>
      <trkpt lat="46.7566" lon="-1.71199">
        <ele>60</ele>
        <time>2018-01-07T21:48:08Z</time>
      </trkpt>
      <trkpt lat="46.75661" lon="-1.7118">
        <ele>60</ele>
        <time>2018-01-07T21:49:08Z</time>
      </trkpt>
      <trkpt lat="46.75662" lon="-1.71157">
        <ele>60</ele>
        <time>2018-01-07T21:50:08Z</time>
      </trkpt>
      <trkpt lat="46.75662" lon="-1.71132">
        <ele>60</ele>
        <time>2018-01-07T21:51:08Z</time>
      </trkpt>
      <trkpt lat="46.75662" lon="-1.71111">
        <ele>59</ele>
        <time>2018-01-07T21:52:08Z</time>
      </trkpt>
      <trkpt lat="46.75662" lon="-1.71091">
        <ele>59</ele>
        <time>2018-01-07T21:53:08Z</time>
      </trkpt>
      <trkpt lat="46.75662" lon="-1.71047">
        <ele>59</ele>
        <time>2018-01-07T21:54:08Z</time>
      </trkpt>
      <trkpt lat="46.75661" lon="-1.71002">
        <ele>59</ele>
        <time>2018-01-07T21:55:08Z</time>
      </trkpt>
      <trkpt lat="46.7566" lon="-1.7096">
        <ele>60</ele>
        <time>2018-01-07T21:56:08Z</time>
      </trkpt>
      <trkpt lat="46.7566" lon="-1.70953">
        <ele>60</ele>
        <time>2018-01-07T21:57:08Z</time>
      </trkpt>
      <trkpt lat="46.75657" lon="-1.70877">
        <ele>61</ele>
        <time>2018-01-07T21:58:08Z</time>
      </trkpt>
      <trkpt lat="46.75655" lon="-1.70823">
        <ele>62</ele>
        <time>2018-01-07T21:59:08Z</time>
      </trkpt>
      <trkpt lat="46.75655" lon="-1.70806">
        <ele>62</ele>
        <time>2018-01-07T22:00:08Z</time>
      </trkpt>
      <trkpt lat="46.75654" lon="-1.7079">
        <ele>61</ele>
        <time>2018-01-07T22:01:08Z</time>
      </trkpt>
      <trkpt lat="46.75654" lon="-1.70772">
        <ele>61</ele>
        <time>2018-01-07T22:02:08Z</time>
      </trkpt>
      <trkpt lat="46.75654" lon="-1.70751">
        <ele>61</ele>
        <time>2018-01-07T22:03:08Z</time>
      </trkpt>
      <trkpt lat="46.75655" lon="-1.70726">
        <ele>60</ele>
        <time>2018-01-07T22:04:08Z</time>
      </trkpt>
      <trkpt lat="46.75656" lon="-1.70671">
        <ele>59</ele>
        <time>2018-01-07T22:05:08Z</time>
      </trkpt>
      <trkpt lat="46.7566" lon="-1.70572">
        <ele>59</ele>
        <time>2018-01-07T22:06:08Z</time>
      </trkpt>
      <trkpt lat="46.75662" lon="-1.70498">
        <ele>60</ele>
        <time>2018-01-07T22:07:08Z</time>
      </trkpt>
      <trkpt lat="46.75666" lon="-1.70422">
        <ele>61</ele>
        <time>2018-01-07T22:08:08Z</time>
      </trkpt>
      <trkpt lat="46.7567" lon="-1.70352">
        <ele>61</ele>
        <time>2018-01-07T22:09:08Z</time>
      </trkpt>
      <trkpt lat="46.75672" lon="-1.70323">
        <ele>61</ele>
        <time>2018-01-07T22:10:08Z</time>
      </trkpt>
      <trkpt lat="46.75673" lon="-1.70304">
        <ele>61</ele>
        <time>2018-01-07T22:11:08Z</time>
      </trkpt>
      <trkpt lat="46.75673" lon="-1.70286">
        <ele>61</ele>
        <time>2018-01-07T22:12:08Z</time>
      </trkpt>
      <trkpt lat="46.75673" lon="-1.70266">
        <ele>61</ele>
        <time>2018-01-07T22:13:08Z</time>
      </trkpt>
      <trkpt lat="46.75672" lon="-1.70246">
        <ele>61</ele>
        <time>2018-01-07T22:14:08Z</time>
      </trkpt>
      <trkpt lat="46.75671" lon="-1.70227">
        <ele>61</ele>
        <time>2018-01-07T22:15:08Z</time>
      </trkpt>
      <trkpt lat="46.7567" lon="-1.70205">
        <ele>61</ele>
        <time>2018-01-07T22:16:08Z</time>
      </trkpt>
      <trkpt lat="46.75666" lon="-1.70153">
        <ele>62</ele>
        <time>2018-01-07T22:17:08Z</time>
      </trkpt>
      <trkpt lat="46.7566" lon="-1.70095">
        <ele>61</ele>
        <time>2018-01-07T22:18:08Z</time>
      </trkpt>
      <trkpt lat="46.75656" lon="-1.70046">
        <ele>61</ele>
        <time>2018-01-07T22:19:08Z</time>
      </trkpt>
      <trkpt lat="46.75654" lon="-1.70015">
        <ele>62</ele>
        <time>2018-01-07T22:20:08Z</time>
      </trkpt>
      <trkpt lat="46.75653" lon="-1.70008">
        <ele>62</ele>
        <time>2018-01-07T22:21:08Z</time>
      </trkpt>
      <trkpt lat="46.75651" lon="-1.69993">
        <ele>62</ele>
        <time>2018-01-07T22:22:08Z</time>
      </trkpt>
      <trkpt lat="46.75648" lon="-1.69979">
        <ele>61</ele>
        <time>2018-01-07T22:23:08Z</time>
      </trkpt>
      <trkpt lat="46.75645" lon="-1.69967">
        <ele>61</ele>
        <time>2018-01-07T22:24:08Z</time>
      </trkpt>
      <trkpt lat="46.75641" lon="-1.69956">
        <ele>61</ele>
        <time>2018-01-07T22:25:08Z</time>
      </trkpt>
      <trkpt lat="46.75632" lon="-1.69934">
        <ele>61</ele>
        <time>2018-01-07T22:26:08Z</time>
      </trkpt>
      <trkpt lat="46.75627" lon="-1.6992">
        <ele>61</ele>
        <time>2018-01-07T22:27:08Z</time>
      </trkpt>
      <trkpt lat="46.75622" lon="-1.69903">
        <ele>60</ele>
        <time>2018-01-07T22:28:08Z</time>
      </trkpt>
      <trkpt lat="46.75618" lon="-1.69878">
        <ele>60</ele>
        <time>2018-01-07T22:29:08Z</time>
      </trkpt>
      <trkpt lat="46.75611" lon="-1.69841">
        <ele>59</ele>
        <time>2018-01-07T22:30:08Z</time>
      </trkpt>
      <trkpt lat="46.75607" lon="-1.69819">
        <ele>59</ele>
        <time>2018-01-07T22:31:08Z</time>
      </trkpt>
      <trkpt lat="46.75602" lon="-1.69782">
        <ele>59</ele>
        <time>2018-01-07T22:32:08Z</time>
      </trkpt>
      <trkpt lat="46.75596" lon="-1.69746">
        <ele>59</ele>
        <time>2018-01-07T22:33:08Z</time>
      </trkpt>
      <trkpt lat="46.75596" lon="-1.69742">
        <ele>59</ele>
        <time>2018-01-07T22:34:08Z</time>
      </trkpt>
      <trkpt lat="46.7559" lon="-1.69707">
        <ele>59</ele>
        <time>2018-01-07T22:35:08Z</time>
      </trkpt>
      <trkpt lat="46.75579" lon="-1.69642">
        <ele>58</ele>
        <time>2018-01-07T22:36:08Z</time>
      </trkpt>
      <trkpt lat="46.75575" lon="-1.69614">
        <ele>58</ele>
        <time>2018-01-07T22:37:08Z</time>
      </trkpt>
      <trkpt lat="46.75572" lon="-1.69595">
        <ele>58</ele>
        <time>2018-01-07T22:38:08Z</time>
      </trkpt>
      <trkpt lat="46.75568" lon="-1.69577">
        <ele>58</ele>
        <time>2018-01-07T22:39:08Z</time>
      </trkpt>
      <trkpt lat="46.75565" lon="-1.69562">
        <ele>58</ele>
        <time>2018-01-07T22:40:08Z</time>
      </trkpt>
      <trkpt lat="46.7556" lon="-1.69542">
        <ele>57</ele>
        <time>2018-01-07T22:41:08Z</time>
      </trkpt>
      <trkpt lat="46.75556" lon="-1.69526">
        <ele>57</ele>
        <time>2018-01-07T22:42:08Z</time>
      </trkpt>
      <trkpt lat="46.75552" lon="-1.69509">
        <ele>57</ele>
        <time>2018-01-07T22:43:08Z</time>
      </trkpt>
      <trkpt lat="46.75542" lon="-1.69475">
        <ele>56</ele>
        <time>2018-01-07T22:44:08Z</time>
      </trkpt>
      <trkpt lat="46.7553" lon="-1.6944">
        <ele>55</ele>
        <time>2018-01-07T22:45:08Z</time>
      </trkpt>
      <trkpt lat="46.7552" lon="-1.69411">
        <ele>55</ele>
        <time>2018-01-07T22:46:08Z</time>
      </trkpt>
      <trkpt lat="46.75502" lon="-1.69354">
        <ele>56</ele>
        <time>2018-01-07T22:47:08Z</time>
      </trkpt>
      <trkpt lat="46.75486" lon="-1.69306">
        <ele>56</ele>
        <time>2018-01-07T22:48:08Z</time>
      </trkpt>
      <trkpt lat="46.75472" lon="-1.69263">
        <ele>55</ele>
        <time>2018-01-07T22:49:08Z</time>
      </trkpt>
      <trkpt lat="46.75455" lon="-1.69214">
        <ele>54</ele>
        <time>2018-01-07T22:50:08Z</time>
      </trkpt>
      <trkpt lat="46.75439" lon="-1.69172">
        <ele>53</ele>
        <time>2018-01-07T22:51:08Z</time>
      </trkpt>
      <trkpt lat="46.75435" lon="-1.69163">
        <ele>53</ele>
        <time>2018-01-07T22:52:08Z</time>
      </trkpt>
      <trkpt lat="46.75421" lon="-1.69127">
        <ele>52</ele>
        <time>2018-01-07T22:53:08Z</time>
      </trkpt>
      <trkpt lat="46.75408" lon="-1.69097">
        <ele>50</ele>
        <time>2018-01-07T22:54:08Z</time>
      </trkpt>
      <trkpt lat="46.75394" lon="-1.69063">
        <ele>49</ele>
        <time>2018-01-07T22:55:08Z</time>
      </trkpt>
      <trkpt lat="46.75388" lon="-1.69045">
        <ele>49</ele>
        <time>2018-01-07T22:56:08Z</time>
      </trkpt>
      <trkpt lat="46.75385" lon="-1.6903">
        <ele>49</ele>
        <time>2018-01-07T22:57:08Z</time>
      </trkpt>
      <trkpt lat="46.75382" lon="-1.69009">
        <ele>48</ele>
        <time>2018-01-07T22:58:08Z</time>
      </trkpt>
      <trkpt lat="46.75382" lon="-1.6898">
        <ele>48</ele>
        <time>2018-01-07T22:59:08Z</time>
      </trkpt>
      <trkpt lat="46.75382" lon="-1.68964">
        <ele>47</ele>
        <time>2018-01-07T23:00:08Z</time>
      </trkpt>
      <trkpt lat="46.75381" lon="-1.68964">
        <ele>47</ele>
        <time>2018-01-07T23:01:08Z</time>
      </trkpt>
      <trkpt lat="46.7538" lon="-1.68963">
        <ele>47</ele>
        <time>2018-01-07T23:02:08Z</time>
      </trkpt>
      <trkpt lat="46.75379" lon="-1.68961">
        <ele>47</ele>
        <time>2018-01-07T23:03:08Z</time>
      </trkpt>
      <trkpt lat="46.75378" lon="-1.68959">
        <ele>47</ele>
        <time>2018-01-07T23:04:08Z</time>
      </trkpt>
      <trkpt lat="46.75378" lon="-1.68957">
        <ele>47</ele>
        <time>2018-01-07T23:05:08Z</time>
      </trkpt>
      <trkpt lat="46.75378" lon="-1.68955">
        <ele>47</ele>
        <time>2018-01-07T23:06:08Z</time>
      </trkpt>
      <trkpt lat="46.75379" lon="-1.68954">
        <ele>47</ele>
        <time>2018-01-07T23:07:08Z</time>
      </trkpt>
      <trkpt lat="46.7538" lon="-1.68953">
        <ele>47</ele>
        <time>2018-01-07T23:08:08Z</time>
      </trkpt>
      <trkpt lat="46.75382" lon="-1.68952">
        <ele>47</ele>
        <time>2018-01-07T23:09:08Z</time>
      </trkpt>
      <trkpt lat="46.75383" lon="-1.68952">
        <ele>47</ele>
        <time>2018-01-07T23:10:08Z</time>
      </trkpt>
      <trkpt lat="46.75385" lon="-1.68932">
        <ele>47</ele>
        <time>2018-01-07T23:11:08Z</time>
      </trkpt>
      <trkpt lat="46.75387" lon="-1.68906">
        <ele>46</ele>
        <time>2018-01-07T23:12:08Z</time>
      </trkpt>
      <trkpt lat="46.7539" lon="-1.68863">
        <ele>46</ele>
        <time>2018-01-07T23:13:08Z</time>
      </trkpt>
      <trkpt lat="46.75392" lon="-1.68828">
        <ele>46</ele>
        <time>2018-01-07T23:14:08Z</time>
      </trkpt>
      <trkpt lat="46.75394" lon="-1.68801">
        <ele>45</ele>
        <time>2018-01-07T23:15:08Z</time>
      </trkpt>
      <trkpt lat="46.75395" lon="-1.68778">
        <ele>44</ele>
        <time>2018-01-07T23:16:08Z</time>
      </trkpt>
      <trkpt lat="46.75397" lon="-1.68756">
        <ele>43</ele>
        <time>2018-01-07T23:17:08Z</time>
      </trkpt>
      <trkpt lat="46.75398" lon="-1.68739">
        <ele>43</ele>
        <time>2018-01-07T23:18:08Z</time>
      </trkpt>
      <trkpt lat="46.75399" lon="-1.68725">
        <ele>43</ele>
        <time>2018-01-07T23:19:08Z</time>
      </trkpt>
      <trkpt lat="46.75402" lon="-1.68688">
        <ele>42</ele>
        <time>2018-01-07T23:20:08Z</time>
      </trkpt>
      <trkpt lat="46.75404" lon="-1.68657">
        <ele>41</ele>
        <time>2018-01-07T23:21:08Z</time>
      </trkpt>
      <trkpt lat="46.75405" lon="-1.68643">
        <ele>41</ele>
        <time>2018-01-07T23:22:08Z</time>
      </trkpt>
      <trkpt lat="46.75407" lon="-1.68634">
        <ele>41</ele>
        <time>2018-01-07T23:23:08Z</time>
      </trkpt>
      <trkpt lat="46.75409" lon="-1.68625">
        <ele>41</ele>
        <time>2018-01-07T23:24:08Z</time>
      </trkpt>
      <trkpt lat="46.75411" lon="-1.6862">
        <ele>41</ele>
        <time>2018-01-07T23:25:08Z</time>
      </trkpt>
      <trkpt lat="46.75416" lon="-1.68608">
        <ele>41</ele>
        <time>2018-01-07T23:26:08Z</time>
      </trkpt>
      <trkpt lat="46.75419" lon="-1.68601">
        <ele>40</ele>
        <time>2018-01-07T23:27:08Z</time>
      </trkpt>
      <trkpt lat="46.75429" lon="-1.68591">
        <ele>40</ele>
        <time>2018-01-07T23:28:08Z</time>
      </trkpt>
      <trkpt lat="46.75441" lon="-1.6858">
        <ele>41</ele>
        <time>2018-01-07T23:29:08Z</time>
      </trkpt>
      <trkpt lat="46.75453" lon="-1.68573">
        <ele>41</ele>
        <time>2018-01-07T23:30:08Z</time>
      </trkpt>
      <trkpt lat="46.75454" lon="-1.68573">
        <ele>41</ele>
        <time>2018-01-07T23:31:08Z</time>
      </trkpt>
      <trkpt lat="46.75459" lon="-1.6857">
        <ele>41</ele>
        <time>2018-01-07T23:32:08Z</time>
      </trkpt>
      <trkpt lat="46.75462" lon="-1.68569">
        <ele>41</ele>
        <time>2018-01-07T23:33:08Z</time>
      </trkpt>
      <trkpt lat="46.75466" lon="-1.68569">
        <ele>41</ele>
        <time>2018-01-07T23:34:08Z</time>
      </trkpt>
      <trkpt lat="46.75472" lon="-1.6857">
        <ele>41</ele>
        <time>2018-01-07T23:35:08Z</time>
      </trkpt>
      <trkpt lat="46.75479" lon="-1.6857">
        <ele>41</ele>
        <time>2018-01-07T23:36:08Z</time>
      </trkpt>
      <trkpt lat="46.75482" lon="-1.6857">
        <ele>42</ele>
        <time>2018-01-07T23:37:08Z</time>
      </trkpt>
      <trkpt lat="46.75501" lon="-1.68572">
        <ele>42</ele>
        <time>2018-01-07T23:38:08Z</time>
      </trkpt>
      <trkpt lat="46.75518" lon="-1.68575">
        <ele>42</ele>
        <time>2018-01-07T23:39:08Z</time>
      </trkpt>
      <trkpt lat="46.75531" lon="-1.68577">
        <ele>41</ele>
        <time>2018-01-07T23:40:08Z</time>
      </trkpt>
      <trkpt lat="46.75538" lon="-1.68577">
        <ele>41</ele>
        <time>2018-01-07T23:41:08Z</time>
      </trkpt>
      <trkpt lat="46.75542" lon="-1.68576">
        <ele>41</ele>
        <time>2018-01-07T23:42:08Z</time>
      </trkpt>
      <trkpt lat="46.75547" lon="-1.68573">
        <ele>41</ele>
        <time>2018-01-07T23:43:08Z</time>
      </trkpt>
      <trkpt lat="46.75553" lon="-1.68568">
        <ele>41</ele>
        <time>2018-01-07T23:44:08Z</time>
      </trkpt>
      <trkpt lat="46.7556" lon="-1.68561">
        <ele>40</ele>
        <time>2018-01-07T23:45:08Z</time>
      </trkpt>
      <trkpt lat="46.7557" lon="-1.68552">
        <ele>40</ele>
        <time>2018-01-07T23:46:08Z</time>
      </trkpt>
      <trkpt lat="46.7558" lon="-1.68545">
        <ele>40</ele>
        <time>2018-01-07T23:47:08Z</time>
      </trkpt>
      <trkpt lat="46.75585" lon="-1.68541">
        <ele>39</ele>
        <time>2018-01-07T23:48:08Z</time>
      </trkpt>
      <trkpt lat="46.75602" lon="-1.68526">
        <ele>38</ele>
        <time>2018-01-07T23:49:08Z</time>
      </trkpt>
      <trkpt lat="46.75608" lon="-1.68518">
        <ele>38</ele>
        <time>2018-01-07T23:50:08Z</time>
      </trkpt>
      <trkpt lat="46.75615" lon="-1.68506">
        <ele>37</ele>
        <time>2018-01-07T23:51:08Z</time>
      </trkpt>
      <trkpt lat="46.7562" lon="-1.68495">
        <ele>37</ele>
        <time>2018-01-07T23:52:08Z</time>
      </trkpt>
      <trkpt lat="46.75625" lon="-1.68481">
        <ele>36</ele>
        <time>2018-01-07T23:53:08Z</time>
      </trkpt>
      <trkpt lat="46.75634" lon="-1.68458">
        <ele>35</ele>
        <time>2018-01-07T23:54:08Z</time>
      </trkpt>
      <trkpt lat="46.75645" lon="-1.6843">
        <ele>34</ele>
        <time>2018-01-07T23:55:08Z</time>
      </trkpt>
      <trkpt lat="46.75656" lon="-1.68404">
        <ele>33</ele>
        <time>2018-01-07T23:56:08Z</time>
      </trkpt>
      <trkpt lat="46.75664" lon="-1.68389">
        <ele>33</ele>
        <time>2018-01-07T23:57:08Z</time>
      </trkpt>
      <trkpt lat="46.75672" lon="-1.68375">
        <ele>32</ele>
        <time>2018-01-07T23:58:08Z</time>
      </trkpt>
      <trkpt lat="46.75681" lon="-1.68362">
        <ele>32</ele>
        <time>2018-01-07T23:59:08Z</time>
      </trkpt>
      <trkpt lat="46.75691" lon="-1.6835">
        <ele>32</ele>
        <time>2018-01-08T00:00:08Z</time>
      </trkpt>
      <trkpt lat="46.75696" lon="-1.68342">
        <ele>31</ele>
        <time>2018-01-08T00:01:08Z</time>
      </trkpt>
      <trkpt lat="46.75701" lon="-1.68335">
        <ele>31</ele>
        <time>2018-01-08T00:02:08Z</time>
      </trkpt>
      <trkpt lat="46.75714" lon="-1.68321">
        <ele>31</ele>
        <time>2018-01-08T00:03:08Z</time>
      </trkpt>
      <trkpt lat="46.75727" lon="-1.68306">
        <ele>30</ele>
        <time>2018-01-08T00:04:08Z</time>
      </trkpt>
      <trkpt lat="46.75741" lon="-1.68289">
        <ele>29</ele>
        <time>2018-01-08T00:05:08Z</time>
      </trkpt>
      <trkpt lat="46.75759" lon="-1.68268">
        <ele>29</ele>
        <time>2018-01-08T00:06:08Z</time>
      </trkpt>
      <trkpt lat="46.75772" lon="-1.68252">
        <ele>28</ele>
        <time>2018-01-08T00:07:08Z</time>
      </trkpt>
      <trkpt lat="46.75777" lon="-1.68247">
        <ele>28</ele>
        <time>2018-01-08T00:08:08Z</time>
      </trkpt>
      <trkpt lat="46.75799" lon="-1.68221">
        <ele>28</ele>
        <time>2018-01-08T00:09:08Z</time>
      </trkpt>
      <trkpt lat="46.75829" lon="-1.68185">
        <ele>27</ele>
        <time>2018-01-08T00:10:08Z</time>
      </trkpt>
      <trkpt lat="46.75854" lon="-1.68156">
        <ele>27</ele>
        <time>2018-01-08T00:11:08Z</time>
      </trkpt>
      <trkpt lat="46.75872" lon="-1.68133">
        <ele>27</ele>
        <time>2018-01-08T00:12:08Z</time>
      </trkpt>
      <trkpt lat="46.759" lon="-1.681">
        <ele>26</ele>
        <time>2018-01-08T00:13:08Z</time>
      </trkpt>
      <trkpt lat="46.75923" lon="-1.68075">
        <ele>25</ele>
        <time>2018-01-08T00:14:08Z</time>
      </trkpt>
      <trkpt lat="46.75931" lon="-1.68069">
        <ele>25</ele>
        <time>2018-01-08T00:15:08Z</time>
      </trkpt>
      <trkpt lat="46.75945" lon="-1.68062">
        <ele>24</ele>
        <time>2018-01-08T00:16:08Z</time>
      </trkpt>
      <trkpt lat="46.75959" lon="-1.68052">
        <ele>24</ele>
        <time>2018-01-08T00:17:08Z</time>
      </trkpt>
      <trkpt lat="46.75967" lon="-1.68047">
        <ele>24</ele>
        <time>2018-01-08T00:18:08Z</time>
      </trkpt>
      <trkpt lat="46.75983" lon="-1.68035">
        <ele>24</ele>
        <time>2018-01-08T00:19:08Z</time>
      </trkpt>
      <trkpt lat="46.75998" lon="-1.68023">
        <ele>24</ele>
        <time>2018-01-08T00:20:08Z</time>
      </trkpt>
      <trkpt lat="46.76009" lon="-1.68009">
        <ele>24</ele>
        <time>2018-01-08T00:21:08Z</time>
      </trkpt>
      <trkpt lat="46.76024" lon="-1.67986">
        <ele>23</ele>
        <time>2018-01-08T00:22:08Z</time>
      </trkpt>
      <trkpt lat="46.7604" lon="-1.67954">
        <ele>21</ele>
        <time>2018-01-08T00:23:08Z</time>
      </trkpt>
      <trkpt lat="46.76055" lon="-1.67926">
        <ele>19</ele>
        <time>2018-01-08T00:24:08Z</time>
      </trkpt>
      <trkpt lat="46.76069" lon="-1.67896">
        <ele>18</ele>
        <time>2018-01-08T00:25:08Z</time>
      </trkpt>
      <trkpt lat="46.76072" lon="-1.6789">
        <ele>18</ele>
        <time>2018-01-08T00:26:08Z</time>
      </trkpt>
      <trkpt lat="46.76234" lon="-1.67539">
        <ele>15</ele>
        <time>2018-01-08T00:27:08Z</time>
      </trkpt>
      <trkpt lat="46.76246" lon="-1.67516">
        <ele>14</ele>
        <time>2018-01-08T00:28:08Z</time>
      </trkpt>
      <trkpt lat="46.76256" lon="-1.67498">
        <ele>14</ele>
        <time>2018-01-08T00:29:08Z</time>
      </trkpt>
      <trkpt lat="46.76285" lon="-1.67453">
        <ele>14</ele>
        <time>2018-01-08T00:30:08Z</time>
      </trkpt>
      <trkpt lat="46.763" lon="-1.6743">
        <ele>13</ele>
        <time>2018-01-08T00:31:08Z</time>
      </trkpt>
      <trkpt lat="46.76317" lon="-1.67408">
        <ele>13</ele>
        <time>2018-01-08T00:32:08Z</time>
      </trkpt>
      <trkpt lat="46.76329" lon="-1.67392">
        <ele>13</ele>
        <time>2018-01-08T00:33:08Z</time>
      </trkpt>
      <trkpt lat="46.76353" lon="-1.67363">
        <ele>13</ele>
        <time>2018-01-08T00:34:08Z</time>
      </trkpt>
      <trkpt lat="46.76363" lon="-1.67353">
        <ele>13</ele>
        <time>2018-01-08T00:35:08Z</time>
      </trkpt>
      <trkpt lat="46.76391" lon="-1.67324">
        <ele>12</ele>
        <time>2018-01-08T00:36:08Z</time>
      </trkpt>
      <trkpt lat="46.76413" lon="-1.67305">
        <ele>12</ele>
        <time>2018-01-08T00:37:08Z</time>
      </trkpt>
      <trkpt lat="46.76423" lon="-1.67296">
        <ele>12</ele>
        <time>2018-01-08T00:38:08Z</time>
      </trkpt>
      <trkpt lat="46.76434" lon="-1.67288">
        <ele>13</ele>
        <time>2018-01-08T00:39:08Z</time>
      </trkpt>
      <trkpt lat="46.76441" lon="-1.67283">
        <ele>13</ele>
        <time>2018-01-08T00:40:08Z</time>
      </trkpt>
      <trkpt lat="46.76458" lon="-1.67273">
        <ele>13</ele>
        <time>2018-01-08T00:41:08Z</time>
      </trkpt>
      <trkpt lat="46.76481" lon="-1.67259">
        <ele>13</ele>
        <time>2018-01-08T00:42:08Z</time>
      </trkpt>
      <trkpt lat="46.76509" lon="-1.67245">
        <ele>13</ele>
        <time>2018-01-08T00:43:08Z</time>
      </trkpt>
      <trkpt lat="46.76538" lon="-1.67231">
        <ele>13</ele>
        <time>2018-01-08T00:44:08Z</time>
      </trkpt>
      <trkpt lat="46.76544" lon="-1.67228">
        <ele>13</ele>
        <time>2018-01-08T00:45:08Z</time>
      </trkpt>
      <trkpt lat="46.76568" lon="-1.67217">
        <ele>13</ele>
        <time>2018-01-08T00:46:08Z</time>
      </trkpt>
      <trkpt lat="46.76608" lon="-1.672">
        <ele>14</ele>
        <time>2018-01-08T00:47:08Z</time>
      </trkpt>
      <trkpt lat="46.76637" lon="-1.67186">
        <ele>14</ele>
        <time>2018-01-08T00:48:08Z</time>
      </trkpt>
      <trkpt lat="46.76666" lon="-1.67172">
        <ele>15</ele>
        <time>2018-01-08T00:49:08Z</time>
      </trkpt>
      <trkpt lat="46.7671" lon="-1.67153">
        <ele>15</ele>
        <time>2018-01-08T00:50:08Z</time>
      </trkpt>
      <trkpt lat="46.76718" lon="-1.67149">
        <ele>15</ele>
        <time>2018-01-08T00:51:08Z</time>
      </trkpt>
      <trkpt lat="46.76726" lon="-1.67146">
        <ele>15</ele>
        <time>2018-01-08T00:52:08Z</time>
      </trkpt>
      <trkpt lat="46.76729" lon="-1.67144">
        <ele>15</ele>
        <time>2018-01-08T00:53:08Z</time>
      </trkpt>
      <trkpt lat="46.76735" lon="-1.67141">
        <ele>15</ele>
        <time>2018-01-08T00:54:08Z</time>
      </trkpt>
      <trkpt lat="46.76774" lon="-1.67123">
        <ele>17</ele>
        <time>2018-01-08T00:55:08Z</time>
      </trkpt>
      <trkpt lat="46.76804" lon="-1.67108">
        <ele>19</ele>
        <time>2018-01-08T00:56:08Z</time>
      </trkpt>
      <trkpt lat="46.76838" lon="-1.67094">
        <ele>20</ele>
        <time>2018-01-08T00:57:08Z</time>
      </trkpt>
      <trkpt lat="46.76862" lon="-1.67082">
        <ele>22</ele>
        <time>2018-01-08T00:58:08Z</time>
      </trkpt>
      <trkpt lat="46.76893" lon="-1.67068">
        <ele>24</ele>
        <time>2018-01-08T00:59:08Z</time>
      </trkpt>
      <trkpt lat="46.76912" lon="-1.6706">
        <ele>25</ele>
        <time>2018-01-08T01:00:08Z</time>
      </trkpt>
      <trkpt lat="46.76923" lon="-1.67057">
        <ele>25</ele>
        <time>2018-01-08T01:01:08Z</time>
      </trkpt>
      <trkpt lat="46.76931" lon="-1.67057">
        <ele>26</ele>
        <time>2018-01-08T01:02:08Z</time>
      </trkpt>
      <trkpt lat="46.76945" lon="-1.67057">
        <ele>27</ele>
        <time>2018-01-08T01:03:08Z</time>
      </trkpt>
      <trkpt lat="46.76954" lon="-1.67059">
        <ele>27</ele>
        <time>2018-01-08T01:04:08Z</time>
      </trkpt>
      <trkpt lat="46.76969" lon="-1.67064">
        <ele>28</ele>
        <time>2018-01-08T01:05:08Z</time>
      </trkpt>
      <trkpt lat="46.76976" lon="-1.67066">
        <ele>28</ele>
        <time>2018-01-08T01:06:08Z</time>
      </trkpt>
      <trkpt lat="46.76992" lon="-1.67072">
        <ele>29</ele>
        <time>2018-01-08T01:07:08Z</time>
      </trkpt>
      <trkpt lat="46.77039" lon="-1.67089">
        <ele>30</ele>
        <time>2018-01-08T01:08:08Z</time>
      </trkpt>
      <trkpt lat="46.7705" lon="-1.67093">
        <ele>31</ele>
        <time>2018-01-08T01:09:08Z</time>
      </trkpt>
      <trkpt lat="46.77063" lon="-1.67101">
        <ele>31</ele>
        <time>2018-01-08T01:10:08Z</time>
      </trkpt>
      <trkpt lat="46.77074" lon="-1.67105">
        <ele>32</ele>
        <time>2018-01-08T01:11:08Z</time>
      </trkpt>
      <trkpt lat="46.77118" lon="-1.67121">
        <ele>32</ele>
        <time>2018-01-08T01:12:08Z</time>
      </trkpt>
      <trkpt lat="46.77121" lon="-1.67122">
        <ele>32</ele>
        <time>2018-01-08T01:13:08Z</time>
      </trkpt>
      <trkpt lat="46.77132" lon="-1.67123">
        <ele>32</ele>
        <time>2018-01-08T01:14:08Z</time>
      </trkpt>
      <trkpt lat="46.7714" lon="-1.67123">
        <ele>32</ele>
        <time>2018-01-08T01:15:08Z</time>
      </trkpt>
      <trkpt lat="46.77145" lon="-1.67123">
        <ele>32</ele>
        <time>2018-01-08T01:16:08Z</time>
      </trkpt>
      <trkpt lat="46.77154" lon="-1.67121">
        <ele>32</ele>
        <time>2018-01-08T01:17:08Z</time>
      </trkpt>
      <trkpt lat="46.77156" lon="-1.67119">
        <ele>32</ele>
        <time>2018-01-08T01:18:08Z</time>
      </trkpt>
      <trkpt lat="46.77157" lon="-1.67118">
        <ele>33</ele>
        <time>2018-01-08T01:19:08Z</time>
      </trkpt>
      <trkpt lat="46.77159" lon="-1.67116">
        <ele>33</ele>
        <time>2018-01-08T01:20:08Z</time>
      </trkpt>
      <trkpt lat="46.7716" lon="-1.67115">
        <ele>33</ele>
        <time>2018-01-08T01:21:08Z</time>
      </trkpt>
      <trkpt lat="46.77162" lon="-1.67113">
        <ele>33</ele>
        <time>2018-01-08T01:22:08Z</time>
      </trkpt>
      <trkpt lat="46.77164" lon="-1.67112">
        <ele>33</ele>
        <time>2018-01-08T01:23:08Z</time>
      </trkpt>
      <trkpt lat="46.77165" lon="-1.67112">
        <ele>33</ele>
        <time>2018-01-08T01:24:08Z</time>
      </trkpt>
      <trkpt lat="46.77167" lon="-1.67111">
        <ele>33</ele>
        <time>2018-01-08T01:25:08Z</time>
      </trkpt>
      <trkpt lat="46.77169" lon="-1.67111">
        <ele>33</ele>
        <time>2018-01-08T01:26:08Z</time>
      </trkpt>
      <trkpt lat="46.77171" lon="-1.67111">
        <ele>33</ele>
        <time>2018-01-08T01:27:08Z</time>
      </trkpt>
      <trkpt lat="46.77173" lon="-1.67111">
        <ele>32</ele>
        <time>2018-01-08T01:28:08Z</time>
      </trkpt>
      <trkpt lat="46.77175" lon="-1.67112">
        <ele>32</ele>
        <time>2018-01-08T01:29:08Z</time>
      </trkpt>
      <trkpt lat="46.77176" lon="-1.67112">
        <ele>32</ele>
        <time>2018-01-08T01:30:08Z</time>
      </trkpt>
      <trkpt lat="46.77178" lon="-1.67113">
        <ele>32</ele>
        <time>2018-01-08T01:31:08Z</time>
      </trkpt>
      <trkpt lat="46.77181" lon="-1.67116">
        <ele>32</ele>
        <time>2018-01-08T01:32:08Z</time>
      </trkpt>
      <trkpt lat="46.77189" lon="-1.6711">
        <ele>32</ele>
        <time>2018-01-08T01:33:08Z</time>
      </trkpt>
      <trkpt lat="46.77197" lon="-1.67104">
        <ele>32</ele>
        <time>2018-01-08T01:34:08Z</time>
      </trkpt>
      <trkpt lat="46.77205" lon="-1.67102">
        <ele>32</ele>
        <time>2018-01-08T01:35:08Z</time>
      </trkpt>
      <trkpt lat="46.77216" lon="-1.6709">
        <ele>31</ele>
        <time>2018-01-08T01:36:08Z</time>
      </trkpt>
      <trkpt lat="46.77233" lon="-1.67071">
        <ele>30</ele>
        <time>2018-01-08T01:37:08Z</time>
      </trkpt>
      <trkpt lat="46.77236" lon="-1.67067">
        <ele>30</ele>
        <time>2018-01-08T01:38:08Z</time>
      </trkpt>
      <trkpt lat="46.77242" lon="-1.67061">
        <ele>30</ele>
        <time>2018-01-08T01:39:08Z</time>
      </trkpt>
      <trkpt lat="46.77245" lon="-1.67058">
        <ele>30</ele>
        <time>2018-01-08T01:40:08Z</time>
      </trkpt>
      <trkpt lat="46.77251" lon="-1.67051">
        <ele>29</ele>
        <time>2018-01-08T01:41:08Z</time>
      </trkpt>
      <trkpt lat="46.7726" lon="-1.67041">
        <ele>29</ele>
        <time>2018-01-08T01:42:08Z</time>
      </trkpt>
      <trkpt lat="46.7727" lon="-1.6703">
        <ele>29</ele>
        <time>2018-01-08T01:43:08Z</time>
      </trkpt>
      <trkpt lat="46.77279" lon="-1.6702">
        <ele>29</ele>
        <time>2018-01-08T01:44:08Z</time>
      </trkpt>
      <trkpt lat="46.77288" lon="-1.6701">
        <ele>29</ele>
        <time>2018-01-08T01:45:08Z</time>
      </trkpt>
      <trkpt lat="46.77295" lon="-1.67002">
        <ele>29</ele>
        <time>2018-01-08T01:46:08Z</time>
      </trkpt>
      <trkpt lat="46.77297" lon="-1.67">
        <ele>29</ele>
        <time>2018-01-08T01:47:08Z</time>
      </trkpt>
      <trkpt lat="46.77302" lon="-1.66996">
        <ele>28</ele>
        <time>2018-01-08T01:48:08Z</time>
      </trkpt>
      <trkpt lat="46.77322" lon="-1.66972">
        <ele>28</ele>
        <time>2018-01-08T01:49:08Z</time>
      </trkpt>
      <trkpt lat="46.7733" lon="-1.66961">
        <ele>28</ele>
        <time>2018-01-08T01:50:08Z</time>
      </trkpt>
      <trkpt lat="46.77337" lon="-1.6695">
        <ele>27</ele>
        <time>2018-01-08T01:51:08Z</time>
      </trkpt>
      <trkpt lat="46.77343" lon="-1.66939">
        <ele>27</ele>
        <time>2018-01-08T01:52:08Z</time>
      </trkpt>
      <trkpt lat="46.7735" lon="-1.66928">
        <ele>27</ele>
        <time>2018-01-08T01:53:08Z</time>
      </trkpt>
      <trkpt lat="46.77356" lon="-1.66916">
        <ele>27</ele>
        <time>2018-01-08T01:54:08Z</time>
      </trkpt>
      <trkpt lat="46.77362" lon="-1.66904">
        <ele>27</ele>
        <time>2018-01-08T01:55:08Z</time>
      </trkpt>
      <trkpt lat="46.77367" lon="-1.66893">
        <ele>27</ele>
        <time>2018-01-08T01:56:08Z</time>
      </trkpt>
      <trkpt lat="46.77372" lon="-1.66881">
        <ele>27</ele>
        <time>2018-01-08T01:57:08Z</time>
      </trkpt>
      <trkpt lat="46.77376" lon="-1.66869">
        <ele>26</ele>
        <time>2018-01-08T01:58:08Z</time>
      </trkpt>
      <trkpt lat="46.7738" lon="-1.66856">
        <ele>26</ele>
        <time>2018-01-08T01:59:08Z</time>
      </trkpt>
      <trkpt lat="46.77385" lon="-1.66842">
        <ele>26</ele>
        <time>2018-01-08T02:00:08Z</time>
      </trkpt>
      <trkpt lat="46.77389" lon="-1.66827">
        <ele>26</ele>
        <time>2018-01-08T02:01:08Z</time>
      </trkpt>
      <trkpt lat="46.77392" lon="-1.66812">
        <ele>25</ele>
        <time>2018-01-08T02:02:08Z</time>
      </trkpt>
      <trkpt lat="46.77395" lon="-1.66802">
        <ele>25</ele>
        <time>2018-01-08T02:03:08Z</time>
      </trkpt>
      <trkpt lat="46.77397" lon="-1.66794">
        <ele>25</ele>
        <time>2018-01-08T02:04:08Z</time>
      </trkpt>
      <trkpt lat="46.77399" lon="-1.66786">
        <ele>25</ele>
        <time>2018-01-08T02:05:08Z</time>
      </trkpt>
      <trkpt lat="46.77403" lon="-1.6677">
        <ele>24</ele>
        <time>2018-01-08T02:06:08Z</time>
      </trkpt>
      <trkpt lat="46.7741" lon="-1.66746">
        <ele>24</ele>
        <time>2018-01-08T02:07:08Z</time>
      </trkpt>
      <trkpt lat="46.77412" lon="-1.66734">
        <ele>25</ele>
        <time>2018-01-08T02:08:08Z</time>
      </trkpt>
      <trkpt lat="46.77415" lon="-1.66714">
        <ele>25</ele>
        <time>2018-01-08T02:09:08Z</time>
      </trkpt>
      <trkpt lat="46.77418" lon="-1.6668">
        <ele>25</ele>
        <time>2018-01-08T02:10:08Z</time>
      </trkpt>
      <trkpt lat="46.77419" lon="-1.66643">
        <ele>24</ele>
        <time>2018-01-08T02:11:08Z</time>
      </trkpt>
      <trkpt lat="46.77422" lon="-1.66602">
        <ele>23</ele>
        <time>2018-01-08T02:12:08Z</time>
      </trkpt>
      <trkpt lat="46.77422" lon="-1.66598">
        <ele>23</ele>
        <time>2018-01-08T02:13:08Z</time>
      </trkpt>
      <trkpt lat="46.77426" lon="-1.66556">
        <ele>21</ele>
        <time>2018-01-08T02:14:08Z</time>
      </trkpt>
      <trkpt lat="46.77429" lon="-1.66511">
        <ele>20</ele>
        <time>2018-01-08T02:15:08Z</time>
      </trkpt>
      <trkpt lat="46.7743" lon="-1.66493">
        <ele>19</ele>
        <time>2018-01-08T02:16:08Z</time>
      </trkpt>
      <trkpt lat="46.77432" lon="-1.66478">
        <ele>18</ele>
        <time>2018-01-08T02:17:08Z</time>
      </trkpt>
      <trkpt lat="46.77435" lon="-1.66437">
        <ele>16</ele>
        <time>2018-01-08T02:18:08Z</time>
      </trkpt>
      <trkpt lat="46.77439" lon="-1.66385">
        <ele>15</ele>
        <time>2018-01-08T02:19:08Z</time>
      </trkpt>
      <trkpt lat="46.77442" lon="-1.66348">
        <ele>15</ele>
        <time>2018-01-08T02:20:08Z</time>
      </trkpt>
      <trkpt lat="46.77444" lon="-1.6632">
        <ele>15</ele>
        <time>2018-01-08T02:21:08Z</time>
      </trkpt>
      <trkpt lat="46.77444" lon="-1.66317">
        <ele>15</ele>
        <time>2018-01-08T02:22:08Z</time>
      </trkpt>
      <trkpt lat="46.77446" lon="-1.66289">
        <ele>16</ele>
        <time>2018-01-08T02:23:08Z</time>
      </trkpt>
      <trkpt lat="46.77446" lon="-1.66288">
        <ele>16</ele>
        <time>2018-01-08T02:24:08Z</time>
      </trkpt>
      <trkpt lat="46.77446" lon="-1.66283">
        <ele>16</ele>
        <time>2018-01-08T02:25:08Z</time>
      </trkpt>
      <trkpt lat="46.77446" lon="-1.6628">
        <ele>16</ele>
        <time>2018-01-08T02:26:08Z</time>
      </trkpt>
      <trkpt lat="46.77447" lon="-1.66278">
        <ele>16</ele>
        <time>2018-01-08T02:27:08Z</time>
      </trkpt>
      <trkpt lat="46.77448" lon="-1.66253">
        <ele>17</ele>
        <time>2018-01-08T02:28:08Z</time>
      </trkpt>
      <trkpt lat="46.77449" lon="-1.66245">
        <ele>17</ele>
        <time>2018-01-08T02:29:08Z</time>
      </trkpt>
      <trkpt lat="46.7745" lon="-1.66226">
        <ele>17</ele>
        <time>2018-01-08T02:30:08Z</time>
      </trkpt>
      <trkpt lat="46.77452" lon="-1.66207">
        <ele>18</ele>
        <time>2018-01-08T02:31:08Z</time>
      </trkpt>
      <trkpt lat="46.77454" lon="-1.6619">
        <ele>18</ele>
        <time>2018-01-08T02:32:08Z</time>
      </trkpt>
      <trkpt lat="46.77457" lon="-1.66178">
        <ele>18</ele>
        <time>2018-01-08T02:33:08Z</time>
      </trkpt>
      <trkpt lat="46.77459" lon="-1.66172">
        <ele>18</ele>
        <time>2018-01-08T02:34:08Z</time>
      </trkpt>
      <trkpt lat="46.77463" lon="-1.66159">
        <ele>19</ele>
        <time>2018-01-08T02:35:08Z</time>
      </trkpt>
      <trkpt lat="46.77469" lon="-1.66142">
        <ele>19</ele>
        <time>2018-01-08T02:36:08Z</time>
      </trkpt>
      <trkpt lat="46.7748" lon="-1.66124">
        <ele>20</ele>
        <time>2018-01-08T02:37:08Z</time>
      </trkpt>
      <trkpt lat="46.77486" lon="-1.66112">
        <ele>20</ele>
        <time>2018-01-08T02:38:08Z</time>
      </trkpt>
      <trkpt lat="46.77507" lon="-1.66087">
        <ele>21</ele>
        <time>2018-01-08T02:39:08Z</time>
      </trkpt>
      <trkpt lat="46.77532" lon="-1.66056">
        <ele>21</ele>
        <time>2018-01-08T02:40:08Z</time>
      </trkpt>
      <trkpt lat="46.77533" lon="-1.66055">
        <ele>21</ele>
        <time>2018-01-08T02:41:08Z</time>
      </trkpt>
      <trkpt lat="46.77562" lon="-1.66019">
        <ele>21</ele>
        <time>2018-01-08T02:42:08Z</time>
      </trkpt>
      <trkpt lat="46.77563" lon="-1.66018">
        <ele>21</ele>
        <time>2018-01-08T02:43:08Z</time>
      </trkpt>
      <trkpt lat="46.77591" lon="-1.6599">
        <ele>21</ele>
        <time>2018-01-08T02:44:08Z</time>
      </trkpt>
      <trkpt lat="46.77606" lon="-1.65972">
        <ele>22</ele>
        <time>2018-01-08T02:45:08Z</time>
      </trkpt>
      <trkpt lat="46.77616" lon="-1.65958">
        <ele>23</ele>
        <time>2018-01-08T02:46:08Z</time>
      </trkpt>
      <trkpt lat="46.77629" lon="-1.65941">
        <ele>23</ele>
        <time>2018-01-08T02:47:08Z</time>
      </trkpt>
      <trkpt lat="46.77651" lon="-1.6591">
        <ele>24</ele>
        <time>2018-01-08T02:48:08Z</time>
      </trkpt>
      <trkpt lat="46.77676" lon="-1.65869">
        <ele>24</ele>
        <time>2018-01-08T02:49:08Z</time>
      </trkpt>
      <trkpt lat="46.77705" lon="-1.65823">
        <ele>24</ele>
        <time>2018-01-08T02:50:08Z</time>
      </trkpt>
      <trkpt lat="46.77727" lon="-1.65788">
        <ele>24</ele>
        <time>2018-01-08T02:51:08Z</time>
      </trkpt>
      <trkpt lat="46.77755" lon="-1.65746">
        <ele>24</ele>
        <time>2018-01-08T02:52:08Z</time>
      </trkpt>
      <trkpt lat="46.77777" lon="-1.65712">
        <ele>24</ele>
        <time>2018-01-08T02:53:08Z</time>
      </trkpt>
      <trkpt lat="46.77794" lon="-1.65683">
        <ele>24</ele>
        <time>2018-01-08T02:54:08Z</time>
      </trkpt>
      <trkpt lat="46.77808" lon="-1.65661">
        <ele>25</ele>
        <time>2018-01-08T02:55:08Z</time>
      </trkpt>
      <trkpt lat="46.77816" lon="-1.65648">
        <ele>25</ele>
        <time>2018-01-08T02:56:08Z</time>
      </trkpt>
      <trkpt lat="46.77823" lon="-1.65641">
        <ele>25</ele>
        <time>2018-01-08T02:57:08Z</time>
      </trkpt>
      <trkpt lat="46.7783" lon="-1.65632">
        <ele>25</ele>
        <time>2018-01-08T02:58:08Z</time>
      </trkpt>
      <trkpt lat="46.77834" lon="-1.65627">
        <ele>25</ele>
        <time>2018-01-08T02:59:08Z</time>
      </trkpt>
      <trkpt lat="46.77836" lon="-1.65616">
        <ele>26</ele>
        <time>2018-01-08T03:00:08Z</time>
      </trkpt>
      <trkpt lat="46.77837" lon="-1.65612">
        <ele>26</ele>
        <time>2018-01-08T03:01:08Z</time>
      </trkpt>
      <trkpt lat="46.77838" lon="-1.65608">
        <ele>26</ele>
        <time>2018-01-08T03:02:08Z</time>
      </trkpt>
      <trkpt lat="46.7784" lon="-1.65604">
        <ele>26</ele>
        <time>2018-01-08T03:03:08Z</time>
      </trkpt>
      <trkpt lat="46.77863" lon="-1.65543">
        <ele>27</ele>
        <time>2018-01-08T03:04:08Z</time>
      </trkpt>
      <trkpt lat="46.77909" lon="-1.65419">
        <ele>26</ele>
        <time>2018-01-08T03:05:08Z</time>
      </trkpt>
      <trkpt lat="46.77931" lon="-1.6536">
        <ele>26</ele>
        <time>2018-01-08T03:06:08Z</time>
      </trkpt>
      <trkpt lat="46.77945" lon="-1.65323">
        <ele>26</ele>
        <time>2018-01-08T03:07:08Z</time>
      </trkpt>
      <trkpt lat="46.77956" lon="-1.65291">
        <ele>25</ele>
        <time>2018-01-08T03:08:08Z</time>
      </trkpt>
      <trkpt lat="46.7797" lon="-1.6525">
        <ele>25</ele>
        <time>2018-01-08T03:09:08Z</time>
      </trkpt>
      <trkpt lat="46.77985" lon="-1.65207">
        <ele>25</ele>
        <time>2018-01-08T03:10:08Z</time>
      </trkpt>
      <trkpt lat="46.78005" lon="-1.65155">
        <ele>26</ele>
        <time>2018-01-08T03:11:08Z</time>
      </trkpt>
      <trkpt lat="46.7801" lon="-1.65141">
        <ele>26</ele>
        <time>2018-01-08T03:12:08Z</time>
      </trkpt>
      <trkpt lat="46.78014" lon="-1.65132">
        <ele>26</ele>
        <time>2018-01-08T03:13:08Z</time>
      </trkpt>
      <trkpt lat="46.78027" lon="-1.65099">
        <ele>26</ele>
        <time>2018-01-08T03:14:08Z</time>
      </trkpt>
      <trkpt lat="46.78041" lon="-1.65064">
        <ele>26</ele>
        <time>2018-01-08T03:15:08Z</time>
      </trkpt>
      <trkpt lat="46.78054" lon="-1.65035">
        <ele>26</ele>
        <time>2018-01-08T03:16:08Z</time>
      </trkpt>
      <trkpt lat="46.78066" lon="-1.65008">
        <ele>27</ele>
        <time>2018-01-08T03:17:08Z</time>
      </trkpt>
      <trkpt lat="46.78082" lon="-1.64973">
        <ele>27</ele>
        <time>2018-01-08T03:18:08Z</time>
      </trkpt>
      <trkpt lat="46.78102" lon="-1.64927">
        <ele>27</ele>
        <time>2018-01-08T03:19:08Z</time>
      </trkpt>
      <trkpt lat="46.78124" lon="-1.64882">
        <ele>27</ele>
        <time>2018-01-08T03:20:08Z</time>
      </trkpt>
      <trkpt lat="46.7815" lon="-1.64832">
        <ele>26</ele>
        <time>2018-01-08T03:21:08Z</time>
      </trkpt>
      <trkpt lat="46.78175" lon="-1.64781">
        <ele>27</ele>
        <time>2018-01-08T03:22:08Z</time>
      </trkpt>
      <trkpt lat="46.78196" lon="-1.64736">
        <ele>29</ele>
        <time>2018-01-08T03:23:08Z</time>
      </trkpt>
      <trkpt lat="46.78214" lon="-1.64697">
        <ele>30</ele>
        <time>2018-01-08T03:24:08Z</time>
      </trkpt>
      <trkpt lat="46.78239" lon="-1.64643">
        <ele>31</ele>
        <time>2018-01-08T03:25:08Z</time>
      </trkpt>
      <trkpt lat="46.7826" lon="-1.64603">
        <ele>32</ele>
        <time>2018-01-08T03:26:08Z</time>
      </trkpt>
      <trkpt lat="46.7828" lon="-1.64567">
        <ele>31</ele>
        <time>2018-01-08T03:27:08Z</time>
      </trkpt>
      <trkpt lat="46.78291" lon="-1.64545">
        <ele>31</ele>
        <time>2018-01-08T03:28:08Z</time>
      </trkpt>
      <trkpt lat="46.78301" lon="-1.64524">
        <ele>31</ele>
        <time>2018-01-08T03:29:08Z</time>
      </trkpt>
      <trkpt lat="46.78307" lon="-1.64511">
        <ele>31</ele>
        <time>2018-01-08T03:30:08Z</time>
      </trkpt>
      <trkpt lat="46.78313" lon="-1.64498">
        <ele>31</ele>
        <time>2018-01-08T03:31:08Z</time>
      </trkpt>
      <trkpt lat="46.78319" lon="-1.64485">
        <ele>31</ele>
        <time>2018-01-08T03:32:08Z</time>
      </trkpt>
      <trkpt lat="46.78324" lon="-1.64472">
        <ele>31</ele>
        <time>2018-01-08T03:33:08Z</time>
      </trkpt>
      <trkpt lat="46.7833" lon="-1.64458">
        <ele>31</ele>
        <time>2018-01-08T03:34:08Z</time>
      </trkpt>
      <trkpt lat="46.78339" lon="-1.64434">
        <ele>32</ele>
        <time>2018-01-08T03:35:08Z</time>
      </trkpt>
      <trkpt lat="46.7836" lon="-1.64383">
        <ele>32</ele>
        <time>2018-01-08T03:36:08Z</time>
      </trkpt>
      <trkpt lat="46.78375" lon="-1.64346">
        <ele>32</ele>
        <time>2018-01-08T03:37:08Z</time>
      </trkpt>
      <trkpt lat="46.78385" lon="-1.64317">
        <ele>32</ele>
        <time>2018-01-08T03:38:08Z</time>
      </trkpt>
      <trkpt lat="46.78394" lon="-1.64296">
        <ele>32</ele>
        <time>2018-01-08T03:39:08Z</time>
      </trkpt>
      <trkpt lat="46.78402" lon="-1.64276">
        <ele>32</ele>
        <time>2018-01-08T03:40:08Z</time>
      </trkpt>
      <trkpt lat="46.78405" lon="-1.64266">
        <ele>33</ele>
        <time>2018-01-08T03:41:08Z</time>
      </trkpt>
      <trkpt lat="46.78428" lon="-1.64197">
        <ele>32</ele>
        <time>2018-01-08T03:42:08Z</time>
      </trkpt>
      <trkpt lat="46.7845" lon="-1.64128">
        <ele>31</ele>
        <time>2018-01-08T03:43:08Z</time>
      </trkpt>
      <trkpt lat="46.78455" lon="-1.6411">
        <ele>31</ele>
        <time>2018-01-08T03:44:08Z</time>
      </trkpt>
      <trkpt lat="46.78465" lon="-1.64079">
        <ele>30</ele>
        <time>2018-01-08T03:45:08Z</time>
      </trkpt>
      <trkpt lat="46.78484" lon="-1.64019">
        <ele>31</ele>
        <time>2018-01-08T03:46:08Z</time>
      </trkpt>
      <trkpt lat="46.78494" lon="-1.6399">
        <ele>31</ele>
        <time>2018-01-08T03:47:08Z</time>
      </trkpt>
      <trkpt lat="46.78499" lon="-1.63973">
        <ele>31</ele>
        <time>2018-01-08T03:48:08Z</time>
      </trkpt>
      <trkpt lat="46.78503" lon="-1.63962">
        <ele>31</ele>
        <time>2018-01-08T03:49:08Z</time>
      </trkpt>
      <trkpt lat="46.78506" lon="-1.6395">
        <ele>31</ele>
        <time>2018-01-08T03:50:08Z</time>
      </trkpt>
      <trkpt lat="46.78509" lon="-1.63938">
        <ele>31</ele>
        <time>2018-01-08T03:51:08Z</time>
      </trkpt>
      <trkpt lat="46.7851" lon="-1.63928">
        <ele>31</ele>
        <time>2018-01-08T03:52:08Z</time>
      </trkpt>
      <trkpt lat="46.78512" lon="-1.63916">
        <ele>31</ele>
        <time>2018-01-08T03:53:08Z</time>
      </trkpt>
      <trkpt lat="46.78515" lon="-1.63883">
        <ele>31</ele>
        <time>2018-01-08T03:54:08Z</time>
      </trkpt>
      <trkpt lat="46.78517" lon="-1.63863">
        <ele>30</ele>
        <time>2018-01-08T03:55:08Z</time>
      </trkpt>
      <trkpt lat="46.78517" lon="-1.63852">
        <ele>30</ele>
        <time>2018-01-08T03:56:08Z</time>
      </trkpt>
      <trkpt lat="46.78517" lon="-1.63835">
        <ele>30</ele>
        <time>2018-01-08T03:57:08Z</time>
      </trkpt>
      <trkpt lat="46.78517" lon="-1.63822">
        <ele>30</ele>
        <time>2018-01-08T03:58:08Z</time>
      </trkpt>
      <trkpt lat="46.78517" lon="-1.63809">
        <ele>30</ele>
        <time>2018-01-08T03:59:08Z</time>
      </trkpt>
      <trkpt lat="46.78515" lon="-1.63794">
        <ele>30</ele>
        <time>2018-01-08T04:00:08Z</time>
      </trkpt>
      <trkpt lat="46.78513" lon="-1.63778">
        <ele>30</ele>
        <time>2018-01-08T04:01:08Z</time>
      </trkpt>
      <trkpt lat="46.78507" lon="-1.63742">
        <ele>30</ele>
        <time>2018-01-08T04:02:08Z</time>
      </trkpt>
      <trkpt lat="46.78503" lon="-1.63719">
        <ele>30</ele>
        <time>2018-01-08T04:03:08Z</time>
      </trkpt>
      <trkpt lat="46.78503" lon="-1.63718">
        <ele>30</ele>
        <time>2018-01-08T04:04:08Z</time>
      </trkpt>
      <trkpt lat="46.78502" lon="-1.63704">
        <ele>31</ele>
        <time>2018-01-08T04:05:08Z</time>
      </trkpt>
      <trkpt lat="46.78502" lon="-1.63688">
        <ele>31</ele>
        <time>2018-01-08T04:06:08Z</time>
      </trkpt>
      <trkpt lat="46.78502" lon="-1.63675">
        <ele>31</ele>
        <time>2018-01-08T04:07:08Z</time>
      </trkpt>
      <trkpt lat="46.78503" lon="-1.63659">
        <ele>31</ele>
        <time>2018-01-08T04:08:08Z</time>
      </trkpt>
      <trkpt lat="46.78507" lon="-1.63623">
        <ele>32</ele>
        <time>2018-01-08T04:09:08Z</time>
      </trkpt>
      <trkpt lat="46.7851" lon="-1.63597">
        <ele>33</ele>
        <time>2018-01-08T04:10:08Z</time>
      </trkpt>
      <trkpt lat="46.7851" lon="-1.63581">
        <ele>33</ele>
        <time>2018-01-08T04:11:08Z</time>
      </trkpt>
      <trkpt lat="46.78511" lon="-1.6357">
        <ele>33</ele>
        <time>2018-01-08T04:12:08Z</time>
      </trkpt>
      <trkpt lat="46.7851" lon="-1.63558">
        <ele>33</ele>
        <time>2018-01-08T04:13:08Z</time>
      </trkpt>
      <trkpt lat="46.7851" lon="-1.63552">
        <ele>33</ele>
        <time>2018-01-08T04:14:08Z</time>
      </trkpt>
      <trkpt lat="46.78507" lon="-1.63528">
        <ele>33</ele>
        <time>2018-01-08T04:15:08Z</time>
      </trkpt>
      <trkpt lat="46.78504" lon="-1.63511">
        <ele>33</ele>
        <time>2018-01-08T04:16:08Z</time>
      </trkpt>
      <trkpt lat="46.78499" lon="-1.63492">
        <ele>33</ele>
        <time>2018-01-08T04:17:08Z</time>
      </trkpt>
      <trkpt lat="46.78494" lon="-1.63476">
        <ele>33</ele>
        <time>2018-01-08T04:18:08Z</time>
      </trkpt>
      <trkpt lat="46.78483" lon="-1.63441">
        <ele>33</ele>
        <time>2018-01-08T04:19:08Z</time>
      </trkpt>
      <trkpt lat="46.78477" lon="-1.63418">
        <ele>32</ele>
        <time>2018-01-08T04:20:08Z</time>
      </trkpt>
      <trkpt lat="46.78473" lon="-1.63399">
        <ele>32</ele>
        <time>2018-01-08T04:21:08Z</time>
      </trkpt>
      <trkpt lat="46.78469" lon="-1.63374">
        <ele>33</ele>
        <time>2018-01-08T04:22:08Z</time>
      </trkpt>
      <trkpt lat="46.78464" lon="-1.6333">
        <ele>33</ele>
        <time>2018-01-08T04:23:08Z</time>
      </trkpt>
      <trkpt lat="46.78459" lon="-1.63287">
        <ele>33</ele>
        <time>2018-01-08T04:24:08Z</time>
      </trkpt>
      <trkpt lat="46.78458" lon="-1.63252">
        <ele>32</ele>
        <time>2018-01-08T04:25:08Z</time>
      </trkpt>
      <trkpt lat="46.78456" lon="-1.63203">
        <ele>33</ele>
        <time>2018-01-08T04:26:08Z</time>
      </trkpt>
      <trkpt lat="46.78455" lon="-1.63166">
        <ele>33</ele>
        <time>2018-01-08T04:27:08Z</time>
      </trkpt>
      <trkpt lat="46.78455" lon="-1.63106">
        <ele>36</ele>
        <time>2018-01-08T04:28:08Z</time>
      </trkpt>
      <trkpt lat="46.78454" lon="-1.63085">
        <ele>36</ele>
        <time>2018-01-08T04:29:08Z</time>
      </trkpt>
      <trkpt lat="46.78453" lon="-1.63072">
        <ele>37</ele>
        <time>2018-01-08T04:30:08Z</time>
      </trkpt>
      <trkpt lat="46.78452" lon="-1.63066">
        <ele>37</ele>
        <time>2018-01-08T04:31:08Z</time>
      </trkpt>
      <trkpt lat="46.78443" lon="-1.63041">
        <ele>38</ele>
        <time>2018-01-08T04:32:08Z</time>
      </trkpt>
      <trkpt lat="46.78423" lon="-1.62999">
        <ele>40</ele>
        <time>2018-01-08T04:33:08Z</time>
      </trkpt>
      <trkpt lat="46.78391" lon="-1.62932">
        <ele>42</ele>
        <time>2018-01-08T04:34:08Z</time>
      </trkpt>
      <trkpt lat="46.7838" lon="-1.62906">
        <ele>43</ele>
        <time>2018-01-08T04:35:08Z</time>
      </trkpt>
      <trkpt lat="46.78379" lon="-1.62902">
        <ele>43</ele>
        <time>2018-01-08T04:36:08Z</time>
      </trkpt>
      <trkpt lat="46.78372" lon="-1.6288">
        <ele>43</ele>
        <time>2018-01-08T04:37:08Z</time>
      </trkpt>
      <trkpt lat="46.78365" lon="-1.62859">
        <ele>44</ele>
        <time>2018-01-08T04:38:08Z</time>
      </trkpt>
      <trkpt lat="46.7835" lon="-1.62802">
        <ele>46</ele>
        <time>2018-01-08T04:39:08Z</time>
      </trkpt>
      <trkpt lat="46.78344" lon="-1.62776">
        <ele>47</ele>
        <time>2018-01-08T04:40:08Z</time>
      </trkpt>
      <trkpt lat="46.78338" lon="-1.6274">
        <ele>48</ele>
        <time>2018-01-08T04:41:08Z</time>
      </trkpt>
      <trkpt lat="46.78332" lon="-1.62695">
        <ele>49</ele>
        <time>2018-01-08T04:42:08Z</time>
      </trkpt>
      <trkpt lat="46.7833" lon="-1.62675">
        <ele>49</ele>
        <time>2018-01-08T04:43:08Z</time>
      </trkpt>
      <trkpt lat="46.78329" lon="-1.62656">
        <ele>48</ele>
        <time>2018-01-08T04:44:08Z</time>
      </trkpt>
      <trkpt lat="46.78329" lon="-1.6264">
        <ele>47</ele>
        <time>2018-01-08T04:45:08Z</time>
      </trkpt>
      <trkpt lat="46.7833" lon="-1.62593">
        <ele>45</ele>
        <time>2018-01-08T04:46:08Z</time>
      </trkpt>
      <trkpt lat="46.78332" lon="-1.62494">
        <ele>44</ele>
        <time>2018-01-08T04:47:08Z</time>
      </trkpt>
      <trkpt lat="46.78333" lon="-1.62429">
        <ele>45</ele>
        <time>2018-01-08T04:48:08Z</time>
      </trkpt>
      <trkpt lat="46.78333" lon="-1.62415">
        <ele>45</ele>
        <time>2018-01-08T04:49:08Z</time>
      </trkpt>
      <trkpt lat="46.78333" lon="-1.62392">
        <ele>45</ele>
        <time>2018-01-08T04:50:08Z</time>
      </trkpt>
      <trkpt lat="46.78333" lon="-1.62376">
        <ele>45</ele>
        <time>2018-01-08T04:51:08Z</time>
      </trkpt>
      <trkpt lat="46.78334" lon="-1.62363">
        <ele>46</ele>
        <time>2018-01-08T04:52:08Z</time>
      </trkpt>
      <trkpt lat="46.78336" lon="-1.62349">
        <ele>46</ele>
        <time>2018-01-08T04:53:08Z</time>
      </trkpt>
      <trkpt lat="46.78339" lon="-1.62341">
        <ele>46</ele>
        <time>2018-01-08T04:54:08Z</time>
      </trkpt>
      <trkpt lat="46.78345" lon="-1.62326">
        <ele>46</ele>
        <time>2018-01-08T04:55:08Z</time>
      </trkpt>
      <trkpt lat="46.7835" lon="-1.62314">
        <ele>47</ele>
        <time>2018-01-08T04:56:08Z</time>
      </trkpt>
      <trkpt lat="46.78357" lon="-1.62306">
        <ele>47</ele>
        <time>2018-01-08T04:57:08Z</time>
      </trkpt>
      <trkpt lat="46.78367" lon="-1.62297">
        <ele>47</ele>
        <time>2018-01-08T04:58:08Z</time>
      </trkpt>
      <trkpt lat="46.78377" lon="-1.62291">
        <ele>47</ele>
        <time>2018-01-08T04:59:08Z</time>
      </trkpt>
      <trkpt lat="46.78389" lon="-1.62281">
        <ele>48</ele>
        <time>2018-01-08T05:00:08Z</time>
      </trkpt>
      <trkpt lat="46.78389" lon="-1.62281">
        <ele>48</ele>
        <time>2018-01-08T05:01:08Z</time>
      </trkpt>
      <trkpt lat="46.78387" lon="-1.62274">
        <ele>47</ele>
        <time>2018-01-08T05:02:08Z</time>
      </trkpt>
      <trkpt lat="46.78385" lon="-1.62268">
        <ele>47</ele>
        <time>2018-01-08T05:03:08Z</time>
      </trkpt>
      <trkpt lat="46.78385" lon="-1.62257">
        <ele>47</ele>
        <time>2018-01-08T05:04:08Z</time>
      </trkpt>
      <trkpt lat="46.78385" lon="-1.62234">
        <ele>47</ele>
        <time>2018-01-08T05:05:08Z</time>
      </trkpt>
      <trkpt lat="46.78387" lon="-1.62204">
        <ele>47</ele>
        <time>2018-01-08T05:06:08Z</time>
      </trkpt>
      <trkpt lat="46.78386" lon="-1.62177">
        <ele>46</ele>
        <time>2018-01-08T05:07:08Z</time>
      </trkpt>
      <trkpt lat="46.78385" lon="-1.62168">
        <ele>46</ele>
        <time>2018-01-08T05:08:08Z</time>
      </trkpt>
      <trkpt lat="46.78382" lon="-1.62162">
        <ele>46</ele>
        <time>2018-01-08T05:09:08Z</time>
      </trkpt>
      <trkpt lat="46.7838" lon="-1.6216">
        <ele>46</ele>
        <time>2018-01-08T05:10:08Z</time>
      </trkpt>
      <trkpt lat="46.78379" lon="-1.62159">
        <ele>46</ele>
        <time>2018-01-08T05:11:08Z</time>
      </trkpt>
      <trkpt lat="46.78377" lon="-1.62158">
        <ele>45</ele>
        <time>2018-01-08T05:12:08Z</time>
      </trkpt>
      <trkpt lat="46.78376" lon="-1.62158">
        <ele>45</ele>
        <time>2018-01-08T05:13:08Z</time>
      </trkpt>
      <trkpt lat="46.78364" lon="-1.62157">
        <ele>45</ele>
        <time>2018-01-08T05:14:08Z</time>
      </trkpt>
      <trkpt lat="46.7836" lon="-1.62157">
        <ele>45</ele>
        <time>2018-01-08T05:15:08Z</time>
      </trkpt>
      <trkpt lat="46.78357" lon="-1.62158">
        <ele>45</ele>
        <time>2018-01-08T05:16:08Z</time>
      </trkpt>
      <trkpt lat="46.78353" lon="-1.6216">
        <ele>45</ele>
        <time>2018-01-08T05:17:08Z</time>
      </trkpt>
      <trkpt lat="46.78345" lon="-1.62163">
        <ele>45</ele>
        <time>2018-01-08T05:18:08Z</time>
      </trkpt>
      <trkpt lat="46.78329" lon="-1.62171">
        <ele>45</ele>
        <time>2018-01-08T05:19:08Z</time>
      </trkpt>
      <trkpt lat="46.78325" lon="-1.62173">
        <ele>45</ele>
        <time>2018-01-08T05:20:08Z</time>
      </trkpt>
      <trkpt lat="46.7831" lon="-1.62181">
        <ele>44</ele>
        <time>2018-01-08T05:21:08Z</time>
      </trkpt>
      <trkpt lat="46.78288" lon="-1.62187">
        <ele>44</ele>
        <time>2018-01-08T05:22:08Z</time>
      </trkpt>
      <trkpt lat="46.78266" lon="-1.62191">
        <ele>43</ele>
        <time>2018-01-08T05:23:08Z</time>
      </trkpt>
      <trkpt lat="46.78254" lon="-1.62191">
        <ele>43</ele>
        <time>2018-01-08T05:24:08Z</time>
      </trkpt>
      <trkpt lat="46.78228" lon="-1.62191">
        <ele>43</ele>
        <time>2018-01-08T05:25:08Z</time>
      </trkpt>
      <trkpt lat="46.78208" lon="-1.62191">
        <ele>43</ele>
        <time>2018-01-08T05:26:08Z</time>
      </trkpt>
      <trkpt lat="46.7819" lon="-1.6219">
        <ele>43</ele>
        <time>2018-01-08T05:27:08Z</time>
      </trkpt>
      <trkpt lat="46.7817" lon="-1.62186">
        <ele>42</ele>
        <time>2018-01-08T05:28:08Z</time>
      </trkpt>
      <trkpt lat="46.78153" lon="-1.62182">
        <ele>42</ele>
        <time>2018-01-08T05:29:08Z</time>
      </trkpt>
      <trkpt lat="46.78133" lon="-1.62175">
        <ele>41</ele>
        <time>2018-01-08T05:30:08Z</time>
      </trkpt>
      <trkpt lat="46.78122" lon="-1.62171">
        <ele>41</ele>
        <time>2018-01-08T05:31:08Z</time>
      </trkpt>
      <trkpt lat="46.78116" lon="-1.62168">
        <ele>41</ele>
        <time>2018-01-08T05:32:08Z</time>
      </trkpt>
      <trkpt lat="46.78071" lon="-1.6215">
        <ele>39</ele>
        <time>2018-01-08T05:33:08Z</time>
      </trkpt>
      <trkpt lat="46.78015" lon="-1.62128">
        <ele>36</ele>
        <time>2018-01-08T05:34:08Z</time>
      </trkpt>
      <trkpt lat="46.77963" lon="-1.62108">
        <ele>33</ele>
        <time>2018-01-08T05:35:08Z</time>
      </trkpt>
      <trkpt lat="46.77919" lon="-1.62091">
        <ele>31</ele>
        <time>2018-01-08T05:36:08Z</time>
      </trkpt>
      <trkpt lat="46.77888" lon="-1.62078">
        <ele>29</ele>
        <time>2018-01-08T05:37:08Z</time>
      </trkpt>
      <trkpt lat="46.7787" lon="-1.6207">
        <ele>28</ele>
        <time>2018-01-08T05:38:08Z</time>
      </trkpt>
      <trkpt lat="46.77851" lon="-1.62061">
        <ele>27</ele>
        <time>2018-01-08T05:39:08Z</time>
      </trkpt>
      <trkpt lat="46.77833" lon="-1.6205">
        <ele>26</ele>
        <time>2018-01-08T05:40:08Z</time>
      </trkpt>
      <trkpt lat="46.77821" lon="-1.62042">
        <ele>26</ele>
        <time>2018-01-08T05:41:08Z</time>
      </trkpt>
      <trkpt lat="46.77814" lon="-1.62037">
        <ele>25</ele>
        <time>2018-01-08T05:42:08Z</time>
      </trkpt>
      <trkpt lat="46.77794" lon="-1.62021">
        <ele>25</ele>
        <time>2018-01-08T05:43:08Z</time>
      </trkpt>
      <trkpt lat="46.77783" lon="-1.62013">
        <ele>24</ele>
        <time>2018-01-08T05:44:08Z</time>
      </trkpt>
      <trkpt lat="46.77756" lon="-1.61989">
        <ele>23</ele>
        <time>2018-01-08T05:45:08Z</time>
      </trkpt>
      <trkpt lat="46.7773" lon="-1.61965">
        <ele>22</ele>
        <time>2018-01-08T05:46:08Z</time>
      </trkpt>
      <trkpt lat="46.77698" lon="-1.61936">
        <ele>21</ele>
        <time>2018-01-08T05:47:08Z</time>
      </trkpt>
      <trkpt lat="46.77675" lon="-1.61916">
        <ele>20</ele>
        <time>2018-01-08T05:48:08Z</time>
      </trkpt>
      <trkpt lat="46.77667" lon="-1.61909">
        <ele>20</ele>
        <time>2018-01-08T05:49:08Z</time>
      </trkpt>
      <trkpt lat="46.7766" lon="-1.61903">
        <ele>21</ele>
        <time>2018-01-08T05:50:08Z</time>
      </trkpt>
      <trkpt lat="46.77653" lon="-1.61897">
        <ele>21</ele>
        <time>2018-01-08T05:51:08Z</time>
      </trkpt>
      <trkpt lat="46.77628" lon="-1.61876">
        <ele>23</ele>
        <time>2018-01-08T05:52:08Z</time>
      </trkpt>
      <trkpt lat="46.77611" lon="-1.61862">
        <ele>24</ele>
        <time>2018-01-08T05:53:08Z</time>
      </trkpt>
      <trkpt lat="46.77585" lon="-1.61845">
        <ele>25</ele>
        <time>2018-01-08T05:54:08Z</time>
      </trkpt>
      <trkpt lat="46.77584" lon="-1.61845">
        <ele>25</ele>
        <time>2018-01-08T05:55:08Z</time>
      </trkpt>
      <trkpt lat="46.77571" lon="-1.61836">
        <ele>26</ele>
        <time>2018-01-08T05:56:08Z</time>
      </trkpt>
      <trkpt lat="46.77546" lon="-1.61824">
        <ele>27</ele>
        <time>2018-01-08T05:57:08Z</time>
      </trkpt>
      <trkpt lat="46.77519" lon="-1.61813">
        <ele>29</ele>
        <time>2018-01-08T05:58:08Z</time>
      </trkpt>
      <trkpt lat="46.7749" lon="-1.61804">
        <ele>30</ele>
        <time>2018-01-08T05:59:08Z</time>
      </trkpt>
      <trkpt lat="46.77467" lon="-1.61799">
        <ele>31</ele>
        <time>2018-01-08T06:00:08Z</time>
      </trkpt>
      <trkpt lat="46.77425" lon="-1.61793">
        <ele>32</ele>
        <time>2018-01-08T06:01:08Z</time>
      </trkpt>
      <trkpt lat="46.77398" lon="-1.61789">
        <ele>32</ele>
        <time>2018-01-08T06:02:08Z</time>
      </trkpt>
      <trkpt lat="46.77346" lon="-1.61783">
        <ele>33</ele>
        <time>2018-01-08T06:03:08Z</time>
      </trkpt>
      <trkpt lat="46.77289" lon="-1.61774">
        <ele>33</ele>
        <time>2018-01-08T06:04:08Z</time>
      </trkpt>
      <trkpt lat="46.77241" lon="-1.61767">
        <ele>34</ele>
        <time>2018-01-08T06:05:08Z</time>
      </trkpt>
      <trkpt lat="46.77187" lon="-1.6176">
        <ele>35</ele>
        <time>2018-01-08T06:06:08Z</time>
      </trkpt>
      <trkpt lat="46.7715" lon="-1.61755">
        <ele>36</ele>
        <time>2018-01-08T06:07:08Z</time>
      </trkpt>
      <trkpt lat="46.77125" lon="-1.61751">
        <ele>37</ele>
        <time>2018-01-08T06:08:08Z</time>
      </trkpt>
      <trkpt lat="46.77116" lon="-1.6175">
        <ele>37</ele>
        <time>2018-01-08T06:09:08Z</time>
      </trkpt>
      <trkpt lat="46.77084" lon="-1.61746">
        <ele>38</ele>
        <time>2018-01-08T06:10:08Z</time>
      </trkpt>
      <trkpt lat="46.7705" lon="-1.61741">
        <ele>38</ele>
        <time>2018-01-08T06:11:08Z</time>
      </trkpt>
      <trkpt lat="46.77" lon="-1.61735">
        <ele>39</ele>
        <time>2018-01-08T06:12:08Z</time>
      </trkpt>
      <trkpt lat="46.76949" lon="-1.61727">
        <ele>42</ele>
        <time>2018-01-08T06:13:08Z</time>
      </trkpt>
      <trkpt lat="46.76883" lon="-1.61718">
        <ele>45</ele>
        <time>2018-01-08T06:14:08Z</time>
      </trkpt>
      <trkpt lat="46.76838" lon="-1.61712">
        <ele>47</ele>
        <time>2018-01-08T06:15:08Z</time>
      </trkpt>
      <trkpt lat="46.76787" lon="-1.61705">
        <ele>48</ele>
        <time>2018-01-08T06:16:08Z</time>
      </trkpt>
      <trkpt lat="46.76735" lon="-1.617">
        <ele>49</ele>
        <time>2018-01-08T06:17:08Z</time>
      </trkpt>
      <trkpt lat="46.76696" lon="-1.61698">
        <ele>50</ele>
        <time>2018-01-08T06:18:08Z</time>
      </trkpt>
      <trkpt lat="46.76678" lon="-1.61699">
        <ele>50</ele>
        <time>2018-01-08T06:19:08Z</time>
      </trkpt>
      <trkpt lat="46.76637" lon="-1.61701">
        <ele>51</ele>
        <time>2018-01-08T06:20:08Z</time>
      </trkpt>
      <trkpt lat="46.76599" lon="-1.61703">
        <ele>51</ele>
        <time>2018-01-08T06:21:08Z</time>
      </trkpt>
      <trkpt lat="46.76592" lon="-1.61703">
        <ele>52</ele>
        <time>2018-01-08T06:22:08Z</time>
      </trkpt>
      <trkpt lat="46.76573" lon="-1.61705">
        <ele>51</ele>
        <time>2018-01-08T06:23:08Z</time>
      </trkpt>
      <trkpt lat="46.76565" lon="-1.61705">
        <ele>51</ele>
        <time>2018-01-08T06:24:08Z</time>
      </trkpt>
      <trkpt lat="46.76532" lon="-1.6171">
        <ele>51</ele>
        <time>2018-01-08T06:25:08Z</time>
      </trkpt>
      <trkpt lat="46.76506" lon="-1.61717">
        <ele>50</ele>
        <time>2018-01-08T06:26:08Z</time>
      </trkpt>
      <trkpt lat="46.76472" lon="-1.61726">
        <ele>50</ele>
        <time>2018-01-08T06:27:08Z</time>
      </trkpt>
      <trkpt lat="46.76452" lon="-1.61733">
        <ele>50</ele>
        <time>2018-01-08T06:28:08Z</time>
      </trkpt>
      <trkpt lat="46.76443" lon="-1.61735">
        <ele>50</ele>
        <time>2018-01-08T06:29:08Z</time>
      </trkpt>
      <trkpt lat="46.76422" lon="-1.61744">
        <ele>50</ele>
        <time>2018-01-08T06:30:08Z</time>
      </trkpt>
      <trkpt lat="46.76418" lon="-1.61745">
        <ele>50</ele>
        <time>2018-01-08T06:31:08Z</time>
      </trkpt>
      <trkpt lat="46.76413" lon="-1.61752">
        <ele>50</ele>
        <time>2018-01-08T06:32:08Z</time>
      </trkpt>
      <trkpt lat="46.76407" lon="-1.61759">
        <ele>50</ele>
        <time>2018-01-08T06:33:08Z</time>
      </trkpt>
      <trkpt lat="46.76385" lon="-1.61784">
        <ele>50</ele>
        <time>2018-01-08T06:34:08Z</time>
      </trkpt>
      <trkpt lat="46.76357" lon="-1.61816">
        <ele>51</ele>
        <time>2018-01-08T06:35:08Z</time>
      </trkpt>
      <trkpt lat="46.76343" lon="-1.61832">
        <ele>52</ele>
        <time>2018-01-08T06:36:08Z</time>
      </trkpt>
      <trkpt lat="46.7633" lon="-1.61847">
        <ele>52</ele>
        <time>2018-01-08T06:37:08Z</time>
      </trkpt>
      <trkpt lat="46.76312" lon="-1.61869">
        <ele>53</ele>
        <time>2018-01-08T06:38:08Z</time>
      </trkpt>
      <trkpt lat="46.76289" lon="-1.61898">
        <ele>55</ele>
        <time>2018-01-08T06:39:08Z</time>
      </trkpt>
      <trkpt lat="46.76269" lon="-1.6192">
        <ele>56</ele>
        <time>2018-01-08T06:40:08Z</time>
      </trkpt>
      <trkpt lat="46.76249" lon="-1.61944">
        <ele>57</ele>
        <time>2018-01-08T06:41:08Z</time>
      </trkpt>
      <trkpt lat="46.76223" lon="-1.61974">
        <ele>57</ele>
        <time>2018-01-08T06:42:08Z</time>
      </trkpt>
      <trkpt lat="46.762" lon="-1.61997">
        <ele>58</ele>
        <time>2018-01-08T06:43:08Z</time>
      </trkpt>
      <trkpt lat="46.7617" lon="-1.62021">
        <ele>58</ele>
        <time>2018-01-08T06:44:08Z</time>
      </trkpt>
      <trkpt lat="46.76149" lon="-1.62036">
        <ele>58</ele>
        <time>2018-01-08T06:45:08Z</time>
      </trkpt>
      <trkpt lat="46.76136" lon="-1.62045">
        <ele>58</ele>
        <time>2018-01-08T06:46:08Z</time>
      </trkpt>
      <trkpt lat="46.76127" lon="-1.6205">
        <ele>58</ele>
        <time>2018-01-08T06:47:08Z</time>
      </trkpt>
      <trkpt lat="46.76113" lon="-1.62058">
        <ele>58</ele>
        <time>2018-01-08T06:48:08Z</time>
      </trkpt>
      <trkpt lat="46.76097" lon="-1.62066">
        <ele>57</ele>
        <time>2018-01-08T06:49:08Z</time>
      </trkpt>
      <trkpt lat="46.76087" lon="-1.62071">
        <ele>57</ele>
        <time>2018-01-08T06:50:08Z</time>
      </trkpt>
      <trkpt lat="46.76079" lon="-1.62075">
        <ele>57</ele>
        <time>2018-01-08T06:51:08Z</time>
      </trkpt>
      <trkpt lat="46.76067" lon="-1.62079">
        <ele>57</ele>
        <time>2018-01-08T06:52:08Z</time>
      </trkpt>
      <trkpt lat="46.76058" lon="-1.62082">
        <ele>57</ele>
        <time>2018-01-08T06:53:08Z</time>
      </trkpt>
      <trkpt lat="46.76045" lon="-1.62086">
        <ele>56</ele>
        <time>2018-01-08T06:54:08Z</time>
      </trkpt>
      <trkpt lat="46.7604" lon="-1.62087">
        <ele>56</ele>
        <time>2018-01-08T06:55:08Z</time>
      </trkpt>
      <trkpt lat="46.76018" lon="-1.62089">
        <ele>56</ele>
        <time>2018-01-08T06:56:08Z</time>
      </trkpt>
      <trkpt lat="46.75998" lon="-1.62092">
        <ele>56</ele>
        <time>2018-01-08T06:57:08Z</time>
      </trkpt>
      <trkpt lat="46.75979" lon="-1.62096">
        <ele>55</ele>
        <time>2018-01-08T06:58:08Z</time>
      </trkpt>
      <trkpt lat="46.75948" lon="-1.62102">
        <ele>53</ele>
        <time>2018-01-08T06:59:08Z</time>
      </trkpt>
      <trkpt lat="46.75905" lon="-1.62112">
        <ele>50</ele>
        <time>2018-01-08T07:00:08Z</time>
      </trkpt>
      <trkpt lat="46.75877" lon="-1.62121">
        <ele>50</ele>
        <time>2018-01-08T07:01:08Z</time>
      </trkpt>
      <trkpt lat="46.75847" lon="-1.62132">
        <ele>50</ele>
        <time>2018-01-08T07:02:08Z</time>
      </trkpt>
      <trkpt lat="46.75836" lon="-1.62137">
        <ele>50</ele>
        <time>2018-01-08T07:03:08Z</time>
      </trkpt>
      <trkpt lat="46.75794" lon="-1.62156">
        <ele>51</ele>
        <time>2018-01-08T07:04:08Z</time>
      </trkpt>
      <trkpt lat="46.75774" lon="-1.62165">
        <ele>51</ele>
        <time>2018-01-08T07:05:08Z</time>
      </trkpt>
      <trkpt lat="46.75745" lon="-1.62179">
        <ele>52</ele>
        <time>2018-01-08T07:06:08Z</time>
      </trkpt>
      <trkpt lat="46.75705" lon="-1.62199">
        <ele>53</ele>
        <time>2018-01-08T07:07:08Z</time>
      </trkpt>
      <trkpt lat="46.75695" lon="-1.62203">
        <ele>54</ele>
        <time>2018-01-08T07:08:08Z</time>
      </trkpt>
      <trkpt lat="46.7568" lon="-1.62209">
        <ele>54</ele>
        <time>2018-01-08T07:09:08Z</time>
      </trkpt>
      <trkpt lat="46.75664" lon="-1.62215">
        <ele>54</ele>
        <time>2018-01-08T07:10:08Z</time>
      </trkpt>
      <trkpt lat="46.75649" lon="-1.62218">
        <ele>55</ele>
        <time>2018-01-08T07:11:08Z</time>
      </trkpt>
      <trkpt lat="46.75634" lon="-1.62221">
        <ele>55</ele>
        <time>2018-01-08T07:12:08Z</time>
      </trkpt>
      <trkpt lat="46.7562" lon="-1.62223">
        <ele>55</ele>
        <time>2018-01-08T07:13:08Z</time>
      </trkpt>
      <trkpt lat="46.75587" lon="-1.62226">
        <ele>56</ele>
        <time>2018-01-08T07:14:08Z</time>
      </trkpt>
      <trkpt lat="46.75584" lon="-1.62228">
        <ele>56</ele>
        <time>2018-01-08T07:15:08Z</time>
      </trkpt>
      <trkpt lat="46.7558" lon="-1.6223">
        <ele>56</ele>
        <time>2018-01-08T07:16:08Z</time>
      </trkpt>
      <trkpt lat="46.75576" lon="-1.62232">
        <ele>56</ele>
        <time>2018-01-08T07:17:08Z</time>
      </trkpt>
      <trkpt lat="46.75572" lon="-1.62235">
        <ele>56</ele>
        <time>2018-01-08T07:18:08Z</time>
      </trkpt>
      <trkpt lat="46.75567" lon="-1.62237">
        <ele>56</ele>
        <time>2018-01-08T07:19:08Z</time>
      </trkpt>
      <trkpt lat="46.75557" lon="-1.62243">
        <ele>56</ele>
        <time>2018-01-08T07:20:08Z</time>
      </trkpt>
      <trkpt lat="46.75557" lon="-1.62243">
        <ele>56</ele>
        <time>2018-01-08T07:21:08Z</time>
      </trkpt>
      <trkpt lat="46.75557" lon="-1.62245">
        <ele>56</ele>
        <time>2018-01-08T07:22:08Z</time>
      </trkpt>
      <trkpt lat="46.75557" lon="-1.62246">
        <ele>56</ele>
        <time>2018-01-08T07:23:08Z</time>
      </trkpt>
      <trkpt lat="46.75557" lon="-1.62248">
        <ele>56</ele>
        <time>2018-01-08T07:24:08Z</time>
      </trkpt>
      <trkpt lat="46.75557" lon="-1.62249">
        <ele>56</ele>
        <time>2018-01-08T07:25:08Z</time>
      </trkpt>
      <trkpt lat="46.75557" lon="-1.62251">
        <ele>56</ele>
        <time>2018-01-08T07:26:08Z</time>
      </trkpt>
      <trkpt lat="46.75556" lon="-1.62252">
        <ele>56</ele>
        <time>2018-01-08T07:27:08Z</time>
      </trkpt>
      <trkpt lat="46.75556" lon="-1.62254">
        <ele>56</ele>
        <time>2018-01-08T07:28:08Z</time>
      </trkpt>
      <trkpt lat="46.75556" lon="-1.62255">
        <ele>56</ele>
        <time>2018-01-08T07:29:08Z</time>
      </trkpt>
      <trkpt lat="46.75555" lon="-1.62256">
        <ele>56</ele>
        <time>2018-01-08T07:30:08Z</time>
      </trkpt>
      <trkpt lat="46.75555" lon="-1.62257">
        <ele>56</ele>
        <time>2018-01-08T07:31:08Z</time>
      </trkpt>
      <trkpt lat="46.75554" lon="-1.62258">
        <ele>56</ele>
        <time>2018-01-08T07:32:08Z</time>
      </trkpt>
      <trkpt lat="46.75554" lon="-1.6226">
        <ele>56</ele>
        <time>2018-01-08T07:33:08Z</time>
      </trkpt>
      <trkpt lat="46.75554" lon="-1.62261">
        <ele>56</ele>
        <time>2018-01-08T07:34:08Z</time>
      </trkpt>
      <trkpt lat="46.75553" lon="-1.62262">
        <ele>56</ele>
        <time>2018-01-08T07:35:08Z</time>
      </trkpt>
      <trkpt lat="46.75553" lon="-1.62263">
        <ele>56</ele>
        <time>2018-01-08T07:36:08Z</time>
      </trkpt>
      <trkpt lat="46.75552" lon="-1.62264">
        <ele>56</ele>
        <time>2018-01-08T07:37:08Z</time>
      </trkpt>
      <trkpt lat="46.75552" lon="-1.62265">
        <ele>56</ele>
        <time>2018-01-08T07:38:08Z</time>
      </trkpt>
      <trkpt lat="46.75548" lon="-1.62269">
        <ele>56</ele>
        <time>2018-01-08T07:39:08Z</time>
      </trkpt>
      <trkpt lat="46.75546" lon="-1.62271">
        <ele>56</ele>
        <time>2018-01-08T07:40:08Z</time>
      </trkpt>
      <trkpt lat="46.75544" lon="-1.62289">
        <ele>56</ele>
        <time>2018-01-08T07:41:08Z</time>
      </trkpt>
      <trkpt lat="46.75543" lon="-1.62294">
        <ele>57</ele>
        <time>2018-01-08T07:42:08Z</time>
      </trkpt>
      <trkpt lat="46.75542" lon="-1.623">
        <ele>57</ele>
        <time>2018-01-08T07:43:08Z</time>
      </trkpt>
      <trkpt lat="46.75542" lon="-1.62304">
        <ele>57</ele>
        <time>2018-01-08T07:44:08Z</time>
      </trkpt>
      <trkpt lat="46.75535" lon="-1.62334">
        <ele>57</ele>
        <time>2018-01-08T07:45:08Z</time>
      </trkpt>
      <trkpt lat="46.75534" lon="-1.62336">
        <ele>57</ele>
        <time>2018-01-08T07:46:08Z</time>
      </trkpt>
      <trkpt lat="46.75532" lon="-1.62341">
        <ele>57</ele>
        <time>2018-01-08T07:47:08Z</time>
      </trkpt>
      <trkpt lat="46.75528" lon="-1.62349">
        <ele>56</ele>
        <time>2018-01-08T07:48:08Z</time>
      </trkpt>
      <trkpt lat="46.75525" lon="-1.62354">
        <ele>56</ele>
        <time>2018-01-08T07:49:08Z</time>
      </trkpt>
      <trkpt lat="46.75522" lon="-1.62359">
        <ele>56</ele>
        <time>2018-01-08T07:50:08Z</time>
      </trkpt>
      <trkpt lat="46.75516" lon="-1.62368">
        <ele>56</ele>
        <time>2018-01-08T07:51:08Z</time>
      </trkpt>
      <trkpt lat="46.75512" lon="-1.62374">
        <ele>56</ele>
        <time>2018-01-08T07:52:08Z</time>
      </trkpt>
      <trkpt lat="46.75508" lon="-1.62379">
        <ele>55</ele>
        <time>2018-01-08T07:53:08Z</time>
      </trkpt>
      <trkpt lat="46.75505" lon="-1.62384">
        <ele>55</ele>
        <time>2018-01-08T07:54:08Z</time>
      </trkpt>
      <trkpt lat="46.75502" lon="-1.62388">
        <ele>55</ele>
        <time>2018-01-08T07:55:08Z</time>
      </trkpt>
      <trkpt lat="46.75498" lon="-1.62393">
        <ele>55</ele>
        <time>2018-01-08T07:56:08Z</time>
      </trkpt>
      <trkpt lat="46.75495" lon="-1.62396">
        <ele>55</ele>
        <time>2018-01-08T07:57:08Z</time>
      </trkpt>
      <trkpt lat="46.75492" lon="-1.624">
        <ele>54</ele>
        <time>2018-01-08T07:58:08Z</time>
      </trkpt>
      <trkpt lat="46.75487" lon="-1.62405">
        <ele>54</ele>
        <time>2018-01-08T07:59:08Z</time>
      </trkpt>
      <trkpt lat="46.75483" lon="-1.62408">
        <ele>54</ele>
        <time>2018-01-08T08:00:08Z</time>
      </trkpt>
      <trkpt lat="46.75479" lon="-1.62413">
        <ele>53</ele>
        <time>2018-01-08T08:01:08Z</time>
      </trkpt>
      <trkpt lat="46.75474" lon="-1.62417">
        <ele>53</ele>
        <time>2018-01-08T08:02:08Z</time>
      </trkpt>
      <trkpt lat="46.75468" lon="-1.62423">
        <ele>53</ele>
        <time>2018-01-08T08:03:08Z</time>
      </trkpt>
      <trkpt lat="46.75461" lon="-1.62429">
        <ele>52</ele>
        <time>2018-01-08T08:04:08Z</time>
      </trkpt>
      <trkpt lat="46.75454" lon="-1.62433">
        <ele>52</ele>
        <time>2018-01-08T08:05:08Z</time>
      </trkpt>
      <trkpt lat="46.75448" lon="-1.62437">
        <ele>51</ele>
        <time>2018-01-08T08:06:08Z</time>
      </trkpt>
      <trkpt lat="46.75442" lon="-1.62441">
        <ele>51</ele>
        <time>2018-01-08T08:07:08Z</time>
      </trkpt>
      <trkpt lat="46.75435" lon="-1.62445">
        <ele>50</ele>
        <time>2018-01-08T08:08:08Z</time>
      </trkpt>
      <trkpt lat="46.7543" lon="-1.62448">
        <ele>50</ele>
        <time>2018-01-08T08:09:08Z</time>
      </trkpt>
      <trkpt lat="46.75424" lon="-1.62451">
        <ele>50</ele>
        <time>2018-01-08T08:10:08Z</time>
      </trkpt>
      <trkpt lat="46.75418" lon="-1.62454">
        <ele>49</ele>
        <time>2018-01-08T08:11:08Z</time>
      </trkpt>
      <trkpt lat="46.75404" lon="-1.62459">
        <ele>48</ele>
        <time>2018-01-08T08:12:08Z</time>
      </trkpt>
      <trkpt lat="46.75397" lon="-1.6246">
        <ele>48</ele>
        <time>2018-01-08T08:13:08Z</time>
      </trkpt>
      <trkpt lat="46.75392" lon="-1.62462">
        <ele>48</ele>
        <time>2018-01-08T08:14:08Z</time>
      </trkpt>
      <trkpt lat="46.75384" lon="-1.62463">
        <ele>47</ele>
        <time>2018-01-08T08:15:08Z</time>
      </trkpt>
      <trkpt lat="46.75375" lon="-1.62465">
        <ele>47</ele>
        <time>2018-01-08T08:16:08Z</time>
      </trkpt>
      <trkpt lat="46.75369" lon="-1.62465">
        <ele>47</ele>
        <time>2018-01-08T08:17:08Z</time>
      </trkpt>
      <trkpt lat="46.75363" lon="-1.62465">
        <ele>46</ele>
        <time>2018-01-08T08:18:08Z</time>
      </trkpt>
      <trkpt lat="46.75358" lon="-1.62465">
        <ele>46</ele>
        <time>2018-01-08T08:19:08Z</time>
      </trkpt>
      <trkpt lat="46.75353" lon="-1.62465">
        <ele>46</ele>
        <time>2018-01-08T08:20:08Z</time>
      </trkpt>
      <trkpt lat="46.75348" lon="-1.62465">
        <ele>46</ele>
        <time>2018-01-08T08:21:08Z</time>
      </trkpt>
      <trkpt lat="46.75343" lon="-1.62465">
        <ele>46</ele>
        <time>2018-01-08T08:22:08Z</time>
      </trkpt>
      <trkpt lat="46.75339" lon="-1.62465">
        <ele>45</ele>
        <time>2018-01-08T08:23:08Z</time>
      </trkpt>
      <trkpt lat="46.75333" lon="-1.62464">
        <ele>45</ele>
        <time>2018-01-08T08:24:08Z</time>
      </trkpt>
      <trkpt lat="46.75327" lon="-1.62463">
        <ele>45</ele>
        <time>2018-01-08T08:25:08Z</time>
      </trkpt>
      <trkpt lat="46.75322" lon="-1.62462">
        <ele>45</ele>
        <time>2018-01-08T08:26:08Z</time>
      </trkpt>
      <trkpt lat="46.75316" lon="-1.6246">
        <ele>45</ele>
        <time>2018-01-08T08:27:08Z</time>
      </trkpt>
      <trkpt lat="46.7531" lon="-1.62459">
        <ele>45</ele>
        <time>2018-01-08T08:28:08Z</time>
      </trkpt>
      <trkpt lat="46.75304" lon="-1.62457">
        <ele>44</ele>
        <time>2018-01-08T08:29:08Z</time>
      </trkpt>
      <trkpt lat="46.75297" lon="-1.62455">
        <ele>44</ele>
        <time>2018-01-08T08:30:08Z</time>
      </trkpt>
      <trkpt lat="46.75291" lon="-1.62452">
        <ele>44</ele>
        <time>2018-01-08T08:31:08Z</time>
      </trkpt>
      <trkpt lat="46.75285" lon="-1.6245">
        <ele>44</ele>
        <time>2018-01-08T08:32:08Z</time>
      </trkpt>
      <trkpt lat="46.7528" lon="-1.62448">
        <ele>44</ele>
        <time>2018-01-08T08:33:08Z</time>
      </trkpt>
      <trkpt lat="46.75274" lon="-1.62446">
        <ele>44</ele>
        <time>2018-01-08T08:34:08Z</time>
      </trkpt>
      <trkpt lat="46.75268" lon="-1.62444">
        <ele>44</ele>
        <time>2018-01-08T08:35:08Z</time>
      </trkpt>
      <trkpt lat="46.75262" lon="-1.62442">
        <ele>44</ele>
        <time>2018-01-08T08:36:08Z</time>
      </trkpt>
      <trkpt lat="46.75255" lon="-1.62439">
        <ele>43</ele>
        <time>2018-01-08T08:37:08Z</time>
      </trkpt>
      <trkpt lat="46.75248" lon="-1.62436">
        <ele>43</ele>
        <time>2018-01-08T08:38:08Z</time>
      </trkpt>
      <trkpt lat="46.7524" lon="-1.62434">
        <ele>43</ele>
        <time>2018-01-08T08:39:08Z</time>
      </trkpt>
      <trkpt lat="46.75232" lon="-1.62431">
        <ele>43</ele>
        <time>2018-01-08T08:40:08Z</time>
      </trkpt>
      <trkpt lat="46.7523" lon="-1.6243">
        <ele>43</ele>
        <time>2018-01-08T08:41:08Z</time>
      </trkpt>
      <trkpt lat="46.75226" lon="-1.62429">
        <ele>43</ele>
        <time>2018-01-08T08:42:08Z</time>
      </trkpt>
      <trkpt lat="46.75221" lon="-1.62427">
        <ele>43</ele>
        <time>2018-01-08T08:43:08Z</time>
      </trkpt>
      <trkpt lat="46.75216" lon="-1.62425">
        <ele>43</ele>
        <time>2018-01-08T08:44:08Z</time>
      </trkpt>
      <trkpt lat="46.75211" lon="-1.62424">
        <ele>43</ele>
        <time>2018-01-08T08:45:08Z</time>
      </trkpt>
      <trkpt lat="46.75204" lon="-1.62423">
        <ele>43</ele>
        <time>2018-01-08T08:46:08Z</time>
      </trkpt>
      <trkpt lat="46.75194" lon="-1.62421">
        <ele>43</ele>
        <time>2018-01-08T08:47:08Z</time>
      </trkpt>
      <trkpt lat="46.75179" lon="-1.62419">
        <ele>42</ele>
        <time>2018-01-08T08:48:08Z</time>
      </trkpt>
      <trkpt lat="46.75172" lon="-1.62417">
        <ele>42</ele>
        <time>2018-01-08T08:49:08Z</time>
      </trkpt>
      <trkpt lat="46.75166" lon="-1.62417">
        <ele>42</ele>
        <time>2018-01-08T08:50:08Z</time>
      </trkpt>
      <trkpt lat="46.7516" lon="-1.62417">
        <ele>42</ele>
        <time>2018-01-08T08:51:08Z</time>
      </trkpt>
      <trkpt lat="46.7515" lon="-1.62417">
        <ele>42</ele>
        <time>2018-01-08T08:52:08Z</time>
      </trkpt>
      <trkpt lat="46.7515" lon="-1.62417">
        <ele>42</ele>
        <time>2018-01-08T08:53:08Z</time>
      </trkpt>
      <trkpt lat="46.75147" lon="-1.62423">
        <ele>42</ele>
        <time>2018-01-08T08:54:08Z</time>
      </trkpt>
      <trkpt lat="46.75144" lon="-1.62427">
        <ele>42</ele>
        <time>2018-01-08T08:55:08Z</time>
      </trkpt>
      <trkpt lat="46.7514" lon="-1.62431">
        <ele>42</ele>
        <time>2018-01-08T08:56:08Z</time>
      </trkpt>
      <trkpt lat="46.75135" lon="-1.62434">
        <ele>42</ele>
        <time>2018-01-08T08:57:08Z</time>
      </trkpt>
      <trkpt lat="46.75131" lon="-1.62437">
        <ele>42</ele>
        <time>2018-01-08T08:58:08Z</time>
      </trkpt>
      <trkpt lat="46.75126" lon="-1.62437">
        <ele>42</ele>
        <time>2018-01-08T08:59:08Z</time>
      </trkpt>
      <trkpt lat="46.75122" lon="-1.62436">
        <ele>42</ele>
        <time>2018-01-08T09:00:08Z</time>
      </trkpt>
      <trkpt lat="46.7512" lon="-1.62434">
        <ele>42</ele>
        <time>2018-01-08T09:01:08Z</time>
      </trkpt>
      <trkpt lat="46.75117" lon="-1.62433">
        <ele>42</ele>
        <time>2018-01-08T09:02:08Z</time>
      </trkpt>
      <trkpt lat="46.75112" lon="-1.62427">
        <ele>42</ele>
        <time>2018-01-08T09:03:08Z</time>
      </trkpt>
      <trkpt lat="46.75107" lon="-1.6242">
        <ele>42</ele>
        <time>2018-01-08T09:04:08Z</time>
      </trkpt>
      <trkpt lat="46.75104" lon="-1.62413">
        <ele>42</ele>
        <time>2018-01-08T09:05:08Z</time>
      </trkpt>
      <trkpt lat="46.75099" lon="-1.62412">
        <ele>42</ele>
        <time>2018-01-08T09:06:08Z</time>
      </trkpt>
      <trkpt lat="46.75093" lon="-1.62411">
        <ele>42</ele>
        <time>2018-01-08T09:07:08Z</time>
      </trkpt>
      <trkpt lat="46.75087" lon="-1.62411">
        <ele>42</ele>
        <time>2018-01-08T09:08:08Z</time>
      </trkpt>
      <trkpt lat="46.75067" lon="-1.62414">
        <ele>42</ele>
        <time>2018-01-08T09:09:08Z</time>
      </trkpt>
      <trkpt lat="46.75054" lon="-1.62416">
        <ele>42</ele>
        <time>2018-01-08T09:10:08Z</time>
      </trkpt>
      <trkpt lat="46.75048" lon="-1.62414">
        <ele>42</ele>
        <time>2018-01-08T09:11:08Z</time>
      </trkpt>
      <trkpt lat="46.7504" lon="-1.62416">
        <ele>43</ele>
        <time>2018-01-08T09:12:08Z</time>
      </trkpt>
      <trkpt lat="46.75031" lon="-1.62418">
        <ele>43</ele>
        <time>2018-01-08T09:13:08Z</time>
      </trkpt>
      <trkpt lat="46.75021" lon="-1.62419">
        <ele>43</ele>
        <time>2018-01-08T09:14:08Z</time>
      </trkpt>
      <trkpt lat="46.75012" lon="-1.62421">
        <ele>43</ele>
        <time>2018-01-08T09:15:08Z</time>
      </trkpt>
      <trkpt lat="46.75002" lon="-1.62423">
        <ele>43</ele>
        <time>2018-01-08T09:16:08Z</time>
      </trkpt>
      <trkpt lat="46.74992" lon="-1.62425">
        <ele>43</ele>
        <time>2018-01-08T09:17:08Z</time>
      </trkpt>
      <trkpt lat="46.74982" lon="-1.62426">
        <ele>43</ele>
        <time>2018-01-08T09:18:08Z</time>
      </trkpt>
      <trkpt lat="46.74971" lon="-1.62428">
        <ele>42</ele>
        <time>2018-01-08T09:19:08Z</time>
      </trkpt>
      <trkpt lat="46.74961" lon="-1.6243">
        <ele>42</ele>
        <time>2018-01-08T09:20:08Z</time>
      </trkpt>
      <trkpt lat="46.7495" lon="-1.62432">
        <ele>42</ele>
        <time>2018-01-08T09:21:08Z</time>
      </trkpt>
      <trkpt lat="46.7494" lon="-1.62433">
        <ele>42</ele>
        <time>2018-01-08T09:22:08Z</time>
      </trkpt>
      <trkpt lat="46.7493" lon="-1.62435">
        <ele>42</ele>
        <time>2018-01-08T09:23:08Z</time>
      </trkpt>
      <trkpt lat="46.7492" lon="-1.62437">
        <ele>42</ele>
        <time>2018-01-08T09:24:08Z</time>
      </trkpt>
      <trkpt lat="46.7491" lon="-1.62438">
        <ele>42</ele>
        <time>2018-01-08T09:25:08Z</time>
      </trkpt>
      <trkpt lat="46.749" lon="-1.62439">
        <ele>42</ele>
        <time>2018-01-08T09:26:08Z</time>
      </trkpt>
      <trkpt lat="46.74891" lon="-1.6244">
        <ele>42</ele>
        <time>2018-01-08T09:27:08Z</time>
      </trkpt>
      <trkpt lat="46.74887" lon="-1.6244">
        <ele>42</ele>
        <time>2018-01-08T09:28:08Z</time>
      </trkpt>
      <trkpt lat="46.74882" lon="-1.62439">
        <ele>42</ele>
        <time>2018-01-08T09:29:08Z</time>
      </trkpt>
      <trkpt lat="46.74873" lon="-1.62437">
        <ele>42</ele>
        <time>2018-01-08T09:30:08Z</time>
      </trkpt>
      <trkpt lat="46.74862" lon="-1.62433">
        <ele>42</ele>
        <time>2018-01-08T09:31:08Z</time>
      </trkpt>
      <trkpt lat="46.74858" lon="-1.62431">
        <ele>42</ele>
        <time>2018-01-08T09:32:08Z</time>
      </trkpt>
      <trkpt lat="46.7485" lon="-1.62427">
        <ele>43</ele>
        <time>2018-01-08T09:33:08Z</time>
      </trkpt>
      <trkpt lat="46.74843" lon="-1.62422">
        <ele>43</ele>
        <time>2018-01-08T09:34:08Z</time>
      </trkpt>
      <trkpt lat="46.74835" lon="-1.62416">
        <ele>43</ele>
        <time>2018-01-08T09:35:08Z</time>
      </trkpt>
      <trkpt lat="46.74827" lon="-1.62408">
        <ele>43</ele>
        <time>2018-01-08T09:36:08Z</time>
      </trkpt>
      <trkpt lat="46.7482" lon="-1.62399">
        <ele>43</ele>
        <time>2018-01-08T09:37:08Z</time>
      </trkpt>
      <trkpt lat="46.74813" lon="-1.62388">
        <ele>43</ele>
        <time>2018-01-08T09:38:08Z</time>
      </trkpt>
      <trkpt lat="46.74807" lon="-1.62377">
        <ele>43</ele>
        <time>2018-01-08T09:39:08Z</time>
      </trkpt>
      <trkpt lat="46.74801" lon="-1.62366">
        <ele>44</ele>
        <time>2018-01-08T09:40:08Z</time>
      </trkpt>
      <trkpt lat="46.74795" lon="-1.62354">
        <ele>44</ele>
        <time>2018-01-08T09:41:08Z</time>
      </trkpt>
      <trkpt lat="46.74789" lon="-1.62342">
        <ele>44</ele>
        <time>2018-01-08T09:42:08Z</time>
      </trkpt>
      <trkpt lat="46.74782" lon="-1.62329">
        <ele>44</ele>
        <time>2018-01-08T09:43:08Z</time>
      </trkpt>
      <trkpt lat="46.74777" lon="-1.62317">
        <ele>45</ele>
        <time>2018-01-08T09:44:08Z</time>
      </trkpt>
      <trkpt lat="46.74772" lon="-1.62304">
        <ele>45</ele>
        <time>2018-01-08T09:45:08Z</time>
      </trkpt>
      <trkpt lat="46.74768" lon="-1.6229">
        <ele>46</ele>
        <time>2018-01-08T09:46:08Z</time>
      </trkpt>
      <trkpt lat="46.74766" lon="-1.62276">
        <ele>47</ele>
        <time>2018-01-08T09:47:08Z</time>
      </trkpt>
      <trkpt lat="46.74764" lon="-1.62262">
        <ele>47</ele>
        <time>2018-01-08T09:48:08Z</time>
      </trkpt>
      <trkpt lat="46.74763" lon="-1.62248">
        <ele>47</ele>
        <time>2018-01-08T09:49:08Z</time>
      </trkpt>
      <trkpt lat="46.74763" lon="-1.62242">
        <ele>47</ele>
        <time>2018-01-08T09:50:08Z</time>
      </trkpt>
      <trkpt lat="46.74763" lon="-1.62234">
        <ele>47</ele>
        <time>2018-01-08T09:51:08Z</time>
      </trkpt>
      <trkpt lat="46.74764" lon="-1.6222">
        <ele>47</ele>
        <time>2018-01-08T09:52:08Z</time>
      </trkpt>
      <trkpt lat="46.74766" lon="-1.62207">
        <ele>47</ele>
        <time>2018-01-08T09:53:08Z</time>
      </trkpt>
      <trkpt lat="46.74767" lon="-1.622">
        <ele>47</ele>
        <time>2018-01-08T09:54:08Z</time>
      </trkpt>
      <trkpt lat="46.74768" lon="-1.62195">
        <ele>46</ele>
        <time>2018-01-08T09:55:08Z</time>
      </trkpt>
      <trkpt lat="46.74768" lon="-1.62182">
        <ele>46</ele>
        <time>2018-01-08T09:56:08Z</time>
      </trkpt>
      <trkpt lat="46.74768" lon="-1.62171">
        <ele>46</ele>
        <time>2018-01-08T09:57:08Z</time>
      </trkpt>
      <trkpt lat="46.74768" lon="-1.62164">
        <ele>46</ele>
        <time>2018-01-08T09:58:08Z</time>
      </trkpt>
      <trkpt lat="46.74767" lon="-1.62161">
        <ele>46</ele>
        <time>2018-01-08T09:59:08Z</time>
      </trkpt>
      <trkpt lat="46.74767" lon="-1.62159">
        <ele>46</ele>
        <time>2018-01-08T10:00:08Z</time>
      </trkpt>
      <trkpt lat="46.74766" lon="-1.62157">
        <ele>46</ele>
        <time>2018-01-08T10:01:08Z</time>
      </trkpt>
      <trkpt lat="46.74766" lon="-1.62155">
        <ele>46</ele>
        <time>2018-01-08T10:02:08Z</time>
      </trkpt>
      <trkpt lat="46.74765" lon="-1.62151">
        <ele>46</ele>
        <time>2018-01-08T10:03:08Z</time>
      </trkpt>
      <trkpt lat="46.74763" lon="-1.62145">
        <ele>46</ele>
        <time>2018-01-08T10:04:08Z</time>
      </trkpt>
      <trkpt lat="46.74761" lon="-1.6214">
        <ele>46</ele>
        <time>2018-01-08T10:05:08Z</time>
      </trkpt>
      <trkpt lat="46.74759" lon="-1.62135">
        <ele>46</ele>
        <time>2018-01-08T10:06:08Z</time>
      </trkpt>
      <trkpt lat="46.74756" lon="-1.6213">
        <ele>46</ele>
        <time>2018-01-08T10:07:08Z</time>
      </trkpt>
      <trkpt lat="46.74754" lon="-1.62126">
        <ele>47</ele>
        <time>2018-01-08T10:08:08Z</time>
      </trkpt>
      <trkpt lat="46.74748" lon="-1.62118">
        <ele>47</ele>
        <time>2018-01-08T10:09:08Z</time>
      </trkpt>
      <trkpt lat="46.74741" lon="-1.62111">
        <ele>47</ele>
        <time>2018-01-08T10:10:08Z</time>
      </trkpt>
      <trkpt lat="46.74735" lon="-1.62106">
        <ele>47</ele>
        <time>2018-01-08T10:11:08Z</time>
      </trkpt>
      <trkpt lat="46.74732" lon="-1.62104">
        <ele>47</ele>
        <time>2018-01-08T10:12:08Z</time>
      </trkpt>
      <trkpt lat="46.74725" lon="-1.62104">
        <ele>47</ele>
        <time>2018-01-08T10:13:08Z</time>
      </trkpt>
      <trkpt lat="46.74719" lon="-1.62103">
        <ele>47</ele>
        <time>2018-01-08T10:14:08Z</time>
      </trkpt>
      <trkpt lat="46.74712" lon="-1.62103">
        <ele>48</ele>
        <time>2018-01-08T10:15:08Z</time>
      </trkpt>
      <trkpt lat="46.74706" lon="-1.62105">
        <ele>48</ele>
        <time>2018-01-08T10:16:08Z</time>
      </trkpt>
      <trkpt lat="46.74702" lon="-1.62107">
        <ele>48</ele>
        <time>2018-01-08T10:17:08Z</time>
      </trkpt>
      <trkpt lat="46.74699" lon="-1.6211">
        <ele>48</ele>
        <time>2018-01-08T10:18:08Z</time>
      </trkpt>
      <trkpt lat="46.74694" lon="-1.62114">
        <ele>48</ele>
        <time>2018-01-08T10:19:08Z</time>
      </trkpt>
      <trkpt lat="46.74688" lon="-1.62123">
        <ele>48</ele>
        <time>2018-01-08T10:20:08Z</time>
      </trkpt>
      <trkpt lat="46.74688" lon="-1.62123">
        <ele>48</ele>
        <time>2018-01-08T10:21:08Z</time>
      </trkpt>
      <trkpt lat="46.74688" lon="-1.62125">
        <ele>48</ele>
        <time>2018-01-08T10:22:08Z</time>
      </trkpt>
      <trkpt lat="46.74688" lon="-1.62127">
        <ele>48</ele>
        <time>2018-01-08T10:23:08Z</time>
      </trkpt>
      <trkpt lat="46.74688" lon="-1.62129">
        <ele>48</ele>
        <time>2018-01-08T10:24:08Z</time>
      </trkpt>
      <trkpt lat="46.74688" lon="-1.62131">
        <ele>47</ele>
        <time>2018-01-08T10:25:08Z</time>
      </trkpt>
      <trkpt lat="46.74688" lon="-1.62133">
        <ele>47</ele>
        <time>2018-01-08T10:26:08Z</time>
      </trkpt>
      <trkpt lat="46.74687" lon="-1.62135">
        <ele>47</ele>
        <time>2018-01-08T10:27:08Z</time>
      </trkpt>
      <trkpt lat="46.74687" lon="-1.62137">
        <ele>47</ele>
        <time>2018-01-08T10:28:08Z</time>
      </trkpt>
      <trkpt lat="46.74687" lon="-1.62139">
        <ele>47</ele>
        <time>2018-01-08T10:29:08Z</time>
      </trkpt>
      <trkpt lat="46.74686" lon="-1.62142">
        <ele>47</ele>
        <time>2018-01-08T10:30:08Z</time>
      </trkpt>
      <trkpt lat="46.74685" lon="-1.62145">
        <ele>47</ele>
        <time>2018-01-08T10:31:08Z</time>
      </trkpt>
      <trkpt lat="46.74684" lon="-1.62148">
        <ele>47</ele>
        <time>2018-01-08T10:32:08Z</time>
      </trkpt>
      <trkpt lat="46.74682" lon="-1.62151">
        <ele>47</ele>
        <time>2018-01-08T10:33:08Z</time>
      </trkpt>
      <trkpt lat="46.74681" lon="-1.62154">
        <ele>47</ele>
        <time>2018-01-08T10:34:08Z</time>
      </trkpt>
      <trkpt lat="46.74679" lon="-1.62156">
        <ele>47</ele>
        <time>2018-01-08T10:35:08Z</time>
      </trkpt>
      <trkpt lat="46.74677" lon="-1.62158">
        <ele>47</ele>
        <time>2018-01-08T10:36:08Z</time>
      </trkpt>
      <trkpt lat="46.74675" lon="-1.6216">
        <ele>47</ele>
        <time>2018-01-08T10:37:08Z</time>
      </trkpt>
      <trkpt lat="46.74671" lon="-1.62169">
        <ele>47</ele>
        <time>2018-01-08T10:38:08Z</time>
      </trkpt>
      <trkpt lat="46.74669" lon="-1.62175">
        <ele>47</ele>
        <time>2018-01-08T10:39:08Z</time>
      </trkpt>
      <trkpt lat="46.74669" lon="-1.62179">
        <ele>47</ele>
        <time>2018-01-08T10:40:08Z</time>
      </trkpt>
      <trkpt lat="46.74668" lon="-1.62185">
        <ele>47</ele>
        <time>2018-01-08T10:41:08Z</time>
      </trkpt>
      <trkpt lat="46.74667" lon="-1.62197">
        <ele>47</ele>
        <time>2018-01-08T10:42:08Z</time>
      </trkpt>
      <trkpt lat="46.74665" lon="-1.62209">
        <ele>47</ele>
        <time>2018-01-08T10:43:08Z</time>
      </trkpt>
      <trkpt lat="46.74664" lon="-1.62224">
        <ele>46</ele>
        <time>2018-01-08T10:44:08Z</time>
      </trkpt>
      <trkpt lat="46.74664" lon="-1.62234">
        <ele>46</ele>
        <time>2018-01-08T10:45:08Z</time>
      </trkpt>
      <trkpt lat="46.74665" lon="-1.62242">
        <ele>46</ele>
        <time>2018-01-08T10:46:08Z</time>
      </trkpt>
      <trkpt lat="46.74667" lon="-1.62258">
        <ele>46</ele>
        <time>2018-01-08T10:47:08Z</time>
      </trkpt>
      <trkpt lat="46.74671" lon="-1.62289">
        <ele>46</ele>
        <time>2018-01-08T10:48:08Z</time>
      </trkpt>
      <trkpt lat="46.74674" lon="-1.62319">
        <ele>45</ele>
        <time>2018-01-08T10:49:08Z</time>
      </trkpt>
      <trkpt lat="46.74677" lon="-1.6234">
        <ele>45</ele>
        <time>2018-01-08T10:50:08Z</time>
      </trkpt>
      <trkpt lat="46.74681" lon="-1.62354">
        <ele>45</ele>
        <time>2018-01-08T10:51:08Z</time>
      </trkpt>
      <trkpt lat="46.74684" lon="-1.62367">
        <ele>45</ele>
        <time>2018-01-08T10:52:08Z</time>
      </trkpt>
      <trkpt lat="46.74689" lon="-1.62384">
        <ele>44</ele>
        <time>2018-01-08T10:53:08Z</time>
      </trkpt>
      <trkpt lat="46.74694" lon="-1.62398">
        <ele>44</ele>
        <time>2018-01-08T10:54:08Z</time>
      </trkpt>
      <trkpt lat="46.74694" lon="-1.62398">
        <ele>44</ele>
        <time>2018-01-08T10:55:08Z</time>
      </trkpt>
      <trkpt lat="46.74696" lon="-1.62399">
        <ele>44</ele>
        <time>2018-01-08T10:56:08Z</time>
      </trkpt>
      <trkpt lat="46.74698" lon="-1.624">
        <ele>44</ele>
        <time>2018-01-08T10:57:08Z</time>
      </trkpt>
      <trkpt lat="46.747" lon="-1.62402">
        <ele>44</ele>
        <time>2018-01-08T10:58:08Z</time>
      </trkpt>
      <trkpt lat="46.74702" lon="-1.62403">
        <ele>44</ele>
        <time>2018-01-08T10:59:08Z</time>
      </trkpt>
      <trkpt lat="46.74703" lon="-1.62405">
        <ele>44</ele>
        <time>2018-01-08T11:00:08Z</time>
      </trkpt>
      <trkpt lat="46.74705" lon="-1.62408">
        <ele>44</ele>
        <time>2018-01-08T11:01:08Z</time>
      </trkpt>
      <trkpt lat="46.74706" lon="-1.6241">
        <ele>44</ele>
        <time>2018-01-08T11:02:08Z</time>
      </trkpt>
      <trkpt lat="46.74707" lon="-1.62413">
        <ele>44</ele>
        <time>2018-01-08T11:03:08Z</time>
      </trkpt>
      <trkpt lat="46.74708" lon="-1.62415">
        <ele>44</ele>
        <time>2018-01-08T11:04:08Z</time>
      </trkpt>
      <trkpt lat="46.74709" lon="-1.62418">
        <ele>44</ele>
        <time>2018-01-08T11:05:08Z</time>
      </trkpt>
      <trkpt lat="46.74709" lon="-1.62421">
        <ele>44</ele>
        <time>2018-01-08T11:06:08Z</time>
      </trkpt>
      <trkpt lat="46.74709" lon="-1.62424">
        <ele>44</ele>
        <time>2018-01-08T11:07:08Z</time>
      </trkpt>
      <trkpt lat="46.7471" lon="-1.62427">
        <ele>44</ele>
        <time>2018-01-08T11:08:08Z</time>
      </trkpt>
      <trkpt lat="46.7471" lon="-1.6243">
        <ele>44</ele>
        <time>2018-01-08T11:09:08Z</time>
      </trkpt>
      <trkpt lat="46.74709" lon="-1.62433">
        <ele>44</ele>
        <time>2018-01-08T11:10:08Z</time>
      </trkpt>
      <trkpt lat="46.74708" lon="-1.62439">
        <ele>44</ele>
        <time>2018-01-08T11:11:08Z</time>
      </trkpt>
      <trkpt lat="46.74707" lon="-1.62441">
        <ele>44</ele>
        <time>2018-01-08T11:12:08Z</time>
      </trkpt>
      <trkpt lat="46.74707" lon="-1.62444">
        <ele>44</ele>
        <time>2018-01-08T11:13:08Z</time>
      </trkpt>
      <trkpt lat="46.74705" lon="-1.62447">
        <ele>43</ele>
        <time>2018-01-08T11:14:08Z</time>
      </trkpt>
      <trkpt lat="46.74704" lon="-1.62449">
        <ele>43</ele>
        <time>2018-01-08T11:15:08Z</time>
      </trkpt>
      <trkpt lat="46.74703" lon="-1.62451">
        <ele>43</ele>
        <time>2018-01-08T11:16:08Z</time>
      </trkpt>
      <trkpt lat="46.74701" lon="-1.62453">
        <ele>43</ele>
        <time>2018-01-08T11:17:08Z</time>
      </trkpt>
      <trkpt lat="46.74699" lon="-1.62455">
        <ele>43</ele>
        <time>2018-01-08T11:18:08Z</time>
      </trkpt>
      <trkpt lat="46.74697" lon="-1.62456">
        <ele>43</ele>
        <time>2018-01-08T11:19:08Z</time>
      </trkpt>
      <trkpt lat="46.74696" lon="-1.62457">
        <ele>43</ele>
        <time>2018-01-08T11:20:08Z</time>
      </trkpt>
      <trkpt lat="46.74694" lon="-1.62458">
        <ele>43</ele>
        <time>2018-01-08T11:21:08Z</time>
      </trkpt>
      <trkpt lat="46.74691" lon="-1.62459">
        <ele>43</ele>
        <time>2018-01-08T11:22:08Z</time>
      </trkpt>
      <trkpt lat="46.74687" lon="-1.62463">
        <ele>43</ele>
        <time>2018-01-08T11:23:08Z</time>
      </trkpt>
      <trkpt lat="46.74683" lon="-1.62469">
        <ele>43</ele>
        <time>2018-01-08T11:24:08Z</time>
      </trkpt>
      <trkpt lat="46.74679" lon="-1.62479">
        <ele>43</ele>
        <time>2018-01-08T11:25:08Z</time>
      </trkpt>
      <trkpt lat="46.74675" lon="-1.62489">
        <ele>43</ele>
        <time>2018-01-08T11:26:08Z</time>
      </trkpt>
      <trkpt lat="46.74673" lon="-1.62495">
        <ele>43</ele>
        <time>2018-01-08T11:27:08Z</time>
      </trkpt>
      <trkpt lat="46.74672" lon="-1.62496">
        <ele>43</ele>
        <time>2018-01-08T11:28:08Z</time>
      </trkpt>
      <trkpt lat="46.74669" lon="-1.62498">
        <ele>43</ele>
        <time>2018-01-08T11:29:08Z</time>
      </trkpt>
      <trkpt lat="46.74662" lon="-1.62502">
        <ele>43</ele>
        <time>2018-01-08T11:30:08Z</time>
      </trkpt>
      <trkpt lat="46.74653" lon="-1.62514">
        <ele>43</ele>
        <time>2018-01-08T11:31:08Z</time>
      </trkpt>
      <trkpt lat="46.74638" lon="-1.62534">
        <ele>43</ele>
        <time>2018-01-08T11:32:08Z</time>
      </trkpt>
      <trkpt lat="46.74572" lon="-1.62625">
        <ele>43</ele>
        <time>2018-01-08T11:33:08Z</time>
      </trkpt>
      <trkpt lat="46.74572" lon="-1.62625">
        <ele>43</ele>
        <time>2018-01-08T11:34:08Z</time>
      </trkpt>
      <trkpt lat="46.74576" lon="-1.62641">
        <ele>43</ele>
        <time>2018-01-08T11:35:08Z</time>
      </trkpt>
      <trkpt lat="46.74601" lon="-1.62727">
        <ele>44</ele>
        <time>2018-01-08T11:36:08Z</time>
      </trkpt>
      <trkpt lat="46.74608" lon="-1.62753">
        <ele>44</ele>
        <time>2018-01-08T11:37:08Z</time>
      </trkpt>
      <trkpt lat="46.74612" lon="-1.62769">
        <ele>44</ele>
        <time>2018-01-08T11:38:08Z</time>
      </trkpt>
      <trkpt lat="46.74615" lon="-1.62782">
        <ele>44</ele>
        <time>2018-01-08T11:39:08Z</time>
      </trkpt>
      <trkpt lat="46.74618" lon="-1.62797">
        <ele>45</ele>
        <time>2018-01-08T11:40:08Z</time>
      </trkpt>
      <trkpt lat="46.7462" lon="-1.62809">
        <ele>45</ele>
        <time>2018-01-08T11:41:08Z</time>
      </trkpt>
      <trkpt lat="46.74621" lon="-1.6282">
        <ele>45</ele>
        <time>2018-01-08T11:42:08Z</time>
      </trkpt>
      <trkpt lat="46.74622" lon="-1.62828">
        <ele>45</ele>
        <time>2018-01-08T11:43:08Z</time>
      </trkpt>
      <trkpt lat="46.74622" lon="-1.62837">
        <ele>45</ele>
        <time>2018-01-08T11:44:08Z</time>
      </trkpt>
      <trkpt lat="46.74623" lon="-1.6285">
        <ele>45</ele>
        <time>2018-01-08T11:45:08Z</time>
      </trkpt>
      <trkpt lat="46.74624" lon="-1.6287">
        <ele>45</ele>
        <time>2018-01-08T11:46:08Z</time>
      </trkpt>
      <trkpt lat="46.74624" lon="-1.62889">
        <ele>44</ele>
        <time>2018-01-08T11:47:08Z</time>
      </trkpt>
      <trkpt lat="46.74625" lon="-1.62905">
        <ele>44</ele>
        <time>2018-01-08T11:48:08Z</time>
      </trkpt>
      <trkpt lat="46.74625" lon="-1.62929">
        <ele>44</ele>
        <time>2018-01-08T11:49:08Z</time>
      </trkpt>
      <trkpt lat="46.74624" lon="-1.62985">
        <ele>43</ele>
        <time>2018-01-08T11:50:08Z</time>
      </trkpt>
      <trkpt lat="46.74624" lon="-1.63024">
        <ele>42</ele>
        <time>2018-01-08T11:51:08Z</time>
      </trkpt>
      <trkpt lat="46.74624" lon="-1.63028">
        <ele>42</ele>
        <time>2018-01-08T11:52:08Z</time>
      </trkpt>
      <trkpt lat="46.74624" lon="-1.63067">
        <ele>41</ele>
        <time>2018-01-08T11:53:08Z</time>
      </trkpt>
      <trkpt lat="46.74625" lon="-1.63094">
        <ele>41</ele>
        <time>2018-01-08T11:54:08Z</time>
      </trkpt>
      <trkpt lat="46.74625" lon="-1.63113">
        <ele>41</ele>
        <time>2018-01-08T11:55:08Z</time>
      </trkpt>
      <trkpt lat="46.74625" lon="-1.63127">
        <ele>40</ele>
        <time>2018-01-08T11:56:08Z</time>
      </trkpt>
      <trkpt lat="46.74625" lon="-1.63143">
        <ele>40</ele>
        <time>2018-01-08T11:57:08Z</time>
      </trkpt>
      <trkpt lat="46.74625" lon="-1.63153">
        <ele>40</ele>
        <time>2018-01-08T11:58:08Z</time>
      </trkpt>
      <trkpt lat="46.74624" lon="-1.63164">
        <ele>40</ele>
        <time>2018-01-08T11:59:08Z</time>
      </trkpt>
      <trkpt lat="46.74623" lon="-1.63178">
        <ele>40</ele>
        <time>2018-01-08T12:00:08Z</time>
      </trkpt>
      <trkpt lat="46.74622" lon="-1.63198">
        <ele>40</ele>
        <time>2018-01-08T12:01:08Z</time>
      </trkpt>
      <trkpt lat="46.74619" lon="-1.63226">
        <ele>39</ele>
        <time>2018-01-08T12:02:08Z</time>
      </trkpt>
      <trkpt lat="46.74617" lon="-1.63251">
        <ele>39</ele>
        <time>2018-01-08T12:03:08Z</time>
      </trkpt>
      <trkpt lat="46.74613" lon="-1.63287">
        <ele>38</ele>
        <time>2018-01-08T12:04:08Z</time>
      </trkpt>
      <trkpt lat="46.74613" lon="-1.63294">
        <ele>38</ele>
        <time>2018-01-08T12:05:08Z</time>
      </trkpt>
      <trkpt lat="46.74612" lon="-1.63313">
        <ele>38</ele>
        <time>2018-01-08T12:06:08Z</time>
      </trkpt>
      <trkpt lat="46.74612" lon="-1.6333">
        <ele>37</ele>
        <time>2018-01-08T12:07:08Z</time>
      </trkpt>
      <trkpt lat="46.74613" lon="-1.63386">
        <ele>36</ele>
        <time>2018-01-08T12:08:08Z</time>
      </trkpt>
      <trkpt lat="46.74614" lon="-1.63413">
        <ele>35</ele>
        <time>2018-01-08T12:09:08Z</time>
      </trkpt>
      <trkpt lat="46.74615" lon="-1.63425">
        <ele>35</ele>
        <time>2018-01-08T12:10:08Z</time>
      </trkpt>
      <trkpt lat="46.74616" lon="-1.63446">
        <ele>35</ele>
        <time>2018-01-08T12:11:08Z</time>
      </trkpt>
      <trkpt lat="46.74619" lon="-1.63507">
        <ele>35</ele>
        <time>2018-01-08T12:12:08Z</time>
      </trkpt>
      <trkpt lat="46.74622" lon="-1.6354">
        <ele>35</ele>
        <time>2018-01-08T12:13:08Z</time>
      </trkpt>
      <trkpt lat="46.74624" lon="-1.63555">
        <ele>35</ele>
        <time>2018-01-08T12:14:08Z</time>
      </trkpt>
      <trkpt lat="46.74625" lon="-1.6357">
        <ele>35</ele>
        <time>2018-01-08T12:15:08Z</time>
      </trkpt>
      <trkpt lat="46.74628" lon="-1.63597">
        <ele>35</ele>
        <time>2018-01-08T12:16:08Z</time>
      </trkpt>
      <trkpt lat="46.74629" lon="-1.63607">
        <ele>35</ele>
        <time>2018-01-08T12:17:08Z</time>
      </trkpt>
      <trkpt lat="46.74631" lon="-1.63622">
        <ele>35</ele>
        <time>2018-01-08T12:18:08Z</time>
      </trkpt>
      <trkpt lat="46.74632" lon="-1.63631">
        <ele>35</ele>
        <time>2018-01-08T12:19:08Z</time>
      </trkpt>
      <trkpt lat="46.74635" lon="-1.63666">
        <ele>35</ele>
        <time>2018-01-08T12:20:08Z</time>
      </trkpt>
      <trkpt lat="46.7464" lon="-1.63716">
        <ele>35</ele>
        <time>2018-01-08T12:21:08Z</time>
      </trkpt>
      <trkpt lat="46.74644" lon="-1.63748">
        <ele>35</ele>
        <time>2018-01-08T12:22:08Z</time>
      </trkpt>
      <trkpt lat="46.74647" lon="-1.63778">
        <ele>36</ele>
        <time>2018-01-08T12:23:08Z</time>
      </trkpt>
      <trkpt lat="46.74649" lon="-1.63793">
        <ele>36</ele>
        <time>2018-01-08T12:24:08Z</time>
      </trkpt>
      <trkpt lat="46.74653" lon="-1.63817">
        <ele>37</ele>
        <time>2018-01-08T12:25:08Z</time>
      </trkpt>
      <trkpt lat="46.74657" lon="-1.63838">
        <ele>37</ele>
        <time>2018-01-08T12:26:08Z</time>
      </trkpt>
      <trkpt lat="46.74661" lon="-1.63853">
        <ele>37</ele>
        <time>2018-01-08T12:27:08Z</time>
      </trkpt>
      <trkpt lat="46.74665" lon="-1.63875">
        <ele>37</ele>
        <time>2018-01-08T12:28:08Z</time>
      </trkpt>
      <trkpt lat="46.74671" lon="-1.63905">
        <ele>38</ele>
        <time>2018-01-08T12:29:08Z</time>
      </trkpt>
      <trkpt lat="46.74674" lon="-1.6392">
        <ele>38</ele>
        <time>2018-01-08T12:30:08Z</time>
      </trkpt>
      <trkpt lat="46.74677" lon="-1.63932">
        <ele>38</ele>
        <time>2018-01-08T12:31:08Z</time>
      </trkpt>
      <trkpt lat="46.74682" lon="-1.63948">
        <ele>38</ele>
        <time>2018-01-08T12:32:08Z</time>
      </trkpt>
      <trkpt lat="46.74687" lon="-1.63965">
        <ele>38</ele>
        <time>2018-01-08T12:33:08Z</time>
      </trkpt>
      <trkpt lat="46.7469" lon="-1.63975">
        <ele>38</ele>
        <time>2018-01-08T12:34:08Z</time>
      </trkpt>
      <trkpt lat="46.74693" lon="-1.63985">
        <ele>38</ele>
        <time>2018-01-08T12:35:08Z</time>
      </trkpt>
      <trkpt lat="46.74696" lon="-1.63993">
        <ele>38</ele>
        <time>2018-01-08T12:36:08Z</time>
      </trkpt>
      <trkpt lat="46.74699" lon="-1.64">
        <ele>38</ele>
        <time>2018-01-08T12:37:08Z</time>
      </trkpt>
      <trkpt lat="46.74702" lon="-1.64006">
        <ele>38</ele>
        <time>2018-01-08T12:38:08Z</time>
      </trkpt>
      <trkpt lat="46.74708" lon="-1.6402">
        <ele>38</ele>
        <time>2018-01-08T12:39:08Z</time>
      </trkpt>
      <trkpt lat="46.74713" lon="-1.64029">
        <ele>38</ele>
        <time>2018-01-08T12:40:08Z</time>
      </trkpt>
      <trkpt lat="46.74719" lon="-1.64041">
        <ele>38</ele>
        <time>2018-01-08T12:41:08Z</time>
      </trkpt>
      <trkpt lat="46.74725" lon="-1.64053">
        <ele>38</ele>
        <time>2018-01-08T12:42:08Z</time>
      </trkpt>
      <trkpt lat="46.74731" lon="-1.64064">
        <ele>38</ele>
        <time>2018-01-08T12:43:08Z</time>
      </trkpt>
      <trkpt lat="46.74737" lon="-1.64076">
        <ele>38</ele>
        <time>2018-01-08T12:44:08Z</time>
      </trkpt>
      <trkpt lat="46.74742" lon="-1.64087">
        <ele>38</ele>
        <time>2018-01-08T12:45:08Z</time>
      </trkpt>
      <trkpt lat="46.74749" lon="-1.64099">
        <ele>38</ele>
        <time>2018-01-08T12:46:08Z</time>
      </trkpt>
      <trkpt lat="46.74754" lon="-1.64111">
        <ele>38</ele>
        <time>2018-01-08T12:47:08Z</time>
      </trkpt>
      <trkpt lat="46.74764" lon="-1.64136">
        <ele>38</ele>
        <time>2018-01-08T12:48:08Z</time>
      </trkpt>
      <trkpt lat="46.74769" lon="-1.64154">
        <ele>38</ele>
        <time>2018-01-08T12:49:08Z</time>
      </trkpt>
      <trkpt lat="46.74774" lon="-1.64169">
        <ele>38</ele>
        <time>2018-01-08T12:50:08Z</time>
      </trkpt>
      <trkpt lat="46.74778" lon="-1.64187">
        <ele>37</ele>
        <time>2018-01-08T12:51:08Z</time>
      </trkpt>
      <trkpt lat="46.74781" lon="-1.64203">
        <ele>37</ele>
        <time>2018-01-08T12:52:08Z</time>
      </trkpt>
      <trkpt lat="46.74783" lon="-1.6422">
        <ele>37</ele>
        <time>2018-01-08T12:53:08Z</time>
      </trkpt>
      <trkpt lat="46.74785" lon="-1.64236">
        <ele>37</ele>
        <time>2018-01-08T12:54:08Z</time>
      </trkpt>
      <trkpt lat="46.74786" lon="-1.6425">
        <ele>36</ele>
        <time>2018-01-08T12:55:08Z</time>
      </trkpt>
      <trkpt lat="46.74788" lon="-1.6427">
        <ele>37</ele>
        <time>2018-01-08T12:56:08Z</time>
      </trkpt>
      <trkpt lat="46.74791" lon="-1.64296">
        <ele>37</ele>
        <time>2018-01-08T12:57:08Z</time>
      </trkpt>
      <trkpt lat="46.74793" lon="-1.6432">
        <ele>37</ele>
        <time>2018-01-08T12:58:08Z</time>
      </trkpt>
      <trkpt lat="46.74796" lon="-1.64343">
        <ele>37</ele>
        <time>2018-01-08T12:59:08Z</time>
      </trkpt>
      <trkpt lat="46.74798" lon="-1.64364">
        <ele>37</ele>
        <time>2018-01-08T13:00:08Z</time>
      </trkpt>
      <trkpt lat="46.74802" lon="-1.64386">
        <ele>37</ele>
        <time>2018-01-08T13:01:08Z</time>
      </trkpt>
      <trkpt lat="46.74812" lon="-1.6443">
        <ele>37</ele>
        <time>2018-01-08T13:02:08Z</time>
      </trkpt>
      <trkpt lat="46.74821" lon="-1.6447">
        <ele>37</ele>
        <time>2018-01-08T13:03:08Z</time>
      </trkpt>
      <trkpt lat="46.74824" lon="-1.64483">
        <ele>37</ele>
        <time>2018-01-08T13:04:08Z</time>
      </trkpt>
      <trkpt lat="46.74826" lon="-1.64492">
        <ele>37</ele>
        <time>2018-01-08T13:05:08Z</time>
      </trkpt>
      <trkpt lat="46.74828" lon="-1.64505">
        <ele>37</ele>
        <time>2018-01-08T13:06:08Z</time>
      </trkpt>
      <trkpt lat="46.74831" lon="-1.64519">
        <ele>37</ele>
        <time>2018-01-08T13:07:08Z</time>
      </trkpt>
      <trkpt lat="46.74833" lon="-1.64535">
        <ele>37</ele>
        <time>2018-01-08T13:08:08Z</time>
      </trkpt>
      <trkpt lat="46.74837" lon="-1.64551">
        <ele>37</ele>
        <time>2018-01-08T13:09:08Z</time>
      </trkpt>
      <trkpt lat="46.74839" lon="-1.64563">
        <ele>37</ele>
        <time>2018-01-08T13:10:08Z</time>
      </trkpt>
      <trkpt lat="46.74841" lon="-1.64573">
        <ele>37</ele>
        <time>2018-01-08T13:11:08Z</time>
      </trkpt>
      <trkpt lat="46.74845" lon="-1.64586">
        <ele>37</ele>
        <time>2018-01-08T13:12:08Z</time>
      </trkpt>
      <trkpt lat="46.74848" lon="-1.64597">
        <ele>37</ele>
        <time>2018-01-08T13:13:08Z</time>
      </trkpt>
      <trkpt lat="46.74851" lon="-1.64607">
        <ele>37</ele>
        <time>2018-01-08T13:14:08Z</time>
      </trkpt>
      <trkpt lat="46.74855" lon="-1.64618">
        <ele>37</ele>
        <time>2018-01-08T13:15:08Z</time>
      </trkpt>
      <trkpt lat="46.74859" lon="-1.64631">
        <ele>37</ele>
        <time>2018-01-08T13:16:08Z</time>
      </trkpt>
      <trkpt lat="46.7487" lon="-1.64661">
        <ele>36</ele>
        <time>2018-01-08T13:17:08Z</time>
      </trkpt>
      <trkpt lat="46.74888" lon="-1.64713">
        <ele>35</ele>
        <time>2018-01-08T13:18:08Z</time>
      </trkpt>
      <trkpt lat="46.74904" lon="-1.64759">
        <ele>34</ele>
        <time>2018-01-08T13:19:08Z</time>
      </trkpt>
      <trkpt lat="46.74909" lon="-1.64772">
        <ele>33</ele>
        <time>2018-01-08T13:20:08Z</time>
      </trkpt>
      <trkpt lat="46.74913" lon="-1.64785">
        <ele>33</ele>
        <time>2018-01-08T13:21:08Z</time>
      </trkpt>
      <trkpt lat="46.74923" lon="-1.64812">
        <ele>32</ele>
        <time>2018-01-08T13:22:08Z</time>
      </trkpt>
      <trkpt lat="46.74927" lon="-1.64826">
        <ele>31</ele>
        <time>2018-01-08T13:23:08Z</time>
      </trkpt>
      <trkpt lat="46.74931" lon="-1.64839">
        <ele>31</ele>
        <time>2018-01-08T13:24:08Z</time>
      </trkpt>
      <trkpt lat="46.74934" lon="-1.64851">
        <ele>31</ele>
        <time>2018-01-08T13:25:08Z</time>
      </trkpt>
      <trkpt lat="46.74937" lon="-1.64861">
        <ele>31</ele>
        <time>2018-01-08T13:26:08Z</time>
      </trkpt>
      <trkpt lat="46.74939" lon="-1.64871">
        <ele>31</ele>
        <time>2018-01-08T13:27:08Z</time>
      </trkpt>
      <trkpt lat="46.74941" lon="-1.64886">
        <ele>30</ele>
        <time>2018-01-08T13:28:08Z</time>
      </trkpt>
      <trkpt lat="46.74945" lon="-1.64914">
        <ele>30</ele>
        <time>2018-01-08T13:29:08Z</time>
      </trkpt>
      <trkpt lat="46.74947" lon="-1.6493">
        <ele>30</ele>
        <time>2018-01-08T13:30:08Z</time>
      </trkpt>
      <trkpt lat="46.74949" lon="-1.64937">
        <ele>30</ele>
        <time>2018-01-08T13:31:08Z</time>
      </trkpt>
      <trkpt lat="46.74951" lon="-1.64951">
        <ele>29</ele>
        <time>2018-01-08T13:32:08Z</time>
      </trkpt>
      <trkpt lat="46.74955" lon="-1.64968">
        <ele>29</ele>
        <time>2018-01-08T13:33:08Z</time>
      </trkpt>
      <trkpt lat="46.74958" lon="-1.6498">
        <ele>29</ele>
        <time>2018-01-08T13:34:08Z</time>
      </trkpt>
      <trkpt lat="46.7497" lon="-1.65023">
        <ele>28</ele>
        <time>2018-01-08T13:35:08Z</time>
      </trkpt>
      <trkpt lat="46.74982" lon="-1.65066">
        <ele>27</ele>
        <time>2018-01-08T13:36:08Z</time>
      </trkpt>
      <trkpt lat="46.74989" lon="-1.65091">
        <ele>27</ele>
        <time>2018-01-08T13:37:08Z</time>
      </trkpt>
      <trkpt lat="46.74996" lon="-1.65113">
        <ele>27</ele>
        <time>2018-01-08T13:38:08Z</time>
      </trkpt>
      <trkpt lat="46.75002" lon="-1.65134">
        <ele>27</ele>
        <time>2018-01-08T13:39:08Z</time>
      </trkpt>
      <trkpt lat="46.75006" lon="-1.65145">
        <ele>27</ele>
        <time>2018-01-08T13:40:08Z</time>
      </trkpt>
      <trkpt lat="46.75016" lon="-1.65173">
        <ele>27</ele>
        <time>2018-01-08T13:41:08Z</time>
      </trkpt>
      <trkpt lat="46.75024" lon="-1.65195">
        <ele>28</ele>
        <time>2018-01-08T13:42:08Z</time>
      </trkpt>
      <trkpt lat="46.75044" lon="-1.65246">
        <ele>29</ele>
        <time>2018-01-08T13:43:08Z</time>
      </trkpt>
      <trkpt lat="46.75051" lon="-1.65265">
        <ele>29</ele>
        <time>2018-01-08T13:44:08Z</time>
      </trkpt>
      <trkpt lat="46.75055" lon="-1.65277">
        <ele>29</ele>
        <time>2018-01-08T13:45:08Z</time>
      </trkpt>
      <trkpt lat="46.75059" lon="-1.65289">
        <ele>30</ele>
        <time>2018-01-08T13:46:08Z</time>
      </trkpt>
      <trkpt lat="46.75063" lon="-1.65307">
        <ele>30</ele>
        <time>2018-01-08T13:47:08Z</time>
      </trkpt>
      <trkpt lat="46.75068" lon="-1.65325">
        <ele>31</ele>
        <time>2018-01-08T13:48:08Z</time>
      </trkpt>
      <trkpt lat="46.75075" lon="-1.65363">
        <ele>32</ele>
        <time>2018-01-08T13:49:08Z</time>
      </trkpt>
      <trkpt lat="46.75085" lon="-1.65414">
        <ele>32</ele>
        <time>2018-01-08T13:50:08Z</time>
      </trkpt>
      <trkpt lat="46.75092" lon="-1.65457">
        <ele>32</ele>
        <time>2018-01-08T13:51:08Z</time>
      </trkpt>
      <trkpt lat="46.75096" lon="-1.65483">
        <ele>33</ele>
        <time>2018-01-08T13:52:08Z</time>
      </trkpt>
      <trkpt lat="46.75098" lon="-1.65506">
        <ele>33</ele>
        <time>2018-01-08T13:53:08Z</time>
      </trkpt>
      <trkpt lat="46.751" lon="-1.65524">
        <ele>33</ele>
        <time>2018-01-08T13:54:08Z</time>
      </trkpt>
      <trkpt lat="46.75101" lon="-1.65543">
        <ele>33</ele>
        <time>2018-01-08T13:55:08Z</time>
      </trkpt>
      <trkpt lat="46.751" lon="-1.65562">
        <ele>34</ele>
        <time>2018-01-08T13:56:08Z</time>
      </trkpt>
      <trkpt lat="46.751" lon="-1.6558">
        <ele>34</ele>
        <time>2018-01-08T13:57:08Z</time>
      </trkpt>
      <trkpt lat="46.75099" lon="-1.65597">
        <ele>34</ele>
        <time>2018-01-08T13:58:08Z</time>
      </trkpt>
      <trkpt lat="46.75096" lon="-1.6564">
        <ele>34</ele>
        <time>2018-01-08T13:59:08Z</time>
      </trkpt>
      <trkpt lat="46.75094" lon="-1.65677">
        <ele>34</ele>
        <time>2018-01-08T14:00:08Z</time>
      </trkpt>
      <trkpt lat="46.75093" lon="-1.65704">
        <ele>34</ele>
        <time>2018-01-08T14:01:08Z</time>
      </trkpt>
      <trkpt lat="46.75091" lon="-1.65779">
        <ele>33</ele>
        <time>2018-01-08T14:02:08Z</time>
      </trkpt>
      <trkpt lat="46.7509" lon="-1.65858">
        <ele>33</ele>
        <time>2018-01-08T14:03:08Z</time>
      </trkpt>
      <trkpt lat="46.7509" lon="-1.65881">
        <ele>32</ele>
        <time>2018-01-08T14:04:08Z</time>
      </trkpt>
      <trkpt lat="46.75087" lon="-1.65951">
        <ele>32</ele>
        <time>2018-01-08T14:05:08Z</time>
      </trkpt>
      <trkpt lat="46.75086" lon="-1.65972">
        <ele>32</ele>
        <time>2018-01-08T14:06:08Z</time>
      </trkpt>
      <trkpt lat="46.75087" lon="-1.65991">
        <ele>32</ele>
        <time>2018-01-08T14:07:08Z</time>
      </trkpt>
      <trkpt lat="46.75087" lon="-1.66011">
        <ele>32</ele>
        <time>2018-01-08T14:08:08Z</time>
      </trkpt>
      <trkpt lat="46.75087" lon="-1.66029">
        <ele>32</ele>
        <time>2018-01-08T14:09:08Z</time>
      </trkpt>
      <trkpt lat="46.75088" lon="-1.66043">
        <ele>31</ele>
        <time>2018-01-08T14:10:08Z</time>
      </trkpt>
      <trkpt lat="46.75089" lon="-1.66059">
        <ele>31</ele>
        <time>2018-01-08T14:11:08Z</time>
      </trkpt>
      <trkpt lat="46.75093" lon="-1.66098">
        <ele>31</ele>
        <time>2018-01-08T14:12:08Z</time>
      </trkpt>
      <trkpt lat="46.75105" lon="-1.66199">
        <ele>30</ele>
        <time>2018-01-08T14:13:08Z</time>
      </trkpt>
      <trkpt lat="46.75113" lon="-1.66259">
        <ele>29</ele>
        <time>2018-01-08T14:14:08Z</time>
      </trkpt>
      <trkpt lat="46.75114" lon="-1.66277">
        <ele>28</ele>
        <time>2018-01-08T14:15:08Z</time>
      </trkpt>
      <trkpt lat="46.75114" lon="-1.6629">
        <ele>28</ele>
        <time>2018-01-08T14:16:08Z</time>
      </trkpt>
      <trkpt lat="46.75113" lon="-1.66308">
        <ele>28</ele>
        <time>2018-01-08T14:17:08Z</time>
      </trkpt>
      <trkpt lat="46.75108" lon="-1.66348">
        <ele>27</ele>
        <time>2018-01-08T14:18:08Z</time>
      </trkpt>
      <trkpt lat="46.75098" lon="-1.6641">
        <ele>26</ele>
        <time>2018-01-08T14:19:08Z</time>
      </trkpt>
      <trkpt lat="46.75093" lon="-1.66437">
        <ele>26</ele>
        <time>2018-01-08T14:20:08Z</time>
      </trkpt>
      <trkpt lat="46.75092" lon="-1.66452">
        <ele>25</ele>
        <time>2018-01-08T14:21:08Z</time>
      </trkpt>
      <trkpt lat="46.75091" lon="-1.66469">
        <ele>25</ele>
        <time>2018-01-08T14:22:08Z</time>
      </trkpt>
      <trkpt lat="46.75091" lon="-1.66486">
        <ele>25</ele>
        <time>2018-01-08T14:23:08Z</time>
      </trkpt>
      <trkpt lat="46.75091" lon="-1.66501">
        <ele>25</ele>
        <time>2018-01-08T14:24:08Z</time>
      </trkpt>
      <trkpt lat="46.75093" lon="-1.66519">
        <ele>25</ele>
        <time>2018-01-08T14:25:08Z</time>
      </trkpt>
      <trkpt lat="46.75095" lon="-1.66532">
        <ele>25</ele>
        <time>2018-01-08T14:26:08Z</time>
      </trkpt>
      <trkpt lat="46.75099" lon="-1.66547">
        <ele>25</ele>
        <time>2018-01-08T14:27:08Z</time>
      </trkpt>
      <trkpt lat="46.75107" lon="-1.66569">
        <ele>25</ele>
        <time>2018-01-08T14:28:08Z</time>
      </trkpt>
      <trkpt lat="46.75153" lon="-1.66683">
        <ele>27</ele>
        <time>2018-01-08T14:29:08Z</time>
      </trkpt>
      <trkpt lat="46.75159" lon="-1.66703">
        <ele>27</ele>
        <time>2018-01-08T14:30:08Z</time>
      </trkpt>
      <trkpt lat="46.75177" lon="-1.66763">
        <ele>28</ele>
        <time>2018-01-08T14:31:08Z</time>
      </trkpt>
      <trkpt lat="46.75194" lon="-1.66816">
        <ele>27</ele>
        <time>2018-01-08T14:32:08Z</time>
      </trkpt>
      <trkpt lat="46.75196" lon="-1.66821">
        <ele>27</ele>
        <time>2018-01-08T14:33:08Z</time>
      </trkpt>
      <trkpt lat="46.752" lon="-1.66841">
        <ele>27</ele>
        <time>2018-01-08T14:34:08Z</time>
      </trkpt>
      <trkpt lat="46.75204" lon="-1.66855">
        <ele>26</ele>
        <time>2018-01-08T14:35:08Z</time>
      </trkpt>
      <trkpt lat="46.75207" lon="-1.6687">
        <ele>26</ele>
        <time>2018-01-08T14:36:08Z</time>
      </trkpt>
      <trkpt lat="46.75209" lon="-1.66885">
        <ele>25</ele>
        <time>2018-01-08T14:37:08Z</time>
      </trkpt>
      <trkpt lat="46.75211" lon="-1.66901">
        <ele>25</ele>
        <time>2018-01-08T14:38:08Z</time>
      </trkpt>
      <trkpt lat="46.75212" lon="-1.66921">
        <ele>24</ele>
        <time>2018-01-08T14:39:08Z</time>
      </trkpt>
      <trkpt lat="46.75215" lon="-1.66945">
        <ele>23</ele>
        <time>2018-01-08T14:40:08Z</time>
      </trkpt>
      <trkpt lat="46.75216" lon="-1.6696">
        <ele>23</ele>
        <time>2018-01-08T14:41:08Z</time>
      </trkpt>
      <trkpt lat="46.75216" lon="-1.66966">
        <ele>23</ele>
        <time>2018-01-08T14:42:08Z</time>
      </trkpt>
      <trkpt lat="46.75214" lon="-1.66976">
        <ele>23</ele>
        <time>2018-01-08T14:43:08Z</time>
      </trkpt>
      <trkpt lat="46.75205" lon="-1.67004">
        <ele>23</ele>
        <time>2018-01-08T14:44:08Z</time>
      </trkpt>
      <trkpt lat="46.75192" lon="-1.67036">
        <ele>23</ele>
        <time>2018-01-08T14:45:08Z</time>
      </trkpt>
      <trkpt lat="46.75176" lon="-1.67078">
        <ele>23</ele>
        <time>2018-01-08T14:46:08Z</time>
      </trkpt>
      <trkpt lat="46.75155" lon="-1.67137">
        <ele>23</ele>
        <time>2018-01-08T14:47:08Z</time>
      </trkpt>
      <trkpt lat="46.75139" lon="-1.67184">
        <ele>24</ele>
        <time>2018-01-08T14:48:08Z</time>
      </trkpt>
      <trkpt lat="46.75134" lon="-1.672">
        <ele>24</ele>
        <time>2018-01-08T14:49:08Z</time>
      </trkpt>
      <trkpt lat="46.7513" lon="-1.67216">
        <ele>24</ele>
        <time>2018-01-08T14:50:08Z</time>
      </trkpt>
      <trkpt lat="46.75126" lon="-1.6723">
        <ele>24</ele>
        <time>2018-01-08T14:51:08Z</time>
      </trkpt>
      <trkpt lat="46.75124" lon="-1.67241">
        <ele>24</ele>
        <time>2018-01-08T14:52:08Z</time>
      </trkpt>
      <trkpt lat="46.75121" lon="-1.67254">
        <ele>24</ele>
        <time>2018-01-08T14:53:08Z</time>
      </trkpt>
      <trkpt lat="46.75114" lon="-1.67292">
        <ele>24</ele>
        <time>2018-01-08T14:54:08Z</time>
      </trkpt>
      <trkpt lat="46.75108" lon="-1.67329">
        <ele>24</ele>
        <time>2018-01-08T14:55:08Z</time>
      </trkpt>
      <trkpt lat="46.75106" lon="-1.67342">
        <ele>24</ele>
        <time>2018-01-08T14:56:08Z</time>
      </trkpt>
      <trkpt lat="46.75106" lon="-1.67353">
        <ele>24</ele>
        <time>2018-01-08T14:57:08Z</time>
      </trkpt>
      <trkpt lat="46.75106" lon="-1.67363">
        <ele>24</ele>
        <time>2018-01-08T14:58:08Z</time>
      </trkpt>
      <trkpt lat="46.75106" lon="-1.6737">
        <ele>24</ele>
        <time>2018-01-08T14:59:08Z</time>
      </trkpt>
      <trkpt lat="46.75106" lon="-1.6737">
        <ele>24</ele>
        <time>2018-01-08T15:00:08Z</time>
      </trkpt>
      <trkpt lat="46.751" lon="-1.67373">
        <ele>24</ele>
        <time>2018-01-08T15:01:08Z</time>
      </trkpt>
      <trkpt lat="46.75094" lon="-1.67376">
        <ele>23</ele>
        <time>2018-01-08T15:02:08Z</time>
      </trkpt>
      <trkpt lat="46.75086" lon="-1.6738">
        <ele>23</ele>
        <time>2018-01-08T15:03:08Z</time>
      </trkpt>
      <trkpt lat="46.75041" lon="-1.6741">
        <ele>23</ele>
        <time>2018-01-08T15:04:08Z</time>
      </trkpt>
      <trkpt lat="46.74987" lon="-1.67446">
        <ele>21</ele>
        <time>2018-01-08T15:05:08Z</time>
      </trkpt>
      <trkpt lat="46.74936" lon="-1.6748">
        <ele>20</ele>
        <time>2018-01-08T15:06:08Z</time>
      </trkpt>
      <trkpt lat="46.7489" lon="-1.67511">
        <ele>19</ele>
        <time>2018-01-08T15:07:08Z</time>
      </trkpt>
      <trkpt lat="46.7487" lon="-1.67524">
        <ele>18</ele>
        <time>2018-01-08T15:08:08Z</time>
      </trkpt>
      <trkpt lat="46.74868" lon="-1.67525">
        <ele>18</ele>
        <time>2018-01-08T15:09:08Z</time>
      </trkpt>
      <trkpt lat="46.74866" lon="-1.67527">
        <ele>18</ele>
        <time>2018-01-08T15:10:08Z</time>
      </trkpt>
      <trkpt lat="46.74832" lon="-1.67548">
        <ele>16</ele>
        <time>2018-01-08T15:11:08Z</time>
      </trkpt>
      <trkpt lat="46.74809" lon="-1.67564">
        <ele>17</ele>
        <time>2018-01-08T15:12:08Z</time>
      </trkpt>
      <trkpt lat="46.74789" lon="-1.67577">
        <ele>18</ele>
        <time>2018-01-08T15:13:08Z</time>
      </trkpt>
      <trkpt lat="46.7476" lon="-1.67596">
        <ele>19</ele>
        <time>2018-01-08T15:14:08Z</time>
      </trkpt>
      <trkpt lat="46.7476" lon="-1.67596">
        <ele>19</ele>
        <time>2018-01-08T15:15:08Z</time>
      </trkpt>
      <trkpt lat="46.74758" lon="-1.67619">
        <ele>20</ele>
        <time>2018-01-08T15:16:08Z</time>
      </trkpt>
      <trkpt lat="46.74754" lon="-1.67679">
        <ele>21</ele>
        <time>2018-01-08T15:17:08Z</time>
      </trkpt>
      <trkpt lat="46.74749" lon="-1.67753">
        <ele>25</ele>
        <time>2018-01-08T15:18:08Z</time>
      </trkpt>
      <trkpt lat="46.74742" lon="-1.67869">
        <ele>26</ele>
        <time>2018-01-08T15:19:08Z</time>
      </trkpt>
      <trkpt lat="46.74737" lon="-1.67947">
        <ele>24</ele>
        <time>2018-01-08T15:20:08Z</time>
      </trkpt>
      <trkpt lat="46.74731" lon="-1.68019">
        <ele>24</ele>
        <time>2018-01-08T15:21:08Z</time>
      </trkpt>
      <trkpt lat="46.74729" lon="-1.68043">
        <ele>23</ele>
        <time>2018-01-08T15:22:08Z</time>
      </trkpt>
      <trkpt lat="46.74728" lon="-1.68057">
        <ele>23</ele>
        <time>2018-01-08T15:23:08Z</time>
      </trkpt>
      <trkpt lat="46.74725" lon="-1.6807">
        <ele>23</ele>
        <time>2018-01-08T15:24:08Z</time>
      </trkpt>
      <trkpt lat="46.74719" lon="-1.68107">
        <ele>23</ele>
        <time>2018-01-08T15:25:08Z</time>
      </trkpt>
      <trkpt lat="46.74708" lon="-1.68154">
        <ele>24</ele>
        <time>2018-01-08T15:26:08Z</time>
      </trkpt>
      <trkpt lat="46.74697" lon="-1.68212">
        <ele>24</ele>
        <time>2018-01-08T15:27:08Z</time>
      </trkpt>
      <trkpt lat="46.74696" lon="-1.68217">
        <ele>24</ele>
        <time>2018-01-08T15:28:08Z</time>
      </trkpt>
      <trkpt lat="46.7469" lon="-1.6824">
        <ele>24</ele>
        <time>2018-01-08T15:29:08Z</time>
      </trkpt>
      <trkpt lat="46.74685" lon="-1.68262">
        <ele>24</ele>
        <time>2018-01-08T15:30:08Z</time>
      </trkpt>
      <trkpt lat="46.7468" lon="-1.68276">
        <ele>23</ele>
        <time>2018-01-08T15:31:08Z</time>
      </trkpt>
      <trkpt lat="46.74678" lon="-1.68283">
        <ele>23</ele>
        <time>2018-01-08T15:32:08Z</time>
      </trkpt>
      <trkpt lat="46.74673" lon="-1.68296">
        <ele>23</ele>
        <time>2018-01-08T15:33:08Z</time>
      </trkpt>
      <trkpt lat="46.74657" lon="-1.6833">
        <ele>23</ele>
        <time>2018-01-08T15:34:08Z</time>
      </trkpt>
      <trkpt lat="46.7465" lon="-1.68348">
        <ele>24</ele>
        <time>2018-01-08T15:35:08Z</time>
      </trkpt>
      <trkpt lat="46.74645" lon="-1.68364">
        <ele>24</ele>
        <time>2018-01-08T15:36:08Z</time>
      </trkpt>
      <trkpt lat="46.74642" lon="-1.68376">
        <ele>24</ele>
        <time>2018-01-08T15:37:08Z</time>
      </trkpt>
      <trkpt lat="46.7464" lon="-1.6839">
        <ele>24</ele>
        <time>2018-01-08T15:38:08Z</time>
      </trkpt>
      <trkpt lat="46.7464" lon="-1.68406">
        <ele>24</ele>
        <time>2018-01-08T15:39:08Z</time>
      </trkpt>
      <trkpt lat="46.74639" lon="-1.68428">
        <ele>24</ele>
        <time>2018-01-08T15:40:08Z</time>
      </trkpt>
      <trkpt lat="46.74641" lon="-1.68463">
        <ele>25</ele>
        <time>2018-01-08T15:41:08Z</time>
      </trkpt>
      <trkpt lat="46.74644" lon="-1.68508">
        <ele>25</ele>
        <time>2018-01-08T15:42:08Z</time>
      </trkpt>
      <trkpt lat="46.74645" lon="-1.68548">
        <ele>25</ele>
        <time>2018-01-08T15:43:08Z</time>
      </trkpt>
      <trkpt lat="46.74645" lon="-1.68565">
        <ele>25</ele>
        <time>2018-01-08T15:44:08Z</time>
      </trkpt>
      <trkpt lat="46.74644" lon="-1.68579">
        <ele>25</ele>
        <time>2018-01-08T15:45:08Z</time>
      </trkpt>
      <trkpt lat="46.74643" lon="-1.68594">
        <ele>25</ele>
        <time>2018-01-08T15:46:08Z</time>
      </trkpt>
      <trkpt lat="46.7464" lon="-1.6861">
        <ele>24</ele>
        <time>2018-01-08T15:47:08Z</time>
      </trkpt>
      <trkpt lat="46.74637" lon="-1.68625">
        <ele>24</ele>
        <time>2018-01-08T15:48:08Z</time>
      </trkpt>
      <trkpt lat="46.74632" lon="-1.68639">
        <ele>23</ele>
        <time>2018-01-08T15:49:08Z</time>
      </trkpt>
      <trkpt lat="46.74628" lon="-1.68649">
        <ele>23</ele>
        <time>2018-01-08T15:50:08Z</time>
      </trkpt>
      <trkpt lat="46.74621" lon="-1.6866">
        <ele>23</ele>
        <time>2018-01-08T15:51:08Z</time>
      </trkpt>
      <trkpt lat="46.74612" lon="-1.68672">
        <ele>23</ele>
        <time>2018-01-08T15:52:08Z</time>
      </trkpt>
      <trkpt lat="46.74603" lon="-1.6868">
        <ele>22</ele>
        <time>2018-01-08T15:53:08Z</time>
      </trkpt>
      <trkpt lat="46.74592" lon="-1.68688">
        <ele>22</ele>
        <time>2018-01-08T15:54:08Z</time>
      </trkpt>
      <trkpt lat="46.74582" lon="-1.68692">
        <ele>22</ele>
        <time>2018-01-08T15:55:08Z</time>
      </trkpt>
      <trkpt lat="46.74562" lon="-1.68699">
        <ele>22</ele>
        <time>2018-01-08T15:56:08Z</time>
      </trkpt>
      <trkpt lat="46.74543" lon="-1.68704">
        <ele>22</ele>
        <time>2018-01-08T15:57:08Z</time>
      </trkpt>
      <trkpt lat="46.74529" lon="-1.6871">
        <ele>22</ele>
        <time>2018-01-08T15:58:08Z</time>
      </trkpt>
      <trkpt lat="46.74518" lon="-1.68722">
        <ele>22</ele>
        <time>2018-01-08T15:59:08Z</time>
      </trkpt>
      <trkpt lat="46.74495" lon="-1.68755">
        <ele>21</ele>
        <time>2018-01-08T16:00:08Z</time>
      </trkpt>
      <trkpt lat="46.74479" lon="-1.6878">
        <ele>22</ele>
        <time>2018-01-08T16:01:08Z</time>
      </trkpt>
      <trkpt lat="46.7446" lon="-1.68809">
        <ele>23</ele>
        <time>2018-01-08T16:02:08Z</time>
      </trkpt>
      <trkpt lat="46.74449" lon="-1.68824">
        <ele>22</ele>
        <time>2018-01-08T16:03:08Z</time>
      </trkpt>
      <trkpt lat="46.7444" lon="-1.68838">
        <ele>22</ele>
        <time>2018-01-08T16:04:08Z</time>
      </trkpt>
      <trkpt lat="46.74431" lon="-1.68852">
        <ele>22</ele>
        <time>2018-01-08T16:05:08Z</time>
      </trkpt>
      <trkpt lat="46.74426" lon="-1.68862">
        <ele>22</ele>
        <time>2018-01-08T16:06:08Z</time>
      </trkpt>
      <trkpt lat="46.74423" lon="-1.68872">
        <ele>23</ele>
        <time>2018-01-08T16:07:08Z</time>
      </trkpt>
      <trkpt lat="46.74421" lon="-1.68884">
        <ele>23</ele>
        <time>2018-01-08T16:08:08Z</time>
      </trkpt>
      <trkpt lat="46.74414" lon="-1.68916">
        <ele>24</ele>
        <time>2018-01-08T16:09:08Z</time>
      </trkpt>
      <trkpt lat="46.744" lon="-1.68974">
        <ele>26</ele>
        <time>2018-01-08T16:10:08Z</time>
      </trkpt>
      <trkpt lat="46.74392" lon="-1.69004">
        <ele>27</ele>
        <time>2018-01-08T16:11:08Z</time>
      </trkpt>
      <trkpt lat="46.74386" lon="-1.69021">
        <ele>27</ele>
        <time>2018-01-08T16:12:08Z</time>
      </trkpt>
      <trkpt lat="46.74381" lon="-1.69035">
        <ele>28</ele>
        <time>2018-01-08T16:13:08Z</time>
      </trkpt>
      <trkpt lat="46.74375" lon="-1.69048">
        <ele>28</ele>
        <time>2018-01-08T16:14:08Z</time>
      </trkpt>
      <trkpt lat="46.7437" lon="-1.69058">
        <ele>28</ele>
        <time>2018-01-08T16:15:08Z</time>
      </trkpt>
      <trkpt lat="46.74355" lon="-1.69087">
        <ele>29</ele>
        <time>2018-01-08T16:16:08Z</time>
      </trkpt>
      <trkpt lat="46.7433" lon="-1.69134">
        <ele>30</ele>
        <time>2018-01-08T16:17:08Z</time>
      </trkpt>
      <trkpt lat="46.74302" lon="-1.69186">
        <ele>33</ele>
        <time>2018-01-08T16:18:08Z</time>
      </trkpt>
      <trkpt lat="46.74269" lon="-1.69248">
        <ele>36</ele>
        <time>2018-01-08T16:19:08Z</time>
      </trkpt>
      <trkpt lat="46.74267" lon="-1.69252">
        <ele>36</ele>
        <time>2018-01-08T16:20:08Z</time>
      </trkpt>
      <trkpt lat="46.74266" lon="-1.69257">
        <ele>37</ele>
        <time>2018-01-08T16:21:08Z</time>
      </trkpt>
      <trkpt lat="46.74265" lon="-1.69263">
        <ele>37</ele>
        <time>2018-01-08T16:22:08Z</time>
      </trkpt>
      <trkpt lat="46.74264" lon="-1.6927">
        <ele>37</ele>
        <time>2018-01-08T16:23:08Z</time>
      </trkpt>
      <trkpt lat="46.74263" lon="-1.69297">
        <ele>37</ele>
        <time>2018-01-08T16:24:08Z</time>
      </trkpt>
      <trkpt lat="46.74261" lon="-1.6936">
        <ele>38</ele>
        <time>2018-01-08T16:25:08Z</time>
      </trkpt>
      <trkpt lat="46.7426" lon="-1.69426">
        <ele>39</ele>
        <time>2018-01-08T16:26:08Z</time>
      </trkpt>
      <trkpt lat="46.74259" lon="-1.6946">
        <ele>40</ele>
        <time>2018-01-08T16:27:08Z</time>
      </trkpt>
      <trkpt lat="46.74257" lon="-1.69514">
        <ele>41</ele>
        <time>2018-01-08T16:28:08Z</time>
      </trkpt>
      <trkpt lat="46.74256" lon="-1.69543">
        <ele>40</ele>
        <time>2018-01-08T16:29:08Z</time>
      </trkpt>
      <trkpt lat="46.74255" lon="-1.69593">
        <ele>39</ele>
        <time>2018-01-08T16:30:08Z</time>
      </trkpt>
      <trkpt lat="46.74254" lon="-1.69654">
        <ele>37</ele>
        <time>2018-01-08T16:31:08Z</time>
      </trkpt>
      <trkpt lat="46.74253" lon="-1.69713">
        <ele>37</ele>
        <time>2018-01-08T16:32:08Z</time>
      </trkpt>
      <trkpt lat="46.74252" lon="-1.69752">
        <ele>37</ele>
        <time>2018-01-08T16:33:08Z</time>
      </trkpt>
      <trkpt lat="46.7425" lon="-1.69777">
        <ele>37</ele>
        <time>2018-01-08T16:34:08Z</time>
      </trkpt>
      <trkpt lat="46.74248" lon="-1.69799">
        <ele>36</ele>
        <time>2018-01-08T16:35:08Z</time>
      </trkpt>
      <trkpt lat="46.74246" lon="-1.69819">
        <ele>36</ele>
        <time>2018-01-08T16:36:08Z</time>
      </trkpt>
      <trkpt lat="46.74239" lon="-1.69864">
        <ele>36</ele>
        <time>2018-01-08T16:37:08Z</time>
      </trkpt>
      <trkpt lat="46.74235" lon="-1.69891">
        <ele>37</ele>
        <time>2018-01-08T16:38:08Z</time>
      </trkpt>
      <trkpt lat="46.74235" lon="-1.69891">
        <ele>37</ele>
        <time>2018-01-08T16:39:08Z</time>
      </trkpt>
      <trkpt lat="46.7423" lon="-1.69927">
        <ele>37</ele>
        <time>2018-01-08T16:40:08Z</time>
      </trkpt>
      <trkpt lat="46.74227" lon="-1.69962">
        <ele>37</ele>
        <time>2018-01-08T16:41:08Z</time>
      </trkpt>
      <trkpt lat="46.74219" lon="-1.70041">
        <ele>36</ele>
        <time>2018-01-08T16:42:08Z</time>
      </trkpt>
      <trkpt lat="46.74212" lon="-1.70137">
        <ele>33</ele>
        <time>2018-01-08T16:43:08Z</time>
      </trkpt>
      <trkpt lat="46.74209" lon="-1.70185">
        <ele>32</ele>
        <time>2018-01-08T16:44:08Z</time>
      </trkpt>
      <trkpt lat="46.74206" lon="-1.70229">
        <ele>32</ele>
        <time>2018-01-08T16:45:08Z</time>
      </trkpt>
      <trkpt lat="46.74205" lon="-1.70265">
        <ele>32</ele>
        <time>2018-01-08T16:46:08Z</time>
      </trkpt>
      <trkpt lat="46.74205" lon="-1.70269">
        <ele>32</ele>
        <time>2018-01-08T16:47:08Z</time>
      </trkpt>
      <trkpt lat="46.74205" lon="-1.70297">
        <ele>31</ele>
        <time>2018-01-08T16:48:08Z</time>
      </trkpt>
      <trkpt lat="46.74205" lon="-1.7031">
        <ele>31</ele>
        <time>2018-01-08T16:49:08Z</time>
      </trkpt>
      <trkpt lat="46.74206" lon="-1.70316">
        <ele>31</ele>
        <time>2018-01-08T16:50:08Z</time>
      </trkpt>
      <trkpt lat="46.74206" lon="-1.70322">
        <ele>31</ele>
        <time>2018-01-08T16:51:08Z</time>
      </trkpt>
      <trkpt lat="46.74207" lon="-1.70348">
        <ele>31</ele>
        <time>2018-01-08T16:52:08Z</time>
      </trkpt>
      <trkpt lat="46.74208" lon="-1.70383">
        <ele>30</ele>
        <time>2018-01-08T16:53:08Z</time>
      </trkpt>
      <trkpt lat="46.74208" lon="-1.70394">
        <ele>29</ele>
        <time>2018-01-08T16:54:08Z</time>
      </trkpt>
      <trkpt lat="46.74208" lon="-1.70405">
        <ele>29</ele>
        <time>2018-01-08T16:55:08Z</time>
      </trkpt>
      <trkpt lat="46.74208" lon="-1.70416">
        <ele>29</ele>
        <time>2018-01-08T16:56:08Z</time>
      </trkpt>
      <trkpt lat="46.74207" lon="-1.70428">
        <ele>29</ele>
        <time>2018-01-08T16:57:08Z</time>
      </trkpt>
      <trkpt lat="46.74205" lon="-1.70439">
        <ele>29</ele>
        <time>2018-01-08T16:58:08Z</time>
      </trkpt>
      <trkpt lat="46.74203" lon="-1.70449">
        <ele>29</ele>
        <time>2018-01-08T16:59:08Z</time>
      </trkpt>
      <trkpt lat="46.74193" lon="-1.70488">
        <ele>30</ele>
        <time>2018-01-08T17:00:08Z</time>
      </trkpt>
      <trkpt lat="46.74185" lon="-1.70519">
        <ele>31</ele>
        <time>2018-01-08T17:01:08Z</time>
      </trkpt>
      <trkpt lat="46.74181" lon="-1.70541">
        <ele>32</ele>
        <time>2018-01-08T17:02:08Z</time>
      </trkpt>
      <trkpt lat="46.7418" lon="-1.70554">
        <ele>32</ele>
        <time>2018-01-08T17:03:08Z</time>
      </trkpt>
      <trkpt lat="46.74179" lon="-1.70566">
        <ele>32</ele>
        <time>2018-01-08T17:04:08Z</time>
      </trkpt>
      <trkpt lat="46.74179" lon="-1.70583">
        <ele>33</ele>
        <time>2018-01-08T17:05:08Z</time>
      </trkpt>
      <trkpt lat="46.74179" lon="-1.70593">
        <ele>33</ele>
        <time>2018-01-08T17:06:08Z</time>
      </trkpt>
      <trkpt lat="46.7418" lon="-1.70603">
        <ele>34</ele>
        <time>2018-01-08T17:07:08Z</time>
      </trkpt>
      <trkpt lat="46.74182" lon="-1.70613">
        <ele>34</ele>
        <time>2018-01-08T17:08:08Z</time>
      </trkpt>
      <trkpt lat="46.74184" lon="-1.70622">
        <ele>34</ele>
        <time>2018-01-08T17:09:08Z</time>
      </trkpt>
      <trkpt lat="46.74188" lon="-1.70642">
        <ele>35</ele>
        <time>2018-01-08T17:10:08Z</time>
      </trkpt>
      <trkpt lat="46.74193" lon="-1.70659">
        <ele>36</ele>
        <time>2018-01-08T17:11:08Z</time>
      </trkpt>
      <trkpt lat="46.74196" lon="-1.70668">
        <ele>36</ele>
        <time>2018-01-08T17:12:08Z</time>
      </trkpt>
      <trkpt lat="46.74198" lon="-1.70677">
        <ele>36</ele>
        <time>2018-01-08T17:13:08Z</time>
      </trkpt>
      <trkpt lat="46.742" lon="-1.70686">
        <ele>37</ele>
        <time>2018-01-08T17:14:08Z</time>
      </trkpt>
      <trkpt lat="46.74201" lon="-1.70694">
        <ele>37</ele>
        <time>2018-01-08T17:15:08Z</time>
      </trkpt>
      <trkpt lat="46.74202" lon="-1.70705">
        <ele>37</ele>
        <time>2018-01-08T17:16:08Z</time>
      </trkpt>
      <trkpt lat="46.74202" lon="-1.70714">
        <ele>37</ele>
        <time>2018-01-08T17:17:08Z</time>
      </trkpt>
      <trkpt lat="46.74202" lon="-1.70725">
        <ele>38</ele>
        <time>2018-01-08T17:18:08Z</time>
      </trkpt>
      <trkpt lat="46.74201" lon="-1.70755">
        <ele>39</ele>
        <time>2018-01-08T17:19:08Z</time>
      </trkpt>
      <trkpt lat="46.74199" lon="-1.70776">
        <ele>39</ele>
        <time>2018-01-08T17:20:08Z</time>
      </trkpt>
      <trkpt lat="46.74195" lon="-1.70796">
        <ele>40</ele>
        <time>2018-01-08T17:21:08Z</time>
      </trkpt>
      <trkpt lat="46.74191" lon="-1.70816">
        <ele>40</ele>
        <time>2018-01-08T17:22:08Z</time>
      </trkpt>
      <trkpt lat="46.74168" lon="-1.70909">
        <ele>42</ele>
        <time>2018-01-08T17:23:08Z</time>
      </trkpt>
      <trkpt lat="46.74164" lon="-1.70931">
        <ele>42</ele>
        <time>2018-01-08T17:24:08Z</time>
      </trkpt>
      <trkpt lat="46.74162" lon="-1.70942">
        <ele>42</ele>
        <time>2018-01-08T17:25:08Z</time>
      </trkpt>
      <trkpt lat="46.74161" lon="-1.70952">
        <ele>43</ele>
        <time>2018-01-08T17:26:08Z</time>
      </trkpt>
      <trkpt lat="46.74159" lon="-1.70964">
        <ele>43</ele>
        <time>2018-01-08T17:27:08Z</time>
      </trkpt>
      <trkpt lat="46.74159" lon="-1.70975">
        <ele>43</ele>
        <time>2018-01-08T17:28:08Z</time>
      </trkpt>
      <trkpt lat="46.74159" lon="-1.71008">
        <ele>43</ele>
        <time>2018-01-08T17:29:08Z</time>
      </trkpt>
      <trkpt lat="46.74163" lon="-1.71076">
        <ele>42</ele>
        <time>2018-01-08T17:30:08Z</time>
      </trkpt>
      <trkpt lat="46.7417" lon="-1.71173">
        <ele>39</ele>
        <time>2018-01-08T17:31:08Z</time>
      </trkpt>
      <trkpt lat="46.74171" lon="-1.71186">
        <ele>38</ele>
        <time>2018-01-08T17:32:08Z</time>
      </trkpt>
      <trkpt lat="46.74176" lon="-1.71225">
        <ele>37</ele>
        <time>2018-01-08T17:33:08Z</time>
      </trkpt>
      <trkpt lat="46.74178" lon="-1.71238">
        <ele>37</ele>
        <time>2018-01-08T17:34:08Z</time>
      </trkpt>
      <trkpt lat="46.74182" lon="-1.71262">
        <ele>36</ele>
        <time>2018-01-08T17:35:08Z</time>
      </trkpt>
      <trkpt lat="46.74186" lon="-1.71288">
        <ele>36</ele>
        <time>2018-01-08T17:36:08Z</time>
      </trkpt>
      <trkpt lat="46.74188" lon="-1.713">
        <ele>36</ele>
        <time>2018-01-08T17:37:08Z</time>
      </trkpt>
      <trkpt lat="46.74191" lon="-1.71323">
        <ele>36</ele>
        <time>2018-01-08T17:38:08Z</time>
      </trkpt>
      <trkpt lat="46.74192" lon="-1.71335">
        <ele>36</ele>
        <time>2018-01-08T17:39:08Z</time>
      </trkpt>
      <trkpt lat="46.74193" lon="-1.71358">
        <ele>37</ele>
        <time>2018-01-08T17:40:08Z</time>
      </trkpt>
      <trkpt lat="46.74193" lon="-1.7137">
        <ele>37</ele>
        <time>2018-01-08T17:41:08Z</time>
      </trkpt>
      <trkpt lat="46.74193" lon="-1.71383">
        <ele>37</ele>
        <time>2018-01-08T17:42:08Z</time>
      </trkpt>
      <trkpt lat="46.74192" lon="-1.71395">
        <ele>38</ele>
        <time>2018-01-08T17:43:08Z</time>
      </trkpt>
      <trkpt lat="46.74192" lon="-1.71407">
        <ele>38</ele>
        <time>2018-01-08T17:44:08Z</time>
      </trkpt>
      <trkpt lat="46.7419" lon="-1.71446">
        <ele>38</ele>
        <time>2018-01-08T17:45:08Z</time>
      </trkpt>
      <trkpt lat="46.74187" lon="-1.71476">
        <ele>38</ele>
        <time>2018-01-08T17:46:08Z</time>
      </trkpt>
      <trkpt lat="46.74185" lon="-1.715">
        <ele>38</ele>
        <time>2018-01-08T17:47:08Z</time>
      </trkpt>
      <trkpt lat="46.74184" lon="-1.7151">
        <ele>38</ele>
        <time>2018-01-08T17:48:08Z</time>
      </trkpt>
      <trkpt lat="46.74181" lon="-1.71522">
        <ele>39</ele>
        <time>2018-01-08T17:49:08Z</time>
      </trkpt>
      <trkpt lat="46.74177" lon="-1.71544">
        <ele>40</ele>
        <time>2018-01-08T17:50:08Z</time>
      </trkpt>
      <trkpt lat="46.74165" lon="-1.71586">
        <ele>41</ele>
        <time>2018-01-08T17:51:08Z</time>
      </trkpt>
      <trkpt lat="46.74149" lon="-1.71642">
        <ele>42</ele>
        <time>2018-01-08T17:52:08Z</time>
      </trkpt>
      <trkpt lat="46.74141" lon="-1.71678">
        <ele>43</ele>
        <time>2018-01-08T17:53:08Z</time>
      </trkpt>
      <trkpt lat="46.74133" lon="-1.71713">
        <ele>44</ele>
        <time>2018-01-08T17:54:08Z</time>
      </trkpt>
      <trkpt lat="46.7413" lon="-1.71732">
        <ele>44</ele>
        <time>2018-01-08T17:55:08Z</time>
      </trkpt>
      <trkpt lat="46.74127" lon="-1.71753">
        <ele>44</ele>
        <time>2018-01-08T17:56:08Z</time>
      </trkpt>
      <trkpt lat="46.74125" lon="-1.71775">
        <ele>44</ele>
        <time>2018-01-08T17:57:08Z</time>
      </trkpt>
      <trkpt lat="46.74125" lon="-1.7179">
        <ele>44</ele>
        <time>2018-01-08T17:58:08Z</time>
      </trkpt>
      <trkpt lat="46.74123" lon="-1.71812">
        <ele>44</ele>
        <time>2018-01-08T17:59:08Z</time>
      </trkpt>
      <trkpt lat="46.74123" lon="-1.71854">
        <ele>43</ele>
        <time>2018-01-08T18:00:08Z</time>
      </trkpt>
      <trkpt lat="46.74124" lon="-1.71905">
        <ele>42</ele>
        <time>2018-01-08T18:01:08Z</time>
      </trkpt>
      <trkpt lat="46.74124" lon="-1.71945">
        <ele>41</ele>
        <time>2018-01-08T18:02:08Z</time>
      </trkpt>
      <trkpt lat="46.74123" lon="-1.71958">
        <ele>41</ele>
        <time>2018-01-08T18:03:08Z</time>
      </trkpt>
      <trkpt lat="46.74119" lon="-1.72002">
        <ele>41</ele>
        <time>2018-01-08T18:04:08Z</time>
      </trkpt>
      <trkpt lat="46.74115" lon="-1.72035">
        <ele>40</ele>
        <time>2018-01-08T18:05:08Z</time>
      </trkpt>
      <trkpt lat="46.74111" lon="-1.72076">
        <ele>40</ele>
        <time>2018-01-08T18:06:08Z</time>
      </trkpt>
      <trkpt lat="46.74108" lon="-1.72108">
        <ele>40</ele>
        <time>2018-01-08T18:07:08Z</time>
      </trkpt>
      <trkpt lat="46.74103" lon="-1.72152">
        <ele>40</ele>
        <time>2018-01-08T18:08:08Z</time>
      </trkpt>
      <trkpt lat="46.74099" lon="-1.72182">
        <ele>40</ele>
        <time>2018-01-08T18:09:08Z</time>
      </trkpt>
      <trkpt lat="46.74098" lon="-1.72192">
        <ele>40</ele>
        <time>2018-01-08T18:10:08Z</time>
      </trkpt>
      <trkpt lat="46.74095" lon="-1.72215">
        <ele>40</ele>
        <time>2018-01-08T18:11:08Z</time>
      </trkpt>
      <trkpt lat="46.74093" lon="-1.72235">
        <ele>40</ele>
        <time>2018-01-08T18:12:08Z</time>
      </trkpt>
      <trkpt lat="46.74091" lon="-1.72258">
        <ele>40</ele>
        <time>2018-01-08T18:13:08Z</time>
      </trkpt>
      <trkpt lat="46.74087" lon="-1.72323">
        <ele>37</ele>
        <time>2018-01-08T18:14:08Z</time>
      </trkpt>
      <trkpt lat="46.74084" lon="-1.72385">
        <ele>36</ele>
        <time>2018-01-08T18:15:08Z</time>
      </trkpt>
      <trkpt lat="46.74083" lon="-1.724">
        <ele>36</ele>
        <time>2018-01-08T18:16:08Z</time>
      </trkpt>
      <trkpt lat="46.74079" lon="-1.72454">
        <ele>37</ele>
        <time>2018-01-08T18:17:08Z</time>
      </trkpt>
      <trkpt lat="46.74078" lon="-1.72488">
        <ele>38</ele>
        <time>2018-01-08T18:18:08Z</time>
      </trkpt>
      <trkpt lat="46.74076" lon="-1.72548">
        <ele>38</ele>
        <time>2018-01-08T18:19:08Z</time>
      </trkpt>
      <trkpt lat="46.74076" lon="-1.72556">
        <ele>38</ele>
        <time>2018-01-08T18:20:08Z</time>
      </trkpt>
      <trkpt lat="46.74077" lon="-1.72569">
        <ele>38</ele>
        <time>2018-01-08T18:21:08Z</time>
      </trkpt>
      <trkpt lat="46.74079" lon="-1.72583">
        <ele>38</ele>
        <time>2018-01-08T18:22:08Z</time>
      </trkpt>
      <trkpt lat="46.74081" lon="-1.72597">
        <ele>38</ele>
        <time>2018-01-08T18:23:08Z</time>
      </trkpt>
      <trkpt lat="46.74083" lon="-1.72611">
        <ele>38</ele>
        <time>2018-01-08T18:24:08Z</time>
      </trkpt>
      <trkpt lat="46.74086" lon="-1.72627">
        <ele>38</ele>
        <time>2018-01-08T18:25:08Z</time>
      </trkpt>
      <trkpt lat="46.7409" lon="-1.72644">
        <ele>39</ele>
        <time>2018-01-08T18:26:08Z</time>
      </trkpt>
      <trkpt lat="46.74099" lon="-1.72675">
        <ele>39</ele>
        <time>2018-01-08T18:27:08Z</time>
      </trkpt>
      <trkpt lat="46.74108" lon="-1.72711">
        <ele>40</ele>
        <time>2018-01-08T18:28:08Z</time>
      </trkpt>
      <trkpt lat="46.74113" lon="-1.72731">
        <ele>40</ele>
        <time>2018-01-08T18:29:08Z</time>
      </trkpt>
      <trkpt lat="46.74116" lon="-1.72745">
        <ele>41</ele>
        <time>2018-01-08T18:30:08Z</time>
      </trkpt>
      <trkpt lat="46.74119" lon="-1.72759">
        <ele>40</ele>
        <time>2018-01-08T18:31:08Z</time>
      </trkpt>
      <trkpt lat="46.74121" lon="-1.72772">
        <ele>40</ele>
        <time>2018-01-08T18:32:08Z</time>
      </trkpt>
      <trkpt lat="46.74123" lon="-1.72786">
        <ele>40</ele>
        <time>2018-01-08T18:33:08Z</time>
      </trkpt>
      <trkpt lat="46.74124" lon="-1.72802">
        <ele>39</ele>
        <time>2018-01-08T18:34:08Z</time>
      </trkpt>
      <trkpt lat="46.74125" lon="-1.72818">
        <ele>39</ele>
        <time>2018-01-08T18:35:08Z</time>
      </trkpt>
      <trkpt lat="46.74126" lon="-1.72832">
        <ele>38</ele>
        <time>2018-01-08T18:36:08Z</time>
      </trkpt>
      <trkpt lat="46.74125" lon="-1.72849">
        <ele>39</ele>
        <time>2018-01-08T18:37:08Z</time>
      </trkpt>
      <trkpt lat="46.74125" lon="-1.72864">
        <ele>39</ele>
        <time>2018-01-08T18:38:08Z</time>
      </trkpt>
      <trkpt lat="46.74124" lon="-1.72883">
        <ele>39</ele>
        <time>2018-01-08T18:39:08Z</time>
      </trkpt>
      <trkpt lat="46.74119" lon="-1.72943">
        <ele>39</ele>
        <time>2018-01-08T18:40:08Z</time>
      </trkpt>
      <trkpt lat="46.74119" lon="-1.72943">
        <ele>39</ele>
        <time>2018-01-08T18:41:08Z</time>
      </trkpt>
      <trkpt lat="46.74113" lon="-1.7302">
        <ele>40</ele>
        <time>2018-01-08T18:42:08Z</time>
      </trkpt>
      <trkpt lat="46.74109" lon="-1.73066">
        <ele>40</ele>
        <time>2018-01-08T18:43:08Z</time>
      </trkpt>
      <trkpt lat="46.74101" lon="-1.73174">
        <ele>41</ele>
        <time>2018-01-08T18:44:08Z</time>
      </trkpt>
      <trkpt lat="46.74098" lon="-1.73199">
        <ele>41</ele>
        <time>2018-01-08T18:45:08Z</time>
      </trkpt>
      <trkpt lat="46.74093" lon="-1.73264">
        <ele>40</ele>
        <time>2018-01-08T18:46:08Z</time>
      </trkpt>
      <trkpt lat="46.74089" lon="-1.73318">
        <ele>39</ele>
        <time>2018-01-08T18:47:08Z</time>
      </trkpt>
      <trkpt lat="46.74087" lon="-1.73355">
        <ele>39</ele>
        <time>2018-01-08T18:48:08Z</time>
      </trkpt>
      <trkpt lat="46.74086" lon="-1.73379">
        <ele>39</ele>
        <time>2018-01-08T18:49:08Z</time>
      </trkpt>
      <trkpt lat="46.74087" lon="-1.73412">
        <ele>39</ele>
        <time>2018-01-08T18:50:08Z</time>
      </trkpt>
      <trkpt lat="46.74087" lon="-1.73428">
        <ele>39</ele>
        <time>2018-01-08T18:51:08Z</time>
      </trkpt>
      <trkpt lat="46.74089" lon="-1.73446">
        <ele>39</ele>
        <time>2018-01-08T18:52:08Z</time>
      </trkpt>
      <trkpt lat="46.74093" lon="-1.73481">
        <ele>39</ele>
        <time>2018-01-08T18:53:08Z</time>
      </trkpt>
      <trkpt lat="46.74097" lon="-1.73508">
        <ele>39</ele>
        <time>2018-01-08T18:54:08Z</time>
      </trkpt>
      <trkpt lat="46.74101" lon="-1.73526">
        <ele>39</ele>
        <time>2018-01-08T18:55:08Z</time>
      </trkpt>
      <trkpt lat="46.74107" lon="-1.73554">
        <ele>39</ele>
        <time>2018-01-08T18:56:08Z</time>
      </trkpt>
      <trkpt lat="46.74116" lon="-1.73586">
        <ele>39</ele>
        <time>2018-01-08T18:57:08Z</time>
      </trkpt>
      <trkpt lat="46.74129" lon="-1.73637">
        <ele>39</ele>
        <time>2018-01-08T18:58:08Z</time>
      </trkpt>
      <trkpt lat="46.74151" lon="-1.73718">
        <ele>39</ele>
        <time>2018-01-08T18:59:08Z</time>
      </trkpt>
      <trkpt lat="46.74168" lon="-1.73788">
        <ele>38</ele>
        <time>2018-01-08T19:00:08Z</time>
      </trkpt>
      <trkpt lat="46.74177" lon="-1.7382">
        <ele>37</ele>
        <time>2018-01-08T19:01:08Z</time>
      </trkpt>
      <trkpt lat="46.74181" lon="-1.73833">
        <ele>37</ele>
        <time>2018-01-08T19:02:08Z</time>
      </trkpt>
      <trkpt lat="46.74185" lon="-1.73845">
        <ele>37</ele>
        <time>2018-01-08T19:03:08Z</time>
      </trkpt>
      <trkpt lat="46.74191" lon="-1.73859">
        <ele>37</ele>
        <time>2018-01-08T19:04:08Z</time>
      </trkpt>
      <trkpt lat="46.74198" lon="-1.73873">
        <ele>37</ele>
        <time>2018-01-08T19:05:08Z</time>
      </trkpt>
      <trkpt lat="46.74209" lon="-1.73891">
        <ele>36</ele>
        <time>2018-01-08T19:06:08Z</time>
      </trkpt>
      <trkpt lat="46.74229" lon="-1.73918">
        <ele>36</ele>
        <time>2018-01-08T19:07:08Z</time>
      </trkpt>
      <trkpt lat="46.74239" lon="-1.7393">
        <ele>36</ele>
        <time>2018-01-08T19:08:08Z</time>
      </trkpt>
      <trkpt lat="46.74251" lon="-1.73942">
        <ele>36</ele>
        <time>2018-01-08T19:09:08Z</time>
      </trkpt>
      <trkpt lat="46.7426" lon="-1.73952">
        <ele>35</ele>
        <time>2018-01-08T19:10:08Z</time>
      </trkpt>
      <trkpt lat="46.7427" lon="-1.73961">
        <ele>35</ele>
        <time>2018-01-08T19:11:08Z</time>
      </trkpt>
      <trkpt lat="46.74278" lon="-1.73968">
        <ele>35</ele>
        <time>2018-01-08T19:12:08Z</time>
      </trkpt>
      <trkpt lat="46.74285" lon="-1.73974">
        <ele>35</ele>
        <time>2018-01-08T19:13:08Z</time>
      </trkpt>
      <trkpt lat="46.74293" lon="-1.73979">
        <ele>35</ele>
        <time>2018-01-08T19:14:08Z</time>
      </trkpt>
      <trkpt lat="46.74316" lon="-1.73994">
        <ele>34</ele>
        <time>2018-01-08T19:15:08Z</time>
      </trkpt>
      <trkpt lat="46.7434" lon="-1.74009">
        <ele>34</ele>
        <time>2018-01-08T19:16:08Z</time>
      </trkpt>
      <trkpt lat="46.74373" lon="-1.74031">
        <ele>33</ele>
        <time>2018-01-08T19:17:08Z</time>
      </trkpt>
      <trkpt lat="46.74399" lon="-1.7405">
        <ele>33</ele>
        <time>2018-01-08T19:18:08Z</time>
      </trkpt>
      <trkpt lat="46.74437" lon="-1.74078">
        <ele>32</ele>
        <time>2018-01-08T19:19:08Z</time>
      </trkpt>
      <trkpt lat="46.74437" lon="-1.74078">
        <ele>32</ele>
        <time>2018-01-08T19:20:08Z</time>
      </trkpt>
      <trkpt lat="46.74474" lon="-1.74106">
        <ele>31</ele>
        <time>2018-01-08T19:21:08Z</time>
      </trkpt>
      <trkpt lat="46.7449" lon="-1.74118">
        <ele>30</ele>
        <time>2018-01-08T19:22:08Z</time>
      </trkpt>
      <trkpt lat="46.7453" lon="-1.74145">
        <ele>28</ele>
        <time>2018-01-08T19:23:08Z</time>
      </trkpt>
      <trkpt lat="46.7454" lon="-1.74152">
        <ele>27</ele>
        <time>2018-01-08T19:24:08Z</time>
      </trkpt>
      <trkpt lat="46.74554" lon="-1.74161">
        <ele>26</ele>
        <time>2018-01-08T19:25:08Z</time>
      </trkpt>
      <trkpt lat="46.7456" lon="-1.74165">
        <ele>26</ele>
        <time>2018-01-08T19:26:08Z</time>
      </trkpt>
      <trkpt lat="46.74566" lon="-1.74168">
        <ele>26</ele>
        <time>2018-01-08T19:27:08Z</time>
      </trkpt>
      <trkpt lat="46.74571" lon="-1.7417">
        <ele>25</ele>
        <time>2018-01-08T19:28:08Z</time>
      </trkpt>
      <trkpt lat="46.74583" lon="-1.74173">
        <ele>25</ele>
        <time>2018-01-08T19:29:08Z</time>
      </trkpt>
      <trkpt lat="46.74599" lon="-1.74178">
        <ele>23</ele>
        <time>2018-01-08T19:30:08Z</time>
      </trkpt>
      <trkpt lat="46.74618" lon="-1.74186">
        <ele>22</ele>
        <time>2018-01-08T19:31:08Z</time>
      </trkpt>
      <trkpt lat="46.7463" lon="-1.7419">
        <ele>21</ele>
        <time>2018-01-08T19:32:08Z</time>
      </trkpt>
      <trkpt lat="46.7464" lon="-1.74193">
        <ele>20</ele>
        <time>2018-01-08T19:33:08Z</time>
      </trkpt>
      <trkpt lat="46.74659" lon="-1.74197">
        <ele>19</ele>
        <time>2018-01-08T19:34:08Z</time>
      </trkpt>
      <trkpt lat="46.74673" lon="-1.74199">
        <ele>18</ele>
        <time>2018-01-08T19:35:08Z</time>
      </trkpt>
      <trkpt lat="46.74685" lon="-1.742">
        <ele>17</ele>
        <time>2018-01-08T19:36:08Z</time>
      </trkpt>
      <trkpt lat="46.7469" lon="-1.74198">
        <ele>17</ele>
        <time>2018-01-08T19:37:08Z</time>
      </trkpt>
      <trkpt lat="46.74694" lon="-1.74197">
        <ele>16</ele>
        <time>2018-01-08T19:38:08Z</time>
      </trkpt>
      <trkpt lat="46.74704" lon="-1.74192">
        <ele>15</ele>
        <time>2018-01-08T19:39:08Z</time>
      </trkpt>
      <trkpt lat="46.74718" lon="-1.74185">
        <ele>14</ele>
        <time>2018-01-08T19:40:08Z</time>
      </trkpt>
      <trkpt lat="46.74729" lon="-1.74181">
        <ele>13</ele>
        <time>2018-01-08T19:41:08Z</time>
      </trkpt>
      <trkpt lat="46.74729" lon="-1.74181">
        <ele>13</ele>
        <time>2018-01-08T19:42:08Z</time>
      </trkpt>
      <trkpt lat="46.74732" lon="-1.74188">
        <ele>13</ele>
        <time>2018-01-08T19:43:08Z</time>
      </trkpt>
      <trkpt lat="46.74734" lon="-1.74192">
        <ele>13</ele>
        <time>2018-01-08T19:44:08Z</time>
      </trkpt>
      <trkpt lat="46.74736" lon="-1.74196">
        <ele>13</ele>
        <time>2018-01-08T19:45:08Z</time>
      </trkpt>
      <trkpt lat="46.74738" lon="-1.74205">
        <ele>13</ele>
        <time>2018-01-08T19:46:08Z</time>
      </trkpt>
      <trkpt lat="46.7474" lon="-1.74216">
        <ele>13</ele>
        <time>2018-01-08T19:47:08Z</time>
      </trkpt>
      <trkpt lat="46.74741" lon="-1.74229">
        <ele>14</ele>
        <time>2018-01-08T19:48:08Z</time>
      </trkpt>
      <trkpt lat="46.74742" lon="-1.74239">
        <ele>14</ele>
        <time>2018-01-08T19:49:08Z</time>
      </trkpt>
      <trkpt lat="46.74741" lon="-1.74282">
        <ele>14</ele>
        <time>2018-01-08T19:50:08Z</time>
      </trkpt>
      <trkpt lat="46.7474" lon="-1.743">
        <ele>14</ele>
        <time>2018-01-08T19:51:08Z</time>
      </trkpt>
      <trkpt lat="46.74739" lon="-1.74314">
        <ele>14</ele>
        <time>2018-01-08T19:52:08Z</time>
      </trkpt>
      <trkpt lat="46.74738" lon="-1.74327">
        <ele>14</ele>
        <time>2018-01-08T19:53:08Z</time>
      </trkpt>
      <trkpt lat="46.74735" lon="-1.74347">
        <ele>15</ele>
        <time>2018-01-08T19:54:08Z</time>
      </trkpt>
      <trkpt lat="46.74732" lon="-1.74359">
        <ele>16</ele>
        <time>2018-01-08T19:55:08Z</time>
      </trkpt>
      <trkpt lat="46.74729" lon="-1.74372">
        <ele>16</ele>
        <time>2018-01-08T19:56:08Z</time>
      </trkpt>
      <trkpt lat="46.74724" lon="-1.74388">
        <ele>17</ele>
        <time>2018-01-08T19:57:08Z</time>
      </trkpt>
      <trkpt lat="46.74719" lon="-1.74402">
        <ele>17</ele>
        <time>2018-01-08T19:58:08Z</time>
      </trkpt>
      <trkpt lat="46.74715" lon="-1.74412">
        <ele>17</ele>
        <time>2018-01-08T19:59:08Z</time>
      </trkpt>
      <trkpt lat="46.74707" lon="-1.74428">
        <ele>18</ele>
        <time>2018-01-08T20:00:08Z</time>
      </trkpt>
      <trkpt lat="46.74699" lon="-1.74442">
        <ele>18</ele>
        <time>2018-01-08T20:01:08Z</time>
      </trkpt>
      <trkpt lat="46.74688" lon="-1.74462">
        <ele>19</ele>
        <time>2018-01-08T20:02:08Z</time>
      </trkpt>
      <trkpt lat="46.74667" lon="-1.74493">
        <ele>20</ele>
        <time>2018-01-08T20:03:08Z</time>
      </trkpt>
      <trkpt lat="46.74631" lon="-1.74544">
        <ele>21</ele>
        <time>2018-01-08T20:04:08Z</time>
      </trkpt>
      <trkpt lat="46.74617" lon="-1.74563">
        <ele>22</ele>
        <time>2018-01-08T20:05:08Z</time>
      </trkpt>
      <trkpt lat="46.74606" lon="-1.74576">
        <ele>23</ele>
        <time>2018-01-08T20:06:08Z</time>
      </trkpt>
      <trkpt lat="46.74603" lon="-1.74581">
        <ele>24</ele>
        <time>2018-01-08T20:07:08Z</time>
      </trkpt>
      <trkpt lat="46.74597" lon="-1.74586">
        <ele>24</ele>
        <time>2018-01-08T20:08:08Z</time>
      </trkpt>
      <trkpt lat="46.74597" lon="-1.74586">
        <ele>24</ele>
        <time>2018-01-08T20:09:08Z</time>
      </trkpt>
      <trkpt lat="46.74599" lon="-1.74596">
        <ele>24</ele>
        <time>2018-01-08T20:10:08Z</time>
      </trkpt>
      <trkpt lat="46.746" lon="-1.74603">
        <ele>24</ele>
        <time>2018-01-08T20:11:08Z</time>
      </trkpt>
      <trkpt lat="46.74603" lon="-1.74617">
        <ele>24</ele>
        <time>2018-01-08T20:12:08Z</time>
      </trkpt>
      <trkpt lat="46.74607" lon="-1.74642">
        <ele>25</ele>
        <time>2018-01-08T20:13:08Z</time>
      </trkpt>
      <trkpt lat="46.74611" lon="-1.74666">
        <ele>25</ele>
        <time>2018-01-08T20:14:08Z</time>
      </trkpt>
      <trkpt lat="46.74617" lon="-1.74692">
        <ele>25</ele>
        <time>2018-01-08T20:15:08Z</time>
      </trkpt>
      <trkpt lat="46.74622" lon="-1.74719">
        <ele>25</ele>
        <time>2018-01-08T20:16:08Z</time>
      </trkpt>
      <trkpt lat="46.74631" lon="-1.74766">
        <ele>25</ele>
        <time>2018-01-08T20:17:08Z</time>
      </trkpt>
      <trkpt lat="46.74637" lon="-1.74797">
        <ele>25</ele>
        <time>2018-01-08T20:18:08Z</time>
      </trkpt>
      <trkpt lat="46.74642" lon="-1.74826">
        <ele>25</ele>
        <time>2018-01-08T20:19:08Z</time>
      </trkpt>
      <trkpt lat="46.74647" lon="-1.74852">
        <ele>24</ele>
        <time>2018-01-08T20:20:08Z</time>
      </trkpt>
      <trkpt lat="46.74649" lon="-1.74874">
        <ele>23</ele>
        <time>2018-01-08T20:21:08Z</time>
      </trkpt>
      <trkpt lat="46.7465" lon="-1.74887">
        <ele>23</ele>
        <time>2018-01-08T20:22:08Z</time>
      </trkpt>
      <trkpt lat="46.7465" lon="-1.749">
        <ele>23</ele>
        <time>2018-01-08T20:23:08Z</time>
      </trkpt>
      <trkpt lat="46.74651" lon="-1.74914">
        <ele>22</ele>
        <time>2018-01-08T20:24:08Z</time>
      </trkpt>
      <trkpt lat="46.74651" lon="-1.74928">
        <ele>22</ele>
        <time>2018-01-08T20:25:08Z</time>
      </trkpt>
      <trkpt lat="46.7465" lon="-1.74942">
        <ele>22</ele>
        <time>2018-01-08T20:26:08Z</time>
      </trkpt>
      <trkpt lat="46.74649" lon="-1.74956">
        <ele>23</ele>
        <time>2018-01-08T20:27:08Z</time>
      </trkpt>
      <trkpt lat="46.74648" lon="-1.7497">
        <ele>23</ele>
        <time>2018-01-08T20:28:08Z</time>
      </trkpt>
      <trkpt lat="46.74647" lon="-1.74984">
        <ele>23</ele>
        <time>2018-01-08T20:29:08Z</time>
      </trkpt>
      <trkpt lat="46.74645" lon="-1.74999">
        <ele>23</ele>
        <time>2018-01-08T20:30:08Z</time>
      </trkpt>
      <trkpt lat="46.74643" lon="-1.75013">
        <ele>23</ele>
        <time>2018-01-08T20:31:08Z</time>
      </trkpt>
      <trkpt lat="46.7464" lon="-1.75028">
        <ele>24</ele>
        <time>2018-01-08T20:32:08Z</time>
      </trkpt>
      <trkpt lat="46.74635" lon="-1.75056">
        <ele>25</ele>
        <time>2018-01-08T20:33:08Z</time>
      </trkpt>
      <trkpt lat="46.74628" lon="-1.751">
        <ele>26</ele>
        <time>2018-01-08T20:34:08Z</time>
      </trkpt>
      <trkpt lat="46.74618" lon="-1.75155">
        <ele>26</ele>
        <time>2018-01-08T20:35:08Z</time>
      </trkpt>
      <trkpt lat="46.74608" lon="-1.75205">
        <ele>25</ele>
        <time>2018-01-08T20:36:08Z</time>
      </trkpt>
      <trkpt lat="46.74601" lon="-1.75236">
        <ele>24</ele>
        <time>2018-01-08T20:37:08Z</time>
      </trkpt>
      <trkpt lat="46.74594" lon="-1.75262">
        <ele>24</ele>
        <time>2018-01-08T20:38:08Z</time>
      </trkpt>
      <trkpt lat="46.7459" lon="-1.75279">
        <ele>24</ele>
        <time>2018-01-08T20:39:08Z</time>
      </trkpt>
      <trkpt lat="46.74585" lon="-1.75294">
        <ele>24</ele>
        <time>2018-01-08T20:40:08Z</time>
      </trkpt>
      <trkpt lat="46.74578" lon="-1.75313">
        <ele>24</ele>
        <time>2018-01-08T20:41:08Z</time>
      </trkpt>
      <trkpt lat="46.74569" lon="-1.75336">
        <ele>24</ele>
        <time>2018-01-08T20:42:08Z</time>
      </trkpt>
      <trkpt lat="46.74557" lon="-1.75364">
        <ele>24</ele>
        <time>2018-01-08T20:43:08Z</time>
      </trkpt>
      <trkpt lat="46.74531" lon="-1.75427">
        <ele>23</ele>
        <time>2018-01-08T20:44:08Z</time>
      </trkpt>
      <trkpt lat="46.74503" lon="-1.75493">
        <ele>23</ele>
        <time>2018-01-08T20:45:08Z</time>
      </trkpt>
      <trkpt lat="46.74458" lon="-1.756">
        <ele>20</ele>
        <time>2018-01-08T20:46:08Z</time>
      </trkpt>
      <trkpt lat="46.74438" lon="-1.75646">
        <ele>21</ele>
        <time>2018-01-08T20:47:08Z</time>
      </trkpt>
      <trkpt lat="46.74421" lon="-1.75687">
        <ele>20</ele>
        <time>2018-01-08T20:48:08Z</time>
      </trkpt>
      <trkpt lat="46.74404" lon="-1.75728">
        <ele>20</ele>
        <time>2018-01-08T20:49:08Z</time>
      </trkpt>
      <trkpt lat="46.74383" lon="-1.75777">
        <ele>20</ele>
        <time>2018-01-08T20:50:08Z</time>
      </trkpt>
      <trkpt lat="46.74359" lon="-1.75834">
        <ele>20</ele>
        <time>2018-01-08T20:51:08Z</time>
      </trkpt>
      <trkpt lat="46.74316" lon="-1.7594">
        <ele>20</ele>
        <time>2018-01-08T20:52:08Z</time>
      </trkpt>
      <trkpt lat="46.74294" lon="-1.75991">
        <ele>21</ele>
        <time>2018-01-08T20:53:08Z</time>
      </trkpt>
      <trkpt lat="46.74284" lon="-1.76017">
        <ele>20</ele>
        <time>2018-01-08T20:54:08Z</time>
      </trkpt>
      <trkpt lat="46.74273" lon="-1.7604">
        <ele>20</ele>
        <time>2018-01-08T20:55:08Z</time>
      </trkpt>
      <trkpt lat="46.74262" lon="-1.76064">
        <ele>21</ele>
        <time>2018-01-08T20:56:08Z</time>
      </trkpt>
      <trkpt lat="46.7425" lon="-1.76087">
        <ele>21</ele>
        <time>2018-01-08T20:57:08Z</time>
      </trkpt>
      <trkpt lat="46.74237" lon="-1.7611">
        <ele>21</ele>
        <time>2018-01-08T20:58:08Z</time>
      </trkpt>
      <trkpt lat="46.74218" lon="-1.76144">
        <ele>21</ele>
        <time>2018-01-08T20:59:08Z</time>
      </trkpt>
      <trkpt lat="46.74198" lon="-1.76178">
        <ele>22</ele>
        <time>2018-01-08T21:00:08Z</time>
      </trkpt>
      <trkpt lat="46.7418" lon="-1.76211">
        <ele>23</ele>
        <time>2018-01-08T21:01:08Z</time>
      </trkpt>
      <trkpt lat="46.74169" lon="-1.76234">
        <ele>24</ele>
        <time>2018-01-08T21:02:08Z</time>
      </trkpt>
      <trkpt lat="46.74165" lon="-1.76245">
        <ele>24</ele>
        <time>2018-01-08T21:03:08Z</time>
      </trkpt>
      <trkpt lat="46.7416" lon="-1.76258">
        <ele>24</ele>
        <time>2018-01-08T21:04:08Z</time>
      </trkpt>
      <trkpt lat="46.74156" lon="-1.76271">
        <ele>23</ele>
        <time>2018-01-08T21:05:08Z</time>
      </trkpt>
      <trkpt lat="46.74152" lon="-1.76284">
        <ele>23</ele>
        <time>2018-01-08T21:06:08Z</time>
      </trkpt>
      <trkpt lat="46.74149" lon="-1.76298">
        <ele>23</ele>
        <time>2018-01-08T21:07:08Z</time>
      </trkpt>
      <trkpt lat="46.74146" lon="-1.7631">
        <ele>22</ele>
        <time>2018-01-08T21:08:08Z</time>
      </trkpt>
      <trkpt lat="46.74145" lon="-1.76325">
        <ele>22</ele>
        <time>2018-01-08T21:09:08Z</time>
      </trkpt>
      <trkpt lat="46.74143" lon="-1.76338">
        <ele>21</ele>
        <time>2018-01-08T21:10:08Z</time>
      </trkpt>
      <trkpt lat="46.74141" lon="-1.76353">
        <ele>21</ele>
        <time>2018-01-08T21:11:08Z</time>
      </trkpt>
      <trkpt lat="46.74141" lon="-1.7637">
        <ele>21</ele>
        <time>2018-01-08T21:12:08Z</time>
      </trkpt>
      <trkpt lat="46.7414" lon="-1.76389">
        <ele>20</ele>
        <time>2018-01-08T21:13:08Z</time>
      </trkpt>
      <trkpt lat="46.74139" lon="-1.76446">
        <ele>19</ele>
        <time>2018-01-08T21:14:08Z</time>
      </trkpt>
      <trkpt lat="46.74138" lon="-1.76554">
        <ele>16</ele>
        <time>2018-01-08T21:15:08Z</time>
      </trkpt>
      <trkpt lat="46.74139" lon="-1.76638">
        <ele>14</ele>
        <time>2018-01-08T21:16:08Z</time>
      </trkpt>
      <trkpt lat="46.74139" lon="-1.76723">
        <ele>11</ele>
        <time>2018-01-08T21:17:08Z</time>
      </trkpt>
      <trkpt lat="46.74139" lon="-1.76768">
        <ele>10</ele>
        <time>2018-01-08T21:18:08Z</time>
      </trkpt>
      <trkpt lat="46.74139" lon="-1.76776">
        <ele>11</ele>
        <time>2018-01-08T21:19:08Z</time>
      </trkpt>
      <trkpt lat="46.74139" lon="-1.76781">
        <ele>11</ele>
        <time>2018-01-08T21:20:08Z</time>
      </trkpt>
      <trkpt lat="46.7414" lon="-1.76889">
        <ele>11</ele>
        <time>2018-01-08T21:21:08Z</time>
      </trkpt>
      <trkpt lat="46.7414" lon="-1.76915">
        <ele>11</ele>
        <time>2018-01-08T21:22:08Z</time>
      </trkpt>
      <trkpt lat="46.74139" lon="-1.76937">
        <ele>11</ele>
        <time>2018-01-08T21:23:08Z</time>
      </trkpt>
      <trkpt lat="46.74138" lon="-1.76955">
        <ele>10</ele>
        <time>2018-01-08T21:24:08Z</time>
      </trkpt>
      <trkpt lat="46.74136" lon="-1.76968">
        <ele>10</ele>
        <time>2018-01-08T21:25:08Z</time>
      </trkpt>
      <trkpt lat="46.74135" lon="-1.76981">
        <ele>10</ele>
        <time>2018-01-08T21:26:08Z</time>
      </trkpt>
      <trkpt lat="46.74132" lon="-1.76994">
        <ele>10</ele>
        <time>2018-01-08T21:27:08Z</time>
      </trkpt>
      <trkpt lat="46.74129" lon="-1.77007">
        <ele>10</ele>
        <time>2018-01-08T21:28:08Z</time>
      </trkpt>
      <trkpt lat="46.74122" lon="-1.77035">
        <ele>11</ele>
        <time>2018-01-08T21:29:08Z</time>
      </trkpt>
      <trkpt lat="46.74112" lon="-1.77067">
        <ele>12</ele>
        <time>2018-01-08T21:30:08Z</time>
      </trkpt>
      <trkpt lat="46.74097" lon="-1.77112">
        <ele>14</ele>
        <time>2018-01-08T21:31:08Z</time>
      </trkpt>
      <trkpt lat="46.74079" lon="-1.77166">
        <ele>15</ele>
        <time>2018-01-08T21:32:08Z</time>
      </trkpt>
      <trkpt lat="46.74058" lon="-1.77229">
        <ele>16</ele>
        <time>2018-01-08T21:33:08Z</time>
      </trkpt>
      <trkpt lat="46.74042" lon="-1.77279">
        <ele>16</ele>
        <time>2018-01-08T21:34:08Z</time>
      </trkpt>
      <trkpt lat="46.74017" lon="-1.77356">
        <ele>16</ele>
        <time>2018-01-08T21:35:08Z</time>
      </trkpt>
      <trkpt lat="46.73998" lon="-1.77414">
        <ele>16</ele>
        <time>2018-01-08T21:36:08Z</time>
      </trkpt>
      <trkpt lat="46.7399" lon="-1.77443">
        <ele>16</ele>
        <time>2018-01-08T21:37:08Z</time>
      </trkpt>
      <trkpt lat="46.73986" lon="-1.77462">
        <ele>16</ele>
        <time>2018-01-08T21:38:08Z</time>
      </trkpt>
      <trkpt lat="46.73982" lon="-1.7748">
        <ele>17</ele>
        <time>2018-01-08T21:39:08Z</time>
      </trkpt>
      <trkpt lat="46.7398" lon="-1.77497">
        <ele>17</ele>
        <time>2018-01-08T21:40:08Z</time>
      </trkpt>
      <trkpt lat="46.73977" lon="-1.77528">
        <ele>17</ele>
        <time>2018-01-08T21:41:08Z</time>
      </trkpt>
      <trkpt lat="46.73975" lon="-1.77559">
        <ele>16</ele>
        <time>2018-01-08T21:42:08Z</time>
      </trkpt>
      <trkpt lat="46.73967" lon="-1.77662">
        <ele>16</ele>
        <time>2018-01-08T21:43:08Z</time>
      </trkpt>
      <trkpt lat="46.73965" lon="-1.77681">
        <ele>16</ele>
        <time>2018-01-08T21:44:08Z</time>
      </trkpt>
      <trkpt lat="46.73961" lon="-1.77735">
        <ele>16</ele>
        <time>2018-01-08T21:45:08Z</time>
      </trkpt>
      <trkpt lat="46.73959" lon="-1.77764">
        <ele>16</ele>
        <time>2018-01-08T21:46:08Z</time>
      </trkpt>
      <trkpt lat="46.73954" lon="-1.77822">
        <ele>17</ele>
        <time>2018-01-08T21:47:08Z</time>
      </trkpt>
      <trkpt lat="46.7395" lon="-1.77883">
        <ele>19</ele>
        <time>2018-01-08T21:48:08Z</time>
      </trkpt>
      <trkpt lat="46.73944" lon="-1.77959">
        <ele>20</ele>
        <time>2018-01-08T21:49:08Z</time>
      </trkpt>
      <trkpt lat="46.73939" lon="-1.78038">
        <ele>20</ele>
        <time>2018-01-08T21:50:08Z</time>
      </trkpt>
      <trkpt lat="46.73938" lon="-1.78043">
        <ele>20</ele>
        <time>2018-01-08T21:51:08Z</time>
      </trkpt>
      <trkpt lat="46.73934" lon="-1.78092">
        <ele>20</ele>
        <time>2018-01-08T21:52:08Z</time>
      </trkpt>
      <trkpt lat="46.73933" lon="-1.78105">
        <ele>20</ele>
        <time>2018-01-08T21:53:08Z</time>
      </trkpt>
      <trkpt lat="46.73932" lon="-1.78123">
        <ele>20</ele>
        <time>2018-01-08T21:54:08Z</time>
      </trkpt>
      <trkpt lat="46.73928" lon="-1.78144">
        <ele>20</ele>
        <time>2018-01-08T21:55:08Z</time>
      </trkpt>
      <trkpt lat="46.73925" lon="-1.78164">
        <ele>20</ele>
        <time>2018-01-08T21:56:08Z</time>
      </trkpt>
      <trkpt lat="46.73921" lon="-1.78185">
        <ele>20</ele>
        <time>2018-01-08T21:57:08Z</time>
      </trkpt>
      <trkpt lat="46.73905" lon="-1.78253">
        <ele>20</ele>
        <time>2018-01-08T21:58:08Z</time>
      </trkpt>
      <trkpt lat="46.73895" lon="-1.78298">
        <ele>20</ele>
        <time>2018-01-08T21:59:08Z</time>
      </trkpt>
      <trkpt lat="46.73893" lon="-1.78302">
        <ele>20</ele>
        <time>2018-01-08T22:00:08Z</time>
      </trkpt>
      <trkpt lat="46.73892" lon="-1.78308">
        <ele>20</ele>
        <time>2018-01-08T22:01:08Z</time>
      </trkpt>
      <trkpt lat="46.73884" lon="-1.78341">
        <ele>20</ele>
        <time>2018-01-08T22:02:08Z</time>
      </trkpt>
      <trkpt lat="46.73877" lon="-1.78375">
        <ele>19</ele>
        <time>2018-01-08T22:03:08Z</time>
      </trkpt>
      <trkpt lat="46.73871" lon="-1.78402">
        <ele>17</ele>
        <time>2018-01-08T22:04:08Z</time>
      </trkpt>
      <trkpt lat="46.73869" lon="-1.78415">
        <ele>17</ele>
        <time>2018-01-08T22:05:08Z</time>
      </trkpt>
      <trkpt lat="46.73868" lon="-1.78423">
        <ele>16</ele>
        <time>2018-01-08T22:06:08Z</time>
      </trkpt>
      <trkpt lat="46.73867" lon="-1.78435">
        <ele>16</ele>
        <time>2018-01-08T22:07:08Z</time>
      </trkpt>
      <trkpt lat="46.73866" lon="-1.7845">
        <ele>16</ele>
        <time>2018-01-08T22:08:08Z</time>
      </trkpt>
      <trkpt lat="46.73866" lon="-1.78465">
        <ele>15</ele>
        <time>2018-01-08T22:09:08Z</time>
      </trkpt>
      <trkpt lat="46.73866" lon="-1.7848">
        <ele>15</ele>
        <time>2018-01-08T22:10:08Z</time>
      </trkpt>
      <trkpt lat="46.73866" lon="-1.78483">
        <ele>15</ele>
        <time>2018-01-08T22:11:08Z</time>
      </trkpt>
      <trkpt lat="46.73868" lon="-1.78495">
        <ele>14</ele>
        <time>2018-01-08T22:12:08Z</time>
      </trkpt>
      <trkpt lat="46.73868" lon="-1.78503">
        <ele>14</ele>
        <time>2018-01-08T22:13:08Z</time>
      </trkpt>
      <trkpt lat="46.7387" lon="-1.78512">
        <ele>14</ele>
        <time>2018-01-08T22:14:08Z</time>
      </trkpt>
      <trkpt lat="46.73872" lon="-1.78526">
        <ele>15</ele>
        <time>2018-01-08T22:15:08Z</time>
      </trkpt>
      <trkpt lat="46.73875" lon="-1.7854">
        <ele>15</ele>
        <time>2018-01-08T22:16:08Z</time>
      </trkpt>
      <trkpt lat="46.73879" lon="-1.78557">
        <ele>15</ele>
        <time>2018-01-08T22:17:08Z</time>
      </trkpt>
      <trkpt lat="46.73884" lon="-1.78572">
        <ele>15</ele>
        <time>2018-01-08T22:18:08Z</time>
      </trkpt>
      <trkpt lat="46.73886" lon="-1.78579">
        <ele>15</ele>
        <time>2018-01-08T22:19:08Z</time>
      </trkpt>
      <trkpt lat="46.7389" lon="-1.78591">
        <ele>15</ele>
        <time>2018-01-08T22:20:08Z</time>
      </trkpt>
      <trkpt lat="46.73895" lon="-1.78603">
        <ele>15</ele>
        <time>2018-01-08T22:21:08Z</time>
      </trkpt>
      <trkpt lat="46.73898" lon="-1.7861">
        <ele>15</ele>
        <time>2018-01-08T22:22:08Z</time>
      </trkpt>
      <trkpt lat="46.73901" lon="-1.78617">
        <ele>15</ele>
        <time>2018-01-08T22:23:08Z</time>
      </trkpt>
      <trkpt lat="46.73911" lon="-1.78638">
        <ele>15</ele>
        <time>2018-01-08T22:24:08Z</time>
      </trkpt>
      <trkpt lat="46.73922" lon="-1.78659">
        <ele>15</ele>
        <time>2018-01-08T22:25:08Z</time>
      </trkpt>
      <trkpt lat="46.73933" lon="-1.78681">
        <ele>15</ele>
        <time>2018-01-08T22:26:08Z</time>
      </trkpt>
      <trkpt lat="46.73937" lon="-1.7869">
        <ele>15</ele>
        <time>2018-01-08T22:27:08Z</time>
      </trkpt>
      <trkpt lat="46.7394" lon="-1.787">
        <ele>15</ele>
        <time>2018-01-08T22:28:08Z</time>
      </trkpt>
      <trkpt lat="46.73941" lon="-1.78708">
        <ele>15</ele>
        <time>2018-01-08T22:29:08Z</time>
      </trkpt>
      <trkpt lat="46.73942" lon="-1.78713">
        <ele>15</ele>
        <time>2018-01-08T22:30:08Z</time>
      </trkpt>
      <trkpt lat="46.73943" lon="-1.78717">
        <ele>15</ele>
        <time>2018-01-08T22:31:08Z</time>
      </trkpt>
      <trkpt lat="46.73944" lon="-1.78725">
        <ele>15</ele>
        <time>2018-01-08T22:32:08Z</time>
      </trkpt>
      <trkpt lat="46.73946" lon="-1.78733">
        <ele>15</ele>
        <time>2018-01-08T22:33:08Z</time>
      </trkpt>
      <trkpt lat="46.73949" lon="-1.78739">
        <ele>15</ele>
        <time>2018-01-08T22:34:08Z</time>
      </trkpt>
      <trkpt lat="46.73951" lon="-1.78746">
        <ele>15</ele>
        <time>2018-01-08T22:35:08Z</time>
      </trkpt>
      <trkpt lat="46.73955" lon="-1.78753">
        <ele>15</ele>
        <time>2018-01-08T22:36:08Z</time>
      </trkpt>
      <trkpt lat="46.73959" lon="-1.78761">
        <ele>16</ele>
        <time>2018-01-08T22:37:08Z</time>
      </trkpt>
      <trkpt lat="46.73965" lon="-1.7877">
        <ele>16</ele>
        <time>2018-01-08T22:38:08Z</time>
      </trkpt>
      <trkpt lat="46.7397" lon="-1.78781">
        <ele>16</ele>
        <time>2018-01-08T22:39:08Z</time>
      </trkpt>
      <trkpt lat="46.73985" lon="-1.78809">
        <ele>17</ele>
        <time>2018-01-08T22:40:08Z</time>
      </trkpt>
      <trkpt lat="46.73986" lon="-1.78812">
        <ele>17</ele>
        <time>2018-01-08T22:41:08Z</time>
      </trkpt>
      <trkpt lat="46.73998" lon="-1.78838">
        <ele>18</ele>
        <time>2018-01-08T22:42:08Z</time>
      </trkpt>
      <trkpt lat="46.7401" lon="-1.78872">
        <ele>19</ele>
        <time>2018-01-08T22:43:08Z</time>
      </trkpt>
      <trkpt lat="46.74022" lon="-1.78919">
        <ele>21</ele>
        <time>2018-01-08T22:44:08Z</time>
      </trkpt>
      <trkpt lat="46.74027" lon="-1.78946">
        <ele>21</ele>
        <time>2018-01-08T22:45:08Z</time>
      </trkpt>
      <trkpt lat="46.74029" lon="-1.78959">
        <ele>22</ele>
        <time>2018-01-08T22:46:08Z</time>
      </trkpt>
      <trkpt lat="46.74029" lon="-1.78974">
        <ele>22</ele>
        <time>2018-01-08T22:47:08Z</time>
      </trkpt>
      <trkpt lat="46.7403" lon="-1.78986">
        <ele>22</ele>
        <time>2018-01-08T22:48:08Z</time>
      </trkpt>
      <trkpt lat="46.74029" lon="-1.79017">
        <ele>22</ele>
        <time>2018-01-08T22:49:08Z</time>
      </trkpt>
      <trkpt lat="46.74029" lon="-1.7905">
        <ele>23</ele>
        <time>2018-01-08T22:50:08Z</time>
      </trkpt>
      <trkpt lat="46.74026" lon="-1.79105">
        <ele>23</ele>
        <time>2018-01-08T22:51:08Z</time>
      </trkpt>
      <trkpt lat="46.74026" lon="-1.79136">
        <ele>23</ele>
        <time>2018-01-08T22:52:08Z</time>
      </trkpt>
      <trkpt lat="46.74024" lon="-1.79156">
        <ele>23</ele>
        <time>2018-01-08T22:53:08Z</time>
      </trkpt>
      <trkpt lat="46.74023" lon="-1.79161">
        <ele>23</ele>
        <time>2018-01-08T22:54:08Z</time>
      </trkpt>
      <trkpt lat="46.74022" lon="-1.79166">
        <ele>23</ele>
        <time>2018-01-08T22:55:08Z</time>
      </trkpt>
      <trkpt lat="46.74021" lon="-1.79176">
        <ele>23</ele>
        <time>2018-01-08T22:56:08Z</time>
      </trkpt>
      <trkpt lat="46.74021" lon="-1.79176">
        <ele>23</ele>
        <time>2018-01-08T22:57:08Z</time>
      </trkpt>
      <trkpt lat="46.74001" lon="-1.7917">
        <ele>23</ele>
        <time>2018-01-08T22:58:08Z</time>
      </trkpt>
      <trkpt lat="46.73988" lon="-1.79165">
        <ele>23</ele>
        <time>2018-01-08T22:59:08Z</time>
      </trkpt>
      <trkpt lat="46.73974" lon="-1.79158">
        <ele>22</ele>
        <time>2018-01-08T23:00:08Z</time>
      </trkpt>
      <trkpt lat="46.73958" lon="-1.79151">
        <ele>22</ele>
        <time>2018-01-08T23:01:08Z</time>
      </trkpt>
      <trkpt lat="46.73937" lon="-1.79142">
        <ele>21</ele>
        <time>2018-01-08T23:02:08Z</time>
      </trkpt>
      <trkpt lat="46.73923" lon="-1.79134">
        <ele>21</ele>
        <time>2018-01-08T23:03:08Z</time>
      </trkpt>
      <trkpt lat="46.73901" lon="-1.79122">
        <ele>20</ele>
        <time>2018-01-08T23:04:08Z</time>
      </trkpt>
      <trkpt lat="46.73882" lon="-1.79111">
        <ele>20</ele>
        <time>2018-01-08T23:05:08Z</time>
      </trkpt>
      <trkpt lat="46.73838" lon="-1.79085">
        <ele>19</ele>
        <time>2018-01-08T23:06:08Z</time>
      </trkpt>
      <trkpt lat="46.73785" lon="-1.79055">
        <ele>16</ele>
        <time>2018-01-08T23:07:08Z</time>
      </trkpt>
      <trkpt lat="46.73734" lon="-1.79025">
        <ele>15</ele>
        <time>2018-01-08T23:08:08Z</time>
      </trkpt>
      <trkpt lat="46.73693" lon="-1.79002">
        <ele>15</ele>
        <time>2018-01-08T23:09:08Z</time>
      </trkpt>
      <trkpt lat="46.73661" lon="-1.78983">
        <ele>15</ele>
        <time>2018-01-08T23:10:08Z</time>
      </trkpt>
      <trkpt lat="46.73613" lon="-1.78956">
        <ele>16</ele>
        <time>2018-01-08T23:11:08Z</time>
      </trkpt>
      <trkpt lat="46.73546" lon="-1.78917">
        <ele>18</ele>
        <time>2018-01-08T23:12:08Z</time>
      </trkpt>
      <trkpt lat="46.73485" lon="-1.78881">
        <ele>21</ele>
        <time>2018-01-08T23:13:08Z</time>
      </trkpt>
      <trkpt lat="46.73424" lon="-1.78846">
        <ele>23</ele>
        <time>2018-01-08T23:14:08Z</time>
      </trkpt>
      <trkpt lat="46.73399" lon="-1.78833">
        <ele>23</ele>
        <time>2018-01-08T23:15:08Z</time>
      </trkpt>
      <trkpt lat="46.73367" lon="-1.78814">
        <ele>24</ele>
        <time>2018-01-08T23:16:08Z</time>
      </trkpt>
      <trkpt lat="46.73315" lon="-1.78784">
        <ele>25</ele>
        <time>2018-01-08T23:17:08Z</time>
      </trkpt>
      <trkpt lat="46.73293" lon="-1.78771">
        <ele>25</ele>
        <time>2018-01-08T23:18:08Z</time>
      </trkpt>
      <trkpt lat="46.73274" lon="-1.78757">
        <ele>26</ele>
        <time>2018-01-08T23:19:08Z</time>
      </trkpt>
      <trkpt lat="46.73266" lon="-1.78751">
        <ele>26</ele>
        <time>2018-01-08T23:20:08Z</time>
      </trkpt>
      <trkpt lat="46.73255" lon="-1.78741">
        <ele>26</ele>
        <time>2018-01-08T23:21:08Z</time>
      </trkpt>
      <trkpt lat="46.73246" lon="-1.78735">
        <ele>26</ele>
        <time>2018-01-08T23:22:08Z</time>
      </trkpt>
      <trkpt lat="46.73236" lon="-1.78725">
        <ele>27</ele>
        <time>2018-01-08T23:23:08Z</time>
      </trkpt>
      <trkpt lat="46.73227" lon="-1.78715">
        <ele>27</ele>
        <time>2018-01-08T23:24:08Z</time>
      </trkpt>
      <trkpt lat="46.73214" lon="-1.78699">
        <ele>27</ele>
        <time>2018-01-08T23:25:08Z</time>
      </trkpt>
      <trkpt lat="46.73209" lon="-1.78693">
        <ele>28</ele>
        <time>2018-01-08T23:26:08Z</time>
      </trkpt>
      <trkpt lat="46.73196" lon="-1.78675">
        <ele>28</ele>
        <time>2018-01-08T23:27:08Z</time>
      </trkpt>
      <trkpt lat="46.73168" lon="-1.78636">
        <ele>29</ele>
        <time>2018-01-08T23:28:08Z</time>
      </trkpt>
      <trkpt lat="46.73148" lon="-1.7861">
        <ele>29</ele>
        <time>2018-01-08T23:29:08Z</time>
      </trkpt>
      <trkpt lat="46.7314" lon="-1.78601">
        <ele>29</ele>
        <time>2018-01-08T23:30:08Z</time>
      </trkpt>
      <trkpt lat="46.73123" lon="-1.78584">
        <ele>29</ele>
        <time>2018-01-08T23:31:08Z</time>
      </trkpt>
      <trkpt lat="46.73112" lon="-1.78575">
        <ele>29</ele>
        <time>2018-01-08T23:32:08Z</time>
      </trkpt>
      <trkpt lat="46.73103" lon="-1.78568">
        <ele>29</ele>
        <time>2018-01-08T23:33:08Z</time>
      </trkpt>
      <trkpt lat="46.73094" lon="-1.78561">
        <ele>29</ele>
        <time>2018-01-08T23:34:08Z</time>
      </trkpt>
      <trkpt lat="46.73085" lon="-1.78556">
        <ele>30</ele>
        <time>2018-01-08T23:35:08Z</time>
      </trkpt>
      <trkpt lat="46.73069" lon="-1.78546">
        <ele>30</ele>
        <time>2018-01-08T23:36:08Z</time>
      </trkpt>
      <trkpt lat="46.73038" lon="-1.78529">
        <ele>31</ele>
        <time>2018-01-08T23:37:08Z</time>
      </trkpt>
      <trkpt lat="46.72987" lon="-1.78503">
        <ele>33</ele>
        <time>2018-01-08T23:38:08Z</time>
      </trkpt>
      <trkpt lat="46.72976" lon="-1.78497">
        <ele>33</ele>
        <time>2018-01-08T23:39:08Z</time>
      </trkpt>
      <trkpt lat="46.72925" lon="-1.7847">
        <ele>33</ele>
        <time>2018-01-08T23:40:08Z</time>
      </trkpt>
      <trkpt lat="46.72898" lon="-1.78456">
        <ele>33</ele>
        <time>2018-01-08T23:41:08Z</time>
      </trkpt>
      <trkpt lat="46.72851" lon="-1.78431">
        <ele>34</ele>
        <time>2018-01-08T23:42:08Z</time>
      </trkpt>
      <trkpt lat="46.72804" lon="-1.78406">
        <ele>34</ele>
        <time>2018-01-08T23:43:08Z</time>
      </trkpt>
      <trkpt lat="46.72756" lon="-1.78382">
        <ele>34</ele>
        <time>2018-01-08T23:44:08Z</time>
      </trkpt>
      <trkpt lat="46.72699" lon="-1.78352">
        <ele>35</ele>
        <time>2018-01-08T23:45:08Z</time>
      </trkpt>
      <trkpt lat="46.72605" lon="-1.78301">
        <ele>37</ele>
        <time>2018-01-08T23:46:08Z</time>
      </trkpt>
      <trkpt lat="46.72544" lon="-1.78269">
        <ele>38</ele>
        <time>2018-01-08T23:47:08Z</time>
      </trkpt>
      <trkpt lat="46.72514" lon="-1.78253">
        <ele>39</ele>
        <time>2018-01-08T23:48:08Z</time>
      </trkpt>
      <trkpt lat="46.72494" lon="-1.78242">
        <ele>39</ele>
        <time>2018-01-08T23:49:08Z</time>
      </trkpt>
      <trkpt lat="46.72464" lon="-1.78226">
        <ele>39</ele>
        <time>2018-01-08T23:50:08Z</time>
      </trkpt>
      <trkpt lat="46.72444" lon="-1.78215">
        <ele>39</ele>
        <time>2018-01-08T23:51:08Z</time>
      </trkpt>
      <trkpt lat="46.72425" lon="-1.78203">
        <ele>40</ele>
        <time>2018-01-08T23:52:08Z</time>
      </trkpt>
      <trkpt lat="46.72416" lon="-1.78196">
        <ele>40</ele>
        <time>2018-01-08T23:53:08Z</time>
      </trkpt>
      <trkpt lat="46.72407" lon="-1.78189">
        <ele>40</ele>
        <time>2018-01-08T23:54:08Z</time>
      </trkpt>
      <trkpt lat="46.72397" lon="-1.78181">
        <ele>40</ele>
        <time>2018-01-08T23:55:08Z</time>
      </trkpt>
      <trkpt lat="46.72389" lon="-1.78174">
        <ele>40</ele>
        <time>2018-01-08T23:56:08Z</time>
      </trkpt>
      <trkpt lat="46.7238" lon="-1.78166">
        <ele>40</ele>
        <time>2018-01-08T23:57:08Z</time>
      </trkpt>
      <trkpt lat="46.72371" lon="-1.78157">
        <ele>39</ele>
        <time>2018-01-08T23:58:08Z</time>
      </trkpt>
      <trkpt lat="46.72362" lon="-1.78149">
        <ele>39</ele>
        <time>2018-01-08T23:59:08Z</time>
      </trkpt>
      <trkpt lat="46.72345" lon="-1.78133">
        <ele>39</ele>
        <time>2018-01-09T00:00:08Z</time>
      </trkpt>
      <trkpt lat="46.72328" lon="-1.78116">
        <ele>39</ele>
        <time>2018-01-09T00:01:08Z</time>
      </trkpt>
      <trkpt lat="46.72311" lon="-1.781">
        <ele>39</ele>
        <time>2018-01-09T00:02:08Z</time>
      </trkpt>
      <trkpt lat="46.7227" lon="-1.78064">
        <ele>40</ele>
        <time>2018-01-09T00:03:08Z</time>
      </trkpt>
      <trkpt lat="46.72243" lon="-1.78038">
        <ele>40</ele>
        <time>2018-01-09T00:04:08Z</time>
      </trkpt>
      <trkpt lat="46.72231" lon="-1.78028">
        <ele>40</ele>
        <time>2018-01-09T00:05:08Z</time>
      </trkpt>
      <trkpt lat="46.72224" lon="-1.78023">
        <ele>40</ele>
        <time>2018-01-09T00:06:08Z</time>
      </trkpt>
      <trkpt lat="46.72216" lon="-1.78017">
        <ele>40</ele>
        <time>2018-01-09T00:07:08Z</time>
      </trkpt>
      <trkpt lat="46.72208" lon="-1.78012">
        <ele>40</ele>
        <time>2018-01-09T00:08:08Z</time>
      </trkpt>
      <trkpt lat="46.72201" lon="-1.78008">
        <ele>40</ele>
        <time>2018-01-09T00:09:08Z</time>
      </trkpt>
      <trkpt lat="46.72193" lon="-1.78003">
        <ele>40</ele>
        <time>2018-01-09T00:10:08Z</time>
      </trkpt>
      <trkpt lat="46.72186" lon="-1.77999">
        <ele>40</ele>
        <time>2018-01-09T00:11:08Z</time>
      </trkpt>
      <trkpt lat="46.72178" lon="-1.77996">
        <ele>40</ele>
        <time>2018-01-09T00:12:08Z</time>
      </trkpt>
      <trkpt lat="46.7217" lon="-1.77992">
        <ele>40</ele>
        <time>2018-01-09T00:13:08Z</time>
      </trkpt>
      <trkpt lat="46.72161" lon="-1.77989">
        <ele>40</ele>
        <time>2018-01-09T00:14:08Z</time>
      </trkpt>
      <trkpt lat="46.72151" lon="-1.77985">
        <ele>40</ele>
        <time>2018-01-09T00:15:08Z</time>
      </trkpt>
      <trkpt lat="46.7214" lon="-1.77982">
        <ele>41</ele>
        <time>2018-01-09T00:16:08Z</time>
      </trkpt>
      <trkpt lat="46.72085" lon="-1.77964">
        <ele>41</ele>
        <time>2018-01-09T00:17:08Z</time>
      </trkpt>
      <trkpt lat="46.72031" lon="-1.77946">
        <ele>41</ele>
        <time>2018-01-09T00:18:08Z</time>
      </trkpt>
      <trkpt lat="46.71976" lon="-1.77927">
        <ele>41</ele>
        <time>2018-01-09T00:19:08Z</time>
      </trkpt>
      <trkpt lat="46.71976" lon="-1.77927">
        <ele>41</ele>
        <time>2018-01-09T00:20:08Z</time>
      </trkpt>
      <trkpt lat="46.71972" lon="-1.77934">
        <ele>41</ele>
        <time>2018-01-09T00:21:08Z</time>
      </trkpt>
      <trkpt lat="46.71968" lon="-1.7794">
        <ele>41</ele>
        <time>2018-01-09T00:22:08Z</time>
      </trkpt>
      <trkpt lat="46.71962" lon="-1.77946">
        <ele>41</ele>
        <time>2018-01-09T00:23:08Z</time>
      </trkpt>
      <trkpt lat="46.7194" lon="-1.77963">
        <ele>42</ele>
        <time>2018-01-09T00:24:08Z</time>
      </trkpt>
      <trkpt lat="46.71901" lon="-1.77996">
        <ele>43</ele>
        <time>2018-01-09T00:25:08Z</time>
      </trkpt>
      <trkpt lat="46.71861" lon="-1.78028">
        <ele>43</ele>
        <time>2018-01-09T00:26:08Z</time>
      </trkpt>
      <trkpt lat="46.71826" lon="-1.78056">
        <ele>42</ele>
        <time>2018-01-09T00:27:08Z</time>
      </trkpt>
      <trkpt lat="46.71808" lon="-1.7807">
        <ele>43</ele>
        <time>2018-01-09T00:28:08Z</time>
      </trkpt>
      <trkpt lat="46.71804" lon="-1.78072">
        <ele>43</ele>
        <time>2018-01-09T00:29:08Z</time>
      </trkpt>
      <trkpt lat="46.71787" lon="-1.78084">
        <ele>43</ele>
        <time>2018-01-09T00:30:08Z</time>
      </trkpt>
      <trkpt lat="46.71762" lon="-1.781">
        <ele>43</ele>
        <time>2018-01-09T00:31:08Z</time>
      </trkpt>
      <trkpt lat="46.71727" lon="-1.78123">
        <ele>42</ele>
        <time>2018-01-09T00:32:08Z</time>
      </trkpt>
      <trkpt lat="46.71681" lon="-1.78153">
        <ele>42</ele>
        <time>2018-01-09T00:33:08Z</time>
      </trkpt>
      <trkpt lat="46.71646" lon="-1.78175">
        <ele>42</ele>
        <time>2018-01-09T00:34:08Z</time>
      </trkpt>
      <trkpt lat="46.71633" lon="-1.78184">
        <ele>42</ele>
        <time>2018-01-09T00:35:08Z</time>
      </trkpt>
      <trkpt lat="46.71622" lon="-1.78192">
        <ele>42</ele>
        <time>2018-01-09T00:36:08Z</time>
      </trkpt>
      <trkpt lat="46.71613" lon="-1.782">
        <ele>42</ele>
        <time>2018-01-09T00:37:08Z</time>
      </trkpt>
      <trkpt lat="46.71602" lon="-1.78211">
        <ele>42</ele>
        <time>2018-01-09T00:38:08Z</time>
      </trkpt>
      <trkpt lat="46.71592" lon="-1.78223">
        <ele>42</ele>
        <time>2018-01-09T00:39:08Z</time>
      </trkpt>
      <trkpt lat="46.71584" lon="-1.78234">
        <ele>41</ele>
        <time>2018-01-09T00:40:08Z</time>
      </trkpt>
      <trkpt lat="46.71578" lon="-1.78241">
        <ele>41</ele>
        <time>2018-01-09T00:41:08Z</time>
      </trkpt>
      <trkpt lat="46.71576" lon="-1.78246">
        <ele>41</ele>
        <time>2018-01-09T00:42:08Z</time>
      </trkpt>
      <trkpt lat="46.71567" lon="-1.7826">
        <ele>41</ele>
        <time>2018-01-09T00:43:08Z</time>
      </trkpt>
      <trkpt lat="46.71558" lon="-1.78279">
        <ele>41</ele>
        <time>2018-01-09T00:44:08Z</time>
      </trkpt>
      <trkpt lat="46.71545" lon="-1.78309">
        <ele>41</ele>
        <time>2018-01-09T00:45:08Z</time>
      </trkpt>
      <trkpt lat="46.71527" lon="-1.78354">
        <ele>41</ele>
        <time>2018-01-09T00:46:08Z</time>
      </trkpt>
      <trkpt lat="46.71501" lon="-1.78416">
        <ele>42</ele>
        <time>2018-01-09T00:47:08Z</time>
      </trkpt>
      <trkpt lat="46.71472" lon="-1.78489">
        <ele>43</ele>
        <time>2018-01-09T00:48:08Z</time>
      </trkpt>
      <trkpt lat="46.7145" lon="-1.78543">
        <ele>43</ele>
        <time>2018-01-09T00:49:08Z</time>
      </trkpt>
      <trkpt lat="46.71444" lon="-1.78557">
        <ele>43</ele>
        <time>2018-01-09T00:50:08Z</time>
      </trkpt>
      <trkpt lat="46.71442" lon="-1.78561">
        <ele>43</ele>
        <time>2018-01-09T00:51:08Z</time>
      </trkpt>
      <trkpt lat="46.71438" lon="-1.78573">
        <ele>43</ele>
        <time>2018-01-09T00:52:08Z</time>
      </trkpt>
      <trkpt lat="46.71433" lon="-1.78584">
        <ele>44</ele>
        <time>2018-01-09T00:53:08Z</time>
      </trkpt>
      <trkpt lat="46.71427" lon="-1.78595">
        <ele>44</ele>
        <time>2018-01-09T00:54:08Z</time>
      </trkpt>
      <trkpt lat="46.71422" lon="-1.78607">
        <ele>44</ele>
        <time>2018-01-09T00:55:08Z</time>
      </trkpt>
      <trkpt lat="46.71416" lon="-1.78617">
        <ele>44</ele>
        <time>2018-01-09T00:56:08Z</time>
      </trkpt>
      <trkpt lat="46.71409" lon="-1.7863">
        <ele>43</ele>
        <time>2018-01-09T00:57:08Z</time>
      </trkpt>
      <trkpt lat="46.71402" lon="-1.78643">
        <ele>43</ele>
        <time>2018-01-09T00:58:08Z</time>
      </trkpt>
      <trkpt lat="46.71395" lon="-1.78656">
        <ele>43</ele>
        <time>2018-01-09T00:59:08Z</time>
      </trkpt>
      <trkpt lat="46.71385" lon="-1.78671">
        <ele>43</ele>
        <time>2018-01-09T01:00:08Z</time>
      </trkpt>
      <trkpt lat="46.71371" lon="-1.78696">
        <ele>43</ele>
        <time>2018-01-09T01:01:08Z</time>
      </trkpt>
      <trkpt lat="46.71347" lon="-1.78734">
        <ele>42</ele>
        <time>2018-01-09T01:02:08Z</time>
      </trkpt>
      <trkpt lat="46.71313" lon="-1.7879">
        <ele>43</ele>
        <time>2018-01-09T01:03:08Z</time>
      </trkpt>
      <trkpt lat="46.71282" lon="-1.78841">
        <ele>44</ele>
        <time>2018-01-09T01:04:08Z</time>
      </trkpt>
      <trkpt lat="46.7128" lon="-1.78844">
        <ele>44</ele>
        <time>2018-01-09T01:05:08Z</time>
      </trkpt>
      <trkpt lat="46.71248" lon="-1.78897">
        <ele>44</ele>
        <time>2018-01-09T01:06:08Z</time>
      </trkpt>
      <trkpt lat="46.71227" lon="-1.78932">
        <ele>44</ele>
        <time>2018-01-09T01:07:08Z</time>
      </trkpt>
      <trkpt lat="46.71197" lon="-1.78982">
        <ele>44</ele>
        <time>2018-01-09T01:08:08Z</time>
      </trkpt>
      <trkpt lat="46.71179" lon="-1.7901">
        <ele>44</ele>
        <time>2018-01-09T01:09:08Z</time>
      </trkpt>
      <trkpt lat="46.71155" lon="-1.79049">
        <ele>43</ele>
        <time>2018-01-09T01:10:08Z</time>
      </trkpt>
      <trkpt lat="46.71149" lon="-1.7906">
        <ele>43</ele>
        <time>2018-01-09T01:11:08Z</time>
      </trkpt>
      <trkpt lat="46.71134" lon="-1.79084">
        <ele>43</ele>
        <time>2018-01-09T01:12:08Z</time>
      </trkpt>
      <trkpt lat="46.71122" lon="-1.79107">
        <ele>43</ele>
        <time>2018-01-09T01:13:08Z</time>
      </trkpt>
      <trkpt lat="46.71112" lon="-1.79124">
        <ele>43</ele>
        <time>2018-01-09T01:14:08Z</time>
      </trkpt>
      <trkpt lat="46.71097" lon="-1.79149">
        <ele>42</ele>
        <time>2018-01-09T01:15:08Z</time>
      </trkpt>
      <trkpt lat="46.7109" lon="-1.79159">
        <ele>42</ele>
        <time>2018-01-09T01:16:08Z</time>
      </trkpt>
      <trkpt lat="46.71084" lon="-1.79165">
        <ele>42</ele>
        <time>2018-01-09T01:17:08Z</time>
      </trkpt>
      <trkpt lat="46.71084" lon="-1.79165">
        <ele>42</ele>
        <time>2018-01-09T01:18:08Z</time>
      </trkpt>
      <trkpt lat="46.71088" lon="-1.79176">
        <ele>42</ele>
        <time>2018-01-09T01:19:08Z</time>
      </trkpt>
      <trkpt lat="46.71092" lon="-1.79188">
        <ele>42</ele>
        <time>2018-01-09T01:20:08Z</time>
      </trkpt>
      <trkpt lat="46.71103" lon="-1.7922">
        <ele>41</ele>
        <time>2018-01-09T01:21:08Z</time>
      </trkpt>
      <trkpt lat="46.71116" lon="-1.79257">
        <ele>41</ele>
        <time>2018-01-09T01:22:08Z</time>
      </trkpt>
      <trkpt lat="46.71122" lon="-1.79277">
        <ele>41</ele>
        <time>2018-01-09T01:23:08Z</time>
      </trkpt>
      <trkpt lat="46.71124" lon="-1.7929">
        <ele>40</ele>
        <time>2018-01-09T01:24:08Z</time>
      </trkpt>
      <trkpt lat="46.71124" lon="-1.793">
        <ele>40</ele>
        <time>2018-01-09T01:25:08Z</time>
      </trkpt>
      <trkpt lat="46.71124" lon="-1.79304">
        <ele>40</ele>
        <time>2018-01-09T01:26:08Z</time>
      </trkpt>
      <trkpt lat="46.71124" lon="-1.7931">
        <ele>40</ele>
        <time>2018-01-09T01:27:08Z</time>
      </trkpt>
      <trkpt lat="46.71123" lon="-1.79318">
        <ele>40</ele>
        <time>2018-01-09T01:28:08Z</time>
      </trkpt>
      <trkpt lat="46.7112" lon="-1.7935">
        <ele>39</ele>
        <time>2018-01-09T01:29:08Z</time>
      </trkpt>
      <trkpt lat="46.71116" lon="-1.79388">
        <ele>39</ele>
        <time>2018-01-09T01:30:08Z</time>
      </trkpt>
      <trkpt lat="46.71111" lon="-1.79421">
        <ele>39</ele>
        <time>2018-01-09T01:31:08Z</time>
      </trkpt>
      <trkpt lat="46.7111" lon="-1.79436">
        <ele>39</ele>
        <time>2018-01-09T01:32:08Z</time>
      </trkpt>
      <trkpt lat="46.71107" lon="-1.79449">
        <ele>39</ele>
        <time>2018-01-09T01:33:08Z</time>
      </trkpt>
      <trkpt lat="46.71104" lon="-1.79463">
        <ele>39</ele>
        <time>2018-01-09T01:34:08Z</time>
      </trkpt>
      <trkpt lat="46.71102" lon="-1.79476">
        <ele>39</ele>
        <time>2018-01-09T01:35:08Z</time>
      </trkpt>
      <trkpt lat="46.71098" lon="-1.7949">
        <ele>39</ele>
        <time>2018-01-09T01:36:08Z</time>
      </trkpt>
      <trkpt lat="46.7109" lon="-1.79517">
        <ele>39</ele>
        <time>2018-01-09T01:37:08Z</time>
      </trkpt>
      <trkpt lat="46.71075" lon="-1.79573">
        <ele>39</ele>
        <time>2018-01-09T01:38:08Z</time>
      </trkpt>
      <trkpt lat="46.71071" lon="-1.79593">
        <ele>39</ele>
        <time>2018-01-09T01:39:08Z</time>
      </trkpt>
      <trkpt lat="46.71067" lon="-1.79611">
        <ele>39</ele>
        <time>2018-01-09T01:40:08Z</time>
      </trkpt>
      <trkpt lat="46.71065" lon="-1.79628">
        <ele>39</ele>
        <time>2018-01-09T01:41:08Z</time>
      </trkpt>
      <trkpt lat="46.71065" lon="-1.79641">
        <ele>39</ele>
        <time>2018-01-09T01:42:08Z</time>
      </trkpt>
      <trkpt lat="46.71065" lon="-1.79654">
        <ele>40</ele>
        <time>2018-01-09T01:43:08Z</time>
      </trkpt>
      <trkpt lat="46.71067" lon="-1.79668">
        <ele>40</ele>
        <time>2018-01-09T01:44:08Z</time>
      </trkpt>
      <trkpt lat="46.71067" lon="-1.79668">
        <ele>40</ele>
        <time>2018-01-09T01:45:08Z</time>
      </trkpt>
      <trkpt lat="46.7107" lon="-1.79681">
        <ele>40</ele>
        <time>2018-01-09T01:46:08Z</time>
      </trkpt>
      <trkpt lat="46.71073" lon="-1.79698">
        <ele>40</ele>
        <time>2018-01-09T01:47:08Z</time>
      </trkpt>
      <trkpt lat="46.71076" lon="-1.79714">
        <ele>39</ele>
        <time>2018-01-09T01:48:08Z</time>
      </trkpt>
      <trkpt lat="46.71078" lon="-1.79727">
        <ele>39</ele>
        <time>2018-01-09T01:49:08Z</time>
      </trkpt>
      <trkpt lat="46.71079" lon="-1.7974">
        <ele>39</ele>
        <time>2018-01-09T01:50:08Z</time>
      </trkpt>
      <trkpt lat="46.71079" lon="-1.79756">
        <ele>39</ele>
        <time>2018-01-09T01:51:08Z</time>
      </trkpt>
      <trkpt lat="46.71078" lon="-1.79781">
        <ele>39</ele>
        <time>2018-01-09T01:52:08Z</time>
      </trkpt>
      <trkpt lat="46.71078" lon="-1.79833">
        <ele>38</ele>
        <time>2018-01-09T01:53:08Z</time>
      </trkpt>
      <trkpt lat="46.71077" lon="-1.79882">
        <ele>38</ele>
        <time>2018-01-09T01:54:08Z</time>
      </trkpt>
      <trkpt lat="46.71076" lon="-1.79914">
        <ele>38</ele>
        <time>2018-01-09T01:55:08Z</time>
      </trkpt>
      <trkpt lat="46.71076" lon="-1.79932">
        <ele>38</ele>
        <time>2018-01-09T01:56:08Z</time>
      </trkpt>
      <trkpt lat="46.71074" lon="-1.7995">
        <ele>38</ele>
        <time>2018-01-09T01:57:08Z</time>
      </trkpt>
      <trkpt lat="46.71072" lon="-1.79969">
        <ele>38</ele>
        <time>2018-01-09T01:58:08Z</time>
      </trkpt>
      <trkpt lat="46.71069" lon="-1.79987">
        <ele>37</ele>
        <time>2018-01-09T01:59:08Z</time>
      </trkpt>
      <trkpt lat="46.71063" lon="-1.80027">
        <ele>38</ele>
        <time>2018-01-09T02:00:08Z</time>
      </trkpt>
      <trkpt lat="46.7106" lon="-1.80048">
        <ele>38</ele>
        <time>2018-01-09T02:01:08Z</time>
      </trkpt>
      <trkpt lat="46.7106" lon="-1.80057">
        <ele>38</ele>
        <time>2018-01-09T02:02:08Z</time>
      </trkpt>
      <trkpt lat="46.71059" lon="-1.80067">
        <ele>38</ele>
        <time>2018-01-09T02:03:08Z</time>
      </trkpt>
      <trkpt lat="46.7106" lon="-1.8008">
        <ele>38</ele>
        <time>2018-01-09T02:04:08Z</time>
      </trkpt>
      <trkpt lat="46.71068" lon="-1.80123">
        <ele>39</ele>
        <time>2018-01-09T02:05:08Z</time>
      </trkpt>
      <trkpt lat="46.71082" lon="-1.80187">
        <ele>39</ele>
        <time>2018-01-09T02:06:08Z</time>
      </trkpt>
      <trkpt lat="46.71091" lon="-1.80232">
        <ele>39</ele>
        <time>2018-01-09T02:07:08Z</time>
      </trkpt>
      <trkpt lat="46.71098" lon="-1.80266">
        <ele>38</ele>
        <time>2018-01-09T02:08:08Z</time>
      </trkpt>
      <trkpt lat="46.71102" lon="-1.80286">
        <ele>38</ele>
        <time>2018-01-09T02:09:08Z</time>
      </trkpt>
      <trkpt lat="46.71105" lon="-1.80304">
        <ele>38</ele>
        <time>2018-01-09T02:10:08Z</time>
      </trkpt>
      <trkpt lat="46.71107" lon="-1.80323">
        <ele>37</ele>
        <time>2018-01-09T02:11:08Z</time>
      </trkpt>
      <trkpt lat="46.71111" lon="-1.80352">
        <ele>37</ele>
        <time>2018-01-09T02:12:08Z</time>
      </trkpt>
      <trkpt lat="46.71115" lon="-1.80385">
        <ele>37</ele>
        <time>2018-01-09T02:13:08Z</time>
      </trkpt>
      <trkpt lat="46.7112" lon="-1.80424">
        <ele>36</ele>
        <time>2018-01-09T02:14:08Z</time>
      </trkpt>
      <trkpt lat="46.71124" lon="-1.80446">
        <ele>36</ele>
        <time>2018-01-09T02:15:08Z</time>
      </trkpt>
      <trkpt lat="46.71125" lon="-1.80451">
        <ele>36</ele>
        <time>2018-01-09T02:16:08Z</time>
      </trkpt>
      <trkpt lat="46.71128" lon="-1.80458">
        <ele>36</ele>
        <time>2018-01-09T02:17:08Z</time>
      </trkpt>
      <trkpt lat="46.71131" lon="-1.80469">
        <ele>36</ele>
        <time>2018-01-09T02:18:08Z</time>
      </trkpt>
      <trkpt lat="46.71135" lon="-1.80478">
        <ele>36</ele>
        <time>2018-01-09T02:19:08Z</time>
      </trkpt>
      <trkpt lat="46.7114" lon="-1.80489">
        <ele>35</ele>
        <time>2018-01-09T02:20:08Z</time>
      </trkpt>
      <trkpt lat="46.71148" lon="-1.80502">
        <ele>35</ele>
        <time>2018-01-09T02:21:08Z</time>
      </trkpt>
      <trkpt lat="46.71159" lon="-1.80524">
        <ele>35</ele>
        <time>2018-01-09T02:22:08Z</time>
      </trkpt>
      <trkpt lat="46.71165" lon="-1.80538">
        <ele>35</ele>
        <time>2018-01-09T02:23:08Z</time>
      </trkpt>
      <trkpt lat="46.71174" lon="-1.8056">
        <ele>34</ele>
        <time>2018-01-09T02:24:08Z</time>
      </trkpt>
      <trkpt lat="46.71185" lon="-1.80586">
        <ele>33</ele>
        <time>2018-01-09T02:25:08Z</time>
      </trkpt>
      <trkpt lat="46.71194" lon="-1.80608">
        <ele>32</ele>
        <time>2018-01-09T02:26:08Z</time>
      </trkpt>
      <trkpt lat="46.71199" lon="-1.80618">
        <ele>32</ele>
        <time>2018-01-09T02:27:08Z</time>
      </trkpt>
      <trkpt lat="46.71205" lon="-1.80626">
        <ele>31</ele>
        <time>2018-01-09T02:28:08Z</time>
      </trkpt>
      <trkpt lat="46.71212" lon="-1.80635">
        <ele>31</ele>
        <time>2018-01-09T02:29:08Z</time>
      </trkpt>
      <trkpt lat="46.7123" lon="-1.80657">
        <ele>29</ele>
        <time>2018-01-09T02:30:08Z</time>
      </trkpt>
      <trkpt lat="46.7126" lon="-1.80692">
        <ele>27</ele>
        <time>2018-01-09T02:31:08Z</time>
      </trkpt>
      <trkpt lat="46.71285" lon="-1.8072">
        <ele>26</ele>
        <time>2018-01-09T02:32:08Z</time>
      </trkpt>
      <trkpt lat="46.71291" lon="-1.80728">
        <ele>26</ele>
        <time>2018-01-09T02:33:08Z</time>
      </trkpt>
      <trkpt lat="46.71296" lon="-1.80741">
        <ele>26</ele>
        <time>2018-01-09T02:34:08Z</time>
      </trkpt>
      <trkpt lat="46.71298" lon="-1.80748">
        <ele>25</ele>
        <time>2018-01-09T02:35:08Z</time>
      </trkpt>
      <trkpt lat="46.71298" lon="-1.80748">
        <ele>25</ele>
        <time>2018-01-09T02:36:08Z</time>
      </trkpt>
      <trkpt lat="46.71299" lon="-1.80754">
        <ele>25</ele>
        <time>2018-01-09T02:37:08Z</time>
      </trkpt>
      <trkpt lat="46.713" lon="-1.80768">
        <ele>25</ele>
        <time>2018-01-09T02:38:08Z</time>
      </trkpt>
      <trkpt lat="46.71302" lon="-1.80799">
        <ele>25</ele>
        <time>2018-01-09T02:39:08Z</time>
      </trkpt>
      <trkpt lat="46.71303" lon="-1.8082">
        <ele>25</ele>
        <time>2018-01-09T02:40:08Z</time>
      </trkpt>
      <trkpt lat="46.71306" lon="-1.8085">
        <ele>25</ele>
        <time>2018-01-09T02:41:08Z</time>
      </trkpt>
      <trkpt lat="46.71307" lon="-1.80865">
        <ele>25</ele>
        <time>2018-01-09T02:42:08Z</time>
      </trkpt>
      <trkpt lat="46.71308" lon="-1.80888">
        <ele>24</ele>
        <time>2018-01-09T02:43:08Z</time>
      </trkpt>
      <trkpt lat="46.71309" lon="-1.80901">
        <ele>24</ele>
        <time>2018-01-09T02:44:08Z</time>
      </trkpt>
      <trkpt lat="46.7131" lon="-1.80912">
        <ele>24</ele>
        <time>2018-01-09T02:45:08Z</time>
      </trkpt>
      <trkpt lat="46.71313" lon="-1.80924">
        <ele>23</ele>
        <time>2018-01-09T02:46:08Z</time>
      </trkpt>
      <trkpt lat="46.71315" lon="-1.80934">
        <ele>23</ele>
        <time>2018-01-09T02:47:08Z</time>
      </trkpt>
      <trkpt lat="46.7132" lon="-1.80948">
        <ele>23</ele>
        <time>2018-01-09T02:48:08Z</time>
      </trkpt>
      <trkpt lat="46.7133" lon="-1.80975">
        <ele>22</ele>
        <time>2018-01-09T02:49:08Z</time>
      </trkpt>
      <trkpt lat="46.71338" lon="-1.80999">
        <ele>21</ele>
        <time>2018-01-09T02:50:08Z</time>
      </trkpt>
      <trkpt lat="46.71346" lon="-1.8102">
        <ele>20</ele>
        <time>2018-01-09T02:51:08Z</time>
      </trkpt>
      <trkpt lat="46.71365" lon="-1.81077">
        <ele>19</ele>
        <time>2018-01-09T02:52:08Z</time>
      </trkpt>
      <trkpt lat="46.7137" lon="-1.81093">
        <ele>19</ele>
        <time>2018-01-09T02:53:08Z</time>
      </trkpt>
      <trkpt lat="46.71374" lon="-1.81105">
        <ele>19</ele>
        <time>2018-01-09T02:54:08Z</time>
      </trkpt>
      <trkpt lat="46.71376" lon="-1.81116">
        <ele>19</ele>
        <time>2018-01-09T02:55:08Z</time>
      </trkpt>
      <trkpt lat="46.71377" lon="-1.81127">
        <ele>19</ele>
        <time>2018-01-09T02:56:08Z</time>
      </trkpt>
      <trkpt lat="46.71377" lon="-1.81137">
        <ele>19</ele>
        <time>2018-01-09T02:57:08Z</time>
      </trkpt>
      <trkpt lat="46.71376" lon="-1.81148">
        <ele>19</ele>
        <time>2018-01-09T02:58:08Z</time>
      </trkpt>
      <trkpt lat="46.71369" lon="-1.8118">
        <ele>19</ele>
        <time>2018-01-09T02:59:08Z</time>
      </trkpt>
      <trkpt lat="46.71366" lon="-1.81199">
        <ele>19</ele>
        <time>2018-01-09T03:00:08Z</time>
      </trkpt>
      <trkpt lat="46.71365" lon="-1.81214">
        <ele>19</ele>
        <time>2018-01-09T03:01:08Z</time>
      </trkpt>
      <trkpt lat="46.71364" lon="-1.81229">
        <ele>19</ele>
        <time>2018-01-09T03:02:08Z</time>
      </trkpt>
      <trkpt lat="46.71364" lon="-1.8124">
        <ele>19</ele>
        <time>2018-01-09T03:03:08Z</time>
      </trkpt>
      <trkpt lat="46.71365" lon="-1.8126">
        <ele>19</ele>
        <time>2018-01-09T03:04:08Z</time>
      </trkpt>
      <trkpt lat="46.71368" lon="-1.81299">
        <ele>19</ele>
        <time>2018-01-09T03:05:08Z</time>
      </trkpt>
      <trkpt lat="46.71371" lon="-1.81332">
        <ele>19</ele>
        <time>2018-01-09T03:06:08Z</time>
      </trkpt>
      <trkpt lat="46.71373" lon="-1.81367">
        <ele>20</ele>
        <time>2018-01-09T03:07:08Z</time>
      </trkpt>
      <trkpt lat="46.71376" lon="-1.81409">
        <ele>20</ele>
        <time>2018-01-09T03:08:08Z</time>
      </trkpt>
      <trkpt lat="46.71378" lon="-1.81442">
        <ele>21</ele>
        <time>2018-01-09T03:09:08Z</time>
      </trkpt>
      <trkpt lat="46.71378" lon="-1.81442">
        <ele>21</ele>
        <time>2018-01-09T03:10:08Z</time>
      </trkpt>
      <trkpt lat="46.7138" lon="-1.81484">
        <ele>21</ele>
        <time>2018-01-09T03:11:08Z</time>
      </trkpt>
      <trkpt lat="46.71382" lon="-1.81531">
        <ele>21</ele>
        <time>2018-01-09T03:12:08Z</time>
      </trkpt>
      <trkpt lat="46.71383" lon="-1.81569">
        <ele>21</ele>
        <time>2018-01-09T03:13:08Z</time>
      </trkpt>
      <trkpt lat="46.71384" lon="-1.81597">
        <ele>20</ele>
        <time>2018-01-09T03:14:08Z</time>
      </trkpt>
      <trkpt lat="46.71385" lon="-1.81623">
        <ele>20</ele>
        <time>2018-01-09T03:15:08Z</time>
      </trkpt>
      <trkpt lat="46.71388" lon="-1.81649">
        <ele>21</ele>
        <time>2018-01-09T03:16:08Z</time>
      </trkpt>
      <trkpt lat="46.71392" lon="-1.81678">
        <ele>21</ele>
        <time>2018-01-09T03:17:08Z</time>
      </trkpt>
      <trkpt lat="46.71403" lon="-1.81746">
        <ele>20</ele>
        <time>2018-01-09T03:18:08Z</time>
      </trkpt>
      <trkpt lat="46.71417" lon="-1.81823">
        <ele>19</ele>
        <time>2018-01-09T03:19:08Z</time>
      </trkpt>
      <trkpt lat="46.7142" lon="-1.81847">
        <ele>19</ele>
        <time>2018-01-09T03:20:08Z</time>
      </trkpt>
      <trkpt lat="46.7142" lon="-1.81858">
        <ele>19</ele>
        <time>2018-01-09T03:21:08Z</time>
      </trkpt>
      <trkpt lat="46.7142" lon="-1.81865">
        <ele>19</ele>
        <time>2018-01-09T03:22:08Z</time>
      </trkpt>
      <trkpt lat="46.7142" lon="-1.81865">
        <ele>19</ele>
        <time>2018-01-09T03:23:08Z</time>
      </trkpt>
      <trkpt lat="46.71419" lon="-1.81865">
        <ele>19</ele>
        <time>2018-01-09T03:24:08Z</time>
      </trkpt>
      <trkpt lat="46.71405" lon="-1.81863">
        <ele>19</ele>
        <time>2018-01-09T03:25:08Z</time>
      </trkpt>
      <trkpt lat="46.7139" lon="-1.81858">
        <ele>18</ele>
        <time>2018-01-09T03:26:08Z</time>
      </trkpt>
      <trkpt lat="46.71373" lon="-1.8185">
        <ele>17</ele>
        <time>2018-01-09T03:27:08Z</time>
      </trkpt>
      <trkpt lat="46.71354" lon="-1.81835">
        <ele>17</ele>
        <time>2018-01-09T03:28:08Z</time>
      </trkpt>
      <trkpt lat="46.71323" lon="-1.81811">
        <ele>16</ele>
        <time>2018-01-09T03:29:08Z</time>
      </trkpt>
      <trkpt lat="46.71312" lon="-1.81803">
        <ele>16</ele>
        <time>2018-01-09T03:30:08Z</time>
      </trkpt>
      <trkpt lat="46.71312" lon="-1.81803">
        <ele>16</ele>
        <time>2018-01-09T03:31:08Z</time>
      </trkpt>
      <trkpt lat="46.71295" lon="-1.8179">
        <ele>15</ele>
        <time>2018-01-09T03:32:08Z</time>
      </trkpt>
      <trkpt lat="46.71256" lon="-1.8176">
        <ele>14</ele>
        <time>2018-01-09T03:33:08Z</time>
      </trkpt>
      <trkpt lat="46.71251" lon="-1.81756">
        <ele>14</ele>
        <time>2018-01-09T03:34:08Z</time>
      </trkpt>
      <trkpt lat="46.71247" lon="-1.81752">
        <ele>14</ele>
        <time>2018-01-09T03:35:08Z</time>
      </trkpt>
      <trkpt lat="46.71224" lon="-1.81735">
        <ele>14</ele>
        <time>2018-01-09T03:36:08Z</time>
      </trkpt>
      <trkpt lat="46.71185" lon="-1.81706">
        <ele>15</ele>
        <time>2018-01-09T03:37:08Z</time>
      </trkpt>
      <trkpt lat="46.71165" lon="-1.81692">
        <ele>15</ele>
        <time>2018-01-09T03:38:08Z</time>
      </trkpt>
      <trkpt lat="46.7115" lon="-1.81687">
        <ele>16</ele>
        <time>2018-01-09T03:39:08Z</time>
      </trkpt>
      <trkpt lat="46.71142" lon="-1.81685">
        <ele>16</ele>
        <time>2018-01-09T03:40:08Z</time>
      </trkpt>
      <trkpt lat="46.71134" lon="-1.81685">
        <ele>16</ele>
        <time>2018-01-09T03:41:08Z</time>
      </trkpt>
      <trkpt lat="46.71126" lon="-1.81685">
        <ele>17</ele>
        <time>2018-01-09T03:42:08Z</time>
      </trkpt>
      <trkpt lat="46.71118" lon="-1.81687">
        <ele>17</ele>
        <time>2018-01-09T03:43:08Z</time>
      </trkpt>
      <trkpt lat="46.71103" lon="-1.81693">
        <ele>18</ele>
        <time>2018-01-09T03:44:08Z</time>
      </trkpt>
      <trkpt lat="46.71089" lon="-1.817">
        <ele>19</ele>
        <time>2018-01-09T03:45:08Z</time>
      </trkpt>
      <trkpt lat="46.71072" lon="-1.81712">
        <ele>19</ele>
        <time>2018-01-09T03:46:08Z</time>
      </trkpt>
      <trkpt lat="46.71063" lon="-1.8172">
        <ele>20</ele>
        <time>2018-01-09T03:47:08Z</time>
      </trkpt>
      <trkpt lat="46.71052" lon="-1.81731">
        <ele>20</ele>
        <time>2018-01-09T03:48:08Z</time>
      </trkpt>
      <trkpt lat="46.71046" lon="-1.81738">
        <ele>21</ele>
        <time>2018-01-09T03:49:08Z</time>
      </trkpt>
      <trkpt lat="46.71038" lon="-1.81748">
        <ele>21</ele>
        <time>2018-01-09T03:50:08Z</time>
      </trkpt>
      <trkpt lat="46.71032" lon="-1.81757">
        <ele>21</ele>
        <time>2018-01-09T03:51:08Z</time>
      </trkpt>
      <trkpt lat="46.71027" lon="-1.81764">
        <ele>21</ele>
        <time>2018-01-09T03:52:08Z</time>
      </trkpt>
      <trkpt lat="46.71017" lon="-1.81781">
        <ele>21</ele>
        <time>2018-01-09T03:53:08Z</time>
      </trkpt>
      <trkpt lat="46.71011" lon="-1.81795">
        <ele>21</ele>
        <time>2018-01-09T03:54:08Z</time>
      </trkpt>
      <trkpt lat="46.70998" lon="-1.8182">
        <ele>21</ele>
        <time>2018-01-09T03:55:08Z</time>
      </trkpt>
      <trkpt lat="46.70983" lon="-1.81862">
        <ele>22</ele>
        <time>2018-01-09T03:56:08Z</time>
      </trkpt>
      <trkpt lat="46.70968" lon="-1.81906">
        <ele>23</ele>
        <time>2018-01-09T03:57:08Z</time>
      </trkpt>
      <trkpt lat="46.70948" lon="-1.81963">
        <ele>25</ele>
        <time>2018-01-09T03:58:08Z</time>
      </trkpt>
      <trkpt lat="46.70929" lon="-1.82023">
        <ele>26</ele>
        <time>2018-01-09T03:59:08Z</time>
      </trkpt>
      <trkpt lat="46.70897" lon="-1.82116">
        <ele>26</ele>
        <time>2018-01-09T04:00:08Z</time>
      </trkpt>
      <trkpt lat="46.70876" lon="-1.82175">
        <ele>24</ele>
        <time>2018-01-09T04:01:08Z</time>
      </trkpt>
      <trkpt lat="46.70865" lon="-1.8221">
        <ele>24</ele>
        <time>2018-01-09T04:02:08Z</time>
      </trkpt>
      <trkpt lat="46.70852" lon="-1.82245">
        <ele>23</ele>
        <time>2018-01-09T04:03:08Z</time>
      </trkpt>
      <trkpt lat="46.70843" lon="-1.82268">
        <ele>23</ele>
        <time>2018-01-09T04:04:08Z</time>
      </trkpt>
      <trkpt lat="46.70833" lon="-1.8229">
        <ele>23</ele>
        <time>2018-01-09T04:05:08Z</time>
      </trkpt>
      <trkpt lat="46.70805" lon="-1.82343">
        <ele>23</ele>
        <time>2018-01-09T04:06:08Z</time>
      </trkpt>
      <trkpt lat="46.70782" lon="-1.82385">
        <ele>23</ele>
        <time>2018-01-09T04:07:08Z</time>
      </trkpt>
      <trkpt lat="46.70765" lon="-1.82415">
        <ele>23</ele>
        <time>2018-01-09T04:08:08Z</time>
      </trkpt>
      <trkpt lat="46.70754" lon="-1.82434">
        <ele>23</ele>
        <time>2018-01-09T04:09:08Z</time>
      </trkpt>
      <trkpt lat="46.70742" lon="-1.82451">
        <ele>23</ele>
        <time>2018-01-09T04:10:08Z</time>
      </trkpt>
      <trkpt lat="46.70728" lon="-1.82466">
        <ele>23</ele>
        <time>2018-01-09T04:11:08Z</time>
      </trkpt>
      <trkpt lat="46.70715" lon="-1.82477">
        <ele>22</ele>
        <time>2018-01-09T04:12:08Z</time>
      </trkpt>
      <trkpt lat="46.70692" lon="-1.82493">
        <ele>23</ele>
        <time>2018-01-09T04:13:08Z</time>
      </trkpt>
      <trkpt lat="46.70667" lon="-1.82511">
        <ele>23</ele>
        <time>2018-01-09T04:14:08Z</time>
      </trkpt>
      <trkpt lat="46.70629" lon="-1.82536">
        <ele>23</ele>
        <time>2018-01-09T04:15:08Z</time>
      </trkpt>
      <trkpt lat="46.70593" lon="-1.82559">
        <ele>23</ele>
        <time>2018-01-09T04:16:08Z</time>
      </trkpt>
      <trkpt lat="46.70581" lon="-1.82568">
        <ele>23</ele>
        <time>2018-01-09T04:17:08Z</time>
      </trkpt>
      <trkpt lat="46.70546" lon="-1.8259">
        <ele>23</ele>
        <time>2018-01-09T04:18:08Z</time>
      </trkpt>
      <trkpt lat="46.70511" lon="-1.82615">
        <ele>22</ele>
        <time>2018-01-09T04:19:08Z</time>
      </trkpt>
      <trkpt lat="46.70476" lon="-1.82638">
        <ele>23</ele>
        <time>2018-01-09T04:20:08Z</time>
      </trkpt>
      <trkpt lat="46.7043" lon="-1.8267">
        <ele>24</ele>
        <time>2018-01-09T04:21:08Z</time>
      </trkpt>
      <trkpt lat="46.70373" lon="-1.82709">
        <ele>23</ele>
        <time>2018-01-09T04:22:08Z</time>
      </trkpt>
      <trkpt lat="46.70341" lon="-1.82731">
        <ele>23</ele>
        <time>2018-01-09T04:23:08Z</time>
      </trkpt>
      <trkpt lat="46.70292" lon="-1.82765">
        <ele>22</ele>
        <time>2018-01-09T04:24:08Z</time>
      </trkpt>
      <trkpt lat="46.70246" lon="-1.82796">
        <ele>20</ele>
        <time>2018-01-09T04:25:08Z</time>
      </trkpt>
      <trkpt lat="46.70202" lon="-1.82826">
        <ele>18</ele>
        <time>2018-01-09T04:26:08Z</time>
      </trkpt>
      <trkpt lat="46.70172" lon="-1.82846">
        <ele>17</ele>
        <time>2018-01-09T04:27:08Z</time>
      </trkpt>
      <trkpt lat="46.70133" lon="-1.82873">
        <ele>17</ele>
        <time>2018-01-09T04:28:08Z</time>
      </trkpt>
      <trkpt lat="46.70117" lon="-1.82884">
        <ele>17</ele>
        <time>2018-01-09T04:29:08Z</time>
      </trkpt>
      <trkpt lat="46.70079" lon="-1.82909">
        <ele>18</ele>
        <time>2018-01-09T04:30:08Z</time>
      </trkpt>
      <trkpt lat="46.70074" lon="-1.82913">
        <ele>18</ele>
        <time>2018-01-09T04:31:08Z</time>
      </trkpt>
      <trkpt lat="46.70055" lon="-1.82926">
        <ele>18</ele>
        <time>2018-01-09T04:32:08Z</time>
      </trkpt>
      <trkpt lat="46.7002" lon="-1.8295">
        <ele>17</ele>
        <time>2018-01-09T04:33:08Z</time>
      </trkpt>
      <trkpt lat="46.69992" lon="-1.82969">
        <ele>16</ele>
        <time>2018-01-09T04:34:08Z</time>
      </trkpt>
      <trkpt lat="46.69981" lon="-1.82977">
        <ele>16</ele>
        <time>2018-01-09T04:35:08Z</time>
      </trkpt>
      <trkpt lat="46.69971" lon="-1.82984">
        <ele>15</ele>
        <time>2018-01-09T04:36:08Z</time>
      </trkpt>
      <trkpt lat="46.69963" lon="-1.82989">
        <ele>15</ele>
        <time>2018-01-09T04:37:08Z</time>
      </trkpt>
      <trkpt lat="46.69956" lon="-1.82994">
        <ele>15</ele>
        <time>2018-01-09T04:38:08Z</time>
      </trkpt>
      <trkpt lat="46.6995" lon="-1.82999">
        <ele>15</ele>
        <time>2018-01-09T04:39:08Z</time>
      </trkpt>
      <trkpt lat="46.69947" lon="-1.83001">
        <ele>15</ele>
        <time>2018-01-09T04:40:08Z</time>
      </trkpt>
      <trkpt lat="46.69942" lon="-1.83005">
        <ele>15</ele>
        <time>2018-01-09T04:41:08Z</time>
      </trkpt>
      <trkpt lat="46.69937" lon="-1.83008">
        <ele>15</ele>
        <time>2018-01-09T04:42:08Z</time>
      </trkpt>
      <trkpt lat="46.69933" lon="-1.8301">
        <ele>15</ele>
        <time>2018-01-09T04:43:08Z</time>
      </trkpt>
      <trkpt lat="46.69927" lon="-1.83011">
        <ele>15</ele>
        <time>2018-01-09T04:44:08Z</time>
      </trkpt>
      <trkpt lat="46.69927" lon="-1.83011">
        <ele>15</ele>
        <time>2018-01-09T04:45:08Z</time>
      </trkpt>
      <trkpt lat="46.69929" lon="-1.83016">
        <ele>14</ele>
        <time>2018-01-09T04:46:08Z</time>
      </trkpt>
      <trkpt lat="46.69935" lon="-1.83028">
        <ele>14</ele>
        <time>2018-01-09T04:47:08Z</time>
      </trkpt>
      <trkpt lat="46.69944" lon="-1.83041">
        <ele>14</ele>
        <time>2018-01-09T04:48:08Z</time>
      </trkpt>
      <trkpt lat="46.69952" lon="-1.83052">
        <ele>13</ele>
        <time>2018-01-09T04:49:08Z</time>
      </trkpt>
      <trkpt lat="46.69961" lon="-1.83065">
        <ele>13</ele>
        <time>2018-01-09T04:50:08Z</time>
      </trkpt>
      <trkpt lat="46.69968" lon="-1.83074">
        <ele>13</ele>
        <time>2018-01-09T04:51:08Z</time>
      </trkpt>
      <trkpt lat="46.69973" lon="-1.83081">
        <ele>12</ele>
        <time>2018-01-09T04:52:08Z</time>
      </trkpt>
      <trkpt lat="46.69977" lon="-1.83089">
        <ele>12</ele>
        <time>2018-01-09T04:53:08Z</time>
      </trkpt>
      <trkpt lat="46.69984" lon="-1.831">
        <ele>12</ele>
        <time>2018-01-09T04:54:08Z</time>
      </trkpt>
      <trkpt lat="46.69988" lon="-1.8311">
        <ele>12</ele>
        <time>2018-01-09T04:55:08Z</time>
      </trkpt>
      <trkpt lat="46.6999" lon="-1.83114">
        <ele>12</ele>
        <time>2018-01-09T04:56:08Z</time>
      </trkpt>
      <trkpt lat="46.69992" lon="-1.83119">
        <ele>12</ele>
        <time>2018-01-09T04:57:08Z</time>
      </trkpt>
      <trkpt lat="46.69995" lon="-1.83128">
        <ele>12</ele>
        <time>2018-01-09T04:58:08Z</time>
      </trkpt>
      <trkpt lat="46.7" lon="-1.83142">
        <ele>11</ele>
        <time>2018-01-09T04:59:08Z</time>
      </trkpt>
      <trkpt lat="46.70001" lon="-1.83147">
        <ele>11</ele>
        <time>2018-01-09T05:00:08Z</time>
      </trkpt>
      <trkpt lat="46.70002" lon="-1.8315">
        <ele>11</ele>
        <time>2018-01-09T05:01:08Z</time>
      </trkpt>
      <trkpt lat="46.70002" lon="-1.83152">
        <ele>11</ele>
        <time>2018-01-09T05:02:08Z</time>
      </trkpt>
      <trkpt lat="46.70003" lon="-1.83155">
        <ele>11</ele>
        <time>2018-01-09T05:03:08Z</time>
      </trkpt>
      <trkpt lat="46.70002" lon="-1.83157">
        <ele>11</ele>
        <time>2018-01-09T05:04:08Z</time>
      </trkpt>
      <trkpt lat="46.70002" lon="-1.83159">
        <ele>11</ele>
        <time>2018-01-09T05:05:08Z</time>
      </trkpt>
      <trkpt lat="46.70002" lon="-1.83162">
        <ele>11</ele>
        <time>2018-01-09T05:06:08Z</time>
      </trkpt>
      <trkpt lat="46.69998" lon="-1.83169">
        <ele>11</ele>
        <time>2018-01-09T05:07:08Z</time>
      </trkpt>
      <trkpt lat="46.69992" lon="-1.83175">
        <ele>11</ele>
        <time>2018-01-09T05:08:08Z</time>
      </trkpt>
      <trkpt lat="46.69984" lon="-1.83184">
        <ele>11</ele>
        <time>2018-01-09T05:09:08Z</time>
      </trkpt>
      <trkpt lat="46.69975" lon="-1.83195">
        <ele>11</ele>
        <time>2018-01-09T05:10:08Z</time>
      </trkpt>
      <trkpt lat="46.69972" lon="-1.83199">
        <ele>11</ele>
        <time>2018-01-09T05:11:08Z</time>
      </trkpt>
      <trkpt lat="46.6997" lon="-1.83203">
        <ele>11</ele>
        <time>2018-01-09T05:12:08Z</time>
      </trkpt>
      <trkpt lat="46.69967" lon="-1.83211">
        <ele>11</ele>
        <time>2018-01-09T05:13:08Z</time>
      </trkpt>
      <trkpt lat="46.69964" lon="-1.8322">
        <ele>11</ele>
        <time>2018-01-09T05:14:08Z</time>
      </trkpt>
      <trkpt lat="46.6996" lon="-1.83236">
        <ele>11</ele>
        <time>2018-01-09T05:15:08Z</time>
      </trkpt>
      <trkpt lat="46.69958" lon="-1.83243">
        <ele>11</ele>
        <time>2018-01-09T05:16:08Z</time>
      </trkpt>
      <trkpt lat="46.69958" lon="-1.83252">
        <ele>11</ele>
        <time>2018-01-09T05:17:08Z</time>
      </trkpt>
      <trkpt lat="46.69958" lon="-1.83258">
        <ele>11</ele>
        <time>2018-01-09T05:18:08Z</time>
      </trkpt>
      <trkpt lat="46.69959" lon="-1.83262">
        <ele>11</ele>
        <time>2018-01-09T05:19:08Z</time>
      </trkpt>
      <trkpt lat="46.6996" lon="-1.83268">
        <ele>11</ele>
        <time>2018-01-09T05:20:08Z</time>
      </trkpt>
      <trkpt lat="46.69964" lon="-1.8328">
        <ele>10</ele>
        <time>2018-01-09T05:21:08Z</time>
      </trkpt>
      <trkpt lat="46.69972" lon="-1.83295">
        <ele>10</ele>
        <time>2018-01-09T05:22:08Z</time>
      </trkpt>
      <trkpt lat="46.69975" lon="-1.83302">
        <ele>10</ele>
        <time>2018-01-09T05:23:08Z</time>
      </trkpt>
      <trkpt lat="46.69981" lon="-1.83314">
        <ele>10</ele>
        <time>2018-01-09T05:24:08Z</time>
      </trkpt>
      <trkpt lat="46.69987" lon="-1.83327">
        <ele>9</ele>
        <time>2018-01-09T05:25:08Z</time>
      </trkpt>
      <trkpt lat="46.69989" lon="-1.83337">
        <ele>9</ele>
        <time>2018-01-09T05:26:08Z</time>
      </trkpt>
      <trkpt lat="46.6999" lon="-1.83343">
        <ele>9</ele>
        <time>2018-01-09T05:27:08Z</time>
      </trkpt>
      <trkpt lat="46.6999" lon="-1.83349">
        <ele>10</ele>
        <time>2018-01-09T05:28:08Z</time>
      </trkpt>
      <trkpt lat="46.69991" lon="-1.83357">
        <ele>10</ele>
        <time>2018-01-09T05:29:08Z</time>
      </trkpt>
      <trkpt lat="46.69992" lon="-1.83364">
        <ele>10</ele>
        <time>2018-01-09T05:30:08Z</time>
      </trkpt>
      <trkpt lat="46.69993" lon="-1.8338">
        <ele>11</ele>
        <time>2018-01-09T05:31:08Z</time>
      </trkpt>
      <trkpt lat="46.69994" lon="-1.83398">
        <ele>11</ele>
        <time>2018-01-09T05:32:08Z</time>
      </trkpt>
      <trkpt lat="46.69997" lon="-1.83415">
        <ele>12</ele>
        <time>2018-01-09T05:33:08Z</time>
      </trkpt>
      <trkpt lat="46.7" lon="-1.8343">
        <ele>12</ele>
        <time>2018-01-09T05:34:08Z</time>
      </trkpt>
      <trkpt lat="46.70002" lon="-1.83442">
        <ele>13</ele>
        <time>2018-01-09T05:35:08Z</time>
      </trkpt>
      <trkpt lat="46.70006" lon="-1.83454">
        <ele>13</ele>
        <time>2018-01-09T05:36:08Z</time>
      </trkpt>
      <trkpt lat="46.70012" lon="-1.8347">
        <ele>14</ele>
        <time>2018-01-09T05:37:08Z</time>
      </trkpt>
      <trkpt lat="46.70019" lon="-1.83485">
        <ele>15</ele>
        <time>2018-01-09T05:38:08Z</time>
      </trkpt>
      <trkpt lat="46.70028" lon="-1.83503">
        <ele>15</ele>
        <time>2018-01-09T05:39:08Z</time>
      </trkpt>
      <trkpt lat="46.70035" lon="-1.83519">
        <ele>16</ele>
        <time>2018-01-09T05:40:08Z</time>
      </trkpt>
      <trkpt lat="46.70043" lon="-1.83534">
        <ele>16</ele>
        <time>2018-01-09T05:41:08Z</time>
      </trkpt>
      <trkpt lat="46.70054" lon="-1.83555">
        <ele>16</ele>
        <time>2018-01-09T05:42:08Z</time>
      </trkpt>
      <trkpt lat="46.70068" lon="-1.83582">
        <ele>17</ele>
        <time>2018-01-09T05:43:08Z</time>
      </trkpt>
      <trkpt lat="46.70087" lon="-1.83624">
        <ele>18</ele>
        <time>2018-01-09T05:44:08Z</time>
      </trkpt>
      <trkpt lat="46.70103" lon="-1.8366">
        <ele>19</ele>
        <time>2018-01-09T05:45:08Z</time>
      </trkpt>
      <trkpt lat="46.70125" lon="-1.83717">
        <ele>19</ele>
        <time>2018-01-09T05:46:08Z</time>
      </trkpt>
      <trkpt lat="46.70138" lon="-1.83749">
        <ele>20</ele>
        <time>2018-01-09T05:47:08Z</time>
      </trkpt>
      <trkpt lat="46.7015" lon="-1.83781">
        <ele>20</ele>
        <time>2018-01-09T05:48:08Z</time>
      </trkpt>
      <trkpt lat="46.70163" lon="-1.83812">
        <ele>20</ele>
        <time>2018-01-09T05:49:08Z</time>
      </trkpt>
      <trkpt lat="46.70171" lon="-1.83831">
        <ele>20</ele>
        <time>2018-01-09T05:50:08Z</time>
      </trkpt>
      <trkpt lat="46.70181" lon="-1.83852">
        <ele>20</ele>
        <time>2018-01-09T05:51:08Z</time>
      </trkpt>
      <trkpt lat="46.70193" lon="-1.83875">
        <ele>21</ele>
        <time>2018-01-09T05:52:08Z</time>
      </trkpt>
      <trkpt lat="46.70201" lon="-1.8389">
        <ele>21</ele>
        <time>2018-01-09T05:53:08Z</time>
      </trkpt>
      <trkpt lat="46.70212" lon="-1.8391">
        <ele>21</ele>
        <time>2018-01-09T05:54:08Z</time>
      </trkpt>
      <trkpt lat="46.70212" lon="-1.83911">
        <ele>21</ele>
        <time>2018-01-09T05:55:08Z</time>
      </trkpt>
      <trkpt lat="46.70222" lon="-1.83931">
        <ele>21</ele>
        <time>2018-01-09T05:56:08Z</time>
      </trkpt>
      <trkpt lat="46.70228" lon="-1.83942">
        <ele>21</ele>
        <time>2018-01-09T05:57:08Z</time>
      </trkpt>
      <trkpt lat="46.70234" lon="-1.83956">
        <ele>22</ele>
        <time>2018-01-09T05:58:08Z</time>
      </trkpt>
      <trkpt lat="46.70235" lon="-1.8396">
        <ele>22</ele>
        <time>2018-01-09T05:59:08Z</time>
      </trkpt>
      <trkpt lat="46.70237" lon="-1.83967">
        <ele>22</ele>
        <time>2018-01-09T06:00:08Z</time>
      </trkpt>
      <trkpt lat="46.70241" lon="-1.83978">
        <ele>22</ele>
        <time>2018-01-09T06:01:08Z</time>
      </trkpt>
      <trkpt lat="46.7025" lon="-1.84012">
        <ele>22</ele>
        <time>2018-01-09T06:02:08Z</time>
      </trkpt>
      <trkpt lat="46.70257" lon="-1.84037">
        <ele>22</ele>
        <time>2018-01-09T06:03:08Z</time>
      </trkpt>
      <trkpt lat="46.70261" lon="-1.84056">
        <ele>22</ele>
        <time>2018-01-09T06:04:08Z</time>
      </trkpt>
      <trkpt lat="46.7027" lon="-1.84122">
        <ele>22</ele>
        <time>2018-01-09T06:05:08Z</time>
      </trkpt>
      <trkpt lat="46.70275" lon="-1.8416">
        <ele>22</ele>
        <time>2018-01-09T06:06:08Z</time>
      </trkpt>
      <trkpt lat="46.70281" lon="-1.84202">
        <ele>21</ele>
        <time>2018-01-09T06:07:08Z</time>
      </trkpt>
      <trkpt lat="46.70285" lon="-1.84234">
        <ele>21</ele>
        <time>2018-01-09T06:08:08Z</time>
      </trkpt>
      <trkpt lat="46.7029" lon="-1.84278">
        <ele>21</ele>
        <time>2018-01-09T06:09:08Z</time>
      </trkpt>
      <trkpt lat="46.70292" lon="-1.84314">
        <ele>21</ele>
        <time>2018-01-09T06:10:08Z</time>
      </trkpt>
      <trkpt lat="46.70296" lon="-1.84357">
        <ele>20</ele>
        <time>2018-01-09T06:11:08Z</time>
      </trkpt>
      <trkpt lat="46.70298" lon="-1.84387">
        <ele>20</ele>
        <time>2018-01-09T06:12:08Z</time>
      </trkpt>
      <trkpt lat="46.70299" lon="-1.84401">
        <ele>20</ele>
        <time>2018-01-09T06:13:08Z</time>
      </trkpt>
      <trkpt lat="46.70299" lon="-1.84401">
        <ele>20</ele>
        <time>2018-01-09T06:14:08Z</time>
      </trkpt>
      <trkpt lat="46.70302" lon="-1.84417">
        <ele>19</ele>
        <time>2018-01-09T06:15:08Z</time>
      </trkpt>
      <trkpt lat="46.70305" lon="-1.84434">
        <ele>19</ele>
        <time>2018-01-09T06:16:08Z</time>
      </trkpt>
      <trkpt lat="46.7031" lon="-1.84451">
        <ele>19</ele>
        <time>2018-01-09T06:17:08Z</time>
      </trkpt>
      <trkpt lat="46.70317" lon="-1.84477">
        <ele>19</ele>
        <time>2018-01-09T06:18:08Z</time>
      </trkpt>
      <trkpt lat="46.70334" lon="-1.8453">
        <ele>19</ele>
        <time>2018-01-09T06:19:08Z</time>
      </trkpt>
      <trkpt lat="46.70344" lon="-1.84563">
        <ele>19</ele>
        <time>2018-01-09T06:20:08Z</time>
      </trkpt>
      <trkpt lat="46.7035" lon="-1.84584">
        <ele>20</ele>
        <time>2018-01-09T06:21:08Z</time>
      </trkpt>
      <trkpt lat="46.70361" lon="-1.84622">
        <ele>19</ele>
        <time>2018-01-09T06:22:08Z</time>
      </trkpt>
      <trkpt lat="46.70374" lon="-1.8466">
        <ele>19</ele>
        <time>2018-01-09T06:23:08Z</time>
      </trkpt>
      <trkpt lat="46.70386" lon="-1.8469">
        <ele>20</ele>
        <time>2018-01-09T06:24:08Z</time>
      </trkpt>
      <trkpt lat="46.70396" lon="-1.84716">
        <ele>20</ele>
        <time>2018-01-09T06:25:08Z</time>
      </trkpt>
      <trkpt lat="46.70404" lon="-1.84735">
        <ele>20</ele>
        <time>2018-01-09T06:26:08Z</time>
      </trkpt>
      <trkpt lat="46.70409" lon="-1.8475">
        <ele>20</ele>
        <time>2018-01-09T06:27:08Z</time>
      </trkpt>
      <trkpt lat="46.70412" lon="-1.84763">
        <ele>20</ele>
        <time>2018-01-09T06:28:08Z</time>
      </trkpt>
      <trkpt lat="46.70417" lon="-1.84785">
        <ele>21</ele>
        <time>2018-01-09T06:29:08Z</time>
      </trkpt>
      <trkpt lat="46.70422" lon="-1.84808">
        <ele>22</ele>
        <time>2018-01-09T06:30:08Z</time>
      </trkpt>
      <trkpt lat="46.70426" lon="-1.84829">
        <ele>22</ele>
        <time>2018-01-09T06:31:08Z</time>
      </trkpt>
      <trkpt lat="46.70432" lon="-1.84855">
        <ele>22</ele>
        <time>2018-01-09T06:32:08Z</time>
      </trkpt>
      <trkpt lat="46.70439" lon="-1.84875">
        <ele>23</ele>
        <time>2018-01-09T06:33:08Z</time>
      </trkpt>
      <trkpt lat="46.70446" lon="-1.84893">
        <ele>23</ele>
        <time>2018-01-09T06:34:08Z</time>
      </trkpt>
      <trkpt lat="46.70452" lon="-1.84911">
        <ele>23</ele>
        <time>2018-01-09T06:35:08Z</time>
      </trkpt>
      <trkpt lat="46.70458" lon="-1.84928">
        <ele>24</ele>
        <time>2018-01-09T06:36:08Z</time>
      </trkpt>
      <trkpt lat="46.70458" lon="-1.84928">
        <ele>24</ele>
        <time>2018-01-09T06:37:08Z</time>
      </trkpt>
      <trkpt lat="46.70462" lon="-1.84939">
        <ele>24</ele>
        <time>2018-01-09T06:38:08Z</time>
      </trkpt>
      <trkpt lat="46.70465" lon="-1.84952">
        <ele>24</ele>
        <time>2018-01-09T06:39:08Z</time>
      </trkpt>
      <trkpt lat="46.70466" lon="-1.84963">
        <ele>25</ele>
        <time>2018-01-09T06:40:08Z</time>
      </trkpt>
      <trkpt lat="46.70467" lon="-1.84972">
        <ele>25</ele>
        <time>2018-01-09T06:41:08Z</time>
      </trkpt>
      <trkpt lat="46.70468" lon="-1.84981">
        <ele>25</ele>
        <time>2018-01-09T06:42:08Z</time>
      </trkpt>
      <trkpt lat="46.70468" lon="-1.8499">
        <ele>25</ele>
        <time>2018-01-09T06:43:08Z</time>
      </trkpt>
      <trkpt lat="46.70467" lon="-1.8501">
        <ele>25</ele>
        <time>2018-01-09T06:44:08Z</time>
      </trkpt>
      <trkpt lat="46.70466" lon="-1.8503">
        <ele>25</ele>
        <time>2018-01-09T06:45:08Z</time>
      </trkpt>
      <trkpt lat="46.70465" lon="-1.8505">
        <ele>25</ele>
        <time>2018-01-09T06:46:08Z</time>
      </trkpt>
      <trkpt lat="46.70463" lon="-1.85071">
        <ele>25</ele>
        <time>2018-01-09T06:47:08Z</time>
      </trkpt>
      <trkpt lat="46.70461" lon="-1.85103">
        <ele>25</ele>
        <time>2018-01-09T06:48:08Z</time>
      </trkpt>
      <trkpt lat="46.70459" lon="-1.85124">
        <ele>25</ele>
        <time>2018-01-09T06:49:08Z</time>
      </trkpt>
      <trkpt lat="46.70458" lon="-1.85143">
        <ele>24</ele>
        <time>2018-01-09T06:50:08Z</time>
      </trkpt>
      <trkpt lat="46.70457" lon="-1.85156">
        <ele>24</ele>
        <time>2018-01-09T06:51:08Z</time>
      </trkpt>
      <trkpt lat="46.70457" lon="-1.85167">
        <ele>24</ele>
        <time>2018-01-09T06:52:08Z</time>
      </trkpt>
      <trkpt lat="46.70457" lon="-1.85178">
        <ele>24</ele>
        <time>2018-01-09T06:53:08Z</time>
      </trkpt>
      <trkpt lat="46.70457" lon="-1.8519">
        <ele>24</ele>
        <time>2018-01-09T06:54:08Z</time>
      </trkpt>
      <trkpt lat="46.70459" lon="-1.85201">
        <ele>24</ele>
        <time>2018-01-09T06:55:08Z</time>
      </trkpt>
      <trkpt lat="46.7046" lon="-1.85211">
        <ele>25</ele>
        <time>2018-01-09T06:56:08Z</time>
      </trkpt>
      <trkpt lat="46.70462" lon="-1.85222">
        <ele>25</ele>
        <time>2018-01-09T06:57:08Z</time>
      </trkpt>
      <trkpt lat="46.70464" lon="-1.85232">
        <ele>25</ele>
        <time>2018-01-09T06:58:08Z</time>
      </trkpt>
      <trkpt lat="46.70468" lon="-1.85254">
        <ele>25</ele>
        <time>2018-01-09T06:59:08Z</time>
      </trkpt>
      <trkpt lat="46.70473" lon="-1.85276">
        <ele>25</ele>
        <time>2018-01-09T07:00:08Z</time>
      </trkpt>
      <trkpt lat="46.70477" lon="-1.85299">
        <ele>25</ele>
        <time>2018-01-09T07:01:08Z</time>
      </trkpt>
      <trkpt lat="46.7048" lon="-1.85321">
        <ele>25</ele>
        <time>2018-01-09T07:02:08Z</time>
      </trkpt>
      <trkpt lat="46.70483" lon="-1.85346">
        <ele>25</ele>
        <time>2018-01-09T07:03:08Z</time>
      </trkpt>
      <trkpt lat="46.70487" lon="-1.8538">
        <ele>25</ele>
        <time>2018-01-09T07:04:08Z</time>
      </trkpt>
      <trkpt lat="46.70492" lon="-1.85438">
        <ele>25</ele>
        <time>2018-01-09T07:05:08Z</time>
      </trkpt>
      <trkpt lat="46.70496" lon="-1.85469">
        <ele>25</ele>
        <time>2018-01-09T07:06:08Z</time>
      </trkpt>
      <trkpt lat="46.70498" lon="-1.85494">
        <ele>25</ele>
        <time>2018-01-09T07:07:08Z</time>
      </trkpt>
      <trkpt lat="46.705" lon="-1.8552">
        <ele>25</ele>
        <time>2018-01-09T07:08:08Z</time>
      </trkpt>
      <trkpt lat="46.70503" lon="-1.85543">
        <ele>26</ele>
        <time>2018-01-09T07:09:08Z</time>
      </trkpt>
      <trkpt lat="46.70504" lon="-1.85557">
        <ele>26</ele>
        <time>2018-01-09T07:10:08Z</time>
      </trkpt>
      <trkpt lat="46.70505" lon="-1.85573">
        <ele>27</ele>
        <time>2018-01-09T07:11:08Z</time>
      </trkpt>
      <trkpt lat="46.70505" lon="-1.85587">
        <ele>27</ele>
        <time>2018-01-09T07:12:08Z</time>
      </trkpt>
      <trkpt lat="46.70505" lon="-1.85607">
        <ele>27</ele>
        <time>2018-01-09T07:13:08Z</time>
      </trkpt>
      <trkpt lat="46.70503" lon="-1.85622">
        <ele>27</ele>
        <time>2018-01-09T07:14:08Z</time>
      </trkpt>
      <trkpt lat="46.70502" lon="-1.85641">
        <ele>28</ele>
        <time>2018-01-09T07:15:08Z</time>
      </trkpt>
      <trkpt lat="46.705" lon="-1.85664">
        <ele>28</ele>
        <time>2018-01-09T07:16:08Z</time>
      </trkpt>
      <trkpt lat="46.70499" lon="-1.85674">
        <ele>28</ele>
        <time>2018-01-09T07:17:08Z</time>
      </trkpt>
      <trkpt lat="46.70498" lon="-1.85686">
        <ele>28</ele>
        <time>2018-01-09T07:18:08Z</time>
      </trkpt>
      <trkpt lat="46.70498" lon="-1.85697">
        <ele>28</ele>
        <time>2018-01-09T07:19:08Z</time>
      </trkpt>
      <trkpt lat="46.70498" lon="-1.85708">
        <ele>27</ele>
        <time>2018-01-09T07:20:08Z</time>
      </trkpt>
      <trkpt lat="46.70498" lon="-1.85719">
        <ele>27</ele>
        <time>2018-01-09T07:21:08Z</time>
      </trkpt>
      <trkpt lat="46.70499" lon="-1.8573">
        <ele>27</ele>
        <time>2018-01-09T07:22:08Z</time>
      </trkpt>
      <trkpt lat="46.705" lon="-1.85741">
        <ele>27</ele>
        <time>2018-01-09T07:23:08Z</time>
      </trkpt>
      <trkpt lat="46.70502" lon="-1.85763">
        <ele>27</ele>
        <time>2018-01-09T07:24:08Z</time>
      </trkpt>
      <trkpt lat="46.70509" lon="-1.85817">
        <ele>27</ele>
        <time>2018-01-09T07:25:08Z</time>
      </trkpt>
      <trkpt lat="46.70511" lon="-1.85837">
        <ele>27</ele>
        <time>2018-01-09T07:26:08Z</time>
      </trkpt>
      <trkpt lat="46.70513" lon="-1.85858">
        <ele>27</ele>
        <time>2018-01-09T07:27:08Z</time>
      </trkpt>
      <trkpt lat="46.70514" lon="-1.85879">
        <ele>28</ele>
        <time>2018-01-09T07:28:08Z</time>
      </trkpt>
      <trkpt lat="46.70516" lon="-1.85898">
        <ele>28</ele>
        <time>2018-01-09T07:29:08Z</time>
      </trkpt>
      <trkpt lat="46.70516" lon="-1.85918">
        <ele>28</ele>
        <time>2018-01-09T07:30:08Z</time>
      </trkpt>
      <trkpt lat="46.70517" lon="-1.85938">
        <ele>28</ele>
        <time>2018-01-09T07:31:08Z</time>
      </trkpt>
      <trkpt lat="46.70518" lon="-1.85964">
        <ele>29</ele>
        <time>2018-01-09T07:32:08Z</time>
      </trkpt>
      <trkpt lat="46.70518" lon="-1.8598">
        <ele>29</ele>
        <time>2018-01-09T07:33:08Z</time>
      </trkpt>
      <trkpt lat="46.70519" lon="-1.85999">
        <ele>29</ele>
        <time>2018-01-09T07:34:08Z</time>
      </trkpt>
      <trkpt lat="46.70519" lon="-1.86015">
        <ele>29</ele>
        <time>2018-01-09T07:35:08Z</time>
      </trkpt>
      <trkpt lat="46.7052" lon="-1.86033">
        <ele>29</ele>
        <time>2018-01-09T07:36:08Z</time>
      </trkpt>
      <trkpt lat="46.7052" lon="-1.86033">
        <ele>29</ele>
        <time>2018-01-09T07:37:08Z</time>
      </trkpt>
      <trkpt lat="46.7052" lon="-1.86063">
        <ele>29</ele>
        <time>2018-01-09T07:38:08Z</time>
      </trkpt>
      <trkpt lat="46.7052" lon="-1.86097">
        <ele>29</ele>
        <time>2018-01-09T07:39:08Z</time>
      </trkpt>
      <trkpt lat="46.70521" lon="-1.8613">
        <ele>29</ele>
        <time>2018-01-09T07:40:08Z</time>
      </trkpt>
      <trkpt lat="46.70524" lon="-1.86177">
        <ele>29</ele>
        <time>2018-01-09T07:41:08Z</time>
      </trkpt>
      <trkpt lat="46.70527" lon="-1.86226">
        <ele>29</ele>
        <time>2018-01-09T07:42:08Z</time>
      </trkpt>
      <trkpt lat="46.70532" lon="-1.86266">
        <ele>29</ele>
        <time>2018-01-09T07:43:08Z</time>
      </trkpt>
      <trkpt lat="46.70533" lon="-1.86295">
        <ele>29</ele>
        <time>2018-01-09T07:44:08Z</time>
      </trkpt>
      <trkpt lat="46.70535" lon="-1.86328">
        <ele>28</ele>
        <time>2018-01-09T07:45:08Z</time>
      </trkpt>
      <trkpt lat="46.70535" lon="-1.86356">
        <ele>29</ele>
        <time>2018-01-09T07:46:08Z</time>
      </trkpt>
      <trkpt lat="46.70535" lon="-1.8637">
        <ele>29</ele>
        <time>2018-01-09T07:47:08Z</time>
      </trkpt>
      <trkpt lat="46.70533" lon="-1.8638">
        <ele>29</ele>
        <time>2018-01-09T07:48:08Z</time>
      </trkpt>
      <trkpt lat="46.70531" lon="-1.86396">
        <ele>29</ele>
        <time>2018-01-09T07:49:08Z</time>
      </trkpt>
      <trkpt lat="46.70525" lon="-1.86434">
        <ele>30</ele>
        <time>2018-01-09T07:50:08Z</time>
      </trkpt>
      <trkpt lat="46.70519" lon="-1.86477">
        <ele>30</ele>
        <time>2018-01-09T07:51:08Z</time>
      </trkpt>
      <trkpt lat="46.70511" lon="-1.86524">
        <ele>31</ele>
        <time>2018-01-09T07:52:08Z</time>
      </trkpt>
      <trkpt lat="46.70502" lon="-1.86575">
        <ele>30</ele>
        <time>2018-01-09T07:53:08Z</time>
      </trkpt>
      <trkpt lat="46.7049" lon="-1.86648">
        <ele>30</ele>
        <time>2018-01-09T07:54:08Z</time>
      </trkpt>
      <trkpt lat="46.70478" lon="-1.86722">
        <ele>30</ele>
        <time>2018-01-09T07:55:08Z</time>
      </trkpt>
      <trkpt lat="46.7047" lon="-1.86777">
        <ele>29</ele>
        <time>2018-01-09T07:56:08Z</time>
      </trkpt>
      <trkpt lat="46.70469" lon="-1.86787">
        <ele>29</ele>
        <time>2018-01-09T07:57:08Z</time>
      </trkpt>
      <trkpt lat="46.70467" lon="-1.86803">
        <ele>29</ele>
        <time>2018-01-09T07:58:08Z</time>
      </trkpt>
      <trkpt lat="46.70468" lon="-1.86815">
        <ele>28</ele>
        <time>2018-01-09T07:59:08Z</time>
      </trkpt>
      <trkpt lat="46.7047" lon="-1.86824">
        <ele>28</ele>
        <time>2018-01-09T08:00:08Z</time>
      </trkpt>
      <trkpt lat="46.70474" lon="-1.86836">
        <ele>28</ele>
        <time>2018-01-09T08:01:08Z</time>
      </trkpt>
      <trkpt lat="46.70484" lon="-1.86853">
        <ele>28</ele>
        <time>2018-01-09T08:02:08Z</time>
      </trkpt>
      <trkpt lat="46.70506" lon="-1.86879">
        <ele>29</ele>
        <time>2018-01-09T08:03:08Z</time>
      </trkpt>
      <trkpt lat="46.70533" lon="-1.8691">
        <ele>29</ele>
        <time>2018-01-09T08:04:08Z</time>
      </trkpt>
      <trkpt lat="46.70556" lon="-1.8694">
        <ele>30</ele>
        <time>2018-01-09T08:05:08Z</time>
      </trkpt>
      <trkpt lat="46.70569" lon="-1.86957">
        <ele>30</ele>
        <time>2018-01-09T08:06:08Z</time>
      </trkpt>
      <trkpt lat="46.7058" lon="-1.86972">
        <ele>31</ele>
        <time>2018-01-09T08:07:08Z</time>
      </trkpt>
      <trkpt lat="46.70586" lon="-1.86981">
        <ele>31</ele>
        <time>2018-01-09T08:08:08Z</time>
      </trkpt>
      <trkpt lat="46.706" lon="-1.87006">
        <ele>31</ele>
        <time>2018-01-09T08:09:08Z</time>
      </trkpt>
      <trkpt lat="46.70613" lon="-1.87027">
        <ele>31</ele>
        <time>2018-01-09T08:10:08Z</time>
      </trkpt>
      <trkpt lat="46.70613" lon="-1.87027">
        <ele>31</ele>
        <time>2018-01-09T08:11:08Z</time>
      </trkpt>
      <trkpt lat="46.70623" lon="-1.87043">
        <ele>31</ele>
        <time>2018-01-09T08:12:08Z</time>
      </trkpt>
      <trkpt lat="46.70633" lon="-1.8706">
        <ele>30</ele>
        <time>2018-01-09T08:13:08Z</time>
      </trkpt>
      <trkpt lat="46.70647" lon="-1.87082">
        <ele>29</ele>
        <time>2018-01-09T08:14:08Z</time>
      </trkpt>
      <trkpt lat="46.70665" lon="-1.87107">
        <ele>29</ele>
        <time>2018-01-09T08:15:08Z</time>
      </trkpt>
      <trkpt lat="46.70675" lon="-1.87122">
        <ele>29</ele>
        <time>2018-01-09T08:16:08Z</time>
      </trkpt>
      <trkpt lat="46.7069" lon="-1.87145">
        <ele>29</ele>
        <time>2018-01-09T08:17:08Z</time>
      </trkpt>
      <trkpt lat="46.70705" lon="-1.87168">
        <ele>29</ele>
        <time>2018-01-09T08:18:08Z</time>
      </trkpt>
      <trkpt lat="46.70719" lon="-1.87197">
        <ele>29</ele>
        <time>2018-01-09T08:19:08Z</time>
      </trkpt>
      <trkpt lat="46.70739" lon="-1.8724">
        <ele>29</ele>
        <time>2018-01-09T08:20:08Z</time>
      </trkpt>
      <trkpt lat="46.70745" lon="-1.87253">
        <ele>29</ele>
        <time>2018-01-09T08:21:08Z</time>
      </trkpt>
      <trkpt lat="46.70761" lon="-1.87289">
        <ele>29</ele>
        <time>2018-01-09T08:22:08Z</time>
      </trkpt>
      <trkpt lat="46.70762" lon="-1.8729">
        <ele>29</ele>
        <time>2018-01-09T08:23:08Z</time>
      </trkpt>
      <trkpt lat="46.70785" lon="-1.87338">
        <ele>28</ele>
        <time>2018-01-09T08:24:08Z</time>
      </trkpt>
      <trkpt lat="46.70825" lon="-1.87411">
        <ele>28</ele>
        <time>2018-01-09T08:25:08Z</time>
      </trkpt>
      <trkpt lat="46.70858" lon="-1.87473">
        <ele>29</ele>
        <time>2018-01-09T08:26:08Z</time>
      </trkpt>
      <trkpt lat="46.70897" lon="-1.87545">
        <ele>30</ele>
        <time>2018-01-09T08:27:08Z</time>
      </trkpt>
      <trkpt lat="46.7091" lon="-1.87574">
        <ele>31</ele>
        <time>2018-01-09T08:28:08Z</time>
      </trkpt>
      <trkpt lat="46.70919" lon="-1.87593">
        <ele>31</ele>
        <time>2018-01-09T08:29:08Z</time>
      </trkpt>
      <trkpt lat="46.70927" lon="-1.87614">
        <ele>30</ele>
        <time>2018-01-09T08:30:08Z</time>
      </trkpt>
      <trkpt lat="46.70946" lon="-1.87665">
        <ele>29</ele>
        <time>2018-01-09T08:31:08Z</time>
      </trkpt>
      <trkpt lat="46.70946" lon="-1.87665">
        <ele>29</ele>
        <time>2018-01-09T08:32:08Z</time>
      </trkpt>
      <trkpt lat="46.70939" lon="-1.87681">
        <ele>29</ele>
        <time>2018-01-09T08:33:08Z</time>
      </trkpt>
      <trkpt lat="46.70927" lon="-1.87715">
        <ele>30</ele>
        <time>2018-01-09T08:34:08Z</time>
      </trkpt>
      <trkpt lat="46.70913" lon="-1.87754">
        <ele>30</ele>
        <time>2018-01-09T08:35:08Z</time>
      </trkpt>
      <trkpt lat="46.70887" lon="-1.87841">
        <ele>33</ele>
        <time>2018-01-09T08:36:08Z</time>
      </trkpt>
      <trkpt lat="46.70871" lon="-1.87893">
        <ele>32</ele>
        <time>2018-01-09T08:37:08Z</time>
      </trkpt>
      <trkpt lat="46.7086" lon="-1.87931">
        <ele>31</ele>
        <time>2018-01-09T08:38:08Z</time>
      </trkpt>
      <trkpt lat="46.70849" lon="-1.87986">
        <ele>29</ele>
        <time>2018-01-09T08:39:08Z</time>
      </trkpt>
      <trkpt lat="46.70836" lon="-1.88052">
        <ele>28</ele>
        <time>2018-01-09T08:40:08Z</time>
      </trkpt>
      <trkpt lat="46.70821" lon="-1.88124">
        <ele>27</ele>
        <time>2018-01-09T08:41:08Z</time>
      </trkpt>
      <trkpt lat="46.70807" lon="-1.88193">
        <ele>27</ele>
        <time>2018-01-09T08:42:08Z</time>
      </trkpt>
      <trkpt lat="46.70803" lon="-1.88217">
        <ele>26</ele>
        <time>2018-01-09T08:43:08Z</time>
      </trkpt>
      <trkpt lat="46.70799" lon="-1.88238">
        <ele>26</ele>
        <time>2018-01-09T08:44:08Z</time>
      </trkpt>
      <trkpt lat="46.70789" lon="-1.88301">
        <ele>26</ele>
        <time>2018-01-09T08:45:08Z</time>
      </trkpt>
      <trkpt lat="46.70784" lon="-1.88335">
        <ele>26</ele>
        <time>2018-01-09T08:46:08Z</time>
      </trkpt>
      <trkpt lat="46.70774" lon="-1.88409">
        <ele>24</ele>
        <time>2018-01-09T08:47:08Z</time>
      </trkpt>
      <trkpt lat="46.70765" lon="-1.88479">
        <ele>25</ele>
        <time>2018-01-09T08:48:08Z</time>
      </trkpt>
      <trkpt lat="46.70758" lon="-1.88532">
        <ele>25</ele>
        <time>2018-01-09T08:49:08Z</time>
      </trkpt>
      <trkpt lat="46.7075" lon="-1.88577">
        <ele>26</ele>
        <time>2018-01-09T08:50:08Z</time>
      </trkpt>
      <trkpt lat="46.70735" lon="-1.88641">
        <ele>27</ele>
        <time>2018-01-09T08:51:08Z</time>
      </trkpt>
      <trkpt lat="46.70718" lon="-1.88694">
        <ele>27</ele>
        <time>2018-01-09T08:52:08Z</time>
      </trkpt>
      <trkpt lat="46.70705" lon="-1.88727">
        <ele>26</ele>
        <time>2018-01-09T08:53:08Z</time>
      </trkpt>
      <trkpt lat="46.70699" lon="-1.88743">
        <ele>26</ele>
        <time>2018-01-09T08:54:08Z</time>
      </trkpt>
      <trkpt lat="46.70691" lon="-1.88766">
        <ele>26</ele>
        <time>2018-01-09T08:55:08Z</time>
      </trkpt>
      <trkpt lat="46.70686" lon="-1.88791">
        <ele>26</ele>
        <time>2018-01-09T08:56:08Z</time>
      </trkpt>
      <trkpt lat="46.70684" lon="-1.88814">
        <ele>26</ele>
        <time>2018-01-09T08:57:08Z</time>
      </trkpt>
      <trkpt lat="46.70681" lon="-1.88833">
        <ele>27</ele>
        <time>2018-01-09T08:58:08Z</time>
      </trkpt>
      <trkpt lat="46.70673" lon="-1.88896">
        <ele>26</ele>
        <time>2018-01-09T08:59:08Z</time>
      </trkpt>
      <trkpt lat="46.70663" lon="-1.88967">
        <ele>25</ele>
        <time>2018-01-09T09:00:08Z</time>
      </trkpt>
      <trkpt lat="46.70655" lon="-1.89026">
        <ele>25</ele>
        <time>2018-01-09T09:01:08Z</time>
      </trkpt>
      <trkpt lat="46.70646" lon="-1.89075">
        <ele>24</ele>
        <time>2018-01-09T09:02:08Z</time>
      </trkpt>
      <trkpt lat="46.70646" lon="-1.89076">
        <ele>24</ele>
        <time>2018-01-09T09:03:08Z</time>
      </trkpt>
      <trkpt lat="46.70636" lon="-1.89124">
        <ele>24</ele>
        <time>2018-01-09T09:04:08Z</time>
      </trkpt>
      <trkpt lat="46.70628" lon="-1.89164">
        <ele>24</ele>
        <time>2018-01-09T09:05:08Z</time>
      </trkpt>
      <trkpt lat="46.7062" lon="-1.89204">
        <ele>23</ele>
        <time>2018-01-09T09:06:08Z</time>
      </trkpt>
      <trkpt lat="46.70611" lon="-1.89249">
        <ele>23</ele>
        <time>2018-01-09T09:07:08Z</time>
      </trkpt>
      <trkpt lat="46.70604" lon="-1.89286">
        <ele>23</ele>
        <time>2018-01-09T09:08:08Z</time>
      </trkpt>
      <trkpt lat="46.70604" lon="-1.89288">
        <ele>23</ele>
        <time>2018-01-09T09:09:08Z</time>
      </trkpt>
      <trkpt lat="46.706" lon="-1.89315">
        <ele>23</ele>
        <time>2018-01-09T09:10:08Z</time>
      </trkpt>
      <trkpt lat="46.70596" lon="-1.89365">
        <ele>23</ele>
        <time>2018-01-09T09:11:08Z</time>
      </trkpt>
      <trkpt lat="46.70591" lon="-1.89415">
        <ele>23</ele>
        <time>2018-01-09T09:12:08Z</time>
      </trkpt>
      <trkpt lat="46.70589" lon="-1.89451">
        <ele>23</ele>
        <time>2018-01-09T09:13:08Z</time>
      </trkpt>
      <trkpt lat="46.70589" lon="-1.89451">
        <ele>23</ele>
        <time>2018-01-09T09:14:08Z</time>
      </trkpt>
      <trkpt lat="46.70589" lon="-1.89471">
        <ele>23</ele>
        <time>2018-01-09T09:15:08Z</time>
      </trkpt>
      <trkpt lat="46.7059" lon="-1.89508">
        <ele>23</ele>
        <time>2018-01-09T09:16:08Z</time>
      </trkpt>
      <trkpt lat="46.7059" lon="-1.89544">
        <ele>22</ele>
        <time>2018-01-09T09:17:08Z</time>
      </trkpt>
      <trkpt lat="46.70588" lon="-1.8957">
        <ele>22</ele>
        <time>2018-01-09T09:18:08Z</time>
      </trkpt>
      <trkpt lat="46.70585" lon="-1.89597">
        <ele>22</ele>
        <time>2018-01-09T09:19:08Z</time>
      </trkpt>
      <trkpt lat="46.70579" lon="-1.89635">
        <ele>21</ele>
        <time>2018-01-09T09:20:08Z</time>
      </trkpt>
      <trkpt lat="46.70574" lon="-1.89672">
        <ele>21</ele>
        <time>2018-01-09T09:21:08Z</time>
      </trkpt>
      <trkpt lat="46.70568" lon="-1.89711">
        <ele>21</ele>
        <time>2018-01-09T09:22:08Z</time>
      </trkpt>
      <trkpt lat="46.70563" lon="-1.89743">
        <ele>22</ele>
        <time>2018-01-09T09:23:08Z</time>
      </trkpt>
      <trkpt lat="46.70556" lon="-1.89773">
        <ele>21</ele>
        <time>2018-01-09T09:24:08Z</time>
      </trkpt>
      <trkpt lat="46.70545" lon="-1.89808">
        <ele>20</ele>
        <time>2018-01-09T09:25:08Z</time>
      </trkpt>
      <trkpt lat="46.70534" lon="-1.89844">
        <ele>20</ele>
        <time>2018-01-09T09:26:08Z</time>
      </trkpt>
      <trkpt lat="46.7052" lon="-1.89879">
        <ele>20</ele>
        <time>2018-01-09T09:27:08Z</time>
      </trkpt>
      <trkpt lat="46.70503" lon="-1.89916">
        <ele>19</ele>
        <time>2018-01-09T09:28:08Z</time>
      </trkpt>
      <trkpt lat="46.7048" lon="-1.8996">
        <ele>19</ele>
        <time>2018-01-09T09:29:08Z</time>
      </trkpt>
      <trkpt lat="46.70462" lon="-1.89996">
        <ele>19</ele>
        <time>2018-01-09T09:30:08Z</time>
      </trkpt>
      <trkpt lat="46.70448" lon="-1.90029">
        <ele>19</ele>
        <time>2018-01-09T09:31:08Z</time>
      </trkpt>
      <trkpt lat="46.70436" lon="-1.90067">
        <ele>19</ele>
        <time>2018-01-09T09:32:08Z</time>
      </trkpt>
      <trkpt lat="46.70425" lon="-1.90111">
        <ele>19</ele>
        <time>2018-01-09T09:33:08Z</time>
      </trkpt>
      <trkpt lat="46.70414" lon="-1.90151">
        <ele>18</ele>
        <time>2018-01-09T09:34:08Z</time>
      </trkpt>
      <trkpt lat="46.70406" lon="-1.90185">
        <ele>18</ele>
        <time>2018-01-09T09:35:08Z</time>
      </trkpt>
      <trkpt lat="46.70399" lon="-1.90214">
        <ele>18</ele>
        <time>2018-01-09T09:36:08Z</time>
      </trkpt>
      <trkpt lat="46.70392" lon="-1.90234">
        <ele>18</ele>
        <time>2018-01-09T09:37:08Z</time>
      </trkpt>
      <trkpt lat="46.70377" lon="-1.90266">
        <ele>18</ele>
        <time>2018-01-09T09:38:08Z</time>
      </trkpt>
      <trkpt lat="46.70359" lon="-1.90293">
        <ele>18</ele>
        <time>2018-01-09T09:39:08Z</time>
      </trkpt>
      <trkpt lat="46.70344" lon="-1.90313">
        <ele>18</ele>
        <time>2018-01-09T09:40:08Z</time>
      </trkpt>
      <trkpt lat="46.70344" lon="-1.90313">
        <ele>18</ele>
        <time>2018-01-09T09:41:08Z</time>
      </trkpt>
      <trkpt lat="46.70358" lon="-1.90332">
        <ele>18</ele>
        <time>2018-01-09T09:42:08Z</time>
      </trkpt>
      <trkpt lat="46.70368" lon="-1.90344">
        <ele>17</ele>
        <time>2018-01-09T09:43:08Z</time>
      </trkpt>
      <trkpt lat="46.70375" lon="-1.90356">
        <ele>17</ele>
        <time>2018-01-09T09:44:08Z</time>
      </trkpt>
      <trkpt lat="46.70379" lon="-1.90365">
        <ele>17</ele>
        <time>2018-01-09T09:45:08Z</time>
      </trkpt>
      <trkpt lat="46.70381" lon="-1.90377">
        <ele>17</ele>
        <time>2018-01-09T09:46:08Z</time>
      </trkpt>
      <trkpt lat="46.70383" lon="-1.90398">
        <ele>16</ele>
        <time>2018-01-09T09:47:08Z</time>
      </trkpt>
      <trkpt lat="46.70384" lon="-1.9043">
        <ele>16</ele>
        <time>2018-01-09T09:48:08Z</time>
      </trkpt>
      <trkpt lat="46.70385" lon="-1.90457">
        <ele>15</ele>
        <time>2018-01-09T09:49:08Z</time>
      </trkpt>
      <trkpt lat="46.70388" lon="-1.90513">
        <ele>14</ele>
        <time>2018-01-09T09:50:08Z</time>
      </trkpt>
      <trkpt lat="46.70389" lon="-1.90536">
        <ele>14</ele>
        <time>2018-01-09T09:51:08Z</time>
      </trkpt>
      <trkpt lat="46.70391" lon="-1.90563">
        <ele>13</ele>
        <time>2018-01-09T09:52:08Z</time>
      </trkpt>
      <trkpt lat="46.70392" lon="-1.90575">
        <ele>13</ele>
        <time>2018-01-09T09:53:08Z</time>
      </trkpt>
      <trkpt lat="46.70393" lon="-1.90584">
        <ele>13</ele>
        <time>2018-01-09T09:54:08Z</time>
      </trkpt>
      <trkpt lat="46.70396" lon="-1.90597">
        <ele>13</ele>
        <time>2018-01-09T09:55:08Z</time>
      </trkpt>
      <trkpt lat="46.70402" lon="-1.90617">
        <ele>13</ele>
        <time>2018-01-09T09:56:08Z</time>
      </trkpt>
      <trkpt lat="46.70407" lon="-1.90633">
        <ele>13</ele>
        <time>2018-01-09T09:57:08Z</time>
      </trkpt>
      <trkpt lat="46.70418" lon="-1.90666">
        <ele>14</ele>
        <time>2018-01-09T09:58:08Z</time>
      </trkpt>
      <trkpt lat="46.70436" lon="-1.90714">
        <ele>16</ele>
        <time>2018-01-09T09:59:08Z</time>
      </trkpt>
      <trkpt lat="46.70452" lon="-1.9076">
        <ele>17</ele>
        <time>2018-01-09T10:00:08Z</time>
      </trkpt>
      <trkpt lat="46.70462" lon="-1.90789">
        <ele>17</ele>
        <time>2018-01-09T10:01:08Z</time>
      </trkpt>
      <trkpt lat="46.70472" lon="-1.90818">
        <ele>18</ele>
        <time>2018-01-09T10:02:08Z</time>
      </trkpt>
      <trkpt lat="46.7048" lon="-1.90846">
        <ele>18</ele>
        <time>2018-01-09T10:03:08Z</time>
      </trkpt>
      <trkpt lat="46.70493" lon="-1.90891">
        <ele>19</ele>
        <time>2018-01-09T10:04:08Z</time>
      </trkpt>
      <trkpt lat="46.70502" lon="-1.90928">
        <ele>19</ele>
        <time>2018-01-09T10:05:08Z</time>
      </trkpt>
      <trkpt lat="46.70513" lon="-1.9097">
        <ele>19</ele>
        <time>2018-01-09T10:06:08Z</time>
      </trkpt>
      <trkpt lat="46.70523" lon="-1.91013">
        <ele>20</ele>
        <time>2018-01-09T10:07:08Z</time>
      </trkpt>
      <trkpt lat="46.70535" lon="-1.9106">
        <ele>21</ele>
        <time>2018-01-09T10:08:08Z</time>
      </trkpt>
      <trkpt lat="46.7054" lon="-1.91084">
        <ele>22</ele>
        <time>2018-01-09T10:09:08Z</time>
      </trkpt>
      <trkpt lat="46.70552" lon="-1.91118">
        <ele>22</ele>
        <time>2018-01-09T10:10:08Z</time>
      </trkpt>
      <trkpt lat="46.70559" lon="-1.91139">
        <ele>22</ele>
        <time>2018-01-09T10:11:08Z</time>
      </trkpt>
      <trkpt lat="46.70566" lon="-1.9116">
        <ele>22</ele>
        <time>2018-01-09T10:12:08Z</time>
      </trkpt>
      <trkpt lat="46.70571" lon="-1.91173">
        <ele>22</ele>
        <time>2018-01-09T10:13:08Z</time>
      </trkpt>
      <trkpt lat="46.7058" lon="-1.91197">
        <ele>22</ele>
        <time>2018-01-09T10:14:08Z</time>
      </trkpt>
      <trkpt lat="46.70587" lon="-1.91222">
        <ele>21</ele>
        <time>2018-01-09T10:15:08Z</time>
      </trkpt>
      <trkpt lat="46.70588" lon="-1.91224">
        <ele>21</ele>
        <time>2018-01-09T10:16:08Z</time>
      </trkpt>
      <trkpt lat="46.70597" lon="-1.91255">
        <ele>21</ele>
        <time>2018-01-09T10:17:08Z</time>
      </trkpt>
      <trkpt lat="46.706" lon="-1.91268">
        <ele>21</ele>
        <time>2018-01-09T10:18:08Z</time>
      </trkpt>
      <trkpt lat="46.70609" lon="-1.91296">
        <ele>21</ele>
        <time>2018-01-09T10:19:08Z</time>
      </trkpt>
      <trkpt lat="46.70619" lon="-1.9133">
        <ele>21</ele>
        <time>2018-01-09T10:20:08Z</time>
      </trkpt>
      <trkpt lat="46.70636" lon="-1.91377">
        <ele>21</ele>
        <time>2018-01-09T10:21:08Z</time>
      </trkpt>
      <trkpt lat="46.70652" lon="-1.91427">
        <ele>21</ele>
        <time>2018-01-09T10:22:08Z</time>
      </trkpt>
      <trkpt lat="46.70659" lon="-1.91451">
        <ele>21</ele>
        <time>2018-01-09T10:23:08Z</time>
      </trkpt>
      <trkpt lat="46.70667" lon="-1.9147">
        <ele>21</ele>
        <time>2018-01-09T10:24:08Z</time>
      </trkpt>
      <trkpt lat="46.70667" lon="-1.91471">
        <ele>21</ele>
        <time>2018-01-09T10:25:08Z</time>
      </trkpt>
      <trkpt lat="46.70675" lon="-1.91494">
        <ele>21</ele>
        <time>2018-01-09T10:26:08Z</time>
      </trkpt>
      <trkpt lat="46.70681" lon="-1.91511">
        <ele>21</ele>
        <time>2018-01-09T10:27:08Z</time>
      </trkpt>
      <trkpt lat="46.70688" lon="-1.91525">
        <ele>21</ele>
        <time>2018-01-09T10:28:08Z</time>
      </trkpt>
      <trkpt lat="46.70695" lon="-1.91548">
        <ele>21</ele>
        <time>2018-01-09T10:29:08Z</time>
      </trkpt>
      <trkpt lat="46.70704" lon="-1.91574">
        <ele>21</ele>
        <time>2018-01-09T10:30:08Z</time>
      </trkpt>
      <trkpt lat="46.70704" lon="-1.91575">
        <ele>21</ele>
        <time>2018-01-09T10:31:08Z</time>
      </trkpt>
      <trkpt lat="46.70712" lon="-1.91599">
        <ele>20</ele>
        <time>2018-01-09T10:32:08Z</time>
      </trkpt>
      <trkpt lat="46.7072" lon="-1.91616">
        <ele>20</ele>
        <time>2018-01-09T10:33:08Z</time>
      </trkpt>
      <trkpt lat="46.70722" lon="-1.9162">
        <ele>20</ele>
        <time>2018-01-09T10:34:08Z</time>
      </trkpt>
      <trkpt lat="46.70728" lon="-1.9163">
        <ele>20</ele>
        <time>2018-01-09T10:35:08Z</time>
      </trkpt>
      <trkpt lat="46.70737" lon="-1.91639">
        <ele>20</ele>
        <time>2018-01-09T10:36:08Z</time>
      </trkpt>
      <trkpt lat="46.7075" lon="-1.91648">
        <ele>19</ele>
        <time>2018-01-09T10:37:08Z</time>
      </trkpt>
      <trkpt lat="46.70761" lon="-1.91657">
        <ele>19</ele>
        <time>2018-01-09T10:38:08Z</time>
      </trkpt>
      <trkpt lat="46.70768" lon="-1.91665">
        <ele>19</ele>
        <time>2018-01-09T10:39:08Z</time>
      </trkpt>
      <trkpt lat="46.70771" lon="-1.91669">
        <ele>19</ele>
        <time>2018-01-09T10:40:08Z</time>
      </trkpt>
      <trkpt lat="46.70779" lon="-1.91679">
        <ele>19</ele>
        <time>2018-01-09T10:41:08Z</time>
      </trkpt>
      <trkpt lat="46.70791" lon="-1.91699">
        <ele>20</ele>
        <time>2018-01-09T10:42:08Z</time>
      </trkpt>
      <trkpt lat="46.708" lon="-1.91712">
        <ele>20</ele>
        <time>2018-01-09T10:43:08Z</time>
      </trkpt>
      <trkpt lat="46.70809" lon="-1.91724">
        <ele>20</ele>
        <time>2018-01-09T10:44:08Z</time>
      </trkpt>
      <trkpt lat="46.7081" lon="-1.91725">
        <ele>20</ele>
        <time>2018-01-09T10:45:08Z</time>
      </trkpt>
      <trkpt lat="46.7082" lon="-1.91737">
        <ele>20</ele>
        <time>2018-01-09T10:46:08Z</time>
      </trkpt>
      <trkpt lat="46.70833" lon="-1.9175">
        <ele>20</ele>
        <time>2018-01-09T10:47:08Z</time>
      </trkpt>
      <trkpt lat="46.70847" lon="-1.91764">
        <ele>20</ele>
        <time>2018-01-09T10:48:08Z</time>
      </trkpt>
      <trkpt lat="46.70854" lon="-1.91771">
        <ele>19</ele>
        <time>2018-01-09T10:49:08Z</time>
      </trkpt>
      <trkpt lat="46.70854" lon="-1.91771">
        <ele>19</ele>
        <time>2018-01-09T10:50:08Z</time>
      </trkpt>
      <trkpt lat="46.70854" lon="-1.9177">
        <ele>19</ele>
        <time>2018-01-09T10:51:08Z</time>
      </trkpt>
      <trkpt lat="46.70855" lon="-1.91769">
        <ele>19</ele>
        <time>2018-01-09T10:52:08Z</time>
      </trkpt>
      <trkpt lat="46.70855" lon="-1.91768">
        <ele>19</ele>
        <time>2018-01-09T10:53:08Z</time>
      </trkpt>
      <trkpt lat="46.70855" lon="-1.91767">
        <ele>19</ele>
        <time>2018-01-09T10:54:08Z</time>
      </trkpt>
      <trkpt lat="46.70856" lon="-1.91767">
        <ele>19</ele>
        <time>2018-01-09T10:55:08Z</time>
      </trkpt>
      <trkpt lat="46.70856" lon="-1.91766">
        <ele>19</ele>
        <time>2018-01-09T10:56:08Z</time>
      </trkpt>
      <trkpt lat="46.70857" lon="-1.91765">
        <ele>19</ele>
        <time>2018-01-09T10:57:08Z</time>
      </trkpt>
      <trkpt lat="46.70857" lon="-1.91764">
        <ele>19</ele>
        <time>2018-01-09T10:58:08Z</time>
      </trkpt>
      <trkpt lat="46.70858" lon="-1.91764">
        <ele>19</ele>
        <time>2018-01-09T10:59:08Z</time>
      </trkpt>
      <trkpt lat="46.70858" lon="-1.91763">
        <ele>19</ele>
        <time>2018-01-09T11:00:08Z</time>
      </trkpt>
      <trkpt lat="46.70859" lon="-1.91763">
        <ele>19</ele>
        <time>2018-01-09T11:01:08Z</time>
      </trkpt>
      <trkpt lat="46.7086" lon="-1.91763">
        <ele>19</ele>
        <time>2018-01-09T11:02:08Z</time>
      </trkpt>
      <trkpt lat="46.70861" lon="-1.91762">
        <ele>19</ele>
        <time>2018-01-09T11:03:08Z</time>
      </trkpt>
      <trkpt lat="46.70862" lon="-1.91762">
        <ele>19</ele>
        <time>2018-01-09T11:04:08Z</time>
      </trkpt>
      <trkpt lat="46.70863" lon="-1.91762">
        <ele>19</ele>
        <time>2018-01-09T11:05:08Z</time>
      </trkpt>
      <trkpt lat="46.70864" lon="-1.91762">
        <ele>19</ele>
        <time>2018-01-09T11:06:08Z</time>
      </trkpt>
      <trkpt lat="46.70865" lon="-1.91763">
        <ele>19</ele>
        <time>2018-01-09T11:07:08Z</time>
      </trkpt>
      <trkpt lat="46.70866" lon="-1.91763">
        <ele>19</ele>
        <time>2018-01-09T11:08:08Z</time>
      </trkpt>
      <trkpt lat="46.70866" lon="-1.91764">
        <ele>19</ele>
        <time>2018-01-09T11:09:08Z</time>
      </trkpt>
      <trkpt lat="46.70867" lon="-1.91764">
        <ele>19</ele>
        <time>2018-01-09T11:10:08Z</time>
      </trkpt>
      <trkpt lat="46.70868" lon="-1.91765">
        <ele>19</ele>
        <time>2018-01-09T11:11:08Z</time>
      </trkpt>
      <trkpt lat="46.70868" lon="-1.91766">
        <ele>19</ele>
        <time>2018-01-09T11:12:08Z</time>
      </trkpt>
      <trkpt lat="46.70869" lon="-1.91766">
        <ele>19</ele>
        <time>2018-01-09T11:13:08Z</time>
      </trkpt>
      <trkpt lat="46.70869" lon="-1.91767">
        <ele>19</ele>
        <time>2018-01-09T11:14:08Z</time>
      </trkpt>
      <trkpt lat="46.7087" lon="-1.91768">
        <ele>19</ele>
        <time>2018-01-09T11:15:08Z</time>
      </trkpt>
      <trkpt lat="46.7087" lon="-1.91769">
        <ele>19</ele>
        <time>2018-01-09T11:16:08Z</time>
      </trkpt>
      <trkpt lat="46.7087" lon="-1.9177">
        <ele>19</ele>
        <time>2018-01-09T11:17:08Z</time>
      </trkpt>
      <trkpt lat="46.7087" lon="-1.91771">
        <ele>19</ele>
        <time>2018-01-09T11:18:08Z</time>
      </trkpt>
      <trkpt lat="46.70871" lon="-1.91771">
        <ele>19</ele>
        <time>2018-01-09T11:19:08Z</time>
      </trkpt>
      <trkpt lat="46.70871" lon="-1.91772">
        <ele>19</ele>
        <time>2018-01-09T11:20:08Z</time>
      </trkpt>
      <trkpt lat="46.70871" lon="-1.91773">
        <ele>19</ele>
        <time>2018-01-09T11:21:08Z</time>
      </trkpt>
      <trkpt lat="46.70871" lon="-1.91774">
        <ele>19</ele>
        <time>2018-01-09T11:22:08Z</time>
      </trkpt>
      <trkpt lat="46.70871" lon="-1.91775">
        <ele>19</ele>
        <time>2018-01-09T11:23:08Z</time>
      </trkpt>
      <trkpt lat="46.70871" lon="-1.91776">
        <ele>19</ele>
        <time>2018-01-09T11:24:08Z</time>
      </trkpt>
      <trkpt lat="46.70871" lon="-1.91777">
        <ele>19</ele>
        <time>2018-01-09T11:25:08Z</time>
      </trkpt>
      <trkpt lat="46.70871" lon="-1.91778">
        <ele>19</ele>
        <time>2018-01-09T11:26:08Z</time>
      </trkpt>
      <trkpt lat="46.70871" lon="-1.91779">
        <ele>19</ele>
        <time>2018-01-09T11:27:08Z</time>
      </trkpt>
      <trkpt lat="46.7087" lon="-1.91779">
        <ele>19</ele>
        <time>2018-01-09T11:28:08Z</time>
      </trkpt>
      <trkpt lat="46.7087" lon="-1.9178">
        <ele>19</ele>
        <time>2018-01-09T11:29:08Z</time>
      </trkpt>
      <trkpt lat="46.7087" lon="-1.91781">
        <ele>19</ele>
        <time>2018-01-09T11:30:08Z</time>
      </trkpt>
      <trkpt lat="46.7087" lon="-1.91782">
        <ele>19</ele>
        <time>2018-01-09T11:31:08Z</time>
      </trkpt>
      <trkpt lat="46.70869" lon="-1.91782">
        <ele>19</ele>
        <time>2018-01-09T11:32:08Z</time>
      </trkpt>
      <trkpt lat="46.70869" lon="-1.91783">
        <ele>19</ele>
        <time>2018-01-09T11:33:08Z</time>
      </trkpt>
      <trkpt lat="46.70868" lon="-1.91784">
        <ele>19</ele>
        <time>2018-01-09T11:34:08Z</time>
      </trkpt>
      <trkpt lat="46.70868" lon="-1.91785">
        <ele>19</ele>
        <time>2018-01-09T11:35:08Z</time>
      </trkpt>
      <trkpt lat="46.70867" lon="-1.91785">
        <ele>19</ele>
        <time>2018-01-09T11:36:08Z</time>
      </trkpt>
      <trkpt lat="46.70866" lon="-1.91786">
        <ele>19</ele>
        <time>2018-01-09T11:37:08Z</time>
      </trkpt>
      <trkpt lat="46.70865" lon="-1.91786">
        <ele>19</ele>
        <time>2018-01-09T11:38:08Z</time>
      </trkpt>
      <trkpt lat="46.70864" lon="-1.91786">
        <ele>19</ele>
        <time>2018-01-09T11:39:08Z</time>
      </trkpt>
      <trkpt lat="46.70864" lon="-1.91787">
        <ele>19</ele>
        <time>2018-01-09T11:40:08Z</time>
      </trkpt>
      <trkpt lat="46.70863" lon="-1.91787">
        <ele>19</ele>
        <time>2018-01-09T11:41:08Z</time>
      </trkpt>
      <trkpt lat="46.70862" lon="-1.91787">
        <ele>19</ele>
        <time>2018-01-09T11:42:08Z</time>
      </trkpt>
      <trkpt lat="46.70861" lon="-1.91787">
        <ele>19</ele>
        <time>2018-01-09T11:43:08Z</time>
      </trkpt>
      <trkpt lat="46.70861" lon="-1.91786">
        <ele>19</ele>
        <time>2018-01-09T11:44:08Z</time>
      </trkpt>
      <trkpt lat="46.7086" lon="-1.91786">
        <ele>19</ele>
        <time>2018-01-09T11:45:08Z</time>
      </trkpt>
      <trkpt lat="46.70859" lon="-1.91786">
        <ele>19</ele>
        <time>2018-01-09T11:46:08Z</time>
      </trkpt>
      <trkpt lat="46.70859" lon="-1.91785">
        <ele>19</ele>
        <time>2018-01-09T11:47:08Z</time>
      </trkpt>
      <trkpt lat="46.70858" lon="-1.91785">
        <ele>19</ele>
        <time>2018-01-09T11:48:08Z</time>
      </trkpt>
      <trkpt lat="46.70858" lon="-1.91784">
        <ele>19</ele>
        <time>2018-01-09T11:49:08Z</time>
      </trkpt>
      <trkpt lat="46.70836" lon="-1.9181">
        <ele>20</ele>
        <time>2018-01-09T11:50:08Z</time>
      </trkpt>
      <trkpt lat="46.70799" lon="-1.91849">
        <ele>20</ele>
        <time>2018-01-09T11:51:08Z</time>
      </trkpt>
      <trkpt lat="46.70793" lon="-1.91854">
        <ele>20</ele>
        <time>2018-01-09T11:52:08Z</time>
      </trkpt>
      <trkpt lat="46.70789" lon="-1.91861">
        <ele>19</ele>
        <time>2018-01-09T11:53:08Z</time>
      </trkpt>
      <trkpt lat="46.70758" lon="-1.91893">
        <ele>19</ele>
        <time>2018-01-09T11:54:08Z</time>
      </trkpt>
      <trkpt lat="46.7073" lon="-1.91923">
        <ele>18</ele>
        <time>2018-01-09T11:55:08Z</time>
      </trkpt>
      <trkpt lat="46.70726" lon="-1.91928">
        <ele>19</ele>
        <time>2018-01-09T11:56:08Z</time>
      </trkpt>
      <trkpt lat="46.70721" lon="-1.9193">
        <ele>19</ele>
        <time>2018-01-09T11:57:08Z</time>
      </trkpt>
      <trkpt lat="46.70684" lon="-1.91967">
        <ele>19</ele>
        <time>2018-01-09T11:58:08Z</time>
      </trkpt>
      <trkpt lat="46.70677" lon="-1.91974">
        <ele>19</ele>
        <time>2018-01-09T11:59:08Z</time>
      </trkpt>
      <trkpt lat="46.70671" lon="-1.91985">
        <ele>19</ele>
        <time>2018-01-09T12:00:08Z</time>
      </trkpt>
      <trkpt lat="46.70655" lon="-1.92006">
        <ele>19</ele>
        <time>2018-01-09T12:01:08Z</time>
      </trkpt>
      <trkpt lat="46.70655" lon="-1.92006">
        <ele>19</ele>
        <time>2018-01-09T12:02:08Z</time>
      </trkpt>
      <trkpt lat="46.70655" lon="-1.92007">
        <ele>19</ele>
        <time>2018-01-09T12:03:08Z</time>
      </trkpt>
      <trkpt lat="46.70655" lon="-1.92008">
        <ele>19</ele>
        <time>2018-01-09T12:04:08Z</time>
      </trkpt>
      <trkpt lat="46.70655" lon="-1.92009">
        <ele>19</ele>
        <time>2018-01-09T12:05:08Z</time>
      </trkpt>
      <trkpt lat="46.70655" lon="-1.9201">
        <ele>19</ele>
        <time>2018-01-09T12:06:08Z</time>
      </trkpt>
      <trkpt lat="46.70655" lon="-1.92011">
        <ele>19</ele>
        <time>2018-01-09T12:07:08Z</time>
      </trkpt>
      <trkpt lat="46.70655" lon="-1.92012">
        <ele>19</ele>
        <time>2018-01-09T12:08:08Z</time>
      </trkpt>
      <trkpt lat="46.70655" lon="-1.92013">
        <ele>19</ele>
        <time>2018-01-09T12:09:08Z</time>
      </trkpt>
      <trkpt lat="46.70655" lon="-1.92014">
        <ele>19</ele>
        <time>2018-01-09T12:10:08Z</time>
      </trkpt>
      <trkpt lat="46.70655" lon="-1.92015">
        <ele>19</ele>
        <time>2018-01-09T12:11:08Z</time>
      </trkpt>
      <trkpt lat="46.70654" lon="-1.92015">
        <ele>19</ele>
        <time>2018-01-09T12:12:08Z</time>
      </trkpt>
      <trkpt lat="46.70654" lon="-1.92016">
        <ele>19</ele>
        <time>2018-01-09T12:13:08Z</time>
      </trkpt>
      <trkpt lat="46.70654" lon="-1.92017">
        <ele>19</ele>
        <time>2018-01-09T12:14:08Z</time>
      </trkpt>
      <trkpt lat="46.70654" lon="-1.92018">
        <ele>19</ele>
        <time>2018-01-09T12:15:08Z</time>
      </trkpt>
      <trkpt lat="46.70653" lon="-1.92019">
        <ele>19</ele>
        <time>2018-01-09T12:16:08Z</time>
      </trkpt>
      <trkpt lat="46.70653" lon="-1.9202">
        <ele>19</ele>
        <time>2018-01-09T12:17:08Z</time>
      </trkpt>
      <trkpt lat="46.70652" lon="-1.92021">
        <ele>19</ele>
        <time>2018-01-09T12:18:08Z</time>
      </trkpt>
      <trkpt lat="46.70652" lon="-1.92022">
        <ele>19</ele>
        <time>2018-01-09T12:19:08Z</time>
      </trkpt>
      <trkpt lat="46.70651" lon="-1.92022">
        <ele>19</ele>
        <time>2018-01-09T12:20:08Z</time>
      </trkpt>
      <trkpt lat="46.70651" lon="-1.92023">
        <ele>19</ele>
        <time>2018-01-09T12:21:08Z</time>
      </trkpt>
      <trkpt lat="46.7065" lon="-1.92023">
        <ele>19</ele>
        <time>2018-01-09T12:22:08Z</time>
      </trkpt>
      <trkpt lat="46.70649" lon="-1.92024">
        <ele>19</ele>
        <time>2018-01-09T12:23:08Z</time>
      </trkpt>
      <trkpt lat="46.70644" lon="-1.92039">
        <ele>19</ele>
        <time>2018-01-09T12:24:08Z</time>
      </trkpt>
      <trkpt lat="46.70642" lon="-1.9205">
        <ele>19</ele>
        <time>2018-01-09T12:25:08Z</time>
      </trkpt>
      <trkpt lat="46.70642" lon="-1.92056">
        <ele>19</ele>
        <time>2018-01-09T12:26:08Z</time>
      </trkpt>
      <trkpt lat="46.7064" lon="-1.92095">
        <ele>20</ele>
        <time>2018-01-09T12:27:08Z</time>
      </trkpt>
      <trkpt lat="46.7064" lon="-1.92109">
        <ele>20</ele>
        <time>2018-01-09T12:28:08Z</time>
      </trkpt>
      <trkpt lat="46.70639" lon="-1.92134">
        <ele>19</ele>
        <time>2018-01-09T12:29:08Z</time>
      </trkpt>
      <trkpt lat="46.70637" lon="-1.92186">
        <ele>19</ele>
        <time>2018-01-09T12:30:08Z</time>
      </trkpt>
      <trkpt lat="46.70634" lon="-1.92221">
        <ele>19</ele>
        <time>2018-01-09T12:31:08Z</time>
      </trkpt>
      <trkpt lat="46.70628" lon="-1.92248">
        <ele>20</ele>
        <time>2018-01-09T12:32:08Z</time>
      </trkpt>
      <trkpt lat="46.70619" lon="-1.92271">
        <ele>19</ele>
        <time>2018-01-09T12:33:08Z</time>
      </trkpt>
      <trkpt lat="46.7061" lon="-1.92289">
        <ele>19</ele>
        <time>2018-01-09T12:34:08Z</time>
      </trkpt>
      <trkpt lat="46.70602" lon="-1.92304">
        <ele>18</ele>
        <time>2018-01-09T12:35:08Z</time>
      </trkpt>
      <trkpt lat="46.70586" lon="-1.92327">
        <ele>18</ele>
        <time>2018-01-09T12:36:08Z</time>
      </trkpt>
      <trkpt lat="46.70582" lon="-1.92333">
        <ele>18</ele>
        <time>2018-01-09T12:37:08Z</time>
      </trkpt>
      <trkpt lat="46.70571" lon="-1.92356">
        <ele>17</ele>
        <time>2018-01-09T12:38:08Z</time>
      </trkpt>
      <trkpt lat="46.70562" lon="-1.92377">
        <ele>17</ele>
        <time>2018-01-09T12:39:08Z</time>
      </trkpt>
      <trkpt lat="46.70559" lon="-1.92387">
        <ele>16</ele>
        <time>2018-01-09T12:40:08Z</time>
      </trkpt>
      <trkpt lat="46.70555" lon="-1.92398">
        <ele>16</ele>
        <time>2018-01-09T12:41:08Z</time>
      </trkpt>
      <trkpt lat="46.70552" lon="-1.92414">
        <ele>16</ele>
        <time>2018-01-09T12:42:08Z</time>
      </trkpt>
      <trkpt lat="46.70546" lon="-1.92441">
        <ele>15</ele>
        <time>2018-01-09T12:43:08Z</time>
      </trkpt>
      <trkpt lat="46.70541" lon="-1.92464">
        <ele>15</ele>
        <time>2018-01-09T12:44:08Z</time>
      </trkpt>
      <trkpt lat="46.7054" lon="-1.92472">
        <ele>15</ele>
        <time>2018-01-09T12:45:08Z</time>
      </trkpt>
      <trkpt lat="46.70535" lon="-1.92496">
        <ele>14</ele>
        <time>2018-01-09T12:46:08Z</time>
      </trkpt>
      <trkpt lat="46.70534" lon="-1.925">
        <ele>14</ele>
        <time>2018-01-09T12:47:08Z</time>
      </trkpt>
      <trkpt lat="46.70533" lon="-1.92502">
        <ele>14</ele>
        <time>2018-01-09T12:48:08Z</time>
      </trkpt>
      <trkpt lat="46.70527" lon="-1.92538">
        <ele>13</ele>
        <time>2018-01-09T12:49:08Z</time>
      </trkpt>
      <trkpt lat="46.70523" lon="-1.92561">
        <ele>12</ele>
        <time>2018-01-09T12:50:08Z</time>
      </trkpt>
      <trkpt lat="46.70524" lon="-1.92565">
        <ele>12</ele>
        <time>2018-01-09T12:51:08Z</time>
      </trkpt>
      <trkpt lat="46.70525" lon="-1.92575">
        <ele>12</ele>
        <time>2018-01-09T12:52:08Z</time>
      </trkpt>
      <trkpt lat="46.70525" lon="-1.92582">
        <ele>12</ele>
        <time>2018-01-09T12:53:08Z</time>
      </trkpt>
      <trkpt lat="46.70525" lon="-1.92582">
        <ele>12</ele>
        <time>2018-01-09T12:54:08Z</time>
      </trkpt>
      <trkpt lat="46.70529" lon="-1.92587">
        <ele>12</ele>
        <time>2018-01-09T12:55:08Z</time>
      </trkpt>
      <trkpt lat="46.7053" lon="-1.92592">
        <ele>12</ele>
        <time>2018-01-09T12:56:08Z</time>
      </trkpt>
      <trkpt lat="46.70531" lon="-1.92598">
        <ele>12</ele>
        <time>2018-01-09T12:57:08Z</time>
      </trkpt>
      <trkpt lat="46.7053" lon="-1.92602">
        <ele>12</ele>
        <time>2018-01-09T12:58:08Z</time>
      </trkpt>
      <trkpt lat="46.70528" lon="-1.92606">
        <ele>12</ele>
        <time>2018-01-09T12:59:08Z</time>
      </trkpt>
      <trkpt lat="46.70527" lon="-1.92607">
        <ele>12</ele>
        <time>2018-01-09T13:00:08Z</time>
      </trkpt>
      <trkpt lat="46.70525" lon="-1.92609">
        <ele>12</ele>
        <time>2018-01-09T13:01:08Z</time>
      </trkpt>
      <trkpt lat="46.70523" lon="-1.92609">
        <ele>11</ele>
        <time>2018-01-09T13:02:08Z</time>
      </trkpt>
      <trkpt lat="46.70512" lon="-1.92624">
        <ele>11</ele>
        <time>2018-01-09T13:03:08Z</time>
      </trkpt>
      <trkpt lat="46.70507" lon="-1.92632">
        <ele>11</ele>
        <time>2018-01-09T13:04:08Z</time>
      </trkpt>
      <trkpt lat="46.70504" lon="-1.92634">
        <ele>11</ele>
        <time>2018-01-09T13:05:08Z</time>
      </trkpt>
      <trkpt lat="46.70499" lon="-1.9265">
        <ele>11</ele>
        <time>2018-01-09T13:06:08Z</time>
      </trkpt>
      <trkpt lat="46.70496" lon="-1.9267">
        <ele>11</ele>
        <time>2018-01-09T13:07:08Z</time>
      </trkpt>
      <trkpt lat="46.70489" lon="-1.92701">
        <ele>10</ele>
        <time>2018-01-09T13:08:08Z</time>
      </trkpt>
      <trkpt lat="46.70484" lon="-1.9273">
        <ele>9</ele>
        <time>2018-01-09T13:09:08Z</time>
      </trkpt>
      <trkpt lat="46.70482" lon="-1.92747">
        <ele>8</ele>
        <time>2018-01-09T13:10:08Z</time>
      </trkpt>
      <trkpt lat="46.70478" lon="-1.92796">
        <ele>8</ele>
        <time>2018-01-09T13:11:08Z</time>
      </trkpt>
      <trkpt lat="46.70475" lon="-1.92841">
        <ele>8</ele>
        <time>2018-01-09T13:12:08Z</time>
      </trkpt>
      <trkpt lat="46.70472" lon="-1.92898">
        <ele>8</ele>
        <time>2018-01-09T13:13:08Z</time>
      </trkpt>
      <trkpt lat="46.70468" lon="-1.92952">
        <ele>7</ele>
        <time>2018-01-09T13:14:08Z</time>
      </trkpt>
      <trkpt lat="46.70465" lon="-1.93009">
        <ele>6</ele>
        <time>2018-01-09T13:15:08Z</time>
      </trkpt>
      <trkpt lat="46.70462" lon="-1.93045">
        <ele>6</ele>
        <time>2018-01-09T13:16:08Z</time>
      </trkpt>
      <trkpt lat="46.70458" lon="-1.93108">
        <ele>5</ele>
        <time>2018-01-09T13:17:08Z</time>
      </trkpt>
      <trkpt lat="46.70455" lon="-1.93156">
        <ele>5</ele>
        <time>2018-01-09T13:18:08Z</time>
      </trkpt>
      <trkpt lat="46.70452" lon="-1.93209">
        <ele>4</ele>
        <time>2018-01-09T13:19:08Z</time>
      </trkpt>
      <trkpt lat="46.70449" lon="-1.93254">
        <ele>3</ele>
        <time>2018-01-09T13:20:08Z</time>
      </trkpt>
      <trkpt lat="46.70449" lon="-1.93267">
        <ele>3</ele>
        <time>2018-01-09T13:21:08Z</time>
      </trkpt>
      <trkpt lat="46.70449" lon="-1.93267">
        <ele>3</ele>
        <time>2018-01-09T13:22:08Z</time>
      </trkpt>
      <trkpt lat="46.70439" lon="-1.93265">
        <ele>3</ele>
        <time>2018-01-09T13:23:08Z</time>
      </trkpt>
      <trkpt lat="46.70429" lon="-1.93262">
        <ele>3</ele>
        <time>2018-01-09T13:24:08Z</time>
      </trkpt>
      <trkpt lat="46.70419" lon="-1.93258">
        <ele>3</ele>
        <time>2018-01-09T13:25:08Z</time>
      </trkpt>
      <trkpt lat="46.70398" lon="-1.93249">
        <ele>3</ele>
        <time>2018-01-09T13:26:08Z</time>
      </trkpt>
      <trkpt lat="46.70362" lon="-1.9324">
        <ele>2</ele>
        <time>2018-01-09T13:27:08Z</time>
      </trkpt>
      <trkpt lat="46.70328" lon="-1.93232">
        <ele>2</ele>
        <time>2018-01-09T13:28:08Z</time>
      </trkpt>
      <trkpt lat="46.70304" lon="-1.9323">
        <ele>2</ele>
        <time>2018-01-09T13:29:08Z</time>
      </trkpt>
      <trkpt lat="46.70304" lon="-1.9323">
        <ele>2</ele>
        <time>2018-01-09T13:30:08Z</time>
      </trkpt>
      <trkpt lat="46.70295" lon="-1.93245">
        <ele>2</ele>
        <time>2018-01-09T13:31:08Z</time>
      </trkpt>
      <trkpt lat="46.70288" lon="-1.93253">
        <ele>2</ele>
        <time>2018-01-09T13:32:08Z</time>
      </trkpt>
      <trkpt lat="46.7028" lon="-1.9326">
        <ele>2</ele>
        <time>2018-01-09T13:33:08Z</time>
      </trkpt>
      <trkpt lat="46.70276" lon="-1.93263">
        <ele>2</ele>
        <time>2018-01-09T13:34:08Z</time>
      </trkpt>
      <trkpt lat="46.70263" lon="-1.93271">
        <ele>2</ele>
        <time>2018-01-09T13:35:08Z</time>
      </trkpt>
      <trkpt lat="46.70251" lon="-1.9328">
        <ele>2</ele>
        <time>2018-01-09T13:36:08Z</time>
      </trkpt>
      <trkpt lat="46.70239" lon="-1.93295">
        <ele>2</ele>
        <time>2018-01-09T13:37:08Z</time>
      </trkpt>
      <trkpt lat="46.70224" lon="-1.9332">
        <ele>1</ele>
        <time>2018-01-09T13:38:08Z</time>
      </trkpt>
      <trkpt lat="46.70216" lon="-1.93332">
        <ele>1</ele>
        <time>2018-01-09T13:39:08Z</time>
      </trkpt>
      <trkpt lat="46.70211" lon="-1.9334">
        <ele>1</ele>
        <time>2018-01-09T13:40:08Z</time>
      </trkpt>
      <trkpt lat="46.70205" lon="-1.93347">
        <ele>1</ele>
        <time>2018-01-09T13:41:08Z</time>
      </trkpt>
      <trkpt lat="46.70194" lon="-1.93356">
        <ele>1</ele>
        <time>2018-01-09T13:42:08Z</time>
      </trkpt>
      <trkpt lat="46.70181" lon="-1.93366">
        <ele>2</ele>
        <time>2018-01-09T13:43:08Z</time>
      </trkpt>
      <trkpt lat="46.70173" lon="-1.93372">
        <ele>1</ele>
        <time>2018-01-09T13:44:08Z</time>
      </trkpt>
      <trkpt lat="46.7017" lon="-1.93374">
        <ele>1</ele>
        <time>2018-01-09T13:45:08Z</time>
      </trkpt>
      <trkpt lat="46.70166" lon="-1.9338">
        <ele>1</ele>
        <time>2018-01-09T13:46:08Z</time>
      </trkpt>
      <trkpt lat="46.70161" lon="-1.93382">
        <ele>1</ele>
        <time>2018-01-09T13:47:08Z</time>
      </trkpt>
      <trkpt lat="46.70152" lon="-1.93386">
        <ele>1</ele>
        <time>2018-01-09T13:48:08Z</time>
      </trkpt>
      <trkpt lat="46.70141" lon="-1.93391">
        <ele>1</ele>
        <time>2018-01-09T13:49:08Z</time>
      </trkpt>
      <trkpt lat="46.70141" lon="-1.93391">
        <ele>1</ele>
        <time>2018-01-09T13:50:08Z</time>
      </trkpt>
      <trkpt lat="46.70141" lon="-1.93393">
        <ele>1</ele>
        <time>2018-01-09T13:51:08Z</time>
      </trkpt>
      <trkpt lat="46.70141" lon="-1.93394">
        <ele>1</ele>
        <time>2018-01-09T13:52:08Z</time>
      </trkpt>
      <trkpt lat="46.70141" lon="-1.93395">
        <ele>1</ele>
        <time>2018-01-09T13:53:08Z</time>
      </trkpt>
      <trkpt lat="46.7014" lon="-1.93396">
        <ele>1</ele>
        <time>2018-01-09T13:54:08Z</time>
      </trkpt>
      <trkpt lat="46.7014" lon="-1.93397">
        <ele>1</ele>
        <time>2018-01-09T13:55:08Z</time>
      </trkpt>
      <trkpt lat="46.7014" lon="-1.93398">
        <ele>1</ele>
        <time>2018-01-09T13:56:08Z</time>
      </trkpt>
      <trkpt lat="46.70139" lon="-1.93399">
        <ele>1</ele>
        <time>2018-01-09T13:57:08Z</time>
      </trkpt>
      <trkpt lat="46.70139" lon="-1.93401">
        <ele>1</ele>
        <time>2018-01-09T13:58:08Z</time>
      </trkpt>
      <trkpt lat="46.70138" lon="-1.93402">
        <ele>1</ele>
        <time>2018-01-09T13:59:08Z</time>
      </trkpt>
      <trkpt lat="46.70138" lon="-1.93403">
        <ele>1</ele>
        <time>2018-01-09T14:00:08Z</time>
      </trkpt>
      <trkpt lat="46.70137" lon="-1.93403">
        <ele>1</ele>
        <time>2018-01-09T14:01:08Z</time>
      </trkpt>
      <trkpt lat="46.70136" lon="-1.93404">
        <ele>1</ele>
        <time>2018-01-09T14:02:08Z</time>
      </trkpt>
      <trkpt lat="46.70136" lon="-1.93405">
        <ele>1</ele>
        <time>2018-01-09T14:03:08Z</time>
      </trkpt>
      <trkpt lat="46.70135" lon="-1.93406">
        <ele>1</ele>
        <time>2018-01-09T14:04:08Z</time>
      </trkpt>
      <trkpt lat="46.70134" lon="-1.93406">
        <ele>1</ele>
        <time>2018-01-09T14:05:08Z</time>
      </trkpt>
      <trkpt lat="46.70133" lon="-1.93407">
        <ele>1</ele>
        <time>2018-01-09T14:06:08Z</time>
      </trkpt>
      <trkpt lat="46.70132" lon="-1.93408">
        <ele>1</ele>
        <time>2018-01-09T14:07:08Z</time>
      </trkpt>
      <trkpt lat="46.70131" lon="-1.93408">
        <ele>1</ele>
        <time>2018-01-09T14:08:08Z</time>
      </trkpt>
      <trkpt lat="46.7013" lon="-1.93409">
        <ele>1</ele>
        <time>2018-01-09T14:09:08Z</time>
      </trkpt>
      <trkpt lat="46.70129" lon="-1.93409">
        <ele>1</ele>
        <time>2018-01-09T14:10:08Z</time>
      </trkpt>
      <trkpt lat="46.70128" lon="-1.93409">
        <ele>1</ele>
        <time>2018-01-09T14:11:08Z</time>
      </trkpt>
      <trkpt lat="46.70127" lon="-1.93409">
        <ele>1</ele>
        <time>2018-01-09T14:12:08Z</time>
      </trkpt>
      <trkpt lat="46.70126" lon="-1.93409">
        <ele>1</ele>
        <time>2018-01-09T14:13:08Z</time>
      </trkpt>
      <trkpt lat="46.70125" lon="-1.93409">
        <ele>1</ele>
        <time>2018-01-09T14:14:08Z</time>
      </trkpt>
      <trkpt lat="46.70124" lon="-1.93408">
        <ele>2</ele>
        <time>2018-01-09T14:15:08Z</time>
      </trkpt>
      <trkpt lat="46.70123" lon="-1.93408">
        <ele>2</ele>
        <time>2018-01-09T14:16:08Z</time>
      </trkpt>
      <trkpt lat="46.70122" lon="-1.93407">
        <ele>2</ele>
        <time>2018-01-09T14:17:08Z</time>
      </trkpt>
      <trkpt lat="46.70121" lon="-1.93407">
        <ele>2</ele>
        <time>2018-01-09T14:18:08Z</time>
      </trkpt>
      <trkpt lat="46.7012" lon="-1.93406">
        <ele>2</ele>
        <time>2018-01-09T14:19:08Z</time>
      </trkpt>
      <trkpt lat="46.7012" lon="-1.93405">
        <ele>2</ele>
        <time>2018-01-09T14:20:08Z</time>
      </trkpt>
      <trkpt lat="46.70119" lon="-1.93405">
        <ele>2</ele>
        <time>2018-01-09T14:21:08Z</time>
      </trkpt>
      <trkpt lat="46.70107" lon="-1.93404">
        <ele>2</ele>
        <time>2018-01-09T14:22:08Z</time>
      </trkpt>
      <trkpt lat="46.701" lon="-1.93405">
        <ele>2</ele>
        <time>2018-01-09T14:23:08Z</time>
      </trkpt>
      <trkpt lat="46.70092" lon="-1.93406">
        <ele>2</ele>
        <time>2018-01-09T14:24:08Z</time>
      </trkpt>
      <trkpt lat="46.70088" lon="-1.93406">
        <ele>2</ele>
        <time>2018-01-09T14:25:08Z</time>
      </trkpt>
      <trkpt lat="46.70085" lon="-1.93405">
        <ele>2</ele>
        <time>2018-01-09T14:26:08Z</time>
      </trkpt>
      <trkpt lat="46.70083" lon="-1.93405">
        <ele>2</ele>
        <time>2018-01-09T14:27:08Z</time>
      </trkpt>
      <trkpt lat="46.70062" lon="-1.93405">
        <ele>2</ele>
        <time>2018-01-09T14:28:08Z</time>
      </trkpt>
      <trkpt lat="46.70062" lon="-1.93406">
        <ele>2</ele>
        <time>2018-01-09T14:29:08Z</time>
      </trkpt>
      <trkpt lat="46.70062" lon="-1.93407">
        <ele>2</ele>
        <time>2018-01-09T14:30:08Z</time>
      </trkpt>
      <trkpt lat="46.70062" lon="-1.93408">
        <ele>2</ele>
        <time>2018-01-09T14:31:08Z</time>
      </trkpt>
      <trkpt lat="46.70062" lon="-1.93409">
        <ele>2</ele>
        <time>2018-01-09T14:32:08Z</time>
      </trkpt>
      <trkpt lat="46.70062" lon="-1.9341">
        <ele>2</ele>
        <time>2018-01-09T14:33:08Z</time>
      </trkpt>
      <trkpt lat="46.70061" lon="-1.9341">
        <ele>2</ele>
        <time>2018-01-09T14:34:08Z</time>
      </trkpt>
      <trkpt lat="46.70061" lon="-1.93411">
        <ele>2</ele>
        <time>2018-01-09T14:35:08Z</time>
      </trkpt>
      <trkpt lat="46.7006" lon="-1.93411">
        <ele>2</ele>
        <time>2018-01-09T14:36:08Z</time>
      </trkpt>
      <trkpt lat="46.7006" lon="-1.93412">
        <ele>2</ele>
        <time>2018-01-09T14:37:08Z</time>
      </trkpt>
      <trkpt lat="46.70059" lon="-1.93412">
        <ele>2</ele>
        <time>2018-01-09T14:38:08Z</time>
      </trkpt>
      <trkpt lat="46.70059" lon="-1.93413">
        <ele>2</ele>
        <time>2018-01-09T14:39:08Z</time>
      </trkpt>
      <trkpt lat="46.70058" lon="-1.93413">
        <ele>2</ele>
        <time>2018-01-09T14:40:08Z</time>
      </trkpt>
      <trkpt lat="46.70057" lon="-1.93413">
        <ele>2</ele>
        <time>2018-01-09T14:41:08Z</time>
      </trkpt>
      <trkpt lat="46.70056" lon="-1.93413">
        <ele>2</ele>
        <time>2018-01-09T14:42:08Z</time>
      </trkpt>
      <trkpt lat="46.70055" lon="-1.93413">
        <ele>2</ele>
        <time>2018-01-09T14:43:08Z</time>
      </trkpt>
      <trkpt lat="46.70055" lon="-1.93412">
        <ele>2</ele>
        <time>2018-01-09T14:44:08Z</time>
      </trkpt>
      <trkpt lat="46.70054" lon="-1.93412">
        <ele>2</ele>
        <time>2018-01-09T14:45:08Z</time>
      </trkpt>
      <trkpt lat="46.70054" lon="-1.93411">
        <ele>2</ele>
        <time>2018-01-09T14:46:08Z</time>
      </trkpt>
      <trkpt lat="46.70053" lon="-1.93411">
        <ele>2</ele>
        <time>2018-01-09T14:47:08Z</time>
      </trkpt>
      <trkpt lat="46.70053" lon="-1.9341">
        <ele>2</ele>
        <time>2018-01-09T14:48:08Z</time>
      </trkpt>
      <trkpt lat="46.70053" lon="-1.93409">
        <ele>2</ele>
        <time>2018-01-09T14:49:08Z</time>
      </trkpt>
      <trkpt lat="46.70052" lon="-1.93409">
        <ele>2</ele>
        <time>2018-01-09T14:50:08Z</time>
      </trkpt>
      <trkpt lat="46.70052" lon="-1.93408">
        <ele>2</ele>
        <time>2018-01-09T14:51:08Z</time>
      </trkpt>
      <trkpt lat="46.70052" lon="-1.93407">
        <ele>2</ele>
        <time>2018-01-09T14:52:08Z</time>
      </trkpt>
      <trkpt lat="46.70052" lon="-1.93406">
        <ele>2</ele>
        <time>2018-01-09T14:53:08Z</time>
      </trkpt>
      <trkpt lat="46.70052" lon="-1.93405">
        <ele>2</ele>
        <time>2018-01-09T14:54:08Z</time>
      </trkpt>
      <trkpt lat="46.70046" lon="-1.93402">
        <ele>2</ele>
        <time>2018-01-09T14:55:08Z</time>
      </trkpt>
      <trkpt lat="46.70043" lon="-1.93401">
        <ele>2</ele>
        <time>2018-01-09T14:56:08Z</time>
      </trkpt>
      <trkpt lat="46.70041" lon="-1.934">
        <ele>2</ele>
        <time>2018-01-09T14:57:08Z</time>
      </trkpt>
      <trkpt lat="46.70038" lon="-1.93398">
        <ele>2</ele>
        <time>2018-01-09T14:58:08Z</time>
      </trkpt>
      <trkpt lat="46.70036" lon="-1.93397">
        <ele>2</ele>
        <time>2018-01-09T14:59:08Z</time>
      </trkpt>
      <trkpt lat="46.70033" lon="-1.93394">
        <ele>2</ele>
        <time>2018-01-09T15:00:08Z</time>
      </trkpt>
      <trkpt lat="46.7003" lon="-1.93391">
        <ele>3</ele>
        <time>2018-01-09T15:01:08Z</time>
      </trkpt>
      <trkpt lat="46.70028" lon="-1.93388">
        <ele>3</ele>
        <time>2018-01-09T15:02:08Z</time>
      </trkpt>
      <trkpt lat="46.70025" lon="-1.93386">
        <ele>3</ele>
        <time>2018-01-09T15:03:08Z</time>
      </trkpt>
      <trkpt lat="46.70023" lon="-1.93384">
        <ele>3</ele>
        <time>2018-01-09T15:04:08Z</time>
      </trkpt>
      <trkpt lat="46.7002" lon="-1.93382">
        <ele>3</ele>
        <time>2018-01-09T15:05:08Z</time>
      </trkpt>
      <trkpt lat="46.70015" lon="-1.9338">
        <ele>3</ele>
        <time>2018-01-09T15:06:08Z</time>
      </trkpt>
      <trkpt lat="46.70002" lon="-1.93375">
        <ele>3</ele>
        <time>2018-01-09T15:07:08Z</time>
      </trkpt>
      <trkpt lat="46.69987" lon="-1.93369">
        <ele>3</ele>
        <time>2018-01-09T15:08:08Z</time>
      </trkpt>
      <trkpt lat="46.69982" lon="-1.93367">
        <ele>3</ele>
        <time>2018-01-09T15:09:08Z</time>
      </trkpt>
      <trkpt lat="46.69979" lon="-1.93366">
        <ele>3</ele>
        <time>2018-01-09T15:10:08Z</time>
      </trkpt>
      <trkpt lat="46.69978" lon="-1.93366">
        <ele>3</ele>
        <time>2018-01-09T15:11:08Z</time>
      </trkpt>
      <trkpt lat="46.69976" lon="-1.93367">
        <ele>4</ele>
        <time>2018-01-09T15:12:08Z</time>
      </trkpt>
      <trkpt lat="46.69973" lon="-1.93367">
        <ele>4</ele>
        <time>2018-01-09T15:13:08Z</time>
      </trkpt>
      <trkpt lat="46.69969" lon="-1.9337">
        <ele>4</ele>
        <time>2018-01-09T15:14:08Z</time>
      </trkpt>
      <trkpt lat="46.69963" lon="-1.93373">
        <ele>4</ele>
        <time>2018-01-09T15:15:08Z</time>
      </trkpt>
      <trkpt lat="46.69958" lon="-1.93375">
        <ele>4</ele>
        <time>2018-01-09T15:16:08Z</time>
      </trkpt>
      <trkpt lat="46.69953" lon="-1.93377">
        <ele>4</ele>
        <time>2018-01-09T15:17:08Z</time>
      </trkpt>
      <trkpt lat="46.69949" lon="-1.93379">
        <ele>4</ele>
        <time>2018-01-09T15:18:08Z</time>
      </trkpt>
      <trkpt lat="46.69944" lon="-1.93381">
        <ele>4</ele>
        <time>2018-01-09T15:19:08Z</time>
      </trkpt>
      <trkpt lat="46.69935" lon="-1.93382">
        <ele>4</ele>
        <time>2018-01-09T15:20:08Z</time>
      </trkpt>
      <trkpt lat="46.69925" lon="-1.93383">
        <ele>4</ele>
        <time>2018-01-09T15:21:08Z</time>
      </trkpt>
      <trkpt lat="46.69922" lon="-1.93383">
        <ele>4</ele>
        <time>2018-01-09T15:22:08Z</time>
      </trkpt>
      <trkpt lat="46.69921" lon="-1.93383">
        <ele>4</ele>
        <time>2018-01-09T15:23:08Z</time>
      </trkpt>
    </trkseg>
  </trk>
</gpx>